<?xml version="1.0" encoding="UTF-8" standalone="no" ?>
<gpx xmlns="http://www.topografix.com/GPX/1/1" xmlns:xsi="http://www.w3.org/2001/XMLSchema-instance" xsi:schemaLocation="http://www.topografix.com/GPX/1/1 http://www.topografix.com/GPX/1/1/gpx.xsd" version="1.1" creator="VisuGPX - https://www.visugpx.com">
  <metadata>
    <name>[27/05/2018] Val de Seine Tout Terrain</name>
    <desc><![CDATA[Grand parcours de la val de seine tout terrain organisée par Les Guidons à Crampons (Aubevoye)]]></desc>
  </metadata>
  <trk>
    <name><![CDATA[[27/05/2018] Val de Seine Tout Terrain_1]]></name>
    <trkseg>
      <trkpt lat="49.18305" lon="1.33184">
        <ele>115.90332</ele>
        <time>2018-05-27T06:00:31Z</time>
      </trkpt>
      <trkpt lat="49.18302" lon="1.33183">
        <ele>115.90332</ele>
        <time>2018-05-27T06:00:32Z</time>
      </trkpt>
      <trkpt lat="49.1829" lon="1.33179">
        <ele>115.94339</ele>
        <time>2018-05-27T06:00:35Z</time>
      </trkpt>
      <trkpt lat="49.18277" lon="1.33176">
        <ele>115.865799</ele>
        <time>2018-05-27T06:00:38Z</time>
      </trkpt>
      <trkpt lat="49.18264" lon="1.33174">
        <ele>115.669266</ele>
        <time>2018-05-27T06:00:41Z</time>
      </trkpt>
      <trkpt lat="49.18251" lon="1.33174">
        <ele>115.5</ele>
        <time>2018-05-27T06:00:44Z</time>
      </trkpt>
      <trkpt lat="49.18238" lon="1.33175">
        <ele>115.1</ele>
        <time>2018-05-27T06:00:47Z</time>
      </trkpt>
      <trkpt lat="49.18225" lon="1.33177">
        <ele>114.8</ele>
        <time>2018-05-27T06:00:50Z</time>
      </trkpt>
      <trkpt lat="49.18211" lon="1.33178">
        <ele>114.5</ele>
        <time>2018-05-27T06:00:53Z</time>
      </trkpt>
      <trkpt lat="49.18199" lon="1.3318">
        <ele>114.3</ele>
        <time>2018-05-27T06:00:56Z</time>
      </trkpt>
      <trkpt lat="49.18186" lon="1.33182">
        <ele>114.1</ele>
        <time>2018-05-27T06:00:59Z</time>
      </trkpt>
      <trkpt lat="49.18174" lon="1.33183">
        <ele>113.9</ele>
        <time>2018-05-27T06:01:02Z</time>
      </trkpt>
      <trkpt lat="49.18162" lon="1.33186">
        <ele>113.7</ele>
        <time>2018-05-27T06:01:05Z</time>
      </trkpt>
      <trkpt lat="49.1815" lon="1.3319">
        <ele>113.7</ele>
        <time>2018-05-27T06:01:08Z</time>
      </trkpt>
      <trkpt lat="49.18138" lon="1.33194">
        <ele>113.7</ele>
        <time>2018-05-27T06:01:11Z</time>
      </trkpt>
      <trkpt lat="49.18126" lon="1.33199">
        <ele>113.7</ele>
        <time>2018-05-27T06:01:14Z</time>
      </trkpt>
      <trkpt lat="49.18116" lon="1.33202">
        <ele>113.5</ele>
        <time>2018-05-27T06:01:17Z</time>
      </trkpt>
      <trkpt lat="49.18124" lon="1.33211">
        <ele>112.8</ele>
        <time>2018-05-27T06:01:37Z</time>
      </trkpt>
      <trkpt lat="49.18125" lon="1.33226">
        <ele>112.7</ele>
        <time>2018-05-27T06:01:41Z</time>
      </trkpt>
      <trkpt lat="49.18125" lon="1.33244">
        <ele>112.8</ele>
        <time>2018-05-27T06:01:44Z</time>
      </trkpt>
      <trkpt lat="49.18125" lon="1.33264">
        <ele>112.7</ele>
        <time>2018-05-27T06:01:47Z</time>
      </trkpt>
      <trkpt lat="49.18127" lon="1.33284">
        <ele>112.6</ele>
        <time>2018-05-27T06:01:50Z</time>
      </trkpt>
      <trkpt lat="49.18128" lon="1.33298">
        <ele>112.5</ele>
        <time>2018-05-27T06:01:52Z</time>
      </trkpt>
      <trkpt lat="49.18129" lon="1.33313">
        <ele>112.5</ele>
        <time>2018-05-27T06:01:54Z</time>
      </trkpt>
      <trkpt lat="49.1813" lon="1.33328">
        <ele>112.4</ele>
        <time>2018-05-27T06:01:56Z</time>
      </trkpt>
      <trkpt lat="49.18131" lon="1.33349">
        <ele>112</ele>
        <time>2018-05-27T06:01:59Z</time>
      </trkpt>
      <trkpt lat="49.18131" lon="1.33372">
        <ele>112.8</ele>
        <time>2018-05-27T06:02:02Z</time>
      </trkpt>
      <trkpt lat="49.18129" lon="1.33387">
        <ele>112.7</ele>
        <time>2018-05-27T06:02:04Z</time>
      </trkpt>
      <trkpt lat="49.18125" lon="1.33401">
        <ele>112.8</ele>
        <time>2018-05-27T06:02:06Z</time>
      </trkpt>
      <trkpt lat="49.18121" lon="1.33415">
        <ele>112.7</ele>
        <time>2018-05-27T06:02:08Z</time>
      </trkpt>
      <trkpt lat="49.18117" lon="1.33428">
        <ele>112.6</ele>
        <time>2018-05-27T06:02:10Z</time>
      </trkpt>
      <trkpt lat="49.18113" lon="1.33448">
        <ele>112.5</ele>
        <time>2018-05-27T06:02:13Z</time>
      </trkpt>
      <trkpt lat="49.1811" lon="1.33461">
        <ele>112.5</ele>
        <time>2018-05-27T06:02:15Z</time>
      </trkpt>
      <trkpt lat="49.18108" lon="1.33475">
        <ele>112.6</ele>
        <time>2018-05-27T06:02:17Z</time>
      </trkpt>
      <trkpt lat="49.18109" lon="1.33489">
        <ele>112.5</ele>
        <time>2018-05-27T06:02:19Z</time>
      </trkpt>
      <trkpt lat="49.18114" lon="1.33501">
        <ele>112.6</ele>
        <time>2018-05-27T06:02:21Z</time>
      </trkpt>
      <trkpt lat="49.18121" lon="1.33508">
        <ele>112.4</ele>
        <time>2018-05-27T06:02:23Z</time>
      </trkpt>
      <trkpt lat="49.18131" lon="1.33508">
        <ele>112.3</ele>
        <time>2018-05-27T06:02:25Z</time>
      </trkpt>
      <trkpt lat="49.18141" lon="1.33507">
        <ele>112.2</ele>
        <time>2018-05-27T06:02:27Z</time>
      </trkpt>
      <trkpt lat="49.18151" lon="1.33511">
        <ele>112.1</ele>
        <time>2018-05-27T06:02:29Z</time>
      </trkpt>
      <trkpt lat="49.1816" lon="1.33519">
        <ele>112</ele>
        <time>2018-05-27T06:02:31Z</time>
      </trkpt>
      <trkpt lat="49.18169" lon="1.33526">
        <ele>111.8</ele>
        <time>2018-05-27T06:02:33Z</time>
      </trkpt>
      <trkpt lat="49.18178" lon="1.33536">
        <ele>111.7</ele>
        <time>2018-05-27T06:02:35Z</time>
      </trkpt>
      <trkpt lat="49.18186" lon="1.33547">
        <ele>111.6</ele>
        <time>2018-05-27T06:02:37Z</time>
      </trkpt>
      <trkpt lat="49.18194" lon="1.33561">
        <ele>111.4</ele>
        <time>2018-05-27T06:02:39Z</time>
      </trkpt>
      <trkpt lat="49.18202" lon="1.33577">
        <ele>111.2</ele>
        <time>2018-05-27T06:02:41Z</time>
      </trkpt>
      <trkpt lat="49.18208" lon="1.33595">
        <ele>111.1</ele>
        <time>2018-05-27T06:02:43Z</time>
      </trkpt>
      <trkpt lat="49.18214" lon="1.33613">
        <ele>110.9</ele>
        <time>2018-05-27T06:02:45Z</time>
      </trkpt>
      <trkpt lat="49.18219" lon="1.33632">
        <ele>110.8</ele>
        <time>2018-05-27T06:02:47Z</time>
      </trkpt>
      <trkpt lat="49.18224" lon="1.3365">
        <ele>110.8</ele>
        <time>2018-05-27T06:02:49Z</time>
      </trkpt>
      <trkpt lat="49.18229" lon="1.33667">
        <ele>110.8</ele>
        <time>2018-05-27T06:02:51Z</time>
      </trkpt>
      <trkpt lat="49.18235" lon="1.33684">
        <ele>110.8</ele>
        <time>2018-05-27T06:02:53Z</time>
      </trkpt>
      <trkpt lat="49.18241" lon="1.337">
        <ele>110.7</ele>
        <time>2018-05-27T06:02:55Z</time>
      </trkpt>
      <trkpt lat="49.18247" lon="1.33716">
        <ele>110.7</ele>
        <time>2018-05-27T06:02:57Z</time>
      </trkpt>
      <trkpt lat="49.18254" lon="1.3373">
        <ele>110.6</ele>
        <time>2018-05-27T06:02:59Z</time>
      </trkpt>
      <trkpt lat="49.18261" lon="1.33745">
        <ele>110.7</ele>
        <time>2018-05-27T06:03:01Z</time>
      </trkpt>
      <trkpt lat="49.18268" lon="1.33759">
        <ele>110.6</ele>
        <time>2018-05-27T06:03:03Z</time>
      </trkpt>
      <trkpt lat="49.18276" lon="1.33773">
        <ele>110.6</ele>
        <time>2018-05-27T06:03:05Z</time>
      </trkpt>
      <trkpt lat="49.18284" lon="1.33787">
        <ele>110.4</ele>
        <time>2018-05-27T06:03:07Z</time>
      </trkpt>
      <trkpt lat="49.18292" lon="1.33801">
        <ele>110.5</ele>
        <time>2018-05-27T06:03:09Z</time>
      </trkpt>
      <trkpt lat="49.183" lon="1.33814">
        <ele>110.5</ele>
        <time>2018-05-27T06:03:11Z</time>
      </trkpt>
      <trkpt lat="49.18308" lon="1.33828">
        <ele>110</ele>
        <time>2018-05-27T06:03:13Z</time>
      </trkpt>
      <trkpt lat="49.1832" lon="1.33848">
        <ele>110.5</ele>
        <time>2018-05-27T06:03:16Z</time>
      </trkpt>
      <trkpt lat="49.18328" lon="1.3386">
        <ele>110</ele>
        <time>2018-05-27T06:03:18Z</time>
      </trkpt>
      <trkpt lat="49.18339" lon="1.33879">
        <ele>110.9</ele>
        <time>2018-05-27T06:03:21Z</time>
      </trkpt>
      <trkpt lat="49.18346" lon="1.33891">
        <ele>111.1</ele>
        <time>2018-05-27T06:03:23Z</time>
      </trkpt>
      <trkpt lat="49.18353" lon="1.33904">
        <ele>111.2</ele>
        <time>2018-05-27T06:03:25Z</time>
      </trkpt>
      <trkpt lat="49.18361" lon="1.33917">
        <ele>111</ele>
        <time>2018-05-27T06:03:27Z</time>
      </trkpt>
      <trkpt lat="49.18368" lon="1.33927">
        <ele>110.9</ele>
        <time>2018-05-27T06:03:29Z</time>
      </trkpt>
      <trkpt lat="49.1837" lon="1.33941">
        <ele>110.6</ele>
        <time>2018-05-27T06:03:32Z</time>
      </trkpt>
      <trkpt lat="49.18369" lon="1.33957">
        <ele>110.1</ele>
        <time>2018-05-27T06:03:37Z</time>
      </trkpt>
      <trkpt lat="49.18361" lon="1.33973">
        <ele>109.9</ele>
        <time>2018-05-27T06:03:40Z</time>
      </trkpt>
      <trkpt lat="49.18355" lon="1.33987">
        <ele>109.9</ele>
        <time>2018-05-27T06:03:42Z</time>
      </trkpt>
      <trkpt lat="49.18349" lon="1.34">
        <ele>109.9</ele>
        <time>2018-05-27T06:03:44Z</time>
      </trkpt>
      <trkpt lat="49.18342" lon="1.34013">
        <ele>109.8</ele>
        <time>2018-05-27T06:03:46Z</time>
      </trkpt>
      <trkpt lat="49.18335" lon="1.34027">
        <ele>109.9</ele>
        <time>2018-05-27T06:03:48Z</time>
      </trkpt>
      <trkpt lat="49.18328" lon="1.34042">
        <ele>109.9</ele>
        <time>2018-05-27T06:03:50Z</time>
      </trkpt>
      <trkpt lat="49.18321" lon="1.34057">
        <ele>109.8</ele>
        <time>2018-05-27T06:03:52Z</time>
      </trkpt>
      <trkpt lat="49.18314" lon="1.34071">
        <ele>109.9</ele>
        <time>2018-05-27T06:03:54Z</time>
      </trkpt>
      <trkpt lat="49.18307" lon="1.34085">
        <ele>109.8</ele>
        <time>2018-05-27T06:03:56Z</time>
      </trkpt>
      <trkpt lat="49.18301" lon="1.34097">
        <ele>109.8</ele>
        <time>2018-05-27T06:03:58Z</time>
      </trkpt>
      <trkpt lat="49.18294" lon="1.3411">
        <ele>109.8</ele>
        <time>2018-05-27T06:04:00Z</time>
      </trkpt>
      <trkpt lat="49.18288" lon="1.34123">
        <ele>109.8</ele>
        <time>2018-05-27T06:04:02Z</time>
      </trkpt>
      <trkpt lat="49.18281" lon="1.34137">
        <ele>109.9</ele>
        <time>2018-05-27T06:04:04Z</time>
      </trkpt>
      <trkpt lat="49.18274" lon="1.34151">
        <ele>110</ele>
        <time>2018-05-27T06:04:06Z</time>
      </trkpt>
      <trkpt lat="49.18267" lon="1.34165">
        <ele>110.1</ele>
        <time>2018-05-27T06:04:08Z</time>
      </trkpt>
      <trkpt lat="49.18261" lon="1.34178">
        <ele>110.2</ele>
        <time>2018-05-27T06:04:10Z</time>
      </trkpt>
      <trkpt lat="49.18254" lon="1.34192">
        <ele>110.1</ele>
        <time>2018-05-27T06:04:12Z</time>
      </trkpt>
      <trkpt lat="49.18248" lon="1.34207">
        <ele>109.9</ele>
        <time>2018-05-27T06:04:14Z</time>
      </trkpt>
      <trkpt lat="49.18241" lon="1.34222">
        <ele>109.9</ele>
        <time>2018-05-27T06:04:16Z</time>
      </trkpt>
      <trkpt lat="49.18234" lon="1.34236">
        <ele>109.7</ele>
        <time>2018-05-27T06:04:18Z</time>
      </trkpt>
      <trkpt lat="49.18228" lon="1.3425">
        <ele>110.1</ele>
        <time>2018-05-27T06:04:20Z</time>
      </trkpt>
      <trkpt lat="49.18221" lon="1.34264">
        <ele>110.1</ele>
        <time>2018-05-27T06:04:22Z</time>
      </trkpt>
      <trkpt lat="49.18215" lon="1.34278">
        <ele>110.1</ele>
        <time>2018-05-27T06:04:24Z</time>
      </trkpt>
      <trkpt lat="49.18209" lon="1.34291">
        <ele>110.1</ele>
        <time>2018-05-27T06:04:26Z</time>
      </trkpt>
      <trkpt lat="49.18202" lon="1.34305">
        <ele>110.1</ele>
        <time>2018-05-27T06:04:28Z</time>
      </trkpt>
      <trkpt lat="49.18195" lon="1.3432">
        <ele>109.9</ele>
        <time>2018-05-27T06:04:30Z</time>
      </trkpt>
      <trkpt lat="49.18188" lon="1.34333">
        <ele>109.8</ele>
        <time>2018-05-27T06:04:32Z</time>
      </trkpt>
      <trkpt lat="49.18182" lon="1.34347">
        <ele>109.9</ele>
        <time>2018-05-27T06:04:34Z</time>
      </trkpt>
      <trkpt lat="49.18175" lon="1.34361">
        <ele>109.6</ele>
        <time>2018-05-27T06:04:36Z</time>
      </trkpt>
      <trkpt lat="49.18168" lon="1.34376">
        <ele>109.6</ele>
        <time>2018-05-27T06:04:38Z</time>
      </trkpt>
      <trkpt lat="49.18161" lon="1.34389">
        <ele>109.6</ele>
        <time>2018-05-27T06:04:40Z</time>
      </trkpt>
      <trkpt lat="49.18155" lon="1.34403">
        <ele>109.5</ele>
        <time>2018-05-27T06:04:42Z</time>
      </trkpt>
      <trkpt lat="49.1815" lon="1.34417">
        <ele>109.5</ele>
        <time>2018-05-27T06:04:44Z</time>
      </trkpt>
      <trkpt lat="49.18143" lon="1.34432">
        <ele>109.5</ele>
        <time>2018-05-27T06:04:46Z</time>
      </trkpt>
      <trkpt lat="49.18138" lon="1.34446">
        <ele>109.3</ele>
        <time>2018-05-27T06:04:48Z</time>
      </trkpt>
      <trkpt lat="49.18133" lon="1.34459">
        <ele>109.4</ele>
        <time>2018-05-27T06:04:50Z</time>
      </trkpt>
      <trkpt lat="49.18125" lon="1.34474">
        <ele>109.5</ele>
        <time>2018-05-27T06:04:52Z</time>
      </trkpt>
      <trkpt lat="49.18118" lon="1.34491">
        <ele>109.5</ele>
        <time>2018-05-27T06:04:54Z</time>
      </trkpt>
      <trkpt lat="49.18111" lon="1.34505">
        <ele>109.6</ele>
        <time>2018-05-27T06:04:56Z</time>
      </trkpt>
      <trkpt lat="49.18104" lon="1.34521">
        <ele>109.6</ele>
        <time>2018-05-27T06:04:58Z</time>
      </trkpt>
      <trkpt lat="49.18097" lon="1.34536">
        <ele>109.6</ele>
        <time>2018-05-27T06:05:00Z</time>
      </trkpt>
      <trkpt lat="49.18091" lon="1.34552">
        <ele>109.6</ele>
        <time>2018-05-27T06:05:02Z</time>
      </trkpt>
      <trkpt lat="49.18085" lon="1.34567">
        <ele>109.5</ele>
        <time>2018-05-27T06:05:04Z</time>
      </trkpt>
      <trkpt lat="49.18079" lon="1.34583">
        <ele>109.5</ele>
        <time>2018-05-27T06:05:06Z</time>
      </trkpt>
      <trkpt lat="49.18074" lon="1.34598">
        <ele>109.5</ele>
        <time>2018-05-27T06:05:08Z</time>
      </trkpt>
      <trkpt lat="49.18067" lon="1.34615">
        <ele>109.4</ele>
        <time>2018-05-27T06:05:10Z</time>
      </trkpt>
      <trkpt lat="49.18062" lon="1.34631">
        <ele>109.3</ele>
        <time>2018-05-27T06:05:12Z</time>
      </trkpt>
      <trkpt lat="49.18056" lon="1.34648">
        <ele>109.2</ele>
        <time>2018-05-27T06:05:14Z</time>
      </trkpt>
      <trkpt lat="49.18049" lon="1.34664">
        <ele>109.4</ele>
        <time>2018-05-27T06:05:16Z</time>
      </trkpt>
      <trkpt lat="49.18042" lon="1.3468">
        <ele>109.3</ele>
        <time>2018-05-27T06:05:18Z</time>
      </trkpt>
      <trkpt lat="49.18037" lon="1.34696">
        <ele>109.3</ele>
        <time>2018-05-27T06:05:20Z</time>
      </trkpt>
      <trkpt lat="49.18031" lon="1.34713">
        <ele>109.2</ele>
        <time>2018-05-27T06:05:22Z</time>
      </trkpt>
      <trkpt lat="49.18025" lon="1.34729">
        <ele>109</ele>
        <time>2018-05-27T06:05:24Z</time>
      </trkpt>
      <trkpt lat="49.18016" lon="1.34752">
        <ele>109.5</ele>
        <time>2018-05-27T06:05:27Z</time>
      </trkpt>
      <trkpt lat="49.18011" lon="1.34768">
        <ele>109.5</ele>
        <time>2018-05-27T06:05:29Z</time>
      </trkpt>
      <trkpt lat="49.18005" lon="1.34784">
        <ele>109.5</ele>
        <time>2018-05-27T06:05:31Z</time>
      </trkpt>
      <trkpt lat="49.18" lon="1.348">
        <ele>109.3</ele>
        <time>2018-05-27T06:05:33Z</time>
      </trkpt>
      <trkpt lat="49.17995" lon="1.34814">
        <ele>109.4</ele>
        <time>2018-05-27T06:05:35Z</time>
      </trkpt>
      <trkpt lat="49.1799" lon="1.34831">
        <ele>109.4</ele>
        <time>2018-05-27T06:05:37Z</time>
      </trkpt>
      <trkpt lat="49.17984" lon="1.34848">
        <ele>109.2</ele>
        <time>2018-05-27T06:05:39Z</time>
      </trkpt>
      <trkpt lat="49.17979" lon="1.34863">
        <ele>109.4</ele>
        <time>2018-05-27T06:05:41Z</time>
      </trkpt>
      <trkpt lat="49.17973" lon="1.34879">
        <ele>109.3</ele>
        <time>2018-05-27T06:05:43Z</time>
      </trkpt>
      <trkpt lat="49.17967" lon="1.34896">
        <ele>109.4</ele>
        <time>2018-05-27T06:05:45Z</time>
      </trkpt>
      <trkpt lat="49.17961" lon="1.34914">
        <ele>109</ele>
        <time>2018-05-27T06:05:47Z</time>
      </trkpt>
      <trkpt lat="49.17954" lon="1.34941">
        <ele>109.4</ele>
        <time>2018-05-27T06:05:50Z</time>
      </trkpt>
      <trkpt lat="49.1795" lon="1.34958">
        <ele>109.2</ele>
        <time>2018-05-27T06:05:52Z</time>
      </trkpt>
      <trkpt lat="49.17945" lon="1.34974">
        <ele>109.2</ele>
        <time>2018-05-27T06:05:54Z</time>
      </trkpt>
      <trkpt lat="49.1794" lon="1.34989">
        <ele>109.1</ele>
        <time>2018-05-27T06:05:56Z</time>
      </trkpt>
      <trkpt lat="49.17934" lon="1.35004">
        <ele>109.1</ele>
        <time>2018-05-27T06:05:58Z</time>
      </trkpt>
      <trkpt lat="49.17927" lon="1.35019">
        <ele>109.1</ele>
        <time>2018-05-27T06:06:00Z</time>
      </trkpt>
      <trkpt lat="49.17921" lon="1.35035">
        <ele>108.9</ele>
        <time>2018-05-27T06:06:02Z</time>
      </trkpt>
      <trkpt lat="49.17915" lon="1.35051">
        <ele>108.7</ele>
        <time>2018-05-27T06:06:04Z</time>
      </trkpt>
      <trkpt lat="49.1791" lon="1.35066">
        <ele>108.5</ele>
        <time>2018-05-27T06:06:06Z</time>
      </trkpt>
      <trkpt lat="49.17905" lon="1.35081">
        <ele>108.6</ele>
        <time>2018-05-27T06:06:08Z</time>
      </trkpt>
      <trkpt lat="49.179" lon="1.35096">
        <ele>108.8</ele>
        <time>2018-05-27T06:06:10Z</time>
      </trkpt>
      <trkpt lat="49.17896" lon="1.35111">
        <ele>108.7</ele>
        <time>2018-05-27T06:06:12Z</time>
      </trkpt>
      <trkpt lat="49.17891" lon="1.35126">
        <ele>108.7</ele>
        <time>2018-05-27T06:06:14Z</time>
      </trkpt>
      <trkpt lat="49.17885" lon="1.35142">
        <ele>108.8</ele>
        <time>2018-05-27T06:06:16Z</time>
      </trkpt>
      <trkpt lat="49.17881" lon="1.35159">
        <ele>108.9</ele>
        <time>2018-05-27T06:06:18Z</time>
      </trkpt>
      <trkpt lat="49.17877" lon="1.35175">
        <ele>108.9</ele>
        <time>2018-05-27T06:06:20Z</time>
      </trkpt>
      <trkpt lat="49.17872" lon="1.3519">
        <ele>108.7</ele>
        <time>2018-05-27T06:06:22Z</time>
      </trkpt>
      <trkpt lat="49.17868" lon="1.35206">
        <ele>108.7</ele>
        <time>2018-05-27T06:06:24Z</time>
      </trkpt>
      <trkpt lat="49.17863" lon="1.35221">
        <ele>108.7</ele>
        <time>2018-05-27T06:06:26Z</time>
      </trkpt>
      <trkpt lat="49.17859" lon="1.35237">
        <ele>108.7</ele>
        <time>2018-05-27T06:06:28Z</time>
      </trkpt>
      <trkpt lat="49.17854" lon="1.35253">
        <ele>108.7</ele>
        <time>2018-05-27T06:06:30Z</time>
      </trkpt>
      <trkpt lat="49.17851" lon="1.35268">
        <ele>108.4</ele>
        <time>2018-05-27T06:06:32Z</time>
      </trkpt>
      <trkpt lat="49.17846" lon="1.35289">
        <ele>108.4</ele>
        <time>2018-05-27T06:06:35Z</time>
      </trkpt>
      <trkpt lat="49.17841" lon="1.35302">
        <ele>108.7</ele>
        <time>2018-05-27T06:06:37Z</time>
      </trkpt>
      <trkpt lat="49.17836" lon="1.35317">
        <ele>108.5</ele>
        <time>2018-05-27T06:06:39Z</time>
      </trkpt>
      <trkpt lat="49.17829" lon="1.35328">
        <ele>108.5</ele>
        <time>2018-05-27T06:06:41Z</time>
      </trkpt>
      <trkpt lat="49.17819" lon="1.35331">
        <ele>108.4</ele>
        <time>2018-05-27T06:06:44Z</time>
      </trkpt>
      <trkpt lat="49.17808" lon="1.35325">
        <ele>108.7</ele>
        <time>2018-05-27T06:06:49Z</time>
      </trkpt>
      <trkpt lat="49.17798" lon="1.3532">
        <ele>109.1</ele>
        <time>2018-05-27T06:06:52Z</time>
      </trkpt>
      <trkpt lat="49.17787" lon="1.35311">
        <ele>109.8</ele>
        <time>2018-05-27T06:06:55Z</time>
      </trkpt>
      <trkpt lat="49.17778" lon="1.35301">
        <ele>110.5</ele>
        <time>2018-05-27T06:06:58Z</time>
      </trkpt>
      <trkpt lat="49.17769" lon="1.35291">
        <ele>111.4</ele>
        <time>2018-05-27T06:07:02Z</time>
      </trkpt>
      <trkpt lat="49.1776" lon="1.35281">
        <ele>112</ele>
        <time>2018-05-27T06:07:05Z</time>
      </trkpt>
      <trkpt lat="49.17749" lon="1.35271">
        <ele>112.5</ele>
        <time>2018-05-27T06:07:08Z</time>
      </trkpt>
      <trkpt lat="49.17744" lon="1.35259">
        <ele>112.7</ele>
        <time>2018-05-27T06:07:13Z</time>
      </trkpt>
      <trkpt lat="49.17755" lon="1.35259">
        <ele>113.3</ele>
        <time>2018-05-27T06:07:18Z</time>
      </trkpt>
      <trkpt lat="49.17766" lon="1.35265">
        <ele>113.5</ele>
        <time>2018-05-27T06:07:21Z</time>
      </trkpt>
      <trkpt lat="49.17776" lon="1.3527">
        <ele>113.9</ele>
        <time>2018-05-27T06:07:24Z</time>
      </trkpt>
      <trkpt lat="49.17788" lon="1.35279">
        <ele>114.4</ele>
        <time>2018-05-27T06:07:27Z</time>
      </trkpt>
      <trkpt lat="49.178" lon="1.35287">
        <ele>114.9</ele>
        <time>2018-05-27T06:07:30Z</time>
      </trkpt>
      <trkpt lat="49.17811" lon="1.35297">
        <ele>115.2</ele>
        <time>2018-05-27T06:07:33Z</time>
      </trkpt>
      <trkpt lat="49.1782" lon="1.35305">
        <ele>115.3</ele>
        <time>2018-05-27T06:07:35Z</time>
      </trkpt>
      <trkpt lat="49.17828" lon="1.35312">
        <ele>115.7</ele>
        <time>2018-05-27T06:07:37Z</time>
      </trkpt>
      <trkpt lat="49.17836" lon="1.35318">
        <ele>115.9</ele>
        <time>2018-05-27T06:07:39Z</time>
      </trkpt>
      <trkpt lat="49.17845" lon="1.35324">
        <ele>116.2</ele>
        <time>2018-05-27T06:07:41Z</time>
      </trkpt>
      <trkpt lat="49.17857" lon="1.35333">
        <ele>116.5</ele>
        <time>2018-05-27T06:07:44Z</time>
      </trkpt>
      <trkpt lat="49.17865" lon="1.3534">
        <ele>116.7</ele>
        <time>2018-05-27T06:07:46Z</time>
      </trkpt>
      <trkpt lat="49.17874" lon="1.35346">
        <ele>117</ele>
        <time>2018-05-27T06:07:48Z</time>
      </trkpt>
      <trkpt lat="49.17883" lon="1.35353">
        <ele>117.2</ele>
        <time>2018-05-27T06:07:50Z</time>
      </trkpt>
      <trkpt lat="49.17893" lon="1.3536">
        <ele>117.3</ele>
        <time>2018-05-27T06:07:52Z</time>
      </trkpt>
      <trkpt lat="49.17902" lon="1.35367">
        <ele>117.4</ele>
        <time>2018-05-27T06:07:54Z</time>
      </trkpt>
      <trkpt lat="49.17911" lon="1.35374">
        <ele>117.5</ele>
        <time>2018-05-27T06:07:56Z</time>
      </trkpt>
      <trkpt lat="49.1792" lon="1.35381">
        <ele>117.7</ele>
        <time>2018-05-27T06:07:58Z</time>
      </trkpt>
      <trkpt lat="49.1793" lon="1.35389">
        <ele>117.8</ele>
        <time>2018-05-27T06:08:00Z</time>
      </trkpt>
      <trkpt lat="49.1794" lon="1.35396">
        <ele>118</ele>
        <time>2018-05-27T06:08:02Z</time>
      </trkpt>
      <trkpt lat="49.1795" lon="1.35404">
        <ele>118</ele>
        <time>2018-05-27T06:08:04Z</time>
      </trkpt>
      <trkpt lat="49.1796" lon="1.35412">
        <ele>118.2</ele>
        <time>2018-05-27T06:08:06Z</time>
      </trkpt>
      <trkpt lat="49.17971" lon="1.3542">
        <ele>118.2</ele>
        <time>2018-05-27T06:08:08Z</time>
      </trkpt>
      <trkpt lat="49.17983" lon="1.35429">
        <ele>118.1</ele>
        <time>2018-05-27T06:08:10Z</time>
      </trkpt>
      <trkpt lat="49.17995" lon="1.35437">
        <ele>117.9</ele>
        <time>2018-05-27T06:08:12Z</time>
      </trkpt>
      <trkpt lat="49.18006" lon="1.35447">
        <ele>117.8</ele>
        <time>2018-05-27T06:08:14Z</time>
      </trkpt>
      <trkpt lat="49.18019" lon="1.35456">
        <ele>117.4</ele>
        <time>2018-05-27T06:08:16Z</time>
      </trkpt>
      <trkpt lat="49.18032" lon="1.35467">
        <ele>117</ele>
        <time>2018-05-27T06:08:18Z</time>
      </trkpt>
      <trkpt lat="49.18044" lon="1.35478">
        <ele>116.6</ele>
        <time>2018-05-27T06:08:20Z</time>
      </trkpt>
      <trkpt lat="49.18057" lon="1.35489">
        <ele>115.9</ele>
        <time>2018-05-27T06:08:22Z</time>
      </trkpt>
      <trkpt lat="49.1807" lon="1.355">
        <ele>115.6</ele>
        <time>2018-05-27T06:08:24Z</time>
      </trkpt>
      <trkpt lat="49.18082" lon="1.35511">
        <ele>115.1</ele>
        <time>2018-05-27T06:08:26Z</time>
      </trkpt>
      <trkpt lat="49.18092" lon="1.35522">
        <ele>114.6</ele>
        <time>2018-05-27T06:08:28Z</time>
      </trkpt>
      <trkpt lat="49.18098" lon="1.35534">
        <ele>114.2</ele>
        <time>2018-05-27T06:08:30Z</time>
      </trkpt>
      <trkpt lat="49.18102" lon="1.35547">
        <ele>113.3</ele>
        <time>2018-05-27T06:08:32Z</time>
      </trkpt>
      <trkpt lat="49.1811" lon="1.35558">
        <ele>112.7</ele>
        <time>2018-05-27T06:08:34Z</time>
      </trkpt>
      <trkpt lat="49.18119" lon="1.35568">
        <ele>112.6</ele>
        <time>2018-05-27T06:08:36Z</time>
      </trkpt>
      <trkpt lat="49.18122" lon="1.35581">
        <ele>112.3</ele>
        <time>2018-05-27T06:08:38Z</time>
      </trkpt>
      <trkpt lat="49.18123" lon="1.35597">
        <ele>111.4</ele>
        <time>2018-05-27T06:08:40Z</time>
      </trkpt>
      <trkpt lat="49.1812" lon="1.35616">
        <ele>110.8</ele>
        <time>2018-05-27T06:08:42Z</time>
      </trkpt>
      <trkpt lat="49.18115" lon="1.35634">
        <ele>110</ele>
        <time>2018-05-27T06:08:44Z</time>
      </trkpt>
      <trkpt lat="49.18109" lon="1.35652">
        <ele>109.6</ele>
        <time>2018-05-27T06:08:46Z</time>
      </trkpt>
      <trkpt lat="49.18104" lon="1.35668">
        <ele>109.4</ele>
        <time>2018-05-27T06:08:48Z</time>
      </trkpt>
      <trkpt lat="49.18098" lon="1.35685">
        <ele>109.3</ele>
        <time>2018-05-27T06:08:50Z</time>
      </trkpt>
      <trkpt lat="49.18092" lon="1.35701">
        <ele>109</ele>
        <time>2018-05-27T06:08:52Z</time>
      </trkpt>
      <trkpt lat="49.18087" lon="1.35717">
        <ele>108.9</ele>
        <time>2018-05-27T06:08:54Z</time>
      </trkpt>
      <trkpt lat="49.1808" lon="1.35734">
        <ele>108.6</ele>
        <time>2018-05-27T06:08:56Z</time>
      </trkpt>
      <trkpt lat="49.18076" lon="1.35749">
        <ele>108.7</ele>
        <time>2018-05-27T06:08:58Z</time>
      </trkpt>
      <trkpt lat="49.18071" lon="1.35763">
        <ele>108.5</ele>
        <time>2018-05-27T06:09:00Z</time>
      </trkpt>
      <trkpt lat="49.18066" lon="1.35778">
        <ele>108</ele>
        <time>2018-05-27T06:09:02Z</time>
      </trkpt>
      <trkpt lat="49.18059" lon="1.35791">
        <ele>108</ele>
        <time>2018-05-27T06:09:04Z</time>
      </trkpt>
      <trkpt lat="49.18055" lon="1.35805">
        <ele>107.8</ele>
        <time>2018-05-27T06:09:07Z</time>
      </trkpt>
      <trkpt lat="49.18062" lon="1.35814">
        <ele>107.6</ele>
        <time>2018-05-27T06:09:10Z</time>
      </trkpt>
      <trkpt lat="49.18073" lon="1.35824">
        <ele>107.5</ele>
        <time>2018-05-27T06:09:13Z</time>
      </trkpt>
      <trkpt lat="49.18082" lon="1.35836">
        <ele>107.8</ele>
        <time>2018-05-27T06:09:16Z</time>
      </trkpt>
      <trkpt lat="49.18091" lon="1.3585">
        <ele>108.2</ele>
        <time>2018-05-27T06:09:19Z</time>
      </trkpt>
      <trkpt lat="49.18099" lon="1.35862">
        <ele>108.5</ele>
        <time>2018-05-27T06:09:22Z</time>
      </trkpt>
      <trkpt lat="49.18106" lon="1.35873">
        <ele>109.3</ele>
        <time>2018-05-27T06:09:25Z</time>
      </trkpt>
      <trkpt lat="49.18112" lon="1.35887">
        <ele>110.4</ele>
        <time>2018-05-27T06:09:29Z</time>
      </trkpt>
      <trkpt lat="49.18118" lon="1.35899">
        <ele>111.9</ele>
        <time>2018-05-27T06:09:33Z</time>
      </trkpt>
      <trkpt lat="49.18122" lon="1.35913">
        <ele>113.6</ele>
        <time>2018-05-27T06:09:37Z</time>
      </trkpt>
      <trkpt lat="49.18126" lon="1.35927">
        <ele>115.9</ele>
        <time>2018-05-27T06:09:43Z</time>
      </trkpt>
      <trkpt lat="49.18131" lon="1.3594">
        <ele>117.8</ele>
        <time>2018-05-27T06:09:48Z</time>
      </trkpt>
      <trkpt lat="49.18137" lon="1.35951">
        <ele>119.7</ele>
        <time>2018-05-27T06:09:53Z</time>
      </trkpt>
      <trkpt lat="49.18145" lon="1.35963">
        <ele>121</ele>
        <time>2018-05-27T06:09:58Z</time>
      </trkpt>
      <trkpt lat="49.18154" lon="1.35974">
        <ele>121.7</ele>
        <time>2018-05-27T06:10:02Z</time>
      </trkpt>
      <trkpt lat="49.18163" lon="1.35982">
        <ele>122</ele>
        <time>2018-05-27T06:10:05Z</time>
      </trkpt>
      <trkpt lat="49.18171" lon="1.35994">
        <ele>122.6</ele>
        <time>2018-05-27T06:10:08Z</time>
      </trkpt>
      <trkpt lat="49.18181" lon="1.36005">
        <ele>123</ele>
        <time>2018-05-27T06:10:11Z</time>
      </trkpt>
      <trkpt lat="49.1819" lon="1.36007">
        <ele>123.3</ele>
        <time>2018-05-27T06:10:15Z</time>
      </trkpt>
      <trkpt lat="49.18197" lon="1.35993">
        <ele>123.2</ele>
        <time>2018-05-27T06:10:18Z</time>
      </trkpt>
      <trkpt lat="49.18203" lon="1.3598">
        <ele>123.2</ele>
        <time>2018-05-27T06:10:20Z</time>
      </trkpt>
      <trkpt lat="49.18209" lon="1.35967">
        <ele>123.2</ele>
        <time>2018-05-27T06:10:22Z</time>
      </trkpt>
      <trkpt lat="49.18217" lon="1.35953">
        <ele>122.9</ele>
        <time>2018-05-27T06:10:24Z</time>
      </trkpt>
      <trkpt lat="49.18223" lon="1.35937">
        <ele>122.8</ele>
        <time>2018-05-27T06:10:26Z</time>
      </trkpt>
      <trkpt lat="49.1823" lon="1.35923">
        <ele>122.6</ele>
        <time>2018-05-27T06:10:28Z</time>
      </trkpt>
      <trkpt lat="49.18236" lon="1.35908">
        <ele>122.1</ele>
        <time>2018-05-27T06:10:30Z</time>
      </trkpt>
      <trkpt lat="49.18243" lon="1.35897">
        <ele>122</ele>
        <time>2018-05-27T06:10:32Z</time>
      </trkpt>
      <trkpt lat="49.18252" lon="1.35908">
        <ele>122</ele>
        <time>2018-05-27T06:10:37Z</time>
      </trkpt>
      <trkpt lat="49.18259" lon="1.35919">
        <ele>122.1</ele>
        <time>2018-05-27T06:10:41Z</time>
      </trkpt>
      <trkpt lat="49.18268" lon="1.35925">
        <ele>122.2</ele>
        <time>2018-05-27T06:10:47Z</time>
      </trkpt>
      <trkpt lat="49.18277" lon="1.35937">
        <ele>122.3</ele>
        <time>2018-05-27T06:10:50Z</time>
      </trkpt>
      <trkpt lat="49.18285" lon="1.35945">
        <ele>122.5</ele>
        <time>2018-05-27T06:10:52Z</time>
      </trkpt>
      <trkpt lat="49.18293" lon="1.35951">
        <ele>122.7</ele>
        <time>2018-05-27T06:10:54Z</time>
      </trkpt>
      <trkpt lat="49.18303" lon="1.35959">
        <ele>123</ele>
        <time>2018-05-27T06:10:57Z</time>
      </trkpt>
      <trkpt lat="49.18312" lon="1.35967">
        <ele>123.2</ele>
        <time>2018-05-27T06:11:00Z</time>
      </trkpt>
      <trkpt lat="49.1831" lon="1.35983">
        <ele>123.4</ele>
        <time>2018-05-27T06:11:03Z</time>
      </trkpt>
      <trkpt lat="49.18304" lon="1.36001">
        <ele>123.6</ele>
        <time>2018-05-27T06:11:06Z</time>
      </trkpt>
      <trkpt lat="49.183" lon="1.36015">
        <ele>123.9</ele>
        <time>2018-05-27T06:11:08Z</time>
      </trkpt>
      <trkpt lat="49.18296" lon="1.36029">
        <ele>124.2</ele>
        <time>2018-05-27T06:11:10Z</time>
      </trkpt>
      <trkpt lat="49.18292" lon="1.36043">
        <ele>124.4</ele>
        <time>2018-05-27T06:11:12Z</time>
      </trkpt>
      <trkpt lat="49.18288" lon="1.36056">
        <ele>124.5</ele>
        <time>2018-05-27T06:11:14Z</time>
      </trkpt>
      <trkpt lat="49.18284" lon="1.36069">
        <ele>124.8</ele>
        <time>2018-05-27T06:11:16Z</time>
      </trkpt>
      <trkpt lat="49.1828" lon="1.36082">
        <ele>124.9</ele>
        <time>2018-05-27T06:11:18Z</time>
      </trkpt>
      <trkpt lat="49.18284" lon="1.36101">
        <ele>125.2</ele>
        <time>2018-05-27T06:11:21Z</time>
      </trkpt>
      <trkpt lat="49.18293" lon="1.36108">
        <ele>125.5</ele>
        <time>2018-05-27T06:11:23Z</time>
      </trkpt>
      <trkpt lat="49.18302" lon="1.36116">
        <ele>125.7</ele>
        <time>2018-05-27T06:11:25Z</time>
      </trkpt>
      <trkpt lat="49.18311" lon="1.36124">
        <ele>125.8</ele>
        <time>2018-05-27T06:11:27Z</time>
      </trkpt>
      <trkpt lat="49.1832" lon="1.36133">
        <ele>125.7</ele>
        <time>2018-05-27T06:11:29Z</time>
      </trkpt>
      <trkpt lat="49.18329" lon="1.36142">
        <ele>125.8</ele>
        <time>2018-05-27T06:11:31Z</time>
      </trkpt>
      <trkpt lat="49.18339" lon="1.36151">
        <ele>125.9</ele>
        <time>2018-05-27T06:11:33Z</time>
      </trkpt>
      <trkpt lat="49.18349" lon="1.36159">
        <ele>126</ele>
        <time>2018-05-27T06:11:35Z</time>
      </trkpt>
      <trkpt lat="49.18359" lon="1.36168">
        <ele>126</ele>
        <time>2018-05-27T06:11:37Z</time>
      </trkpt>
      <trkpt lat="49.18368" lon="1.36176">
        <ele>126.1</ele>
        <time>2018-05-27T06:11:39Z</time>
      </trkpt>
      <trkpt lat="49.18377" lon="1.36185">
        <ele>126.2</ele>
        <time>2018-05-27T06:11:41Z</time>
      </trkpt>
      <trkpt lat="49.18386" lon="1.36194">
        <ele>126.5</ele>
        <time>2018-05-27T06:11:43Z</time>
      </trkpt>
      <trkpt lat="49.18396" lon="1.36203">
        <ele>126.6</ele>
        <time>2018-05-27T06:11:45Z</time>
      </trkpt>
      <trkpt lat="49.18407" lon="1.36212">
        <ele>126.7</ele>
        <time>2018-05-27T06:11:47Z</time>
      </trkpt>
      <trkpt lat="49.18417" lon="1.3622">
        <ele>126.9</ele>
        <time>2018-05-27T06:11:49Z</time>
      </trkpt>
      <trkpt lat="49.18426" lon="1.36229">
        <ele>127.2</ele>
        <time>2018-05-27T06:11:51Z</time>
      </trkpt>
      <trkpt lat="49.18435" lon="1.36239">
        <ele>127.3</ele>
        <time>2018-05-27T06:11:53Z</time>
      </trkpt>
      <trkpt lat="49.18437" lon="1.36255">
        <ele>127.5</ele>
        <time>2018-05-27T06:11:55Z</time>
      </trkpt>
      <trkpt lat="49.18434" lon="1.3627">
        <ele>127.7</ele>
        <time>2018-05-27T06:11:57Z</time>
      </trkpt>
      <trkpt lat="49.18431" lon="1.36286">
        <ele>127.9</ele>
        <time>2018-05-27T06:11:59Z</time>
      </trkpt>
      <trkpt lat="49.18429" lon="1.36302">
        <ele>128</ele>
        <time>2018-05-27T06:12:01Z</time>
      </trkpt>
      <trkpt lat="49.18427" lon="1.36319">
        <ele>128</ele>
        <time>2018-05-27T06:12:03Z</time>
      </trkpt>
      <trkpt lat="49.18427" lon="1.36336">
        <ele>128.1</ele>
        <time>2018-05-27T06:12:05Z</time>
      </trkpt>
      <trkpt lat="49.18427" lon="1.36353">
        <ele>128.1</ele>
        <time>2018-05-27T06:12:07Z</time>
      </trkpt>
      <trkpt lat="49.18427" lon="1.36371">
        <ele>128.3</ele>
        <time>2018-05-27T06:12:09Z</time>
      </trkpt>
      <trkpt lat="49.18428" lon="1.36388">
        <ele>128.3</ele>
        <time>2018-05-27T06:12:11Z</time>
      </trkpt>
      <trkpt lat="49.18429" lon="1.36405">
        <ele>128.4</ele>
        <time>2018-05-27T06:12:13Z</time>
      </trkpt>
      <trkpt lat="49.1843" lon="1.36422">
        <ele>128.6</ele>
        <time>2018-05-27T06:12:15Z</time>
      </trkpt>
      <trkpt lat="49.18432" lon="1.36439">
        <ele>128.7</ele>
        <time>2018-05-27T06:12:17Z</time>
      </trkpt>
      <trkpt lat="49.18434" lon="1.36455">
        <ele>128.7</ele>
        <time>2018-05-27T06:12:19Z</time>
      </trkpt>
      <trkpt lat="49.18436" lon="1.36472">
        <ele>128.9</ele>
        <time>2018-05-27T06:12:21Z</time>
      </trkpt>
      <trkpt lat="49.18438" lon="1.36488">
        <ele>129.2</ele>
        <time>2018-05-27T06:12:23Z</time>
      </trkpt>
      <trkpt lat="49.18439" lon="1.36504">
        <ele>129.3</ele>
        <time>2018-05-27T06:12:25Z</time>
      </trkpt>
      <trkpt lat="49.18441" lon="1.36521">
        <ele>129.5</ele>
        <time>2018-05-27T06:12:27Z</time>
      </trkpt>
      <trkpt lat="49.18443" lon="1.36538">
        <ele>129.6</ele>
        <time>2018-05-27T06:12:29Z</time>
      </trkpt>
      <trkpt lat="49.18445" lon="1.36555">
        <ele>129.7</ele>
        <time>2018-05-27T06:12:31Z</time>
      </trkpt>
      <trkpt lat="49.18448" lon="1.36571">
        <ele>129.9</ele>
        <time>2018-05-27T06:12:33Z</time>
      </trkpt>
      <trkpt lat="49.18451" lon="1.36587">
        <ele>130.1</ele>
        <time>2018-05-27T06:12:35Z</time>
      </trkpt>
      <trkpt lat="49.18454" lon="1.36604">
        <ele>130.2</ele>
        <time>2018-05-27T06:12:37Z</time>
      </trkpt>
      <trkpt lat="49.18458" lon="1.36621">
        <ele>130.3</ele>
        <time>2018-05-27T06:12:39Z</time>
      </trkpt>
      <trkpt lat="49.18461" lon="1.36637">
        <ele>130.5</ele>
        <time>2018-05-27T06:12:41Z</time>
      </trkpt>
      <trkpt lat="49.18465" lon="1.36654">
        <ele>130.5</ele>
        <time>2018-05-27T06:12:43Z</time>
      </trkpt>
      <trkpt lat="49.18469" lon="1.36671">
        <ele>130.6</ele>
        <time>2018-05-27T06:12:45Z</time>
      </trkpt>
      <trkpt lat="49.18472" lon="1.36688">
        <ele>130.8</ele>
        <time>2018-05-27T06:12:47Z</time>
      </trkpt>
      <trkpt lat="49.18476" lon="1.36706">
        <ele>131</ele>
        <time>2018-05-27T06:12:49Z</time>
      </trkpt>
      <trkpt lat="49.18479" lon="1.36723">
        <ele>130.8</ele>
        <time>2018-05-27T06:12:51Z</time>
      </trkpt>
      <trkpt lat="49.18482" lon="1.3674">
        <ele>130.9</ele>
        <time>2018-05-27T06:12:53Z</time>
      </trkpt>
      <trkpt lat="49.18485" lon="1.36758">
        <ele>131</ele>
        <time>2018-05-27T06:12:55Z</time>
      </trkpt>
      <trkpt lat="49.18488" lon="1.36776">
        <ele>131.1</ele>
        <time>2018-05-27T06:12:57Z</time>
      </trkpt>
      <trkpt lat="49.18491" lon="1.36795">
        <ele>131.2</ele>
        <time>2018-05-27T06:12:59Z</time>
      </trkpt>
      <trkpt lat="49.18492" lon="1.36813">
        <ele>131.3</ele>
        <time>2018-05-27T06:13:01Z</time>
      </trkpt>
      <trkpt lat="49.1849" lon="1.36831">
        <ele>131.4</ele>
        <time>2018-05-27T06:13:03Z</time>
      </trkpt>
      <trkpt lat="49.18485" lon="1.36848">
        <ele>131.5</ele>
        <time>2018-05-27T06:13:05Z</time>
      </trkpt>
      <trkpt lat="49.1848" lon="1.36863">
        <ele>131.5</ele>
        <time>2018-05-27T06:13:07Z</time>
      </trkpt>
      <trkpt lat="49.18475" lon="1.3688">
        <ele>131.5</ele>
        <time>2018-05-27T06:13:09Z</time>
      </trkpt>
      <trkpt lat="49.18469" lon="1.36895">
        <ele>131.6</ele>
        <time>2018-05-27T06:13:11Z</time>
      </trkpt>
      <trkpt lat="49.18463" lon="1.3691">
        <ele>131.7</ele>
        <time>2018-05-27T06:13:13Z</time>
      </trkpt>
      <trkpt lat="49.18457" lon="1.36925">
        <ele>132</ele>
        <time>2018-05-27T06:13:15Z</time>
      </trkpt>
      <trkpt lat="49.18452" lon="1.36941">
        <ele>132.2</ele>
        <time>2018-05-27T06:13:17Z</time>
      </trkpt>
      <trkpt lat="49.18447" lon="1.36958">
        <ele>132.4</ele>
        <time>2018-05-27T06:13:19Z</time>
      </trkpt>
      <trkpt lat="49.18442" lon="1.36973">
        <ele>132.4</ele>
        <time>2018-05-27T06:13:21Z</time>
      </trkpt>
      <trkpt lat="49.18437" lon="1.36989">
        <ele>132.6</ele>
        <time>2018-05-27T06:13:23Z</time>
      </trkpt>
      <trkpt lat="49.18432" lon="1.37005">
        <ele>132.8</ele>
        <time>2018-05-27T06:13:25Z</time>
      </trkpt>
      <trkpt lat="49.18428" lon="1.37021">
        <ele>132.9</ele>
        <time>2018-05-27T06:13:27Z</time>
      </trkpt>
      <trkpt lat="49.18423" lon="1.37036">
        <ele>133</ele>
        <time>2018-05-27T06:13:29Z</time>
      </trkpt>
      <trkpt lat="49.18417" lon="1.37051">
        <ele>133.1</ele>
        <time>2018-05-27T06:13:31Z</time>
      </trkpt>
      <trkpt lat="49.18411" lon="1.37066">
        <ele>133.3</ele>
        <time>2018-05-27T06:13:33Z</time>
      </trkpt>
      <trkpt lat="49.18407" lon="1.37081">
        <ele>133.4</ele>
        <time>2018-05-27T06:13:35Z</time>
      </trkpt>
      <trkpt lat="49.18401" lon="1.37095">
        <ele>133.5</ele>
        <time>2018-05-27T06:13:37Z</time>
      </trkpt>
      <trkpt lat="49.18396" lon="1.3711">
        <ele>133.5</ele>
        <time>2018-05-27T06:13:39Z</time>
      </trkpt>
      <trkpt lat="49.18391" lon="1.37125">
        <ele>133.6</ele>
        <time>2018-05-27T06:13:41Z</time>
      </trkpt>
      <trkpt lat="49.18386" lon="1.37139">
        <ele>133.8</ele>
        <time>2018-05-27T06:13:43Z</time>
      </trkpt>
      <trkpt lat="49.18381" lon="1.37152">
        <ele>134</ele>
        <time>2018-05-27T06:13:45Z</time>
      </trkpt>
      <trkpt lat="49.18376" lon="1.37166">
        <ele>134.1</ele>
        <time>2018-05-27T06:13:47Z</time>
      </trkpt>
      <trkpt lat="49.18371" lon="1.37181">
        <ele>134.3</ele>
        <time>2018-05-27T06:13:49Z</time>
      </trkpt>
      <trkpt lat="49.18366" lon="1.37195">
        <ele>134.4</ele>
        <time>2018-05-27T06:13:51Z</time>
      </trkpt>
      <trkpt lat="49.18361" lon="1.37209">
        <ele>134.7</ele>
        <time>2018-05-27T06:13:53Z</time>
      </trkpt>
      <trkpt lat="49.18356" lon="1.37224">
        <ele>135.2</ele>
        <time>2018-05-27T06:13:55Z</time>
      </trkpt>
      <trkpt lat="49.18352" lon="1.37238">
        <ele>135.3</ele>
        <time>2018-05-27T06:13:57Z</time>
      </trkpt>
      <trkpt lat="49.1835" lon="1.37253">
        <ele>135.5</ele>
        <time>2018-05-27T06:13:59Z</time>
      </trkpt>
      <trkpt lat="49.18356" lon="1.3727">
        <ele>135.8</ele>
        <time>2018-05-27T06:14:02Z</time>
      </trkpt>
      <trkpt lat="49.18368" lon="1.3728">
        <ele>136.1</ele>
        <time>2018-05-27T06:14:05Z</time>
      </trkpt>
      <trkpt lat="49.18378" lon="1.3729">
        <ele>136.4</ele>
        <time>2018-05-27T06:14:08Z</time>
      </trkpt>
      <trkpt lat="49.18389" lon="1.37301">
        <ele>136.7</ele>
        <time>2018-05-27T06:14:11Z</time>
      </trkpt>
      <trkpt lat="49.18401" lon="1.37312">
        <ele>137</ele>
        <time>2018-05-27T06:14:14Z</time>
      </trkpt>
      <trkpt lat="49.18408" lon="1.37319">
        <ele>137.2</ele>
        <time>2018-05-27T06:14:16Z</time>
      </trkpt>
      <trkpt lat="49.18416" lon="1.37326">
        <ele>137.6</ele>
        <time>2018-05-27T06:14:18Z</time>
      </trkpt>
      <trkpt lat="49.18428" lon="1.37336">
        <ele>138</ele>
        <time>2018-05-27T06:14:21Z</time>
      </trkpt>
      <trkpt lat="49.1844" lon="1.37346">
        <ele>138.3</ele>
        <time>2018-05-27T06:14:24Z</time>
      </trkpt>
      <trkpt lat="49.18447" lon="1.37354">
        <ele>138.6</ele>
        <time>2018-05-27T06:14:26Z</time>
      </trkpt>
      <trkpt lat="49.18455" lon="1.37361">
        <ele>138.9</ele>
        <time>2018-05-27T06:14:28Z</time>
      </trkpt>
      <trkpt lat="49.18463" lon="1.37368">
        <ele>139.3</ele>
        <time>2018-05-27T06:14:30Z</time>
      </trkpt>
      <trkpt lat="49.18472" lon="1.37375">
        <ele>139.7</ele>
        <time>2018-05-27T06:14:32Z</time>
      </trkpt>
      <trkpt lat="49.1848" lon="1.37383">
        <ele>139.9</ele>
        <time>2018-05-27T06:14:34Z</time>
      </trkpt>
      <trkpt lat="49.18488" lon="1.3739">
        <ele>140.1</ele>
        <time>2018-05-27T06:14:36Z</time>
      </trkpt>
      <trkpt lat="49.18496" lon="1.37397">
        <ele>140.5</ele>
        <time>2018-05-27T06:14:38Z</time>
      </trkpt>
      <trkpt lat="49.18504" lon="1.37404">
        <ele>140.8</ele>
        <time>2018-05-27T06:14:40Z</time>
      </trkpt>
      <trkpt lat="49.18513" lon="1.37412">
        <ele>140.9</ele>
        <time>2018-05-27T06:14:42Z</time>
      </trkpt>
      <trkpt lat="49.18521" lon="1.37419">
        <ele>140.9</ele>
        <time>2018-05-27T06:14:44Z</time>
      </trkpt>
      <trkpt lat="49.1853" lon="1.37426">
        <ele>141.1</ele>
        <time>2018-05-27T06:14:46Z</time>
      </trkpt>
      <trkpt lat="49.18538" lon="1.37434">
        <ele>141.2</ele>
        <time>2018-05-27T06:14:48Z</time>
      </trkpt>
      <trkpt lat="49.18547" lon="1.37442">
        <ele>141.5</ele>
        <time>2018-05-27T06:14:50Z</time>
      </trkpt>
      <trkpt lat="49.18556" lon="1.3745">
        <ele>141.6</ele>
        <time>2018-05-27T06:14:52Z</time>
      </trkpt>
      <trkpt lat="49.18565" lon="1.37457">
        <ele>141.9</ele>
        <time>2018-05-27T06:14:54Z</time>
      </trkpt>
      <trkpt lat="49.18574" lon="1.37465">
        <ele>142.2</ele>
        <time>2018-05-27T06:14:56Z</time>
      </trkpt>
      <trkpt lat="49.18583" lon="1.37473">
        <ele>142.3</ele>
        <time>2018-05-27T06:14:58Z</time>
      </trkpt>
      <trkpt lat="49.18592" lon="1.37481">
        <ele>142.4</ele>
        <time>2018-05-27T06:15:00Z</time>
      </trkpt>
      <trkpt lat="49.18602" lon="1.37484">
        <ele>142.5</ele>
        <time>2018-05-27T06:15:02Z</time>
      </trkpt>
      <trkpt lat="49.18611" lon="1.37478">
        <ele>142.5</ele>
        <time>2018-05-27T06:15:04Z</time>
      </trkpt>
      <trkpt lat="49.18619" lon="1.37468">
        <ele>142.6</ele>
        <time>2018-05-27T06:15:06Z</time>
      </trkpt>
      <trkpt lat="49.18628" lon="1.37458">
        <ele>142.4</ele>
        <time>2018-05-27T06:15:08Z</time>
      </trkpt>
      <trkpt lat="49.18638" lon="1.37447">
        <ele>142.3</ele>
        <time>2018-05-27T06:15:10Z</time>
      </trkpt>
      <trkpt lat="49.18647" lon="1.37437">
        <ele>141.8</ele>
        <time>2018-05-27T06:15:12Z</time>
      </trkpt>
      <trkpt lat="49.18657" lon="1.37426">
        <ele>141.6</ele>
        <time>2018-05-27T06:15:14Z</time>
      </trkpt>
      <trkpt lat="49.18666" lon="1.37415">
        <ele>141.2</ele>
        <time>2018-05-27T06:15:16Z</time>
      </trkpt>
      <trkpt lat="49.18675" lon="1.37402">
        <ele>140.7</ele>
        <time>2018-05-27T06:15:18Z</time>
      </trkpt>
      <trkpt lat="49.18685" lon="1.3739">
        <ele>140.5</ele>
        <time>2018-05-27T06:15:20Z</time>
      </trkpt>
      <trkpt lat="49.18695" lon="1.37377">
        <ele>140.2</ele>
        <time>2018-05-27T06:15:22Z</time>
      </trkpt>
      <trkpt lat="49.18705" lon="1.37364">
        <ele>139.7</ele>
        <time>2018-05-27T06:15:24Z</time>
      </trkpt>
      <trkpt lat="49.18714" lon="1.37351">
        <ele>139.2</ele>
        <time>2018-05-27T06:15:26Z</time>
      </trkpt>
      <trkpt lat="49.18724" lon="1.37337">
        <ele>138.8</ele>
        <time>2018-05-27T06:15:28Z</time>
      </trkpt>
      <trkpt lat="49.18734" lon="1.37323">
        <ele>138.1</ele>
        <time>2018-05-27T06:15:30Z</time>
      </trkpt>
      <trkpt lat="49.18746" lon="1.37312">
        <ele>137.7</ele>
        <time>2018-05-27T06:15:32Z</time>
      </trkpt>
      <trkpt lat="49.18759" lon="1.37303">
        <ele>137.1</ele>
        <time>2018-05-27T06:15:34Z</time>
      </trkpt>
      <trkpt lat="49.18774" lon="1.37295">
        <ele>136.5</ele>
        <time>2018-05-27T06:15:36Z</time>
      </trkpt>
      <trkpt lat="49.18788" lon="1.37288">
        <ele>135.8</ele>
        <time>2018-05-27T06:15:38Z</time>
      </trkpt>
      <trkpt lat="49.18799" lon="1.37283">
        <ele>134.9</ele>
        <time>2018-05-27T06:15:40Z</time>
      </trkpt>
      <trkpt lat="49.18808" lon="1.37287">
        <ele>134</ele>
        <time>2018-05-27T06:15:42Z</time>
      </trkpt>
      <trkpt lat="49.18815" lon="1.37298">
        <ele>133.5</ele>
        <time>2018-05-27T06:15:44Z</time>
      </trkpt>
      <trkpt lat="49.18821" lon="1.3731">
        <ele>133.4</ele>
        <time>2018-05-27T06:15:46Z</time>
      </trkpt>
      <trkpt lat="49.18829" lon="1.37323">
        <ele>133.4</ele>
        <time>2018-05-27T06:15:48Z</time>
      </trkpt>
      <trkpt lat="49.18836" lon="1.37336">
        <ele>133.4</ele>
        <time>2018-05-27T06:15:50Z</time>
      </trkpt>
      <trkpt lat="49.18844" lon="1.37349">
        <ele>133.4</ele>
        <time>2018-05-27T06:15:52Z</time>
      </trkpt>
      <trkpt lat="49.18852" lon="1.37362">
        <ele>133.4</ele>
        <time>2018-05-27T06:15:54Z</time>
      </trkpt>
      <trkpt lat="49.1886" lon="1.37375">
        <ele>133.2</ele>
        <time>2018-05-27T06:15:56Z</time>
      </trkpt>
      <trkpt lat="49.18868" lon="1.37388">
        <ele>133.3</ele>
        <time>2018-05-27T06:15:58Z</time>
      </trkpt>
      <trkpt lat="49.18875" lon="1.37402">
        <ele>133.3</ele>
        <time>2018-05-27T06:16:00Z</time>
      </trkpt>
      <trkpt lat="49.18883" lon="1.37416">
        <ele>133.4</ele>
        <time>2018-05-27T06:16:02Z</time>
      </trkpt>
      <trkpt lat="49.1889" lon="1.3743">
        <ele>133.5</ele>
        <time>2018-05-27T06:16:04Z</time>
      </trkpt>
      <trkpt lat="49.18898" lon="1.37444">
        <ele>133.6</ele>
        <time>2018-05-27T06:16:06Z</time>
      </trkpt>
      <trkpt lat="49.18906" lon="1.37458">
        <ele>133.6</ele>
        <time>2018-05-27T06:16:08Z</time>
      </trkpt>
      <trkpt lat="49.18914" lon="1.37472">
        <ele>133.6</ele>
        <time>2018-05-27T06:16:10Z</time>
      </trkpt>
      <trkpt lat="49.18921" lon="1.37486">
        <ele>133.5</ele>
        <time>2018-05-27T06:16:12Z</time>
      </trkpt>
      <trkpt lat="49.18929" lon="1.375">
        <ele>133.4</ele>
        <time>2018-05-27T06:16:14Z</time>
      </trkpt>
      <trkpt lat="49.18937" lon="1.37513">
        <ele>133.3</ele>
        <time>2018-05-27T06:16:16Z</time>
      </trkpt>
      <trkpt lat="49.18945" lon="1.37527">
        <ele>133.1</ele>
        <time>2018-05-27T06:16:18Z</time>
      </trkpt>
      <trkpt lat="49.18953" lon="1.37542">
        <ele>133.1</ele>
        <time>2018-05-27T06:16:20Z</time>
      </trkpt>
      <trkpt lat="49.18961" lon="1.37556">
        <ele>132.8</ele>
        <time>2018-05-27T06:16:22Z</time>
      </trkpt>
      <trkpt lat="49.18969" lon="1.3757">
        <ele>132.7</ele>
        <time>2018-05-27T06:16:24Z</time>
      </trkpt>
      <trkpt lat="49.18977" lon="1.37584">
        <ele>132.6</ele>
        <time>2018-05-27T06:16:26Z</time>
      </trkpt>
      <trkpt lat="49.18984" lon="1.37598">
        <ele>132.5</ele>
        <time>2018-05-27T06:16:28Z</time>
      </trkpt>
      <trkpt lat="49.18992" lon="1.37612">
        <ele>132.4</ele>
        <time>2018-05-27T06:16:30Z</time>
      </trkpt>
      <trkpt lat="49.19" lon="1.37627">
        <ele>132.3</ele>
        <time>2018-05-27T06:16:32Z</time>
      </trkpt>
      <trkpt lat="49.19007" lon="1.37641">
        <ele>132.2</ele>
        <time>2018-05-27T06:16:34Z</time>
      </trkpt>
      <trkpt lat="49.19015" lon="1.37655">
        <ele>132.3</ele>
        <time>2018-05-27T06:16:36Z</time>
      </trkpt>
      <trkpt lat="49.19023" lon="1.37669">
        <ele>132.3</ele>
        <time>2018-05-27T06:16:38Z</time>
      </trkpt>
      <trkpt lat="49.1903" lon="1.37683">
        <ele>132.3</ele>
        <time>2018-05-27T06:16:40Z</time>
      </trkpt>
      <trkpt lat="49.19038" lon="1.37697">
        <ele>132.3</ele>
        <time>2018-05-27T06:16:42Z</time>
      </trkpt>
      <trkpt lat="49.19045" lon="1.37711">
        <ele>132.2</ele>
        <time>2018-05-27T06:16:44Z</time>
      </trkpt>
      <trkpt lat="49.19053" lon="1.37724">
        <ele>132</ele>
        <time>2018-05-27T06:16:46Z</time>
      </trkpt>
      <trkpt lat="49.19061" lon="1.37737">
        <ele>132</ele>
        <time>2018-05-27T06:16:48Z</time>
      </trkpt>
      <trkpt lat="49.19069" lon="1.3775">
        <ele>131.8</ele>
        <time>2018-05-27T06:16:50Z</time>
      </trkpt>
      <trkpt lat="49.19077" lon="1.37764">
        <ele>131.8</ele>
        <time>2018-05-27T06:16:52Z</time>
      </trkpt>
      <trkpt lat="49.19085" lon="1.37778">
        <ele>131.7</ele>
        <time>2018-05-27T06:16:54Z</time>
      </trkpt>
      <trkpt lat="49.19094" lon="1.3779">
        <ele>131.7</ele>
        <time>2018-05-27T06:16:56Z</time>
      </trkpt>
      <trkpt lat="49.19103" lon="1.37802">
        <ele>131.8</ele>
        <time>2018-05-27T06:16:58Z</time>
      </trkpt>
      <trkpt lat="49.19111" lon="1.37815">
        <ele>131.8</ele>
        <time>2018-05-27T06:17:00Z</time>
      </trkpt>
      <trkpt lat="49.19117" lon="1.37828">
        <ele>132</ele>
        <time>2018-05-27T06:17:02Z</time>
      </trkpt>
      <trkpt lat="49.19124" lon="1.3784">
        <ele>132.1</ele>
        <time>2018-05-27T06:17:04Z</time>
      </trkpt>
      <trkpt lat="49.19131" lon="1.37854">
        <ele>132.3</ele>
        <time>2018-05-27T06:17:06Z</time>
      </trkpt>
      <trkpt lat="49.19138" lon="1.37868">
        <ele>132.4</ele>
        <time>2018-05-27T06:17:08Z</time>
      </trkpt>
      <trkpt lat="49.19147" lon="1.3788">
        <ele>132.5</ele>
        <time>2018-05-27T06:17:10Z</time>
      </trkpt>
      <trkpt lat="49.19155" lon="1.37892">
        <ele>132.5</ele>
        <time>2018-05-27T06:17:12Z</time>
      </trkpt>
      <trkpt lat="49.19162" lon="1.37903">
        <ele>132.6</ele>
        <time>2018-05-27T06:17:14Z</time>
      </trkpt>
      <trkpt lat="49.19173" lon="1.37912">
        <ele>132.4</ele>
        <time>2018-05-27T06:17:16Z</time>
      </trkpt>
      <trkpt lat="49.19179" lon="1.37927">
        <ele>132.2</ele>
        <time>2018-05-27T06:17:18Z</time>
      </trkpt>
      <trkpt lat="49.19184" lon="1.37942">
        <ele>132</ele>
        <time>2018-05-27T06:17:20Z</time>
      </trkpt>
      <trkpt lat="49.19193" lon="1.37957">
        <ele>131.7</ele>
        <time>2018-05-27T06:17:22Z</time>
      </trkpt>
      <trkpt lat="49.19202" lon="1.37973">
        <ele>131.4</ele>
        <time>2018-05-27T06:17:24Z</time>
      </trkpt>
      <trkpt lat="49.19211" lon="1.37988">
        <ele>131.1</ele>
        <time>2018-05-27T06:17:26Z</time>
      </trkpt>
      <trkpt lat="49.19221" lon="1.38004">
        <ele>130.7</ele>
        <time>2018-05-27T06:17:28Z</time>
      </trkpt>
      <trkpt lat="49.19229" lon="1.38018">
        <ele>130.2</ele>
        <time>2018-05-27T06:17:30Z</time>
      </trkpt>
      <trkpt lat="49.19239" lon="1.38032">
        <ele>130</ele>
        <time>2018-05-27T06:17:32Z</time>
      </trkpt>
      <trkpt lat="49.19243" lon="1.38049">
        <ele>130</ele>
        <time>2018-05-27T06:17:34Z</time>
      </trkpt>
      <trkpt lat="49.1925" lon="1.38064">
        <ele>130</ele>
        <time>2018-05-27T06:17:36Z</time>
      </trkpt>
      <trkpt lat="49.19257" lon="1.38078">
        <ele>130</ele>
        <time>2018-05-27T06:17:38Z</time>
      </trkpt>
      <trkpt lat="49.19265" lon="1.38091">
        <ele>130</ele>
        <time>2018-05-27T06:17:40Z</time>
      </trkpt>
      <trkpt lat="49.19272" lon="1.38104">
        <ele>130.3</ele>
        <time>2018-05-27T06:17:42Z</time>
      </trkpt>
      <trkpt lat="49.19279" lon="1.38116">
        <ele>130.6</ele>
        <time>2018-05-27T06:17:44Z</time>
      </trkpt>
      <trkpt lat="49.19286" lon="1.38128">
        <ele>131</ele>
        <time>2018-05-27T06:17:46Z</time>
      </trkpt>
      <trkpt lat="49.19292" lon="1.3814">
        <ele>131.3</ele>
        <time>2018-05-27T06:17:48Z</time>
      </trkpt>
      <trkpt lat="49.19298" lon="1.38151">
        <ele>131.7</ele>
        <time>2018-05-27T06:17:50Z</time>
      </trkpt>
      <trkpt lat="49.19304" lon="1.38162">
        <ele>132.1</ele>
        <time>2018-05-27T06:17:52Z</time>
      </trkpt>
      <trkpt lat="49.19311" lon="1.38172">
        <ele>132.5</ele>
        <time>2018-05-27T06:17:54Z</time>
      </trkpt>
      <trkpt lat="49.19317" lon="1.38183">
        <ele>132.6</ele>
        <time>2018-05-27T06:17:56Z</time>
      </trkpt>
      <trkpt lat="49.19326" lon="1.38199">
        <ele>133</ele>
        <time>2018-05-27T06:17:59Z</time>
      </trkpt>
      <trkpt lat="49.19332" lon="1.38209">
        <ele>133.2</ele>
        <time>2018-05-27T06:18:01Z</time>
      </trkpt>
      <trkpt lat="49.19339" lon="1.38219">
        <ele>133.5</ele>
        <time>2018-05-27T06:18:03Z</time>
      </trkpt>
      <trkpt lat="49.19346" lon="1.38234">
        <ele>134.1</ele>
        <time>2018-05-27T06:18:06Z</time>
      </trkpt>
      <trkpt lat="49.19352" lon="1.38245">
        <ele>134.4</ele>
        <time>2018-05-27T06:18:09Z</time>
      </trkpt>
      <trkpt lat="49.19364" lon="1.38252">
        <ele>134.6</ele>
        <time>2018-05-27T06:18:12Z</time>
      </trkpt>
      <trkpt lat="49.19374" lon="1.38255">
        <ele>134.8</ele>
        <time>2018-05-27T06:18:14Z</time>
      </trkpt>
      <trkpt lat="49.19384" lon="1.38259">
        <ele>135.1</ele>
        <time>2018-05-27T06:18:16Z</time>
      </trkpt>
      <trkpt lat="49.19398" lon="1.38264">
        <ele>135.1</ele>
        <time>2018-05-27T06:18:19Z</time>
      </trkpt>
      <trkpt lat="49.19407" lon="1.38268">
        <ele>135.4</ele>
        <time>2018-05-27T06:18:21Z</time>
      </trkpt>
      <trkpt lat="49.19417" lon="1.38273">
        <ele>135.4</ele>
        <time>2018-05-27T06:18:23Z</time>
      </trkpt>
      <trkpt lat="49.19427" lon="1.38278">
        <ele>135.7</ele>
        <time>2018-05-27T06:18:25Z</time>
      </trkpt>
      <trkpt lat="49.19436" lon="1.38285">
        <ele>135.7</ele>
        <time>2018-05-27T06:18:28Z</time>
      </trkpt>
      <trkpt lat="49.19446" lon="1.3829">
        <ele>135.9</ele>
        <time>2018-05-27T06:18:30Z</time>
      </trkpt>
      <trkpt lat="49.19459" lon="1.38296">
        <ele>135.8</ele>
        <time>2018-05-27T06:18:32Z</time>
      </trkpt>
      <trkpt lat="49.19469" lon="1.383">
        <ele>135.8</ele>
        <time>2018-05-27T06:18:34Z</time>
      </trkpt>
      <trkpt lat="49.19479" lon="1.38303">
        <ele>135.8</ele>
        <time>2018-05-27T06:18:36Z</time>
      </trkpt>
      <trkpt lat="49.19491" lon="1.38313">
        <ele>135.9</ele>
        <time>2018-05-27T06:18:39Z</time>
      </trkpt>
      <trkpt lat="49.19502" lon="1.38318">
        <ele>136</ele>
        <time>2018-05-27T06:18:41Z</time>
      </trkpt>
      <trkpt lat="49.19515" lon="1.38323">
        <ele>136.1</ele>
        <time>2018-05-27T06:18:43Z</time>
      </trkpt>
      <trkpt lat="49.19527" lon="1.38326">
        <ele>136</ele>
        <time>2018-05-27T06:18:46Z</time>
      </trkpt>
      <trkpt lat="49.19539" lon="1.38326">
        <ele>136.2</ele>
        <time>2018-05-27T06:18:48Z</time>
      </trkpt>
      <trkpt lat="49.19551" lon="1.38325">
        <ele>136.6</ele>
        <time>2018-05-27T06:18:51Z</time>
      </trkpt>
      <trkpt lat="49.19564" lon="1.38329">
        <ele>137.2</ele>
        <time>2018-05-27T06:18:54Z</time>
      </trkpt>
      <trkpt lat="49.19575" lon="1.38332">
        <ele>137.4</ele>
        <time>2018-05-27T06:18:56Z</time>
      </trkpt>
      <trkpt lat="49.19589" lon="1.38333">
        <ele>137.7</ele>
        <time>2018-05-27T06:18:58Z</time>
      </trkpt>
      <trkpt lat="49.19601" lon="1.38335">
        <ele>137.9</ele>
        <time>2018-05-27T06:19:00Z</time>
      </trkpt>
      <trkpt lat="49.19614" lon="1.38337">
        <ele>138.1</ele>
        <time>2018-05-27T06:19:02Z</time>
      </trkpt>
      <trkpt lat="49.19627" lon="1.38338">
        <ele>138.2</ele>
        <time>2018-05-27T06:19:04Z</time>
      </trkpt>
      <trkpt lat="49.19642" lon="1.38341">
        <ele>138.3</ele>
        <time>2018-05-27T06:19:06Z</time>
      </trkpt>
      <trkpt lat="49.19657" lon="1.38343">
        <ele>138.3</ele>
        <time>2018-05-27T06:19:08Z</time>
      </trkpt>
      <trkpt lat="49.19671" lon="1.38345">
        <ele>138.4</ele>
        <time>2018-05-27T06:19:10Z</time>
      </trkpt>
      <trkpt lat="49.19686" lon="1.38347">
        <ele>138.3</ele>
        <time>2018-05-27T06:19:12Z</time>
      </trkpt>
      <trkpt lat="49.19699" lon="1.38351">
        <ele>138.2</ele>
        <time>2018-05-27T06:19:14Z</time>
      </trkpt>
      <trkpt lat="49.19712" lon="1.38355">
        <ele>138.2</ele>
        <time>2018-05-27T06:19:16Z</time>
      </trkpt>
      <trkpt lat="49.19726" lon="1.3836">
        <ele>138.1</ele>
        <time>2018-05-27T06:19:18Z</time>
      </trkpt>
      <trkpt lat="49.1974" lon="1.38364">
        <ele>138.2</ele>
        <time>2018-05-27T06:19:20Z</time>
      </trkpt>
      <trkpt lat="49.19753" lon="1.38369">
        <ele>138.3</ele>
        <time>2018-05-27T06:19:22Z</time>
      </trkpt>
      <trkpt lat="49.19767" lon="1.38373">
        <ele>138.2</ele>
        <time>2018-05-27T06:19:24Z</time>
      </trkpt>
      <trkpt lat="49.1978" lon="1.38377">
        <ele>138.1</ele>
        <time>2018-05-27T06:19:26Z</time>
      </trkpt>
      <trkpt lat="49.19794" lon="1.38382">
        <ele>138</ele>
        <time>2018-05-27T06:19:28Z</time>
      </trkpt>
      <trkpt lat="49.19807" lon="1.38386">
        <ele>138.1</ele>
        <time>2018-05-27T06:19:30Z</time>
      </trkpt>
      <trkpt lat="49.19821" lon="1.38391">
        <ele>138.1</ele>
        <time>2018-05-27T06:19:32Z</time>
      </trkpt>
      <trkpt lat="49.19834" lon="1.38395">
        <ele>138</ele>
        <time>2018-05-27T06:19:34Z</time>
      </trkpt>
      <trkpt lat="49.19847" lon="1.384">
        <ele>138</ele>
        <time>2018-05-27T06:19:36Z</time>
      </trkpt>
      <trkpt lat="49.19861" lon="1.38404">
        <ele>138.1</ele>
        <time>2018-05-27T06:19:38Z</time>
      </trkpt>
      <trkpt lat="49.19875" lon="1.38408">
        <ele>138.1</ele>
        <time>2018-05-27T06:19:40Z</time>
      </trkpt>
      <trkpt lat="49.19889" lon="1.38412">
        <ele>138.2</ele>
        <time>2018-05-27T06:19:42Z</time>
      </trkpt>
      <trkpt lat="49.19903" lon="1.38417">
        <ele>138.5</ele>
        <time>2018-05-27T06:19:44Z</time>
      </trkpt>
      <trkpt lat="49.19917" lon="1.38421">
        <ele>138.5</ele>
        <time>2018-05-27T06:19:46Z</time>
      </trkpt>
      <trkpt lat="49.1993" lon="1.38425">
        <ele>138.5</ele>
        <time>2018-05-27T06:19:48Z</time>
      </trkpt>
      <trkpt lat="49.19944" lon="1.3843">
        <ele>138.5</ele>
        <time>2018-05-27T06:19:50Z</time>
      </trkpt>
      <trkpt lat="49.19958" lon="1.38434">
        <ele>138.5</ele>
        <time>2018-05-27T06:19:52Z</time>
      </trkpt>
      <trkpt lat="49.19972" lon="1.38438">
        <ele>138.5</ele>
        <time>2018-05-27T06:19:54Z</time>
      </trkpt>
      <trkpt lat="49.19985" lon="1.38442">
        <ele>138.5</ele>
        <time>2018-05-27T06:19:56Z</time>
      </trkpt>
      <trkpt lat="49.19998" lon="1.38446">
        <ele>138.6</ele>
        <time>2018-05-27T06:19:58Z</time>
      </trkpt>
      <trkpt lat="49.20006" lon="1.38454">
        <ele>138.5</ele>
        <time>2018-05-27T06:20:00Z</time>
      </trkpt>
      <trkpt lat="49.20013" lon="1.38468">
        <ele>138.7</ele>
        <time>2018-05-27T06:20:03Z</time>
      </trkpt>
      <trkpt lat="49.20012" lon="1.38482">
        <ele>139.1</ele>
        <time>2018-05-27T06:20:06Z</time>
      </trkpt>
      <trkpt lat="49.20006" lon="1.38495">
        <ele>139.5</ele>
        <time>2018-05-27T06:20:09Z</time>
      </trkpt>
      <trkpt lat="49.2" lon="1.38507">
        <ele>140</ele>
        <time>2018-05-27T06:20:12Z</time>
      </trkpt>
      <trkpt lat="49.19994" lon="1.3852">
        <ele>140.4</ele>
        <time>2018-05-27T06:20:15Z</time>
      </trkpt>
      <trkpt lat="49.19988" lon="1.38533">
        <ele>141.1</ele>
        <time>2018-05-27T06:20:18Z</time>
      </trkpt>
      <trkpt lat="49.19981" lon="1.38545">
        <ele>141.7</ele>
        <time>2018-05-27T06:20:21Z</time>
      </trkpt>
      <trkpt lat="49.19975" lon="1.38559">
        <ele>142.5</ele>
        <time>2018-05-27T06:20:24Z</time>
      </trkpt>
      <trkpt lat="49.19969" lon="1.38573">
        <ele>143.3</ele>
        <time>2018-05-27T06:20:27Z</time>
      </trkpt>
      <trkpt lat="49.19962" lon="1.38586">
        <ele>143.8</ele>
        <time>2018-05-27T06:20:30Z</time>
      </trkpt>
      <trkpt lat="49.19957" lon="1.386">
        <ele>144.2</ele>
        <time>2018-05-27T06:20:33Z</time>
      </trkpt>
      <trkpt lat="49.19955" lon="1.38617">
        <ele>144.8</ele>
        <time>2018-05-27T06:20:36Z</time>
      </trkpt>
      <trkpt lat="49.1996" lon="1.38631">
        <ele>145.4</ele>
        <time>2018-05-27T06:20:39Z</time>
      </trkpt>
      <trkpt lat="49.19966" lon="1.38645">
        <ele>145.9</ele>
        <time>2018-05-27T06:20:42Z</time>
      </trkpt>
      <trkpt lat="49.19973" lon="1.38656">
        <ele>146.3</ele>
        <time>2018-05-27T06:20:45Z</time>
      </trkpt>
      <trkpt lat="49.19983" lon="1.38665">
        <ele>146.8</ele>
        <time>2018-05-27T06:20:48Z</time>
      </trkpt>
      <trkpt lat="49.19993" lon="1.38666">
        <ele>147.4</ele>
        <time>2018-05-27T06:20:51Z</time>
      </trkpt>
      <trkpt lat="49.20003" lon="1.38663">
        <ele>147.6</ele>
        <time>2018-05-27T06:20:54Z</time>
      </trkpt>
      <trkpt lat="49.20013" lon="1.3866">
        <ele>147.7</ele>
        <time>2018-05-27T06:20:56Z</time>
      </trkpt>
      <trkpt lat="49.20024" lon="1.38656">
        <ele>147.6</ele>
        <time>2018-05-27T06:20:58Z</time>
      </trkpt>
      <trkpt lat="49.20035" lon="1.38653">
        <ele>147.4</ele>
        <time>2018-05-27T06:21:00Z</time>
      </trkpt>
      <trkpt lat="49.20047" lon="1.38649">
        <ele>147.2</ele>
        <time>2018-05-27T06:21:02Z</time>
      </trkpt>
      <trkpt lat="49.20058" lon="1.38647">
        <ele>147.1</ele>
        <time>2018-05-27T06:21:04Z</time>
      </trkpt>
      <trkpt lat="49.2007" lon="1.38645">
        <ele>147</ele>
        <time>2018-05-27T06:21:06Z</time>
      </trkpt>
      <trkpt lat="49.20081" lon="1.38643">
        <ele>146.8</ele>
        <time>2018-05-27T06:21:08Z</time>
      </trkpt>
      <trkpt lat="49.20092" lon="1.38643">
        <ele>146.6</ele>
        <time>2018-05-27T06:21:10Z</time>
      </trkpt>
      <trkpt lat="49.20104" lon="1.38644">
        <ele>146.3</ele>
        <time>2018-05-27T06:21:12Z</time>
      </trkpt>
      <trkpt lat="49.20116" lon="1.38645">
        <ele>146</ele>
        <time>2018-05-27T06:21:14Z</time>
      </trkpt>
      <trkpt lat="49.20129" lon="1.38646">
        <ele>145.6</ele>
        <time>2018-05-27T06:21:16Z</time>
      </trkpt>
      <trkpt lat="49.20143" lon="1.38648">
        <ele>145.3</ele>
        <time>2018-05-27T06:21:18Z</time>
      </trkpt>
      <trkpt lat="49.20156" lon="1.3865">
        <ele>144.8</ele>
        <time>2018-05-27T06:21:20Z</time>
      </trkpt>
      <trkpt lat="49.20169" lon="1.38651">
        <ele>144.4</ele>
        <time>2018-05-27T06:21:22Z</time>
      </trkpt>
      <trkpt lat="49.20182" lon="1.38654">
        <ele>143.6</ele>
        <time>2018-05-27T06:21:24Z</time>
      </trkpt>
      <trkpt lat="49.20197" lon="1.38659">
        <ele>143.4</ele>
        <time>2018-05-27T06:21:26Z</time>
      </trkpt>
      <trkpt lat="49.20212" lon="1.38663">
        <ele>143.1</ele>
        <time>2018-05-27T06:21:28Z</time>
      </trkpt>
      <trkpt lat="49.20228" lon="1.38665">
        <ele>142.5</ele>
        <time>2018-05-27T06:21:30Z</time>
      </trkpt>
      <trkpt lat="49.20245" lon="1.38666">
        <ele>141.4</ele>
        <time>2018-05-27T06:21:32Z</time>
      </trkpt>
      <trkpt lat="49.20262" lon="1.38668">
        <ele>140.6</ele>
        <time>2018-05-27T06:21:34Z</time>
      </trkpt>
      <trkpt lat="49.20278" lon="1.38676">
        <ele>139.8</ele>
        <time>2018-05-27T06:21:36Z</time>
      </trkpt>
      <trkpt lat="49.20292" lon="1.38689">
        <ele>139.2</ele>
        <time>2018-05-27T06:21:38Z</time>
      </trkpt>
      <trkpt lat="49.20304" lon="1.38701">
        <ele>138.6</ele>
        <time>2018-05-27T06:21:40Z</time>
      </trkpt>
      <trkpt lat="49.20318" lon="1.38712">
        <ele>138.1</ele>
        <time>2018-05-27T06:21:42Z</time>
      </trkpt>
      <trkpt lat="49.20331" lon="1.38723">
        <ele>137.7</ele>
        <time>2018-05-27T06:21:44Z</time>
      </trkpt>
      <trkpt lat="49.20345" lon="1.38734">
        <ele>136.9</ele>
        <time>2018-05-27T06:21:46Z</time>
      </trkpt>
      <trkpt lat="49.20357" lon="1.38743">
        <ele>136.4</ele>
        <time>2018-05-27T06:21:48Z</time>
      </trkpt>
      <trkpt lat="49.20368" lon="1.38752">
        <ele>136.1</ele>
        <time>2018-05-27T06:21:50Z</time>
      </trkpt>
      <trkpt lat="49.20377" lon="1.38758">
        <ele>135.9</ele>
        <time>2018-05-27T06:21:52Z</time>
      </trkpt>
      <trkpt lat="49.2038" lon="1.38773">
        <ele>135.3</ele>
        <time>2018-05-27T06:21:56Z</time>
      </trkpt>
      <trkpt lat="49.20374" lon="1.38788">
        <ele>135.5</ele>
        <time>2018-05-27T06:21:59Z</time>
      </trkpt>
      <trkpt lat="49.20377" lon="1.38803">
        <ele>136</ele>
        <time>2018-05-27T06:22:02Z</time>
      </trkpt>
      <trkpt lat="49.20387" lon="1.38811">
        <ele>136.8</ele>
        <time>2018-05-27T06:22:05Z</time>
      </trkpt>
      <trkpt lat="49.20399" lon="1.38816">
        <ele>137.4</ele>
        <time>2018-05-27T06:22:08Z</time>
      </trkpt>
      <trkpt lat="49.20409" lon="1.3882">
        <ele>138.1</ele>
        <time>2018-05-27T06:22:11Z</time>
      </trkpt>
      <trkpt lat="49.20418" lon="1.38825">
        <ele>138.7</ele>
        <time>2018-05-27T06:22:14Z</time>
      </trkpt>
      <trkpt lat="49.20427" lon="1.38829">
        <ele>139.5</ele>
        <time>2018-05-27T06:22:17Z</time>
      </trkpt>
      <trkpt lat="49.20437" lon="1.38834">
        <ele>140.4</ele>
        <time>2018-05-27T06:22:20Z</time>
      </trkpt>
      <trkpt lat="49.20447" lon="1.38838">
        <ele>141.5</ele>
        <time>2018-05-27T06:22:23Z</time>
      </trkpt>
      <trkpt lat="49.20456" lon="1.38841">
        <ele>142.2</ele>
        <time>2018-05-27T06:22:26Z</time>
      </trkpt>
      <trkpt lat="49.20466" lon="1.38845">
        <ele>143.1</ele>
        <time>2018-05-27T06:22:29Z</time>
      </trkpt>
      <trkpt lat="49.20475" lon="1.38849">
        <ele>144.1</ele>
        <time>2018-05-27T06:22:32Z</time>
      </trkpt>
      <trkpt lat="49.20485" lon="1.38854">
        <ele>145</ele>
        <time>2018-05-27T06:22:35Z</time>
      </trkpt>
      <trkpt lat="49.20495" lon="1.38858">
        <ele>145.7</ele>
        <time>2018-05-27T06:22:38Z</time>
      </trkpt>
      <trkpt lat="49.20506" lon="1.38862">
        <ele>146.5</ele>
        <time>2018-05-27T06:22:41Z</time>
      </trkpt>
      <trkpt lat="49.20516" lon="1.38867">
        <ele>147.2</ele>
        <time>2018-05-27T06:22:44Z</time>
      </trkpt>
      <trkpt lat="49.20527" lon="1.38872">
        <ele>148</ele>
        <time>2018-05-27T06:22:47Z</time>
      </trkpt>
      <trkpt lat="49.20538" lon="1.38876">
        <ele>148.7</ele>
        <time>2018-05-27T06:22:50Z</time>
      </trkpt>
      <trkpt lat="49.20549" lon="1.3888">
        <ele>149.5</ele>
        <time>2018-05-27T06:22:53Z</time>
      </trkpt>
      <trkpt lat="49.20561" lon="1.38886">
        <ele>150</ele>
        <time>2018-05-27T06:22:56Z</time>
      </trkpt>
      <trkpt lat="49.20573" lon="1.38891">
        <ele>150.2</ele>
        <time>2018-05-27T06:22:59Z</time>
      </trkpt>
      <trkpt lat="49.20582" lon="1.38896">
        <ele>150.3</ele>
        <time>2018-05-27T06:23:01Z</time>
      </trkpt>
      <trkpt lat="49.20591" lon="1.389">
        <ele>150.6</ele>
        <time>2018-05-27T06:23:03Z</time>
      </trkpt>
      <trkpt lat="49.20601" lon="1.38903">
        <ele>150.8</ele>
        <time>2018-05-27T06:23:05Z</time>
      </trkpt>
      <trkpt lat="49.20611" lon="1.38906">
        <ele>150.8</ele>
        <time>2018-05-27T06:23:07Z</time>
      </trkpt>
      <trkpt lat="49.20622" lon="1.38908">
        <ele>150.8</ele>
        <time>2018-05-27T06:23:09Z</time>
      </trkpt>
      <trkpt lat="49.20633" lon="1.3891">
        <ele>150.7</ele>
        <time>2018-05-27T06:23:11Z</time>
      </trkpt>
      <trkpt lat="49.20643" lon="1.38913">
        <ele>150.7</ele>
        <time>2018-05-27T06:23:13Z</time>
      </trkpt>
      <trkpt lat="49.20654" lon="1.38915">
        <ele>150.7</ele>
        <time>2018-05-27T06:23:15Z</time>
      </trkpt>
      <trkpt lat="49.20664" lon="1.38916">
        <ele>150.8</ele>
        <time>2018-05-27T06:23:17Z</time>
      </trkpt>
      <trkpt lat="49.20675" lon="1.38919">
        <ele>150.6</ele>
        <time>2018-05-27T06:23:19Z</time>
      </trkpt>
      <trkpt lat="49.20687" lon="1.38927">
        <ele>150.5</ele>
        <time>2018-05-27T06:23:21Z</time>
      </trkpt>
      <trkpt lat="49.20698" lon="1.38935">
        <ele>150.4</ele>
        <time>2018-05-27T06:23:23Z</time>
      </trkpt>
      <trkpt lat="49.2071" lon="1.38943">
        <ele>150</ele>
        <time>2018-05-27T06:23:25Z</time>
      </trkpt>
      <trkpt lat="49.20721" lon="1.38951">
        <ele>150.1</ele>
        <time>2018-05-27T06:23:27Z</time>
      </trkpt>
      <trkpt lat="49.20733" lon="1.38959">
        <ele>150</ele>
        <time>2018-05-27T06:23:29Z</time>
      </trkpt>
      <trkpt lat="49.20745" lon="1.38966">
        <ele>149.5</ele>
        <time>2018-05-27T06:23:31Z</time>
      </trkpt>
      <trkpt lat="49.20758" lon="1.38973">
        <ele>149.1</ele>
        <time>2018-05-27T06:23:33Z</time>
      </trkpt>
      <trkpt lat="49.20773" lon="1.38979">
        <ele>148.3</ele>
        <time>2018-05-27T06:23:35Z</time>
      </trkpt>
      <trkpt lat="49.2079" lon="1.38984">
        <ele>147.4</ele>
        <time>2018-05-27T06:23:37Z</time>
      </trkpt>
      <trkpt lat="49.20799" lon="1.38986">
        <ele>146.9</ele>
        <time>2018-05-27T06:23:38Z</time>
      </trkpt>
      <trkpt lat="49.20808" lon="1.38988">
        <ele>146.4</ele>
        <time>2018-05-27T06:23:39Z</time>
      </trkpt>
      <trkpt lat="49.20825" lon="1.38992">
        <ele>145.5</ele>
        <time>2018-05-27T06:23:41Z</time>
      </trkpt>
      <trkpt lat="49.20842" lon="1.38998">
        <ele>144.9</ele>
        <time>2018-05-27T06:23:43Z</time>
      </trkpt>
      <trkpt lat="49.20858" lon="1.39006">
        <ele>144.4</ele>
        <time>2018-05-27T06:23:45Z</time>
      </trkpt>
      <trkpt lat="49.20873" lon="1.39014">
        <ele>144.2</ele>
        <time>2018-05-27T06:23:47Z</time>
      </trkpt>
      <trkpt lat="49.20887" lon="1.39022">
        <ele>144.3</ele>
        <time>2018-05-27T06:23:49Z</time>
      </trkpt>
      <trkpt lat="49.209" lon="1.39029">
        <ele>144.3</ele>
        <time>2018-05-27T06:23:51Z</time>
      </trkpt>
      <trkpt lat="49.20911" lon="1.39035">
        <ele>144.5</ele>
        <time>2018-05-27T06:23:53Z</time>
      </trkpt>
      <trkpt lat="49.20922" lon="1.39041">
        <ele>145.1</ele>
        <time>2018-05-27T06:23:55Z</time>
      </trkpt>
      <trkpt lat="49.20933" lon="1.39047">
        <ele>145.3</ele>
        <time>2018-05-27T06:23:57Z</time>
      </trkpt>
      <trkpt lat="49.20945" lon="1.39053">
        <ele>145.8</ele>
        <time>2018-05-27T06:23:59Z</time>
      </trkpt>
      <trkpt lat="49.20956" lon="1.39059">
        <ele>146.1</ele>
        <time>2018-05-27T06:24:01Z</time>
      </trkpt>
      <trkpt lat="49.20967" lon="1.39065">
        <ele>146.2</ele>
        <time>2018-05-27T06:24:03Z</time>
      </trkpt>
      <trkpt lat="49.20977" lon="1.39068">
        <ele>146.7</ele>
        <time>2018-05-27T06:24:05Z</time>
      </trkpt>
      <trkpt lat="49.20988" lon="1.3907">
        <ele>147.1</ele>
        <time>2018-05-27T06:24:07Z</time>
      </trkpt>
      <trkpt lat="49.20999" lon="1.3907">
        <ele>147.4</ele>
        <time>2018-05-27T06:24:09Z</time>
      </trkpt>
      <trkpt lat="49.21012" lon="1.3907">
        <ele>147.6</ele>
        <time>2018-05-27T06:24:11Z</time>
      </trkpt>
      <trkpt lat="49.21025" lon="1.3907">
        <ele>147.6</ele>
        <time>2018-05-27T06:24:13Z</time>
      </trkpt>
      <trkpt lat="49.21037" lon="1.39071">
        <ele>147.6</ele>
        <time>2018-05-27T06:24:15Z</time>
      </trkpt>
      <trkpt lat="49.2105" lon="1.39072">
        <ele>147.4</ele>
        <time>2018-05-27T06:24:17Z</time>
      </trkpt>
      <trkpt lat="49.21063" lon="1.39074">
        <ele>147.1</ele>
        <time>2018-05-27T06:24:19Z</time>
      </trkpt>
      <trkpt lat="49.21077" lon="1.39075">
        <ele>146.9</ele>
        <time>2018-05-27T06:24:21Z</time>
      </trkpt>
      <trkpt lat="49.2109" lon="1.39077">
        <ele>146.6</ele>
        <time>2018-05-27T06:24:23Z</time>
      </trkpt>
      <trkpt lat="49.21102" lon="1.39079">
        <ele>146.5</ele>
        <time>2018-05-27T06:24:25Z</time>
      </trkpt>
      <trkpt lat="49.21117" lon="1.39081">
        <ele>146.3</ele>
        <time>2018-05-27T06:24:27Z</time>
      </trkpt>
      <trkpt lat="49.21133" lon="1.39082">
        <ele>145.5</ele>
        <time>2018-05-27T06:24:29Z</time>
      </trkpt>
      <trkpt lat="49.21149" lon="1.39088">
        <ele>144.5</ele>
        <time>2018-05-27T06:24:31Z</time>
      </trkpt>
      <trkpt lat="49.21163" lon="1.39096">
        <ele>144</ele>
        <time>2018-05-27T06:24:33Z</time>
      </trkpt>
      <trkpt lat="49.21176" lon="1.39105">
        <ele>143.6</ele>
        <time>2018-05-27T06:24:35Z</time>
      </trkpt>
      <trkpt lat="49.21188" lon="1.39113">
        <ele>143.3</ele>
        <time>2018-05-27T06:24:37Z</time>
      </trkpt>
      <trkpt lat="49.21201" lon="1.39121">
        <ele>143.2</ele>
        <time>2018-05-27T06:24:39Z</time>
      </trkpt>
      <trkpt lat="49.21216" lon="1.39127">
        <ele>143.2</ele>
        <time>2018-05-27T06:24:41Z</time>
      </trkpt>
      <trkpt lat="49.21229" lon="1.39135">
        <ele>142.9</ele>
        <time>2018-05-27T06:24:43Z</time>
      </trkpt>
      <trkpt lat="49.21244" lon="1.39144">
        <ele>142.5</ele>
        <time>2018-05-27T06:24:45Z</time>
      </trkpt>
      <trkpt lat="49.21259" lon="1.39155">
        <ele>141.9</ele>
        <time>2018-05-27T06:24:47Z</time>
      </trkpt>
      <trkpt lat="49.21274" lon="1.39163">
        <ele>141.3</ele>
        <time>2018-05-27T06:24:49Z</time>
      </trkpt>
      <trkpt lat="49.2129" lon="1.39171">
        <ele>140.8</ele>
        <time>2018-05-27T06:24:51Z</time>
      </trkpt>
      <trkpt lat="49.21304" lon="1.39178">
        <ele>139.8</ele>
        <time>2018-05-27T06:24:53Z</time>
      </trkpt>
      <trkpt lat="49.21315" lon="1.39185">
        <ele>138</ele>
        <time>2018-05-27T06:24:55Z</time>
      </trkpt>
      <trkpt lat="49.2133" lon="1.39197">
        <ele>138.4</ele>
        <time>2018-05-27T06:24:58Z</time>
      </trkpt>
      <trkpt lat="49.2134" lon="1.39205">
        <ele>138.1</ele>
        <time>2018-05-27T06:25:00Z</time>
      </trkpt>
      <trkpt lat="49.2135" lon="1.39214">
        <ele>138</ele>
        <time>2018-05-27T06:25:02Z</time>
      </trkpt>
      <trkpt lat="49.21359" lon="1.39222">
        <ele>138</ele>
        <time>2018-05-27T06:25:04Z</time>
      </trkpt>
      <trkpt lat="49.21369" lon="1.39231">
        <ele>137.9</ele>
        <time>2018-05-27T06:25:06Z</time>
      </trkpt>
      <trkpt lat="49.21378" lon="1.39246">
        <ele>137.5</ele>
        <time>2018-05-27T06:25:09Z</time>
      </trkpt>
      <trkpt lat="49.21384" lon="1.39263">
        <ele>137.1</ele>
        <time>2018-05-27T06:25:12Z</time>
      </trkpt>
      <trkpt lat="49.2139" lon="1.39274">
        <ele>137.2</ele>
        <time>2018-05-27T06:25:14Z</time>
      </trkpt>
      <trkpt lat="49.21398" lon="1.39288">
        <ele>137.4</ele>
        <time>2018-05-27T06:25:17Z</time>
      </trkpt>
      <trkpt lat="49.21406" lon="1.393">
        <ele>137.6</ele>
        <time>2018-05-27T06:25:20Z</time>
      </trkpt>
      <trkpt lat="49.21414" lon="1.39308">
        <ele>138.6</ele>
        <time>2018-05-27T06:25:24Z</time>
      </trkpt>
      <trkpt lat="49.21424" lon="1.39314">
        <ele>140.1</ele>
        <time>2018-05-27T06:25:29Z</time>
      </trkpt>
      <trkpt lat="49.21433" lon="1.39319">
        <ele>142.1</ele>
        <time>2018-05-27T06:25:34Z</time>
      </trkpt>
      <trkpt lat="49.21442" lon="1.39325">
        <ele>144.1</ele>
        <time>2018-05-27T06:25:40Z</time>
      </trkpt>
      <trkpt lat="49.21452" lon="1.39329">
        <ele>146.3</ele>
        <time>2018-05-27T06:25:46Z</time>
      </trkpt>
      <trkpt lat="49.21461" lon="1.39331">
        <ele>147.4</ele>
        <time>2018-05-27T06:25:50Z</time>
      </trkpt>
      <trkpt lat="49.21471" lon="1.39332">
        <ele>147.8</ele>
        <time>2018-05-27T06:25:53Z</time>
      </trkpt>
      <trkpt lat="49.21481" lon="1.39338">
        <ele>148</ele>
        <time>2018-05-27T06:25:56Z</time>
      </trkpt>
      <trkpt lat="49.21492" lon="1.39342">
        <ele>148.1</ele>
        <time>2018-05-27T06:25:59Z</time>
      </trkpt>
      <trkpt lat="49.21504" lon="1.39347">
        <ele>147.7</ele>
        <time>2018-05-27T06:26:02Z</time>
      </trkpt>
      <trkpt lat="49.21514" lon="1.39355">
        <ele>147.1</ele>
        <time>2018-05-27T06:26:04Z</time>
      </trkpt>
      <trkpt lat="49.21524" lon="1.39357">
        <ele>145.6</ele>
        <time>2018-05-27T06:26:07Z</time>
      </trkpt>
      <trkpt lat="49.21536" lon="1.3936">
        <ele>144.7</ele>
        <time>2018-05-27T06:26:09Z</time>
      </trkpt>
      <trkpt lat="49.21549" lon="1.39368">
        <ele>143.6</ele>
        <time>2018-05-27T06:26:11Z</time>
      </trkpt>
      <trkpt lat="49.2156" lon="1.39378">
        <ele>142.7</ele>
        <time>2018-05-27T06:26:13Z</time>
      </trkpt>
      <trkpt lat="49.21572" lon="1.39388">
        <ele>141.8</ele>
        <time>2018-05-27T06:26:15Z</time>
      </trkpt>
      <trkpt lat="49.21582" lon="1.39396">
        <ele>141.2</ele>
        <time>2018-05-27T06:26:17Z</time>
      </trkpt>
      <trkpt lat="49.21593" lon="1.39403">
        <ele>140.8</ele>
        <time>2018-05-27T06:26:19Z</time>
      </trkpt>
      <trkpt lat="49.21603" lon="1.39411">
        <ele>140.7</ele>
        <time>2018-05-27T06:26:21Z</time>
      </trkpt>
      <trkpt lat="49.21611" lon="1.39416">
        <ele>140.5</ele>
        <time>2018-05-27T06:26:23Z</time>
      </trkpt>
      <trkpt lat="49.21623" lon="1.39422">
        <ele>140.4</ele>
        <time>2018-05-27T06:26:26Z</time>
      </trkpt>
      <trkpt lat="49.2164" lon="1.39428">
        <ele>139</ele>
        <time>2018-05-27T06:26:31Z</time>
      </trkpt>
      <trkpt lat="49.2165" lon="1.3943">
        <ele>138.2</ele>
        <time>2018-05-27T06:26:37Z</time>
      </trkpt>
      <trkpt lat="49.21658" lon="1.39435">
        <ele>137.9</ele>
        <time>2018-05-27T06:26:40Z</time>
      </trkpt>
      <trkpt lat="49.21671" lon="1.39434">
        <ele>136</ele>
        <time>2018-05-27T06:26:43Z</time>
      </trkpt>
      <trkpt lat="49.21683" lon="1.39432">
        <ele>135.5</ele>
        <time>2018-05-27T06:26:46Z</time>
      </trkpt>
      <trkpt lat="49.21694" lon="1.39433">
        <ele>133</ele>
        <time>2018-05-27T06:26:49Z</time>
      </trkpt>
      <trkpt lat="49.21706" lon="1.39434">
        <ele>130.7</ele>
        <time>2018-05-27T06:26:51Z</time>
      </trkpt>
      <trkpt lat="49.21719" lon="1.39436">
        <ele>128.4</ele>
        <time>2018-05-27T06:26:53Z</time>
      </trkpt>
      <trkpt lat="49.2173" lon="1.39442">
        <ele>126.8</ele>
        <time>2018-05-27T06:26:55Z</time>
      </trkpt>
      <trkpt lat="49.21739" lon="1.39444">
        <ele>125.2</ele>
        <time>2018-05-27T06:26:57Z</time>
      </trkpt>
      <trkpt lat="49.21749" lon="1.39442">
        <ele>123.6</ele>
        <time>2018-05-27T06:26:59Z</time>
      </trkpt>
      <trkpt lat="49.21764" lon="1.39443">
        <ele>121.8</ele>
        <time>2018-05-27T06:27:01Z</time>
      </trkpt>
      <trkpt lat="49.21778" lon="1.39449">
        <ele>119.9</ele>
        <time>2018-05-27T06:27:03Z</time>
      </trkpt>
      <trkpt lat="49.21791" lon="1.39459">
        <ele>118.6</ele>
        <time>2018-05-27T06:27:05Z</time>
      </trkpt>
      <trkpt lat="49.21803" lon="1.39469">
        <ele>117.3</ele>
        <time>2018-05-27T06:27:07Z</time>
      </trkpt>
      <trkpt lat="49.21815" lon="1.39481">
        <ele>115.7</ele>
        <time>2018-05-27T06:27:09Z</time>
      </trkpt>
      <trkpt lat="49.21826" lon="1.39501">
        <ele>114</ele>
        <time>2018-05-27T06:27:11Z</time>
      </trkpt>
      <trkpt lat="49.21837" lon="1.39518">
        <ele>112.7</ele>
        <time>2018-05-27T06:27:13Z</time>
      </trkpt>
      <trkpt lat="49.21851" lon="1.39529">
        <ele>111.9</ele>
        <time>2018-05-27T06:27:15Z</time>
      </trkpt>
      <trkpt lat="49.2186" lon="1.39539">
        <ele>111.1</ele>
        <time>2018-05-27T06:27:17Z</time>
      </trkpt>
      <trkpt lat="49.21873" lon="1.39547">
        <ele>110.6</ele>
        <time>2018-05-27T06:27:19Z</time>
      </trkpt>
      <trkpt lat="49.21887" lon="1.39553">
        <ele>110.2</ele>
        <time>2018-05-27T06:27:21Z</time>
      </trkpt>
      <trkpt lat="49.21899" lon="1.39555">
        <ele>110</ele>
        <time>2018-05-27T06:27:23Z</time>
      </trkpt>
      <trkpt lat="49.21909" lon="1.39555">
        <ele>110.1</ele>
        <time>2018-05-27T06:27:25Z</time>
      </trkpt>
      <trkpt lat="49.21918" lon="1.39551">
        <ele>110.2</ele>
        <time>2018-05-27T06:27:27Z</time>
      </trkpt>
      <trkpt lat="49.21931" lon="1.39541">
        <ele>110.2</ele>
        <time>2018-05-27T06:27:30Z</time>
      </trkpt>
      <trkpt lat="49.21942" lon="1.39543">
        <ele>110.1</ele>
        <time>2018-05-27T06:27:32Z</time>
      </trkpt>
      <trkpt lat="49.21952" lon="1.39552">
        <ele>110</ele>
        <time>2018-05-27T06:27:34Z</time>
      </trkpt>
      <trkpt lat="49.21962" lon="1.3956">
        <ele>110.1</ele>
        <time>2018-05-27T06:27:36Z</time>
      </trkpt>
      <trkpt lat="49.21973" lon="1.39568">
        <ele>110.1</ele>
        <time>2018-05-27T06:27:38Z</time>
      </trkpt>
      <trkpt lat="49.21984" lon="1.39576">
        <ele>110.2</ele>
        <time>2018-05-27T06:27:40Z</time>
      </trkpt>
      <trkpt lat="49.21995" lon="1.39584">
        <ele>110.3</ele>
        <time>2018-05-27T06:27:42Z</time>
      </trkpt>
      <trkpt lat="49.22005" lon="1.39591">
        <ele>110.4</ele>
        <time>2018-05-27T06:27:44Z</time>
      </trkpt>
      <trkpt lat="49.2201" lon="1.39603">
        <ele>110.6</ele>
        <time>2018-05-27T06:27:46Z</time>
      </trkpt>
      <trkpt lat="49.22006" lon="1.39618">
        <ele>111.4</ele>
        <time>2018-05-27T06:27:50Z</time>
      </trkpt>
      <trkpt lat="49.22002" lon="1.39632">
        <ele>112.7</ele>
        <time>2018-05-27T06:27:54Z</time>
      </trkpt>
      <trkpt lat="49.22" lon="1.39646">
        <ele>114.2</ele>
        <time>2018-05-27T06:27:58Z</time>
      </trkpt>
      <trkpt lat="49.22006" lon="1.39659">
        <ele>116.9</ele>
        <time>2018-05-27T06:28:04Z</time>
      </trkpt>
      <trkpt lat="49.22014" lon="1.39666">
        <ele>118.3</ele>
        <time>2018-05-27T06:28:08Z</time>
      </trkpt>
      <trkpt lat="49.22021" lon="1.39676">
        <ele>119.5</ele>
        <time>2018-05-27T06:28:12Z</time>
      </trkpt>
      <trkpt lat="49.2203" lon="1.39686">
        <ele>120.4</ele>
        <time>2018-05-27T06:28:16Z</time>
      </trkpt>
      <trkpt lat="49.22036" lon="1.39697">
        <ele>121.5</ele>
        <time>2018-05-27T06:28:20Z</time>
      </trkpt>
      <trkpt lat="49.22043" lon="1.3971">
        <ele>123.4</ele>
        <time>2018-05-27T06:28:25Z</time>
      </trkpt>
      <trkpt lat="49.2205" lon="1.3972">
        <ele>124.3</ele>
        <time>2018-05-27T06:28:29Z</time>
      </trkpt>
      <trkpt lat="49.22055" lon="1.39731">
        <ele>124.9</ele>
        <time>2018-05-27T06:28:33Z</time>
      </trkpt>
      <trkpt lat="49.22064" lon="1.39745">
        <ele>124.8</ele>
        <time>2018-05-27T06:28:37Z</time>
      </trkpt>
      <trkpt lat="49.22074" lon="1.39754">
        <ele>124.5</ele>
        <time>2018-05-27T06:28:40Z</time>
      </trkpt>
      <trkpt lat="49.22084" lon="1.39761">
        <ele>124.4</ele>
        <time>2018-05-27T06:28:42Z</time>
      </trkpt>
      <trkpt lat="49.22093" lon="1.39769">
        <ele>124.3</ele>
        <time>2018-05-27T06:28:44Z</time>
      </trkpt>
      <trkpt lat="49.22104" lon="1.3978">
        <ele>124.6</ele>
        <time>2018-05-27T06:28:47Z</time>
      </trkpt>
      <trkpt lat="49.22115" lon="1.39788">
        <ele>125.2</ele>
        <time>2018-05-27T06:28:51Z</time>
      </trkpt>
      <trkpt lat="49.22126" lon="1.39795">
        <ele>125.3</ele>
        <time>2018-05-27T06:28:54Z</time>
      </trkpt>
      <trkpt lat="49.22135" lon="1.39802">
        <ele>125.6</ele>
        <time>2018-05-27T06:28:57Z</time>
      </trkpt>
      <trkpt lat="49.22145" lon="1.3981">
        <ele>125.9</ele>
        <time>2018-05-27T06:29:00Z</time>
      </trkpt>
      <trkpt lat="49.22156" lon="1.39816">
        <ele>126.2</ele>
        <time>2018-05-27T06:29:03Z</time>
      </trkpt>
      <trkpt lat="49.22166" lon="1.39823">
        <ele>126.2</ele>
        <time>2018-05-27T06:29:05Z</time>
      </trkpt>
      <trkpt lat="49.22176" lon="1.39833">
        <ele>126.4</ele>
        <time>2018-05-27T06:29:08Z</time>
      </trkpt>
      <trkpt lat="49.22186" lon="1.39844">
        <ele>126.6</ele>
        <time>2018-05-27T06:29:11Z</time>
      </trkpt>
      <trkpt lat="49.22194" lon="1.39851">
        <ele>126.8</ele>
        <time>2018-05-27T06:29:13Z</time>
      </trkpt>
      <trkpt lat="49.22204" lon="1.39856">
        <ele>127</ele>
        <time>2018-05-27T06:29:15Z</time>
      </trkpt>
      <trkpt lat="49.22212" lon="1.39864">
        <ele>127.1</ele>
        <time>2018-05-27T06:29:17Z</time>
      </trkpt>
      <trkpt lat="49.22221" lon="1.39871">
        <ele>127.2</ele>
        <time>2018-05-27T06:29:19Z</time>
      </trkpt>
      <trkpt lat="49.22232" lon="1.39877">
        <ele>127.2</ele>
        <time>2018-05-27T06:29:21Z</time>
      </trkpt>
      <trkpt lat="49.22242" lon="1.39885">
        <ele>127.1</ele>
        <time>2018-05-27T06:29:23Z</time>
      </trkpt>
      <trkpt lat="49.22254" lon="1.39894">
        <ele>126.6</ele>
        <time>2018-05-27T06:29:25Z</time>
      </trkpt>
      <trkpt lat="49.22265" lon="1.39902">
        <ele>126.2</ele>
        <time>2018-05-27T06:29:27Z</time>
      </trkpt>
      <trkpt lat="49.22278" lon="1.39907">
        <ele>125.9</ele>
        <time>2018-05-27T06:29:29Z</time>
      </trkpt>
      <trkpt lat="49.22292" lon="1.39911">
        <ele>125.9</ele>
        <time>2018-05-27T06:29:31Z</time>
      </trkpt>
      <trkpt lat="49.22304" lon="1.39915">
        <ele>125.7</ele>
        <time>2018-05-27T06:29:33Z</time>
      </trkpt>
      <trkpt lat="49.22316" lon="1.3992">
        <ele>125.4</ele>
        <time>2018-05-27T06:29:35Z</time>
      </trkpt>
      <trkpt lat="49.22328" lon="1.39925">
        <ele>124.6</ele>
        <time>2018-05-27T06:29:37Z</time>
      </trkpt>
      <trkpt lat="49.22343" lon="1.39931">
        <ele>124</ele>
        <time>2018-05-27T06:29:39Z</time>
      </trkpt>
      <trkpt lat="49.22352" lon="1.39933">
        <ele>123.5</ele>
        <time>2018-05-27T06:29:40Z</time>
      </trkpt>
      <trkpt lat="49.22366" lon="1.39941">
        <ele>123</ele>
        <time>2018-05-27T06:29:42Z</time>
      </trkpt>
      <trkpt lat="49.22379" lon="1.3995">
        <ele>122.6</ele>
        <time>2018-05-27T06:29:44Z</time>
      </trkpt>
      <trkpt lat="49.2239" lon="1.39956">
        <ele>122.5</ele>
        <time>2018-05-27T06:29:46Z</time>
      </trkpt>
      <trkpt lat="49.224" lon="1.39962">
        <ele>122.4</ele>
        <time>2018-05-27T06:29:48Z</time>
      </trkpt>
      <trkpt lat="49.22409" lon="1.39967">
        <ele>122.4</ele>
        <time>2018-05-27T06:29:50Z</time>
      </trkpt>
      <trkpt lat="49.22418" lon="1.39971">
        <ele>122.6</ele>
        <time>2018-05-27T06:29:52Z</time>
      </trkpt>
      <trkpt lat="49.22428" lon="1.39976">
        <ele>122.6</ele>
        <time>2018-05-27T06:29:54Z</time>
      </trkpt>
      <trkpt lat="49.22439" lon="1.39979">
        <ele>122.6</ele>
        <time>2018-05-27T06:29:56Z</time>
      </trkpt>
      <trkpt lat="49.22448" lon="1.39982">
        <ele>122.3</ele>
        <time>2018-05-27T06:29:58Z</time>
      </trkpt>
      <trkpt lat="49.22456" lon="1.3999">
        <ele>121.8</ele>
        <time>2018-05-27T06:30:00Z</time>
      </trkpt>
      <trkpt lat="49.22465" lon="1.39993">
        <ele>121.3</ele>
        <time>2018-05-27T06:30:02Z</time>
      </trkpt>
      <trkpt lat="49.22476" lon="1.39987">
        <ele>120</ele>
        <time>2018-05-27T06:30:06Z</time>
      </trkpt>
      <trkpt lat="49.22483" lon="1.39976">
        <ele>118.4</ele>
        <time>2018-05-27T06:30:08Z</time>
      </trkpt>
      <trkpt lat="49.22492" lon="1.3996">
        <ele>115.8</ele>
        <time>2018-05-27T06:30:11Z</time>
      </trkpt>
      <trkpt lat="49.22497" lon="1.39948">
        <ele>112.4</ele>
        <time>2018-05-27T06:30:15Z</time>
      </trkpt>
      <trkpt lat="49.22506" lon="1.39948">
        <ele>110.1</ele>
        <time>2018-05-27T06:30:20Z</time>
      </trkpt>
      <trkpt lat="49.22516" lon="1.39953">
        <ele>109.6</ele>
        <time>2018-05-27T06:30:23Z</time>
      </trkpt>
      <trkpt lat="49.22529" lon="1.3996">
        <ele>109.5</ele>
        <time>2018-05-27T06:30:26Z</time>
      </trkpt>
      <trkpt lat="49.22539" lon="1.39964">
        <ele>109.6</ele>
        <time>2018-05-27T06:30:28Z</time>
      </trkpt>
      <trkpt lat="49.22547" lon="1.39969">
        <ele>109.7</ele>
        <time>2018-05-27T06:30:30Z</time>
      </trkpt>
      <trkpt lat="49.22556" lon="1.39976">
        <ele>109.8</ele>
        <time>2018-05-27T06:30:32Z</time>
      </trkpt>
      <trkpt lat="49.22565" lon="1.39985">
        <ele>109.8</ele>
        <time>2018-05-27T06:30:34Z</time>
      </trkpt>
      <trkpt lat="49.22573" lon="1.39993">
        <ele>109.9</ele>
        <time>2018-05-27T06:30:36Z</time>
      </trkpt>
      <trkpt lat="49.22583" lon="1.40001">
        <ele>109.9</ele>
        <time>2018-05-27T06:30:38Z</time>
      </trkpt>
      <trkpt lat="49.22593" lon="1.4001">
        <ele>110</ele>
        <time>2018-05-27T06:30:40Z</time>
      </trkpt>
      <trkpt lat="49.22602" lon="1.40019">
        <ele>110.1</ele>
        <time>2018-05-27T06:30:42Z</time>
      </trkpt>
      <trkpt lat="49.22611" lon="1.40027">
        <ele>110.2</ele>
        <time>2018-05-27T06:30:44Z</time>
      </trkpt>
      <trkpt lat="49.2262" lon="1.40035">
        <ele>110.3</ele>
        <time>2018-05-27T06:30:46Z</time>
      </trkpt>
      <trkpt lat="49.22629" lon="1.40044">
        <ele>110.5</ele>
        <time>2018-05-27T06:30:48Z</time>
      </trkpt>
      <trkpt lat="49.22637" lon="1.40053">
        <ele>110.6</ele>
        <time>2018-05-27T06:30:50Z</time>
      </trkpt>
      <trkpt lat="49.22644" lon="1.40062">
        <ele>110.9</ele>
        <time>2018-05-27T06:30:52Z</time>
      </trkpt>
      <trkpt lat="49.22653" lon="1.40071">
        <ele>111.2</ele>
        <time>2018-05-27T06:30:54Z</time>
      </trkpt>
      <trkpt lat="49.2266" lon="1.40079">
        <ele>111.7</ele>
        <time>2018-05-27T06:30:56Z</time>
      </trkpt>
      <trkpt lat="49.22668" lon="1.40087">
        <ele>112</ele>
        <time>2018-05-27T06:30:58Z</time>
      </trkpt>
      <trkpt lat="49.22678" lon="1.40094">
        <ele>112.4</ele>
        <time>2018-05-27T06:31:00Z</time>
      </trkpt>
      <trkpt lat="49.22687" lon="1.401">
        <ele>112.7</ele>
        <time>2018-05-27T06:31:02Z</time>
      </trkpt>
      <trkpt lat="49.22698" lon="1.40104">
        <ele>113</ele>
        <time>2018-05-27T06:31:04Z</time>
      </trkpt>
      <trkpt lat="49.22709" lon="1.40106">
        <ele>113.1</ele>
        <time>2018-05-27T06:31:06Z</time>
      </trkpt>
      <trkpt lat="49.22721" lon="1.40105">
        <ele>113.2</ele>
        <time>2018-05-27T06:31:08Z</time>
      </trkpt>
      <trkpt lat="49.22734" lon="1.40102">
        <ele>113.2</ele>
        <time>2018-05-27T06:31:10Z</time>
      </trkpt>
      <trkpt lat="49.22746" lon="1.40099">
        <ele>113.1</ele>
        <time>2018-05-27T06:31:12Z</time>
      </trkpt>
      <trkpt lat="49.2276" lon="1.40096">
        <ele>113</ele>
        <time>2018-05-27T06:31:14Z</time>
      </trkpt>
      <trkpt lat="49.22774" lon="1.40094">
        <ele>112</ele>
        <time>2018-05-27T06:31:16Z</time>
      </trkpt>
      <trkpt lat="49.22795" lon="1.4009">
        <ele>112.1</ele>
        <time>2018-05-27T06:31:19Z</time>
      </trkpt>
      <trkpt lat="49.2281" lon="1.40087">
        <ele>111.5</ele>
        <time>2018-05-27T06:31:21Z</time>
      </trkpt>
      <trkpt lat="49.22824" lon="1.40086">
        <ele>111</ele>
        <time>2018-05-27T06:31:23Z</time>
      </trkpt>
      <trkpt lat="49.22839" lon="1.40084">
        <ele>110.5</ele>
        <time>2018-05-27T06:31:25Z</time>
      </trkpt>
      <trkpt lat="49.22855" lon="1.40085">
        <ele>110.1</ele>
        <time>2018-05-27T06:31:27Z</time>
      </trkpt>
      <trkpt lat="49.2287" lon="1.40087">
        <ele>109.9</ele>
        <time>2018-05-27T06:31:29Z</time>
      </trkpt>
      <trkpt lat="49.22885" lon="1.40091">
        <ele>109.6</ele>
        <time>2018-05-27T06:31:31Z</time>
      </trkpt>
      <trkpt lat="49.22899" lon="1.40094">
        <ele>109.2</ele>
        <time>2018-05-27T06:31:33Z</time>
      </trkpt>
      <trkpt lat="49.22913" lon="1.40098">
        <ele>109.2</ele>
        <time>2018-05-27T06:31:35Z</time>
      </trkpt>
      <trkpt lat="49.22925" lon="1.40102">
        <ele>109.1</ele>
        <time>2018-05-27T06:31:37Z</time>
      </trkpt>
      <trkpt lat="49.22939" lon="1.40107">
        <ele>108.9</ele>
        <time>2018-05-27T06:31:39Z</time>
      </trkpt>
      <trkpt lat="49.22953" lon="1.4011">
        <ele>108.8</ele>
        <time>2018-05-27T06:31:41Z</time>
      </trkpt>
      <trkpt lat="49.22967" lon="1.40113">
        <ele>108.7</ele>
        <time>2018-05-27T06:31:43Z</time>
      </trkpt>
      <trkpt lat="49.22982" lon="1.40116">
        <ele>108.6</ele>
        <time>2018-05-27T06:31:45Z</time>
      </trkpt>
      <trkpt lat="49.22996" lon="1.4012">
        <ele>108.5</ele>
        <time>2018-05-27T06:31:47Z</time>
      </trkpt>
      <trkpt lat="49.23009" lon="1.40124">
        <ele>108.5</ele>
        <time>2018-05-27T06:31:49Z</time>
      </trkpt>
      <trkpt lat="49.23023" lon="1.40127">
        <ele>108.6</ele>
        <time>2018-05-27T06:31:51Z</time>
      </trkpt>
      <trkpt lat="49.23037" lon="1.40131">
        <ele>108.4</ele>
        <time>2018-05-27T06:31:53Z</time>
      </trkpt>
      <trkpt lat="49.2305" lon="1.40135">
        <ele>108.3</ele>
        <time>2018-05-27T06:31:55Z</time>
      </trkpt>
      <trkpt lat="49.23064" lon="1.4014">
        <ele>108.3</ele>
        <time>2018-05-27T06:31:57Z</time>
      </trkpt>
      <trkpt lat="49.23077" lon="1.40143">
        <ele>108.4</ele>
        <time>2018-05-27T06:31:59Z</time>
      </trkpt>
      <trkpt lat="49.23091" lon="1.40147">
        <ele>108.4</ele>
        <time>2018-05-27T06:32:01Z</time>
      </trkpt>
      <trkpt lat="49.23104" lon="1.40151">
        <ele>108.5</ele>
        <time>2018-05-27T06:32:03Z</time>
      </trkpt>
      <trkpt lat="49.23118" lon="1.40155">
        <ele>108.5</ele>
        <time>2018-05-27T06:32:05Z</time>
      </trkpt>
      <trkpt lat="49.23131" lon="1.40158">
        <ele>108.4</ele>
        <time>2018-05-27T06:32:07Z</time>
      </trkpt>
      <trkpt lat="49.23144" lon="1.40161">
        <ele>108.4</ele>
        <time>2018-05-27T06:32:09Z</time>
      </trkpt>
      <trkpt lat="49.23157" lon="1.40163">
        <ele>108.4</ele>
        <time>2018-05-27T06:32:11Z</time>
      </trkpt>
      <trkpt lat="49.2317" lon="1.40164">
        <ele>108.4</ele>
        <time>2018-05-27T06:32:13Z</time>
      </trkpt>
      <trkpt lat="49.23183" lon="1.40164">
        <ele>108.4</ele>
        <time>2018-05-27T06:32:15Z</time>
      </trkpt>
      <trkpt lat="49.23197" lon="1.40165">
        <ele>108.2</ele>
        <time>2018-05-27T06:32:17Z</time>
      </trkpt>
      <trkpt lat="49.23211" lon="1.40165">
        <ele>108.3</ele>
        <time>2018-05-27T06:32:19Z</time>
      </trkpt>
      <trkpt lat="49.23224" lon="1.40166">
        <ele>108.2</ele>
        <time>2018-05-27T06:32:21Z</time>
      </trkpt>
      <trkpt lat="49.23237" lon="1.40166">
        <ele>108.2</ele>
        <time>2018-05-27T06:32:23Z</time>
      </trkpt>
      <trkpt lat="49.23249" lon="1.40166">
        <ele>108.3</ele>
        <time>2018-05-27T06:32:25Z</time>
      </trkpt>
      <trkpt lat="49.23259" lon="1.40167">
        <ele>108.3</ele>
        <time>2018-05-27T06:32:27Z</time>
      </trkpt>
      <trkpt lat="49.23268" lon="1.40164">
        <ele>108.2</ele>
        <time>2018-05-27T06:32:30Z</time>
      </trkpt>
      <trkpt lat="49.23261" lon="1.40176">
        <ele>108.7</ele>
        <time>2018-05-27T06:32:42Z</time>
      </trkpt>
      <trkpt lat="49.23252" lon="1.4018">
        <ele>109.2</ele>
        <time>2018-05-27T06:32:45Z</time>
      </trkpt>
      <trkpt lat="49.23248" lon="1.40194">
        <ele>109.8</ele>
        <time>2018-05-27T06:32:48Z</time>
      </trkpt>
      <trkpt lat="49.23245" lon="1.40208">
        <ele>110.5</ele>
        <time>2018-05-27T06:32:51Z</time>
      </trkpt>
      <trkpt lat="49.23241" lon="1.40223">
        <ele>111.5</ele>
        <time>2018-05-27T06:32:55Z</time>
      </trkpt>
      <trkpt lat="49.23238" lon="1.40241">
        <ele>112.7</ele>
        <time>2018-05-27T06:32:59Z</time>
      </trkpt>
      <trkpt lat="49.23235" lon="1.40258">
        <ele>113.9</ele>
        <time>2018-05-27T06:33:03Z</time>
      </trkpt>
      <trkpt lat="49.23232" lon="1.40276">
        <ele>115</ele>
        <time>2018-05-27T06:33:07Z</time>
      </trkpt>
      <trkpt lat="49.23229" lon="1.40293">
        <ele>116.1</ele>
        <time>2018-05-27T06:33:11Z</time>
      </trkpt>
      <trkpt lat="49.23227" lon="1.40306">
        <ele>117</ele>
        <time>2018-05-27T06:33:14Z</time>
      </trkpt>
      <trkpt lat="49.23223" lon="1.40324">
        <ele>117.9</ele>
        <time>2018-05-27T06:33:18Z</time>
      </trkpt>
      <trkpt lat="49.2322" lon="1.40341">
        <ele>119.1</ele>
        <time>2018-05-27T06:33:22Z</time>
      </trkpt>
      <trkpt lat="49.23217" lon="1.40357">
        <ele>120.1</ele>
        <time>2018-05-27T06:33:26Z</time>
      </trkpt>
      <trkpt lat="49.23214" lon="1.40373">
        <ele>121.3</ele>
        <time>2018-05-27T06:33:30Z</time>
      </trkpt>
      <trkpt lat="49.23212" lon="1.4039">
        <ele>122.3</ele>
        <time>2018-05-27T06:33:34Z</time>
      </trkpt>
      <trkpt lat="49.23208" lon="1.40406">
        <ele>123.1</ele>
        <time>2018-05-27T06:33:38Z</time>
      </trkpt>
      <trkpt lat="49.23205" lon="1.40423">
        <ele>124</ele>
        <time>2018-05-27T06:33:42Z</time>
      </trkpt>
      <trkpt lat="49.23201" lon="1.40439">
        <ele>124.8</ele>
        <time>2018-05-27T06:33:46Z</time>
      </trkpt>
      <trkpt lat="49.23195" lon="1.40454">
        <ele>125.8</ele>
        <time>2018-05-27T06:33:50Z</time>
      </trkpt>
      <trkpt lat="49.2319" lon="1.40468">
        <ele>126.6</ele>
        <time>2018-05-27T06:33:54Z</time>
      </trkpt>
      <trkpt lat="49.23182" lon="1.40481">
        <ele>127.4</ele>
        <time>2018-05-27T06:33:58Z</time>
      </trkpt>
      <trkpt lat="49.23173" lon="1.40491">
        <ele>128.5</ele>
        <time>2018-05-27T06:34:02Z</time>
      </trkpt>
      <trkpt lat="49.23165" lon="1.405">
        <ele>129.3</ele>
        <time>2018-05-27T06:34:06Z</time>
      </trkpt>
      <trkpt lat="49.23156" lon="1.40511">
        <ele>130.7</ele>
        <time>2018-05-27T06:34:11Z</time>
      </trkpt>
      <trkpt lat="49.23147" lon="1.40517">
        <ele>131.5</ele>
        <time>2018-05-27T06:34:14Z</time>
      </trkpt>
      <trkpt lat="49.23137" lon="1.40523">
        <ele>132.6</ele>
        <time>2018-05-27T06:34:18Z</time>
      </trkpt>
      <trkpt lat="49.23127" lon="1.4053">
        <ele>133.5</ele>
        <time>2018-05-27T06:34:22Z</time>
      </trkpt>
      <trkpt lat="49.23117" lon="1.40537">
        <ele>134.6</ele>
        <time>2018-05-27T06:34:26Z</time>
      </trkpt>
      <trkpt lat="49.23108" lon="1.40544">
        <ele>135.8</ele>
        <time>2018-05-27T06:34:30Z</time>
      </trkpt>
      <trkpt lat="49.23098" lon="1.4055">
        <ele>136.9</ele>
        <time>2018-05-27T06:34:34Z</time>
      </trkpt>
      <trkpt lat="49.23089" lon="1.40557">
        <ele>138</ele>
        <time>2018-05-27T06:34:38Z</time>
      </trkpt>
      <trkpt lat="49.23081" lon="1.40564">
        <ele>139</ele>
        <time>2018-05-27T06:34:42Z</time>
      </trkpt>
      <trkpt lat="49.23072" lon="1.40573">
        <ele>140.4</ele>
        <time>2018-05-27T06:34:47Z</time>
      </trkpt>
      <trkpt lat="49.23063" lon="1.4058">
        <ele>141.7</ele>
        <time>2018-05-27T06:34:51Z</time>
      </trkpt>
      <trkpt lat="49.23055" lon="1.4059">
        <ele>142.9</ele>
        <time>2018-05-27T06:34:56Z</time>
      </trkpt>
      <trkpt lat="49.23049" lon="1.40602">
        <ele>143.9</ele>
        <time>2018-05-27T06:35:00Z</time>
      </trkpt>
      <trkpt lat="49.23044" lon="1.40615">
        <ele>145</ele>
        <time>2018-05-27T06:35:04Z</time>
      </trkpt>
      <trkpt lat="49.23039" lon="1.40629">
        <ele>145.9</ele>
        <time>2018-05-27T06:35:08Z</time>
      </trkpt>
      <trkpt lat="49.23033" lon="1.40643">
        <ele>147.5</ele>
        <time>2018-05-27T06:35:14Z</time>
      </trkpt>
      <trkpt lat="49.2303" lon="1.40658">
        <ele>148.6</ele>
        <time>2018-05-27T06:35:18Z</time>
      </trkpt>
      <trkpt lat="49.23028" lon="1.40674">
        <ele>149.5</ele>
        <time>2018-05-27T06:35:22Z</time>
      </trkpt>
      <trkpt lat="49.23027" lon="1.40692">
        <ele>150.2</ele>
        <time>2018-05-27T06:35:26Z</time>
      </trkpt>
      <trkpt lat="49.23029" lon="1.4071">
        <ele>150.8</ele>
        <time>2018-05-27T06:35:30Z</time>
      </trkpt>
      <trkpt lat="49.2303" lon="1.40725">
        <ele>151.5</ele>
        <time>2018-05-27T06:35:34Z</time>
      </trkpt>
      <trkpt lat="49.23033" lon="1.4074">
        <ele>152.1</ele>
        <time>2018-05-27T06:35:38Z</time>
      </trkpt>
      <trkpt lat="49.23036" lon="1.40755">
        <ele>153.1</ele>
        <time>2018-05-27T06:35:42Z</time>
      </trkpt>
      <trkpt lat="49.23041" lon="1.40771">
        <ele>153.9</ele>
        <time>2018-05-27T06:35:46Z</time>
      </trkpt>
      <trkpt lat="49.23043" lon="1.40787">
        <ele>154.8</ele>
        <time>2018-05-27T06:35:50Z</time>
      </trkpt>
      <trkpt lat="49.23047" lon="1.40801">
        <ele>155.5</ele>
        <time>2018-05-27T06:35:54Z</time>
      </trkpt>
      <trkpt lat="49.23045" lon="1.40818">
        <ele>156.1</ele>
        <time>2018-05-27T06:35:58Z</time>
      </trkpt>
      <trkpt lat="49.23046" lon="1.40833">
        <ele>157.1</ele>
        <time>2018-05-27T06:36:03Z</time>
      </trkpt>
      <trkpt lat="49.23048" lon="1.4085">
        <ele>158.2</ele>
        <time>2018-05-27T06:36:09Z</time>
      </trkpt>
      <trkpt lat="49.2305" lon="1.40865">
        <ele>159.6</ele>
        <time>2018-05-27T06:36:15Z</time>
      </trkpt>
      <trkpt lat="49.23059" lon="1.4089">
        <ele>161.2</ele>
        <time>2018-05-27T06:36:21Z</time>
      </trkpt>
      <trkpt lat="49.23064" lon="1.40903">
        <ele>161.8</ele>
        <time>2018-05-27T06:36:25Z</time>
      </trkpt>
      <trkpt lat="49.23067" lon="1.40916">
        <ele>162.6</ele>
        <time>2018-05-27T06:36:29Z</time>
      </trkpt>
      <trkpt lat="49.23069" lon="1.40932">
        <ele>163.8</ele>
        <time>2018-05-27T06:36:34Z</time>
      </trkpt>
      <trkpt lat="49.23071" lon="1.40949">
        <ele>165</ele>
        <time>2018-05-27T06:36:39Z</time>
      </trkpt>
      <trkpt lat="49.23076" lon="1.40963">
        <ele>165.9</ele>
        <time>2018-05-27T06:36:43Z</time>
      </trkpt>
      <trkpt lat="49.23078" lon="1.40978">
        <ele>166.9</ele>
        <time>2018-05-27T06:36:47Z</time>
      </trkpt>
      <trkpt lat="49.23078" lon="1.40993">
        <ele>168.1</ele>
        <time>2018-05-27T06:36:52Z</time>
      </trkpt>
      <trkpt lat="49.23074" lon="1.41007">
        <ele>169.1</ele>
        <time>2018-05-27T06:36:57Z</time>
      </trkpt>
      <trkpt lat="49.23079" lon="1.41024">
        <ele>170.6</ele>
        <time>2018-05-27T06:37:02Z</time>
      </trkpt>
      <trkpt lat="49.23085" lon="1.41042">
        <ele>171.5</ele>
        <time>2018-05-27T06:37:06Z</time>
      </trkpt>
      <trkpt lat="49.23087" lon="1.41058">
        <ele>172.7</ele>
        <time>2018-05-27T06:37:11Z</time>
      </trkpt>
      <trkpt lat="49.23089" lon="1.41073">
        <ele>174</ele>
        <time>2018-05-27T06:37:16Z</time>
      </trkpt>
      <trkpt lat="49.23094" lon="1.41086">
        <ele>175.2</ele>
        <time>2018-05-27T06:37:21Z</time>
      </trkpt>
      <trkpt lat="49.23099" lon="1.411">
        <ele>176.7</ele>
        <time>2018-05-27T06:37:27Z</time>
      </trkpt>
      <trkpt lat="49.23107" lon="1.41115">
        <ele>177.7</ele>
        <time>2018-05-27T06:37:31Z</time>
      </trkpt>
      <trkpt lat="49.23111" lon="1.4113">
        <ele>179</ele>
        <time>2018-05-27T06:37:37Z</time>
      </trkpt>
      <trkpt lat="49.23113" lon="1.41145">
        <ele>181.4</ele>
        <time>2018-05-27T06:37:45Z</time>
      </trkpt>
      <trkpt lat="49.23117" lon="1.41159">
        <ele>182.7</ele>
        <time>2018-05-27T06:37:50Z</time>
      </trkpt>
      <trkpt lat="49.23123" lon="1.41172">
        <ele>184.1</ele>
        <time>2018-05-27T06:37:55Z</time>
      </trkpt>
      <trkpt lat="49.23128" lon="1.41185">
        <ele>185.7</ele>
        <time>2018-05-27T06:38:01Z</time>
      </trkpt>
      <trkpt lat="49.23134" lon="1.41196">
        <ele>187.1</ele>
        <time>2018-05-27T06:38:06Z</time>
      </trkpt>
      <trkpt lat="49.23139" lon="1.41207">
        <ele>188.6</ele>
        <time>2018-05-27T06:38:12Z</time>
      </trkpt>
      <trkpt lat="49.23145" lon="1.41219">
        <ele>190.9</ele>
        <time>2018-05-27T06:38:20Z</time>
      </trkpt>
      <trkpt lat="49.2315" lon="1.41232">
        <ele>192.9</ele>
        <time>2018-05-27T06:38:27Z</time>
      </trkpt>
      <trkpt lat="49.23158" lon="1.41241">
        <ele>193.8</ele>
        <time>2018-05-27T06:38:31Z</time>
      </trkpt>
      <trkpt lat="49.23163" lon="1.41253">
        <ele>195.2</ele>
        <time>2018-05-27T06:38:36Z</time>
      </trkpt>
      <trkpt lat="49.23168" lon="1.41267">
        <ele>197.2</ele>
        <time>2018-05-27T06:38:43Z</time>
      </trkpt>
      <trkpt lat="49.23172" lon="1.41281">
        <ele>199.4</ele>
        <time>2018-05-27T06:38:50Z</time>
      </trkpt>
      <trkpt lat="49.23178" lon="1.41293">
        <ele>200.7</ele>
        <time>2018-05-27T06:38:56Z</time>
      </trkpt>
      <trkpt lat="49.23188" lon="1.41301">
        <ele>202.4</ele>
        <time>2018-05-27T06:39:03Z</time>
      </trkpt>
      <trkpt lat="49.23199" lon="1.41309">
        <ele>203.5</ele>
        <time>2018-05-27T06:39:08Z</time>
      </trkpt>
      <trkpt lat="49.23209" lon="1.41316">
        <ele>204.1</ele>
        <time>2018-05-27T06:39:12Z</time>
      </trkpt>
      <trkpt lat="49.23219" lon="1.4131">
        <ele>205</ele>
        <time>2018-05-27T06:39:18Z</time>
      </trkpt>
      <trkpt lat="49.23223" lon="1.41297">
        <ele>206</ele>
        <time>2018-05-27T06:39:23Z</time>
      </trkpt>
      <trkpt lat="49.23228" lon="1.41284">
        <ele>206.9</ele>
        <time>2018-05-27T06:39:28Z</time>
      </trkpt>
      <trkpt lat="49.23226" lon="1.41269">
        <ele>208</ele>
        <time>2018-05-27T06:39:34Z</time>
      </trkpt>
      <trkpt lat="49.23227" lon="1.41254">
        <ele>208.8</ele>
        <time>2018-05-27T06:39:39Z</time>
      </trkpt>
      <trkpt lat="49.23228" lon="1.41239">
        <ele>209.4</ele>
        <time>2018-05-27T06:39:43Z</time>
      </trkpt>
      <trkpt lat="49.23229" lon="1.41224">
        <ele>210.3</ele>
        <time>2018-05-27T06:39:47Z</time>
      </trkpt>
      <trkpt lat="49.23228" lon="1.4121">
        <ele>211</ele>
        <time>2018-05-27T06:39:51Z</time>
      </trkpt>
      <trkpt lat="49.23221" lon="1.41197">
        <ele>211.5</ele>
        <time>2018-05-27T06:39:54Z</time>
      </trkpt>
      <trkpt lat="49.23219" lon="1.41184">
        <ele>211.9</ele>
        <time>2018-05-27T06:39:57Z</time>
      </trkpt>
      <trkpt lat="49.23219" lon="1.4117">
        <ele>212.5</ele>
        <time>2018-05-27T06:40:01Z</time>
      </trkpt>
      <trkpt lat="49.23218" lon="1.41155">
        <ele>212.8</ele>
        <time>2018-05-27T06:40:04Z</time>
      </trkpt>
      <trkpt lat="49.23219" lon="1.41141">
        <ele>213</ele>
        <time>2018-05-27T06:40:07Z</time>
      </trkpt>
      <trkpt lat="49.23222" lon="1.41128">
        <ele>213.4</ele>
        <time>2018-05-27T06:40:10Z</time>
      </trkpt>
      <trkpt lat="49.23224" lon="1.41114">
        <ele>213.7</ele>
        <time>2018-05-27T06:40:13Z</time>
      </trkpt>
      <trkpt lat="49.23229" lon="1.411">
        <ele>214.6</ele>
        <time>2018-05-27T06:40:18Z</time>
      </trkpt>
      <trkpt lat="49.23234" lon="1.41086">
        <ele>215.9</ele>
        <time>2018-05-27T06:40:23Z</time>
      </trkpt>
      <trkpt lat="49.23239" lon="1.41072">
        <ele>217.2</ele>
        <time>2018-05-27T06:40:28Z</time>
      </trkpt>
      <trkpt lat="49.23246" lon="1.4106">
        <ele>218.9</ele>
        <time>2018-05-27T06:40:34Z</time>
      </trkpt>
      <trkpt lat="49.23251" lon="1.41047">
        <ele>220.6</ele>
        <time>2018-05-27T06:40:40Z</time>
      </trkpt>
      <trkpt lat="49.23255" lon="1.41033">
        <ele>222.7</ele>
        <time>2018-05-27T06:40:47Z</time>
      </trkpt>
      <trkpt lat="49.23257" lon="1.4102">
        <ele>225.8</ele>
        <time>2018-05-27T06:40:59Z</time>
      </trkpt>
      <trkpt lat="49.23265" lon="1.41027">
        <ele>228.7</ele>
        <time>2018-05-27T06:41:14Z</time>
      </trkpt>
      <trkpt lat="49.23275" lon="1.41031">
        <ele>230.1</ele>
        <time>2018-05-27T06:41:23Z</time>
      </trkpt>
      <trkpt lat="49.23287" lon="1.41034">
        <ele>230.2</ele>
        <time>2018-05-27T06:41:27Z</time>
      </trkpt>
      <trkpt lat="49.23297" lon="1.41038">
        <ele>229.9</ele>
        <time>2018-05-27T06:41:31Z</time>
      </trkpt>
      <trkpt lat="49.2331" lon="1.41042">
        <ele>229.4</ele>
        <time>2018-05-27T06:41:35Z</time>
      </trkpt>
      <trkpt lat="49.23321" lon="1.41044">
        <ele>229</ele>
        <time>2018-05-27T06:41:37Z</time>
      </trkpt>
      <trkpt lat="49.23332" lon="1.41047">
        <ele>229.2</ele>
        <time>2018-05-27T06:41:41Z</time>
      </trkpt>
      <trkpt lat="49.23342" lon="1.4105">
        <ele>229.9</ele>
        <time>2018-05-27T06:41:45Z</time>
      </trkpt>
      <trkpt lat="49.23352" lon="1.41053">
        <ele>230.9</ele>
        <time>2018-05-27T06:41:49Z</time>
      </trkpt>
      <trkpt lat="49.23361" lon="1.41058">
        <ele>232</ele>
        <time>2018-05-27T06:41:54Z</time>
      </trkpt>
      <trkpt lat="49.2337" lon="1.41063">
        <ele>233.4</ele>
        <time>2018-05-27T06:41:59Z</time>
      </trkpt>
      <trkpt lat="49.23381" lon="1.41068">
        <ele>234.8</ele>
        <time>2018-05-27T06:42:04Z</time>
      </trkpt>
      <trkpt lat="49.23392" lon="1.41065">
        <ele>236</ele>
        <time>2018-05-27T06:42:09Z</time>
      </trkpt>
      <trkpt lat="49.23402" lon="1.41065">
        <ele>237</ele>
        <time>2018-05-27T06:42:13Z</time>
      </trkpt>
      <trkpt lat="49.23411" lon="1.41063">
        <ele>237.7</ele>
        <time>2018-05-27T06:42:16Z</time>
      </trkpt>
      <trkpt lat="49.23423" lon="1.41061">
        <ele>238.4</ele>
        <time>2018-05-27T06:42:21Z</time>
      </trkpt>
      <trkpt lat="49.23434" lon="1.41058">
        <ele>239</ele>
        <time>2018-05-27T06:42:24Z</time>
      </trkpt>
      <trkpt lat="49.23444" lon="1.41053">
        <ele>239.5</ele>
        <time>2018-05-27T06:42:28Z</time>
      </trkpt>
      <trkpt lat="49.23452" lon="1.41049">
        <ele>239.8</ele>
        <time>2018-05-27T06:42:31Z</time>
      </trkpt>
      <trkpt lat="49.23461" lon="1.41042">
        <ele>240.1</ele>
        <time>2018-05-27T06:42:34Z</time>
      </trkpt>
      <trkpt lat="49.23471" lon="1.41034">
        <ele>240.4</ele>
        <time>2018-05-27T06:42:37Z</time>
      </trkpt>
      <trkpt lat="49.2348" lon="1.41028">
        <ele>240.6</ele>
        <time>2018-05-27T06:42:39Z</time>
      </trkpt>
      <trkpt lat="49.23491" lon="1.41017">
        <ele>240.8</ele>
        <time>2018-05-27T06:42:42Z</time>
      </trkpt>
      <trkpt lat="49.23498" lon="1.41008">
        <ele>240.9</ele>
        <time>2018-05-27T06:42:44Z</time>
      </trkpt>
      <trkpt lat="49.23507" lon="1.40996">
        <ele>241.1</ele>
        <time>2018-05-27T06:42:47Z</time>
      </trkpt>
      <trkpt lat="49.23513" lon="1.40982">
        <ele>241.1</ele>
        <time>2018-05-27T06:42:50Z</time>
      </trkpt>
      <trkpt lat="49.2352" lon="1.40968">
        <ele>241.2</ele>
        <time>2018-05-27T06:42:53Z</time>
      </trkpt>
      <trkpt lat="49.23527" lon="1.4095">
        <ele>241.5</ele>
        <time>2018-05-27T06:42:56Z</time>
      </trkpt>
      <trkpt lat="49.23537" lon="1.40936">
        <ele>241.6</ele>
        <time>2018-05-27T06:42:59Z</time>
      </trkpt>
      <trkpt lat="49.23546" lon="1.40924">
        <ele>242.1</ele>
        <time>2018-05-27T06:43:02Z</time>
      </trkpt>
      <trkpt lat="49.23553" lon="1.40909">
        <ele>242.6</ele>
        <time>2018-05-27T06:43:05Z</time>
      </trkpt>
      <trkpt lat="49.23557" lon="1.40891">
        <ele>242.7</ele>
        <time>2018-05-27T06:43:08Z</time>
      </trkpt>
      <trkpt lat="49.23562" lon="1.40874">
        <ele>242.7</ele>
        <time>2018-05-27T06:43:11Z</time>
      </trkpt>
      <trkpt lat="49.23568" lon="1.40861">
        <ele>243</ele>
        <time>2018-05-27T06:43:13Z</time>
      </trkpt>
      <trkpt lat="49.23574" lon="1.40848">
        <ele>243.1</ele>
        <time>2018-05-27T06:43:15Z</time>
      </trkpt>
      <trkpt lat="49.23579" lon="1.40837">
        <ele>243.3</ele>
        <time>2018-05-27T06:43:17Z</time>
      </trkpt>
      <trkpt lat="49.23586" lon="1.40821">
        <ele>243.5</ele>
        <time>2018-05-27T06:43:20Z</time>
      </trkpt>
      <trkpt lat="49.23591" lon="1.40807">
        <ele>243.7</ele>
        <time>2018-05-27T06:43:23Z</time>
      </trkpt>
      <trkpt lat="49.236" lon="1.40796">
        <ele>243.5</ele>
        <time>2018-05-27T06:43:26Z</time>
      </trkpt>
      <trkpt lat="49.23609" lon="1.40784">
        <ele>242.7</ele>
        <time>2018-05-27T06:43:29Z</time>
      </trkpt>
      <trkpt lat="49.23612" lon="1.4077">
        <ele>241.5</ele>
        <time>2018-05-27T06:43:32Z</time>
      </trkpt>
      <trkpt lat="49.23611" lon="1.40755">
        <ele>239.9</ele>
        <time>2018-05-27T06:43:40Z</time>
      </trkpt>
      <trkpt lat="49.23619" lon="1.40744">
        <ele>239.8</ele>
        <time>2018-05-27T06:43:45Z</time>
      </trkpt>
      <trkpt lat="49.23621" lon="1.40729">
        <ele>239</ele>
        <time>2018-05-27T06:43:48Z</time>
      </trkpt>
      <trkpt lat="49.23623" lon="1.40709">
        <ele>237.9</ele>
        <time>2018-05-27T06:43:50Z</time>
      </trkpt>
      <trkpt lat="49.23624" lon="1.40693">
        <ele>236.5</ele>
        <time>2018-05-27T06:43:53Z</time>
      </trkpt>
      <trkpt lat="49.23626" lon="1.40679">
        <ele>233.9</ele>
        <time>2018-05-27T06:44:07Z</time>
      </trkpt>
      <trkpt lat="49.23633" lon="1.40669">
        <ele>232.1</ele>
        <time>2018-05-27T06:44:14Z</time>
      </trkpt>
      <trkpt lat="49.23639" lon="1.4066">
        <ele>229.3</ele>
        <time>2018-05-27T06:44:25Z</time>
      </trkpt>
      <trkpt lat="49.23647" lon="1.4065">
        <ele>226.8</ele>
        <time>2018-05-27T06:44:35Z</time>
      </trkpt>
      <trkpt lat="49.23655" lon="1.40641">
        <ele>223.6</ele>
        <time>2018-05-27T06:44:44Z</time>
      </trkpt>
      <trkpt lat="49.23661" lon="1.40629">
        <ele>220.7</ele>
        <time>2018-05-27T06:44:50Z</time>
      </trkpt>
      <trkpt lat="49.23667" lon="1.40618">
        <ele>218.8</ele>
        <time>2018-05-27T06:44:54Z</time>
      </trkpt>
      <trkpt lat="49.23674" lon="1.40606">
        <ele>217</ele>
        <time>2018-05-27T06:44:58Z</time>
      </trkpt>
      <trkpt lat="49.23683" lon="1.40594">
        <ele>215.2</ele>
        <time>2018-05-27T06:45:01Z</time>
      </trkpt>
      <trkpt lat="49.23691" lon="1.40585">
        <ele>213.7</ele>
        <time>2018-05-27T06:45:03Z</time>
      </trkpt>
      <trkpt lat="49.23698" lon="1.40576">
        <ele>211.8</ele>
        <time>2018-05-27T06:45:05Z</time>
      </trkpt>
      <trkpt lat="49.23708" lon="1.40563">
        <ele>209.2</ele>
        <time>2018-05-27T06:45:08Z</time>
      </trkpt>
      <trkpt lat="49.23714" lon="1.40551">
        <ele>206.8</ele>
        <time>2018-05-27T06:45:10Z</time>
      </trkpt>
      <trkpt lat="49.23725" lon="1.40538">
        <ele>203.9</ele>
        <time>2018-05-27T06:45:13Z</time>
      </trkpt>
      <trkpt lat="49.23732" lon="1.40528">
        <ele>201.9</ele>
        <time>2018-05-27T06:45:15Z</time>
      </trkpt>
      <trkpt lat="49.23736" lon="1.40513">
        <ele>199.8</ele>
        <time>2018-05-27T06:45:17Z</time>
      </trkpt>
      <trkpt lat="49.23742" lon="1.40498">
        <ele>197.7</ele>
        <time>2018-05-27T06:45:19Z</time>
      </trkpt>
      <trkpt lat="49.23749" lon="1.40486">
        <ele>195.4</ele>
        <time>2018-05-27T06:45:21Z</time>
      </trkpt>
      <trkpt lat="49.23753" lon="1.405">
        <ele>189.7</ele>
        <time>2018-05-27T06:45:32Z</time>
      </trkpt>
      <trkpt lat="49.23751" lon="1.40514">
        <ele>189.7</ele>
        <time>2018-05-27T06:45:35Z</time>
      </trkpt>
      <trkpt lat="49.2375" lon="1.40531">
        <ele>190.2</ele>
        <time>2018-05-27T06:45:38Z</time>
      </trkpt>
      <trkpt lat="49.23749" lon="1.40552">
        <ele>190.3</ele>
        <time>2018-05-27T06:45:41Z</time>
      </trkpt>
      <trkpt lat="49.2375" lon="1.40568">
        <ele>189.7</ele>
        <time>2018-05-27T06:45:43Z</time>
      </trkpt>
      <trkpt lat="49.2375" lon="1.40586">
        <ele>189.2</ele>
        <time>2018-05-27T06:45:45Z</time>
      </trkpt>
      <trkpt lat="49.23749" lon="1.40605">
        <ele>188.5</ele>
        <time>2018-05-27T06:45:48Z</time>
      </trkpt>
      <trkpt lat="49.23748" lon="1.40621">
        <ele>187.2</ele>
        <time>2018-05-27T06:45:52Z</time>
      </trkpt>
      <trkpt lat="49.23756" lon="1.40631">
        <ele>186.9</ele>
        <time>2018-05-27T06:46:00Z</time>
      </trkpt>
      <trkpt lat="49.23766" lon="1.40628">
        <ele>188</ele>
        <time>2018-05-27T06:46:08Z</time>
      </trkpt>
      <trkpt lat="49.23775" lon="1.40624">
        <ele>188.4</ele>
        <time>2018-05-27T06:46:11Z</time>
      </trkpt>
      <trkpt lat="49.23786" lon="1.4062">
        <ele>188.6</ele>
        <time>2018-05-27T06:46:14Z</time>
      </trkpt>
      <trkpt lat="49.23796" lon="1.40618">
        <ele>189.1</ele>
        <time>2018-05-27T06:46:17Z</time>
      </trkpt>
      <trkpt lat="49.23806" lon="1.40617">
        <ele>189.6</ele>
        <time>2018-05-27T06:46:20Z</time>
      </trkpt>
      <trkpt lat="49.23816" lon="1.40616">
        <ele>190.4</ele>
        <time>2018-05-27T06:46:24Z</time>
      </trkpt>
      <trkpt lat="49.23826" lon="1.40614">
        <ele>191.3</ele>
        <time>2018-05-27T06:46:58Z</time>
      </trkpt>
      <trkpt lat="49.23836" lon="1.40608">
        <ele>191.8</ele>
        <time>2018-05-27T06:47:02Z</time>
      </trkpt>
      <trkpt lat="49.23846" lon="1.40606">
        <ele>192.5</ele>
        <time>2018-05-27T06:47:06Z</time>
      </trkpt>
      <trkpt lat="49.23856" lon="1.40609">
        <ele>194.2</ele>
        <time>2018-05-27T06:47:11Z</time>
      </trkpt>
      <trkpt lat="49.23866" lon="1.40612">
        <ele>196.2</ele>
        <time>2018-05-27T06:47:16Z</time>
      </trkpt>
      <trkpt lat="49.23876" lon="1.40617">
        <ele>198.6</ele>
        <time>2018-05-27T06:47:22Z</time>
      </trkpt>
      <trkpt lat="49.23885" lon="1.40623">
        <ele>200.3</ele>
        <time>2018-05-27T06:47:27Z</time>
      </trkpt>
      <trkpt lat="49.23895" lon="1.40627">
        <ele>202.6</ele>
        <time>2018-05-27T06:47:32Z</time>
      </trkpt>
      <trkpt lat="49.23904" lon="1.40624">
        <ele>205.1</ele>
        <time>2018-05-27T06:48:00Z</time>
      </trkpt>
      <trkpt lat="49.23907" lon="1.40639">
        <ele>204.5</ele>
        <time>2018-05-27T06:51:43Z</time>
      </trkpt>
      <trkpt lat="49.23907" lon="1.40654">
        <ele>204.4</ele>
        <time>2018-05-27T06:51:47Z</time>
      </trkpt>
      <trkpt lat="49.23905" lon="1.40668">
        <ele>204.7</ele>
        <time>2018-05-27T06:51:52Z</time>
      </trkpt>
      <trkpt lat="49.23902" lon="1.40684">
        <ele>205.3</ele>
        <time>2018-05-27T06:51:57Z</time>
      </trkpt>
      <trkpt lat="49.23898" lon="1.40698">
        <ele>206.4</ele>
        <time>2018-05-27T06:52:02Z</time>
      </trkpt>
      <trkpt lat="49.23893" lon="1.40711">
        <ele>207.3</ele>
        <time>2018-05-27T06:52:07Z</time>
      </trkpt>
      <trkpt lat="49.23888" lon="1.40722">
        <ele>208.5</ele>
        <time>2018-05-27T06:52:12Z</time>
      </trkpt>
      <trkpt lat="49.23883" lon="1.40736">
        <ele>209.9</ele>
        <time>2018-05-27T06:52:18Z</time>
      </trkpt>
      <trkpt lat="49.23878" lon="1.40749">
        <ele>211.5</ele>
        <time>2018-05-27T06:52:24Z</time>
      </trkpt>
      <trkpt lat="49.23874" lon="1.40762">
        <ele>213</ele>
        <time>2018-05-27T06:52:30Z</time>
      </trkpt>
      <trkpt lat="49.2387" lon="1.40775">
        <ele>214.5</ele>
        <time>2018-05-27T06:52:37Z</time>
      </trkpt>
      <trkpt lat="49.23864" lon="1.4079">
        <ele>216.5</ele>
        <time>2018-05-27T06:52:44Z</time>
      </trkpt>
      <trkpt lat="49.2386" lon="1.40804">
        <ele>218.6</ele>
        <time>2018-05-27T06:52:52Z</time>
      </trkpt>
      <trkpt lat="49.23857" lon="1.40818">
        <ele>220.4</ele>
        <time>2018-05-27T06:52:58Z</time>
      </trkpt>
      <trkpt lat="49.23856" lon="1.40834">
        <ele>222</ele>
        <time>2018-05-27T06:53:04Z</time>
      </trkpt>
      <trkpt lat="49.23855" lon="1.4085">
        <ele>223.7</ele>
        <time>2018-05-27T06:53:10Z</time>
      </trkpt>
      <trkpt lat="49.23855" lon="1.40865">
        <ele>225.5</ele>
        <time>2018-05-27T06:53:16Z</time>
      </trkpt>
      <trkpt lat="49.23854" lon="1.40879">
        <ele>227</ele>
        <time>2018-05-27T06:53:22Z</time>
      </trkpt>
      <trkpt lat="49.23856" lon="1.40893">
        <ele>228.1</ele>
        <time>2018-05-27T06:53:28Z</time>
      </trkpt>
      <trkpt lat="49.23858" lon="1.40908">
        <ele>229.3</ele>
        <time>2018-05-27T06:53:33Z</time>
      </trkpt>
      <trkpt lat="49.23855" lon="1.40924">
        <ele>230.4</ele>
        <time>2018-05-27T06:53:38Z</time>
      </trkpt>
      <trkpt lat="49.23855" lon="1.40939">
        <ele>231.5</ele>
        <time>2018-05-27T06:53:43Z</time>
      </trkpt>
      <trkpt lat="49.23852" lon="1.40954">
        <ele>232.9</ele>
        <time>2018-05-27T06:53:49Z</time>
      </trkpt>
      <trkpt lat="49.23849" lon="1.40969">
        <ele>234.8</ele>
        <time>2018-05-27T06:53:56Z</time>
      </trkpt>
      <trkpt lat="49.23842" lon="1.40981">
        <ele>236.5</ele>
        <time>2018-05-27T06:54:02Z</time>
      </trkpt>
      <trkpt lat="49.23836" lon="1.40994">
        <ele>238.2</ele>
        <time>2018-05-27T06:54:08Z</time>
      </trkpt>
      <trkpt lat="49.23829" lon="1.41007">
        <ele>239.5</ele>
        <time>2018-05-27T06:54:13Z</time>
      </trkpt>
      <trkpt lat="49.23824" lon="1.4102">
        <ele>240.7</ele>
        <time>2018-05-27T06:54:19Z</time>
      </trkpt>
      <trkpt lat="49.23816" lon="1.41033">
        <ele>241.7</ele>
        <time>2018-05-27T06:54:24Z</time>
      </trkpt>
      <trkpt lat="49.23806" lon="1.41042">
        <ele>242.3</ele>
        <time>2018-05-27T06:54:28Z</time>
      </trkpt>
      <trkpt lat="49.23802" lon="1.41055">
        <ele>242.7</ele>
        <time>2018-05-27T06:54:33Z</time>
      </trkpt>
      <trkpt lat="49.23792" lon="1.41065">
        <ele>243.2</ele>
        <time>2018-05-27T06:54:36Z</time>
      </trkpt>
      <trkpt lat="49.23784" lon="1.41075">
        <ele>243.4</ele>
        <time>2018-05-27T06:54:39Z</time>
      </trkpt>
      <trkpt lat="49.23777" lon="1.41085">
        <ele>243.6</ele>
        <time>2018-05-27T06:54:42Z</time>
      </trkpt>
      <trkpt lat="49.23769" lon="1.41099">
        <ele>244</ele>
        <time>2018-05-27T06:54:45Z</time>
      </trkpt>
      <trkpt lat="49.23764" lon="1.41115">
        <ele>244.2</ele>
        <time>2018-05-27T06:54:48Z</time>
      </trkpt>
      <trkpt lat="49.23758" lon="1.41132">
        <ele>244.3</ele>
        <time>2018-05-27T06:54:51Z</time>
      </trkpt>
      <trkpt lat="49.23753" lon="1.41149">
        <ele>244.5</ele>
        <time>2018-05-27T06:54:54Z</time>
      </trkpt>
      <trkpt lat="49.23748" lon="1.41168">
        <ele>244.7</ele>
        <time>2018-05-27T06:54:57Z</time>
      </trkpt>
      <trkpt lat="49.23744" lon="1.41181">
        <ele>244.7</ele>
        <time>2018-05-27T06:54:59Z</time>
      </trkpt>
      <trkpt lat="49.2374" lon="1.41193">
        <ele>244.9</ele>
        <time>2018-05-27T06:55:01Z</time>
      </trkpt>
      <trkpt lat="49.23737" lon="1.41207">
        <ele>245</ele>
        <time>2018-05-27T06:55:03Z</time>
      </trkpt>
      <trkpt lat="49.23733" lon="1.41221">
        <ele>245</ele>
        <time>2018-05-27T06:55:05Z</time>
      </trkpt>
      <trkpt lat="49.2373" lon="1.41236">
        <ele>245.1</ele>
        <time>2018-05-27T06:55:07Z</time>
      </trkpt>
      <trkpt lat="49.23727" lon="1.41251">
        <ele>245.1</ele>
        <time>2018-05-27T06:55:09Z</time>
      </trkpt>
      <trkpt lat="49.23724" lon="1.41266">
        <ele>245.2</ele>
        <time>2018-05-27T06:55:11Z</time>
      </trkpt>
      <trkpt lat="49.23721" lon="1.41282">
        <ele>245.2</ele>
        <time>2018-05-27T06:55:13Z</time>
      </trkpt>
      <trkpt lat="49.23718" lon="1.41298">
        <ele>245.2</ele>
        <time>2018-05-27T06:55:15Z</time>
      </trkpt>
      <trkpt lat="49.23715" lon="1.41314">
        <ele>245.2</ele>
        <time>2018-05-27T06:55:17Z</time>
      </trkpt>
      <trkpt lat="49.23712" lon="1.4133">
        <ele>245.2</ele>
        <time>2018-05-27T06:55:19Z</time>
      </trkpt>
      <trkpt lat="49.23709" lon="1.41347">
        <ele>245.2</ele>
        <time>2018-05-27T06:55:21Z</time>
      </trkpt>
      <trkpt lat="49.23706" lon="1.41363">
        <ele>245</ele>
        <time>2018-05-27T06:55:23Z</time>
      </trkpt>
      <trkpt lat="49.23702" lon="1.4138">
        <ele>244.9</ele>
        <time>2018-05-27T06:55:25Z</time>
      </trkpt>
      <trkpt lat="49.23699" lon="1.41397">
        <ele>244.8</ele>
        <time>2018-05-27T06:55:27Z</time>
      </trkpt>
      <trkpt lat="49.23696" lon="1.41414">
        <ele>245</ele>
        <time>2018-05-27T06:55:29Z</time>
      </trkpt>
      <trkpt lat="49.23692" lon="1.41432">
        <ele>245</ele>
        <time>2018-05-27T06:55:31Z</time>
      </trkpt>
      <trkpt lat="49.2369" lon="1.41449">
        <ele>245</ele>
        <time>2018-05-27T06:55:33Z</time>
      </trkpt>
      <trkpt lat="49.23687" lon="1.41467">
        <ele>244.9</ele>
        <time>2018-05-27T06:55:35Z</time>
      </trkpt>
      <trkpt lat="49.23684" lon="1.41486">
        <ele>244.8</ele>
        <time>2018-05-27T06:55:37Z</time>
      </trkpt>
      <trkpt lat="49.23683" lon="1.41505">
        <ele>244.8</ele>
        <time>2018-05-27T06:55:39Z</time>
      </trkpt>
      <trkpt lat="49.23682" lon="1.41523">
        <ele>244.8</ele>
        <time>2018-05-27T06:55:41Z</time>
      </trkpt>
      <trkpt lat="49.23682" lon="1.41542">
        <ele>244.8</ele>
        <time>2018-05-27T06:55:43Z</time>
      </trkpt>
      <trkpt lat="49.23682" lon="1.41561">
        <ele>244.6</ele>
        <time>2018-05-27T06:55:45Z</time>
      </trkpt>
      <trkpt lat="49.23684" lon="1.41579">
        <ele>244.5</ele>
        <time>2018-05-27T06:55:47Z</time>
      </trkpt>
      <trkpt lat="49.23685" lon="1.41598">
        <ele>244.6</ele>
        <time>2018-05-27T06:55:49Z</time>
      </trkpt>
      <trkpt lat="49.23686" lon="1.41617">
        <ele>244.6</ele>
        <time>2018-05-27T06:55:51Z</time>
      </trkpt>
      <trkpt lat="49.23688" lon="1.41635">
        <ele>244.5</ele>
        <time>2018-05-27T06:55:53Z</time>
      </trkpt>
      <trkpt lat="49.2369" lon="1.41654">
        <ele>244.5</ele>
        <time>2018-05-27T06:55:55Z</time>
      </trkpt>
      <trkpt lat="49.23693" lon="1.41672">
        <ele>244.2</ele>
        <time>2018-05-27T06:55:57Z</time>
      </trkpt>
      <trkpt lat="49.23695" lon="1.41691">
        <ele>244.2</ele>
        <time>2018-05-27T06:55:59Z</time>
      </trkpt>
      <trkpt lat="49.23699" lon="1.4171">
        <ele>244.2</ele>
        <time>2018-05-27T06:56:01Z</time>
      </trkpt>
      <trkpt lat="49.23702" lon="1.41728">
        <ele>244</ele>
        <time>2018-05-27T06:56:03Z</time>
      </trkpt>
      <trkpt lat="49.23705" lon="1.41747">
        <ele>243.9</ele>
        <time>2018-05-27T06:56:05Z</time>
      </trkpt>
      <trkpt lat="49.23709" lon="1.41765">
        <ele>243.7</ele>
        <time>2018-05-27T06:56:07Z</time>
      </trkpt>
      <trkpt lat="49.23712" lon="1.41784">
        <ele>243.6</ele>
        <time>2018-05-27T06:56:09Z</time>
      </trkpt>
      <trkpt lat="49.23716" lon="1.41803">
        <ele>243.5</ele>
        <time>2018-05-27T06:56:11Z</time>
      </trkpt>
      <trkpt lat="49.2372" lon="1.41822">
        <ele>243.4</ele>
        <time>2018-05-27T06:56:13Z</time>
      </trkpt>
      <trkpt lat="49.23725" lon="1.41842">
        <ele>243.2</ele>
        <time>2018-05-27T06:56:15Z</time>
      </trkpt>
      <trkpt lat="49.23729" lon="1.41861">
        <ele>243.1</ele>
        <time>2018-05-27T06:56:17Z</time>
      </trkpt>
      <trkpt lat="49.23733" lon="1.41881">
        <ele>242.9</ele>
        <time>2018-05-27T06:56:19Z</time>
      </trkpt>
      <trkpt lat="49.23737" lon="1.419">
        <ele>242.7</ele>
        <time>2018-05-27T06:56:21Z</time>
      </trkpt>
      <trkpt lat="49.2374" lon="1.4192">
        <ele>242.5</ele>
        <time>2018-05-27T06:56:23Z</time>
      </trkpt>
      <trkpt lat="49.23744" lon="1.4194">
        <ele>242.4</ele>
        <time>2018-05-27T06:56:25Z</time>
      </trkpt>
      <trkpt lat="49.23746" lon="1.4196">
        <ele>242.2</ele>
        <time>2018-05-27T06:56:27Z</time>
      </trkpt>
      <trkpt lat="49.23748" lon="1.41981">
        <ele>242</ele>
        <time>2018-05-27T06:56:29Z</time>
      </trkpt>
      <trkpt lat="49.23748" lon="1.42003">
        <ele>241.9</ele>
        <time>2018-05-27T06:56:31Z</time>
      </trkpt>
      <trkpt lat="49.23747" lon="1.42023">
        <ele>241.7</ele>
        <time>2018-05-27T06:56:33Z</time>
      </trkpt>
      <trkpt lat="49.23746" lon="1.42044">
        <ele>241.5</ele>
        <time>2018-05-27T06:56:35Z</time>
      </trkpt>
      <trkpt lat="49.23744" lon="1.42065">
        <ele>241.5</ele>
        <time>2018-05-27T06:56:37Z</time>
      </trkpt>
      <trkpt lat="49.23744" lon="1.42086">
        <ele>241.4</ele>
        <time>2018-05-27T06:56:39Z</time>
      </trkpt>
      <trkpt lat="49.23743" lon="1.42107">
        <ele>241.4</ele>
        <time>2018-05-27T06:56:41Z</time>
      </trkpt>
      <trkpt lat="49.23744" lon="1.42129">
        <ele>241.2</ele>
        <time>2018-05-27T06:56:43Z</time>
      </trkpt>
      <trkpt lat="49.23746" lon="1.42151">
        <ele>240.8</ele>
        <time>2018-05-27T06:56:45Z</time>
      </trkpt>
      <trkpt lat="49.23747" lon="1.42172">
        <ele>240.6</ele>
        <time>2018-05-27T06:56:47Z</time>
      </trkpt>
      <trkpt lat="49.23748" lon="1.42194">
        <ele>240.2</ele>
        <time>2018-05-27T06:56:49Z</time>
      </trkpt>
      <trkpt lat="49.2375" lon="1.42215">
        <ele>240</ele>
        <time>2018-05-27T06:56:51Z</time>
      </trkpt>
      <trkpt lat="49.23751" lon="1.42236">
        <ele>239.7</ele>
        <time>2018-05-27T06:56:53Z</time>
      </trkpt>
      <trkpt lat="49.23753" lon="1.42257">
        <ele>239.4</ele>
        <time>2018-05-27T06:56:55Z</time>
      </trkpt>
      <trkpt lat="49.23754" lon="1.42279">
        <ele>239.2</ele>
        <time>2018-05-27T06:56:57Z</time>
      </trkpt>
      <trkpt lat="49.23755" lon="1.42302">
        <ele>238.9</ele>
        <time>2018-05-27T06:56:59Z</time>
      </trkpt>
      <trkpt lat="49.23756" lon="1.42325">
        <ele>238.3</ele>
        <time>2018-05-27T06:57:01Z</time>
      </trkpt>
      <trkpt lat="49.23757" lon="1.42344">
        <ele>237.7</ele>
        <time>2018-05-27T06:57:03Z</time>
      </trkpt>
      <trkpt lat="49.23762" lon="1.42356">
        <ele>236.9</ele>
        <time>2018-05-27T06:57:05Z</time>
      </trkpt>
      <trkpt lat="49.23775" lon="1.4236">
        <ele>235.9</ele>
        <time>2018-05-27T06:57:08Z</time>
      </trkpt>
      <trkpt lat="49.23785" lon="1.42358">
        <ele>235.5</ele>
        <time>2018-05-27T06:57:10Z</time>
      </trkpt>
      <trkpt lat="49.23797" lon="1.42356">
        <ele>235.1</ele>
        <time>2018-05-27T06:57:12Z</time>
      </trkpt>
      <trkpt lat="49.23808" lon="1.42354">
        <ele>234.8</ele>
        <time>2018-05-27T06:57:14Z</time>
      </trkpt>
      <trkpt lat="49.2382" lon="1.42351">
        <ele>234.5</ele>
        <time>2018-05-27T06:57:16Z</time>
      </trkpt>
      <trkpt lat="49.23832" lon="1.42348">
        <ele>234.2</ele>
        <time>2018-05-27T06:57:18Z</time>
      </trkpt>
      <trkpt lat="49.23843" lon="1.42344">
        <ele>234.3</ele>
        <time>2018-05-27T06:57:20Z</time>
      </trkpt>
      <trkpt lat="49.23854" lon="1.4234">
        <ele>234.1</ele>
        <time>2018-05-27T06:57:22Z</time>
      </trkpt>
      <trkpt lat="49.23865" lon="1.42336">
        <ele>233.8</ele>
        <time>2018-05-27T06:57:24Z</time>
      </trkpt>
      <trkpt lat="49.23875" lon="1.4233">
        <ele>233.2</ele>
        <time>2018-05-27T06:57:26Z</time>
      </trkpt>
      <trkpt lat="49.23886" lon="1.42325">
        <ele>232.9</ele>
        <time>2018-05-27T06:57:28Z</time>
      </trkpt>
      <trkpt lat="49.23897" lon="1.42319">
        <ele>232.1</ele>
        <time>2018-05-27T06:57:30Z</time>
      </trkpt>
      <trkpt lat="49.23909" lon="1.42316">
        <ele>231.3</ele>
        <time>2018-05-27T06:57:32Z</time>
      </trkpt>
      <trkpt lat="49.23922" lon="1.42316">
        <ele>230</ele>
        <time>2018-05-27T06:57:34Z</time>
      </trkpt>
      <trkpt lat="49.23934" lon="1.42318">
        <ele>228.3</ele>
        <time>2018-05-27T06:57:36Z</time>
      </trkpt>
      <trkpt lat="49.23945" lon="1.42323">
        <ele>226.3</ele>
        <time>2018-05-27T06:57:38Z</time>
      </trkpt>
      <trkpt lat="49.23955" lon="1.4233">
        <ele>224.2</ele>
        <time>2018-05-27T06:57:40Z</time>
      </trkpt>
      <trkpt lat="49.23966" lon="1.42341">
        <ele>222.2</ele>
        <time>2018-05-27T06:57:42Z</time>
      </trkpt>
      <trkpt lat="49.23978" lon="1.42355">
        <ele>220.3</ele>
        <time>2018-05-27T06:57:44Z</time>
      </trkpt>
      <trkpt lat="49.23988" lon="1.42371">
        <ele>218.3</ele>
        <time>2018-05-27T06:57:46Z</time>
      </trkpt>
      <trkpt lat="49.24" lon="1.42387">
        <ele>216.1</ele>
        <time>2018-05-27T06:57:48Z</time>
      </trkpt>
      <trkpt lat="49.24008" lon="1.42394">
        <ele>215</ele>
        <time>2018-05-27T06:57:49Z</time>
      </trkpt>
      <trkpt lat="49.2402" lon="1.42406">
        <ele>212.3</ele>
        <time>2018-05-27T06:57:51Z</time>
      </trkpt>
      <trkpt lat="49.2403" lon="1.42416">
        <ele>209.8</ele>
        <time>2018-05-27T06:57:53Z</time>
      </trkpt>
      <trkpt lat="49.24041" lon="1.42425">
        <ele>207.3</ele>
        <time>2018-05-27T06:57:55Z</time>
      </trkpt>
      <trkpt lat="49.2405" lon="1.42433">
        <ele>204.9</ele>
        <time>2018-05-27T06:57:57Z</time>
      </trkpt>
      <trkpt lat="49.2406" lon="1.4244">
        <ele>202.6</ele>
        <time>2018-05-27T06:57:59Z</time>
      </trkpt>
      <trkpt lat="49.24073" lon="1.42448">
        <ele>200.1</ele>
        <time>2018-05-27T06:58:01Z</time>
      </trkpt>
      <trkpt lat="49.2409" lon="1.42459">
        <ele>198</ele>
        <time>2018-05-27T06:58:03Z</time>
      </trkpt>
      <trkpt lat="49.24099" lon="1.42464">
        <ele>197</ele>
        <time>2018-05-27T06:58:04Z</time>
      </trkpt>
      <trkpt lat="49.24107" lon="1.4247">
        <ele>195.9</ele>
        <time>2018-05-27T06:58:05Z</time>
      </trkpt>
      <trkpt lat="49.24121" lon="1.42479">
        <ele>193.4</ele>
        <time>2018-05-27T06:58:07Z</time>
      </trkpt>
      <trkpt lat="49.24132" lon="1.42487">
        <ele>190.6</ele>
        <time>2018-05-27T06:58:09Z</time>
      </trkpt>
      <trkpt lat="49.24141" lon="1.42488">
        <ele>188.2</ele>
        <time>2018-05-27T06:58:11Z</time>
      </trkpt>
      <trkpt lat="49.24146" lon="1.4247">
        <ele>185.9</ele>
        <time>2018-05-27T06:58:14Z</time>
      </trkpt>
      <trkpt lat="49.24145" lon="1.42453">
        <ele>184.2</ele>
        <time>2018-05-27T06:58:16Z</time>
      </trkpt>
      <trkpt lat="49.24154" lon="1.4244">
        <ele>181.7</ele>
        <time>2018-05-27T06:58:19Z</time>
      </trkpt>
      <trkpt lat="49.24166" lon="1.42439">
        <ele>178.9</ele>
        <time>2018-05-27T06:58:22Z</time>
      </trkpt>
      <trkpt lat="49.24176" lon="1.4244">
        <ele>177.1</ele>
        <time>2018-05-27T06:58:24Z</time>
      </trkpt>
      <trkpt lat="49.24191" lon="1.4244">
        <ele>174.7</ele>
        <time>2018-05-27T06:58:26Z</time>
      </trkpt>
      <trkpt lat="49.24207" lon="1.42438">
        <ele>172.5</ele>
        <time>2018-05-27T06:58:28Z</time>
      </trkpt>
      <trkpt lat="49.24217" lon="1.42438">
        <ele>171.4</ele>
        <time>2018-05-27T06:58:29Z</time>
      </trkpt>
      <trkpt lat="49.24227" lon="1.42438">
        <ele>169.9</ele>
        <time>2018-05-27T06:58:30Z</time>
      </trkpt>
      <trkpt lat="49.24244" lon="1.42436">
        <ele>167.1</ele>
        <time>2018-05-27T06:58:32Z</time>
      </trkpt>
      <trkpt lat="49.24259" lon="1.42435">
        <ele>163.4</ele>
        <time>2018-05-27T06:58:34Z</time>
      </trkpt>
      <trkpt lat="49.24274" lon="1.42433">
        <ele>160.2</ele>
        <time>2018-05-27T06:58:36Z</time>
      </trkpt>
      <trkpt lat="49.24287" lon="1.42433">
        <ele>157</ele>
        <time>2018-05-27T06:58:38Z</time>
      </trkpt>
      <trkpt lat="49.24304" lon="1.42432">
        <ele>153.9</ele>
        <time>2018-05-27T06:58:40Z</time>
      </trkpt>
      <trkpt lat="49.24322" lon="1.42425">
        <ele>150.8</ele>
        <time>2018-05-27T06:58:42Z</time>
      </trkpt>
      <trkpt lat="49.24334" lon="1.4242">
        <ele>149.5</ele>
        <time>2018-05-27T06:58:43Z</time>
      </trkpt>
      <trkpt lat="49.24343" lon="1.42414">
        <ele>148.5</ele>
        <time>2018-05-27T06:58:44Z</time>
      </trkpt>
      <trkpt lat="49.24353" lon="1.42407">
        <ele>147.4</ele>
        <time>2018-05-27T06:58:45Z</time>
      </trkpt>
      <trkpt lat="49.24367" lon="1.42393">
        <ele>145.6</ele>
        <time>2018-05-27T06:58:47Z</time>
      </trkpt>
      <trkpt lat="49.24377" lon="1.42371">
        <ele>143.5</ele>
        <time>2018-05-27T06:58:49Z</time>
      </trkpt>
      <trkpt lat="49.24384" lon="1.42349">
        <ele>141.5</ele>
        <time>2018-05-27T06:58:51Z</time>
      </trkpt>
      <trkpt lat="49.24392" lon="1.42333">
        <ele>139.6</ele>
        <time>2018-05-27T06:58:53Z</time>
      </trkpt>
      <trkpt lat="49.24404" lon="1.42327">
        <ele>137.6</ele>
        <time>2018-05-27T06:58:55Z</time>
      </trkpt>
      <trkpt lat="49.24416" lon="1.42331">
        <ele>136.4</ele>
        <time>2018-05-27T06:58:56Z</time>
      </trkpt>
      <trkpt lat="49.24434" lon="1.42338">
        <ele>134.7</ele>
        <time>2018-05-27T06:58:58Z</time>
      </trkpt>
      <trkpt lat="49.24443" lon="1.4234">
        <ele>134</ele>
        <time>2018-05-27T06:58:59Z</time>
      </trkpt>
      <trkpt lat="49.24453" lon="1.42341">
        <ele>133.1</ele>
        <time>2018-05-27T06:59:00Z</time>
      </trkpt>
      <trkpt lat="49.24463" lon="1.42343">
        <ele>132</ele>
        <time>2018-05-27T06:59:01Z</time>
      </trkpt>
      <trkpt lat="49.24473" lon="1.42346">
        <ele>131</ele>
        <time>2018-05-27T06:59:02Z</time>
      </trkpt>
      <trkpt lat="49.24483" lon="1.42347">
        <ele>129.9</ele>
        <time>2018-05-27T06:59:03Z</time>
      </trkpt>
      <trkpt lat="49.24499" lon="1.42349">
        <ele>127.5</ele>
        <time>2018-05-27T06:59:05Z</time>
      </trkpt>
      <trkpt lat="49.24513" lon="1.42355">
        <ele>125</ele>
        <time>2018-05-27T06:59:07Z</time>
      </trkpt>
      <trkpt lat="49.24522" lon="1.42359">
        <ele>121.1</ele>
        <time>2018-05-27T06:59:10Z</time>
      </trkpt>
      <trkpt lat="49.24528" lon="1.42348">
        <ele>117</ele>
        <time>2018-05-27T06:59:17Z</time>
      </trkpt>
      <trkpt lat="49.24529" lon="1.42326">
        <ele>116.3</ele>
        <time>2018-05-27T06:59:20Z</time>
      </trkpt>
      <trkpt lat="49.2453" lon="1.42309">
        <ele>115.8</ele>
        <time>2018-05-27T06:59:22Z</time>
      </trkpt>
      <trkpt lat="49.24536" lon="1.42296">
        <ele>115.5</ele>
        <time>2018-05-27T06:59:24Z</time>
      </trkpt>
      <trkpt lat="49.24545" lon="1.42289">
        <ele>114.9</ele>
        <time>2018-05-27T06:59:26Z</time>
      </trkpt>
      <trkpt lat="49.24554" lon="1.42281">
        <ele>114.2</ele>
        <time>2018-05-27T06:59:28Z</time>
      </trkpt>
      <trkpt lat="49.24553" lon="1.42264">
        <ele>113.5</ele>
        <time>2018-05-27T06:59:30Z</time>
      </trkpt>
      <trkpt lat="49.24549" lon="1.42247">
        <ele>112.9</ele>
        <time>2018-05-27T06:59:32Z</time>
      </trkpt>
      <trkpt lat="49.24545" lon="1.42229">
        <ele>112.3</ele>
        <time>2018-05-27T06:59:34Z</time>
      </trkpt>
      <trkpt lat="49.2454" lon="1.4221">
        <ele>111.7</ele>
        <time>2018-05-27T06:59:36Z</time>
      </trkpt>
      <trkpt lat="49.24537" lon="1.42189">
        <ele>111</ele>
        <time>2018-05-27T06:59:38Z</time>
      </trkpt>
      <trkpt lat="49.24536" lon="1.42167">
        <ele>110.4</ele>
        <time>2018-05-27T06:59:40Z</time>
      </trkpt>
      <trkpt lat="49.24534" lon="1.42145">
        <ele>109.8</ele>
        <time>2018-05-27T06:59:42Z</time>
      </trkpt>
      <trkpt lat="49.24533" lon="1.42122">
        <ele>109.3</ele>
        <time>2018-05-27T06:59:44Z</time>
      </trkpt>
      <trkpt lat="49.24532" lon="1.421">
        <ele>108.8</ele>
        <time>2018-05-27T06:59:46Z</time>
      </trkpt>
      <trkpt lat="49.24531" lon="1.42079">
        <ele>108.3</ele>
        <time>2018-05-27T06:59:48Z</time>
      </trkpt>
      <trkpt lat="49.24532" lon="1.42057">
        <ele>107.8</ele>
        <time>2018-05-27T06:59:50Z</time>
      </trkpt>
      <trkpt lat="49.24532" lon="1.42035">
        <ele>107.4</ele>
        <time>2018-05-27T06:59:52Z</time>
      </trkpt>
      <trkpt lat="49.24534" lon="1.42015">
        <ele>107.1</ele>
        <time>2018-05-27T06:59:54Z</time>
      </trkpt>
      <trkpt lat="49.24534" lon="1.41994">
        <ele>106.7</ele>
        <time>2018-05-27T06:59:56Z</time>
      </trkpt>
      <trkpt lat="49.24537" lon="1.41975">
        <ele>106.3</ele>
        <time>2018-05-27T06:59:58Z</time>
      </trkpt>
      <trkpt lat="49.24536" lon="1.41954">
        <ele>105.9</ele>
        <time>2018-05-27T07:00:00Z</time>
      </trkpt>
      <trkpt lat="49.24539" lon="1.41935">
        <ele>105.6</ele>
        <time>2018-05-27T07:00:02Z</time>
      </trkpt>
      <trkpt lat="49.2454" lon="1.41915">
        <ele>105.5</ele>
        <time>2018-05-27T07:00:04Z</time>
      </trkpt>
      <trkpt lat="49.2454" lon="1.41896">
        <ele>105.4</ele>
        <time>2018-05-27T07:00:06Z</time>
      </trkpt>
      <trkpt lat="49.24543" lon="1.41882">
        <ele>105.1</ele>
        <time>2018-05-27T07:00:08Z</time>
      </trkpt>
      <trkpt lat="49.24549" lon="1.41865">
        <ele>104.2</ele>
        <time>2018-05-27T07:00:12Z</time>
      </trkpt>
      <trkpt lat="49.24553" lon="1.41852">
        <ele>104</ele>
        <time>2018-05-27T07:00:14Z</time>
      </trkpt>
      <trkpt lat="49.24558" lon="1.41837">
        <ele>103.9</ele>
        <time>2018-05-27T07:00:16Z</time>
      </trkpt>
      <trkpt lat="49.24562" lon="1.41821">
        <ele>103.8</ele>
        <time>2018-05-27T07:00:18Z</time>
      </trkpt>
      <trkpt lat="49.24567" lon="1.41804">
        <ele>103.7</ele>
        <time>2018-05-27T07:00:20Z</time>
      </trkpt>
      <trkpt lat="49.24573" lon="1.41788">
        <ele>103.6</ele>
        <time>2018-05-27T07:00:22Z</time>
      </trkpt>
      <trkpt lat="49.24579" lon="1.4177">
        <ele>103.4</ele>
        <time>2018-05-27T07:00:24Z</time>
      </trkpt>
      <trkpt lat="49.24584" lon="1.41751">
        <ele>103.2</ele>
        <time>2018-05-27T07:00:26Z</time>
      </trkpt>
      <trkpt lat="49.24588" lon="1.41732">
        <ele>103</ele>
        <time>2018-05-27T07:00:28Z</time>
      </trkpt>
      <trkpt lat="49.24593" lon="1.41714">
        <ele>102.9</ele>
        <time>2018-05-27T07:00:30Z</time>
      </trkpt>
      <trkpt lat="49.24598" lon="1.41697">
        <ele>102.8</ele>
        <time>2018-05-27T07:00:32Z</time>
      </trkpt>
      <trkpt lat="49.24604" lon="1.41682">
        <ele>102.7</ele>
        <time>2018-05-27T07:00:34Z</time>
      </trkpt>
      <trkpt lat="49.24616" lon="1.41672">
        <ele>102.4</ele>
        <time>2018-05-27T07:00:37Z</time>
      </trkpt>
      <trkpt lat="49.24629" lon="1.41675">
        <ele>102.1</ele>
        <time>2018-05-27T07:00:40Z</time>
      </trkpt>
      <trkpt lat="49.24637" lon="1.41682">
        <ele>101.6</ele>
        <time>2018-05-27T07:00:43Z</time>
      </trkpt>
      <trkpt lat="49.24648" lon="1.41677">
        <ele>99.4</ele>
        <time>2018-05-27T07:01:07Z</time>
      </trkpt>
      <trkpt lat="49.24649" lon="1.41661">
        <ele>99.2</ele>
        <time>2018-05-27T07:01:10Z</time>
      </trkpt>
      <trkpt lat="49.24646" lon="1.41641">
        <ele>99</ele>
        <time>2018-05-27T07:01:13Z</time>
      </trkpt>
      <trkpt lat="49.24643" lon="1.41627">
        <ele>98.8</ele>
        <time>2018-05-27T07:01:15Z</time>
      </trkpt>
      <trkpt lat="49.24639" lon="1.41614">
        <ele>98.7</ele>
        <time>2018-05-27T07:01:17Z</time>
      </trkpt>
      <trkpt lat="49.24636" lon="1.41598">
        <ele>98.7</ele>
        <time>2018-05-27T07:01:19Z</time>
      </trkpt>
      <trkpt lat="49.24633" lon="1.41582">
        <ele>98.7</ele>
        <time>2018-05-27T07:01:21Z</time>
      </trkpt>
      <trkpt lat="49.24629" lon="1.41565">
        <ele>98.5</ele>
        <time>2018-05-27T07:01:23Z</time>
      </trkpt>
      <trkpt lat="49.24625" lon="1.41549">
        <ele>98.2</ele>
        <time>2018-05-27T07:01:25Z</time>
      </trkpt>
      <trkpt lat="49.24621" lon="1.41534">
        <ele>98.1</ele>
        <time>2018-05-27T07:01:27Z</time>
      </trkpt>
      <trkpt lat="49.24618" lon="1.41518">
        <ele>98</ele>
        <time>2018-05-27T07:01:29Z</time>
      </trkpt>
      <trkpt lat="49.24614" lon="1.41501">
        <ele>97.8</ele>
        <time>2018-05-27T07:01:31Z</time>
      </trkpt>
      <trkpt lat="49.2461" lon="1.41482">
        <ele>97.6</ele>
        <time>2018-05-27T07:01:33Z</time>
      </trkpt>
      <trkpt lat="49.24606" lon="1.41463">
        <ele>97.5</ele>
        <time>2018-05-27T07:01:35Z</time>
      </trkpt>
      <trkpt lat="49.24601" lon="1.41446">
        <ele>97.4</ele>
        <time>2018-05-27T07:01:37Z</time>
      </trkpt>
      <trkpt lat="49.24597" lon="1.41428">
        <ele>97.2</ele>
        <time>2018-05-27T07:01:39Z</time>
      </trkpt>
      <trkpt lat="49.24595" lon="1.4141">
        <ele>97.1</ele>
        <time>2018-05-27T07:01:41Z</time>
      </trkpt>
      <trkpt lat="49.24601" lon="1.41396">
        <ele>96.8</ele>
        <time>2018-05-27T07:01:43Z</time>
      </trkpt>
      <trkpt lat="49.24611" lon="1.4139">
        <ele>96.5</ele>
        <time>2018-05-27T07:01:45Z</time>
      </trkpt>
      <trkpt lat="49.24621" lon="1.41388">
        <ele>96.4</ele>
        <time>2018-05-27T07:01:47Z</time>
      </trkpt>
      <trkpt lat="49.24632" lon="1.41387">
        <ele>96.4</ele>
        <time>2018-05-27T07:01:49Z</time>
      </trkpt>
      <trkpt lat="49.24643" lon="1.41385">
        <ele>96.5</ele>
        <time>2018-05-27T07:01:51Z</time>
      </trkpt>
      <trkpt lat="49.24654" lon="1.41384">
        <ele>96.4</ele>
        <time>2018-05-27T07:01:53Z</time>
      </trkpt>
      <trkpt lat="49.24663" lon="1.41377">
        <ele>96.4</ele>
        <time>2018-05-27T07:01:55Z</time>
      </trkpt>
      <trkpt lat="49.24666" lon="1.41363">
        <ele>96.3</ele>
        <time>2018-05-27T07:01:57Z</time>
      </trkpt>
      <trkpt lat="49.24668" lon="1.41349">
        <ele>96.3</ele>
        <time>2018-05-27T07:01:59Z</time>
      </trkpt>
      <trkpt lat="49.2467" lon="1.41333">
        <ele>96.2</ele>
        <time>2018-05-27T07:02:01Z</time>
      </trkpt>
      <trkpt lat="49.24671" lon="1.41315">
        <ele>96.2</ele>
        <time>2018-05-27T07:02:03Z</time>
      </trkpt>
      <trkpt lat="49.24672" lon="1.41297">
        <ele>96.2</ele>
        <time>2018-05-27T07:02:05Z</time>
      </trkpt>
      <trkpt lat="49.24673" lon="1.41279">
        <ele>96.2</ele>
        <time>2018-05-27T07:02:07Z</time>
      </trkpt>
      <trkpt lat="49.24673" lon="1.4126">
        <ele>96.1</ele>
        <time>2018-05-27T07:02:09Z</time>
      </trkpt>
      <trkpt lat="49.24671" lon="1.41243">
        <ele>96</ele>
        <time>2018-05-27T07:02:11Z</time>
      </trkpt>
      <trkpt lat="49.24667" lon="1.41225">
        <ele>95.8</ele>
        <time>2018-05-27T07:02:13Z</time>
      </trkpt>
      <trkpt lat="49.24661" lon="1.41208">
        <ele>95.6</ele>
        <time>2018-05-27T07:02:15Z</time>
      </trkpt>
      <trkpt lat="49.24654" lon="1.41194">
        <ele>95.2</ele>
        <time>2018-05-27T07:02:17Z</time>
      </trkpt>
      <trkpt lat="49.24647" lon="1.41182">
        <ele>94.8</ele>
        <time>2018-05-27T07:02:20Z</time>
      </trkpt>
      <trkpt lat="49.24639" lon="1.41169">
        <ele>94.5</ele>
        <time>2018-05-27T07:02:23Z</time>
      </trkpt>
      <trkpt lat="49.24632" lon="1.41157">
        <ele>94.3</ele>
        <time>2018-05-27T07:02:25Z</time>
      </trkpt>
      <trkpt lat="49.24625" lon="1.41145">
        <ele>94.1</ele>
        <time>2018-05-27T07:02:27Z</time>
      </trkpt>
      <trkpt lat="49.24617" lon="1.41131">
        <ele>94</ele>
        <time>2018-05-27T07:02:29Z</time>
      </trkpt>
      <trkpt lat="49.2461" lon="1.41118">
        <ele>93.9</ele>
        <time>2018-05-27T07:02:31Z</time>
      </trkpt>
      <trkpt lat="49.24604" lon="1.41103">
        <ele>93.8</ele>
        <time>2018-05-27T07:02:33Z</time>
      </trkpt>
      <trkpt lat="49.24597" lon="1.41087">
        <ele>93.6</ele>
        <time>2018-05-27T07:02:35Z</time>
      </trkpt>
      <trkpt lat="49.2459" lon="1.41072">
        <ele>93.4</ele>
        <time>2018-05-27T07:02:37Z</time>
      </trkpt>
      <trkpt lat="49.24584" lon="1.41057">
        <ele>93.3</ele>
        <time>2018-05-27T07:02:39Z</time>
      </trkpt>
      <trkpt lat="49.24579" lon="1.41044">
        <ele>93.1</ele>
        <time>2018-05-27T07:02:41Z</time>
      </trkpt>
      <trkpt lat="49.24572" lon="1.41031">
        <ele>93.1</ele>
        <time>2018-05-27T07:02:43Z</time>
      </trkpt>
      <trkpt lat="49.24566" lon="1.41016">
        <ele>93.1</ele>
        <time>2018-05-27T07:02:45Z</time>
      </trkpt>
      <trkpt lat="49.2456" lon="1.40999">
        <ele>93</ele>
        <time>2018-05-27T07:02:47Z</time>
      </trkpt>
      <trkpt lat="49.24554" lon="1.40981">
        <ele>92.8</ele>
        <time>2018-05-27T07:02:49Z</time>
      </trkpt>
      <trkpt lat="49.24548" lon="1.40967">
        <ele>92.6</ele>
        <time>2018-05-27T07:02:51Z</time>
      </trkpt>
      <trkpt lat="49.24543" lon="1.40951">
        <ele>92.4</ele>
        <time>2018-05-27T07:02:53Z</time>
      </trkpt>
      <trkpt lat="49.24538" lon="1.40937">
        <ele>92.2</ele>
        <time>2018-05-27T07:02:55Z</time>
      </trkpt>
      <trkpt lat="49.24532" lon="1.40921">
        <ele>92</ele>
        <time>2018-05-27T07:02:57Z</time>
      </trkpt>
      <trkpt lat="49.24524" lon="1.40903">
        <ele>91.8</ele>
        <time>2018-05-27T07:02:59Z</time>
      </trkpt>
      <trkpt lat="49.24516" lon="1.40885">
        <ele>91.5</ele>
        <time>2018-05-27T07:03:01Z</time>
      </trkpt>
      <trkpt lat="49.24511" lon="1.40867">
        <ele>91.4</ele>
        <time>2018-05-27T07:03:03Z</time>
      </trkpt>
      <trkpt lat="49.24506" lon="1.40848">
        <ele>91.1</ele>
        <time>2018-05-27T07:03:05Z</time>
      </trkpt>
      <trkpt lat="49.24502" lon="1.40829">
        <ele>91</ele>
        <time>2018-05-27T07:03:07Z</time>
      </trkpt>
      <trkpt lat="49.24503" lon="1.4081">
        <ele>90.9</ele>
        <time>2018-05-27T07:03:09Z</time>
      </trkpt>
      <trkpt lat="49.24503" lon="1.4079">
        <ele>90.6</ele>
        <time>2018-05-27T07:03:11Z</time>
      </trkpt>
      <trkpt lat="49.24503" lon="1.40771">
        <ele>90.4</ele>
        <time>2018-05-27T07:03:13Z</time>
      </trkpt>
      <trkpt lat="49.24502" lon="1.40752">
        <ele>90.1</ele>
        <time>2018-05-27T07:03:15Z</time>
      </trkpt>
      <trkpt lat="49.24501" lon="1.40733">
        <ele>89.8</ele>
        <time>2018-05-27T07:03:17Z</time>
      </trkpt>
      <trkpt lat="49.24501" lon="1.40716">
        <ele>89.5</ele>
        <time>2018-05-27T07:03:19Z</time>
      </trkpt>
      <trkpt lat="49.245" lon="1.40702">
        <ele>89.2</ele>
        <time>2018-05-27T07:03:22Z</time>
      </trkpt>
      <trkpt lat="49.24498" lon="1.40687">
        <ele>88.8</ele>
        <time>2018-05-27T07:03:25Z</time>
      </trkpt>
      <trkpt lat="49.24499" lon="1.40669">
        <ele>88.6</ele>
        <time>2018-05-27T07:03:28Z</time>
      </trkpt>
      <trkpt lat="49.24499" lon="1.40656">
        <ele>88.5</ele>
        <time>2018-05-27T07:03:30Z</time>
      </trkpt>
      <trkpt lat="49.24499" lon="1.4064">
        <ele>88.3</ele>
        <time>2018-05-27T07:03:32Z</time>
      </trkpt>
      <trkpt lat="49.24499" lon="1.40623">
        <ele>88.2</ele>
        <time>2018-05-27T07:03:34Z</time>
      </trkpt>
      <trkpt lat="49.24498" lon="1.40605">
        <ele>88.2</ele>
        <time>2018-05-27T07:03:36Z</time>
      </trkpt>
      <trkpt lat="49.24498" lon="1.40586">
        <ele>88.4</ele>
        <time>2018-05-27T07:03:38Z</time>
      </trkpt>
      <trkpt lat="49.24498" lon="1.40567">
        <ele>88.2</ele>
        <time>2018-05-27T07:03:40Z</time>
      </trkpt>
      <trkpt lat="49.24498" lon="1.40548">
        <ele>88.2</ele>
        <time>2018-05-27T07:03:42Z</time>
      </trkpt>
      <trkpt lat="49.24497" lon="1.40528">
        <ele>88.1</ele>
        <time>2018-05-27T07:03:44Z</time>
      </trkpt>
      <trkpt lat="49.24497" lon="1.40509">
        <ele>87.6</ele>
        <time>2018-05-27T07:03:46Z</time>
      </trkpt>
      <trkpt lat="49.24498" lon="1.40491">
        <ele>87.4</ele>
        <time>2018-05-27T07:03:48Z</time>
      </trkpt>
      <trkpt lat="49.24497" lon="1.40476">
        <ele>87</ele>
        <time>2018-05-27T07:03:50Z</time>
      </trkpt>
      <trkpt lat="49.24498" lon="1.40457">
        <ele>86.7</ele>
        <time>2018-05-27T07:03:53Z</time>
      </trkpt>
      <trkpt lat="49.24497" lon="1.40442">
        <ele>86.6</ele>
        <time>2018-05-27T07:03:55Z</time>
      </trkpt>
      <trkpt lat="49.24498" lon="1.40425">
        <ele>86.4</ele>
        <time>2018-05-27T07:03:57Z</time>
      </trkpt>
      <trkpt lat="49.24497" lon="1.40407">
        <ele>86.4</ele>
        <time>2018-05-27T07:03:59Z</time>
      </trkpt>
      <trkpt lat="49.24497" lon="1.40388">
        <ele>86.4</ele>
        <time>2018-05-27T07:04:01Z</time>
      </trkpt>
      <trkpt lat="49.24497" lon="1.4037">
        <ele>86.3</ele>
        <time>2018-05-27T07:04:03Z</time>
      </trkpt>
      <trkpt lat="49.24497" lon="1.40352">
        <ele>86.1</ele>
        <time>2018-05-27T07:04:05Z</time>
      </trkpt>
      <trkpt lat="49.24497" lon="1.40334">
        <ele>86.1</ele>
        <time>2018-05-27T07:04:07Z</time>
      </trkpt>
      <trkpt lat="49.24498" lon="1.40315">
        <ele>85.8</ele>
        <time>2018-05-27T07:04:09Z</time>
      </trkpt>
      <trkpt lat="49.24498" lon="1.40296">
        <ele>85.8</ele>
        <time>2018-05-27T07:04:11Z</time>
      </trkpt>
      <trkpt lat="49.24498" lon="1.40277">
        <ele>85.7</ele>
        <time>2018-05-27T07:04:13Z</time>
      </trkpt>
      <trkpt lat="49.24498" lon="1.40258">
        <ele>85.5</ele>
        <time>2018-05-27T07:04:15Z</time>
      </trkpt>
      <trkpt lat="49.24499" lon="1.40239">
        <ele>85.3</ele>
        <time>2018-05-27T07:04:17Z</time>
      </trkpt>
      <trkpt lat="49.24499" lon="1.4022">
        <ele>85.2</ele>
        <time>2018-05-27T07:04:19Z</time>
      </trkpt>
      <trkpt lat="49.245" lon="1.402">
        <ele>84.9</ele>
        <time>2018-05-27T07:04:21Z</time>
      </trkpt>
      <trkpt lat="49.245" lon="1.40181">
        <ele>84.9</ele>
        <time>2018-05-27T07:04:23Z</time>
      </trkpt>
      <trkpt lat="49.24501" lon="1.40162">
        <ele>84.6</ele>
        <time>2018-05-27T07:04:25Z</time>
      </trkpt>
      <trkpt lat="49.24502" lon="1.40143">
        <ele>84.4</ele>
        <time>2018-05-27T07:04:27Z</time>
      </trkpt>
      <trkpt lat="49.24505" lon="1.40125">
        <ele>84.1</ele>
        <time>2018-05-27T07:04:29Z</time>
      </trkpt>
      <trkpt lat="49.24507" lon="1.40107">
        <ele>83.9</ele>
        <time>2018-05-27T07:04:31Z</time>
      </trkpt>
      <trkpt lat="49.24508" lon="1.40089">
        <ele>83.8</ele>
        <time>2018-05-27T07:04:33Z</time>
      </trkpt>
      <trkpt lat="49.24509" lon="1.40071">
        <ele>83.5</ele>
        <time>2018-05-27T07:04:35Z</time>
      </trkpt>
      <trkpt lat="49.2451" lon="1.40052">
        <ele>83.2</ele>
        <time>2018-05-27T07:04:37Z</time>
      </trkpt>
      <trkpt lat="49.24512" lon="1.40033">
        <ele>82.9</ele>
        <time>2018-05-27T07:04:39Z</time>
      </trkpt>
      <trkpt lat="49.24515" lon="1.40014">
        <ele>82.6</ele>
        <time>2018-05-27T07:04:41Z</time>
      </trkpt>
      <trkpt lat="49.2452" lon="1.39996">
        <ele>82.4</ele>
        <time>2018-05-27T07:04:43Z</time>
      </trkpt>
      <trkpt lat="49.24525" lon="1.39979">
        <ele>82.3</ele>
        <time>2018-05-27T07:04:45Z</time>
      </trkpt>
      <trkpt lat="49.24531" lon="1.39963">
        <ele>82.2</ele>
        <time>2018-05-27T07:04:47Z</time>
      </trkpt>
      <trkpt lat="49.24537" lon="1.39946">
        <ele>81.9</ele>
        <time>2018-05-27T07:04:49Z</time>
      </trkpt>
      <trkpt lat="49.24542" lon="1.39929">
        <ele>81.7</ele>
        <time>2018-05-27T07:04:51Z</time>
      </trkpt>
      <trkpt lat="49.24544" lon="1.39913">
        <ele>81.6</ele>
        <time>2018-05-27T07:04:53Z</time>
      </trkpt>
      <trkpt lat="49.24539" lon="1.399">
        <ele>81.4</ele>
        <time>2018-05-27T07:04:55Z</time>
      </trkpt>
      <trkpt lat="49.2453" lon="1.39891">
        <ele>81.3</ele>
        <time>2018-05-27T07:04:57Z</time>
      </trkpt>
      <trkpt lat="49.24521" lon="1.39882">
        <ele>81.2</ele>
        <time>2018-05-27T07:04:59Z</time>
      </trkpt>
      <trkpt lat="49.24513" lon="1.39871">
        <ele>81.1</ele>
        <time>2018-05-27T07:05:01Z</time>
      </trkpt>
      <trkpt lat="49.24508" lon="1.39856">
        <ele>81.1</ele>
        <time>2018-05-27T07:05:03Z</time>
      </trkpt>
      <trkpt lat="49.24506" lon="1.39842">
        <ele>81.2</ele>
        <time>2018-05-27T07:05:05Z</time>
      </trkpt>
      <trkpt lat="49.245" lon="1.39829">
        <ele>81.4</ele>
        <time>2018-05-27T07:05:07Z</time>
      </trkpt>
      <trkpt lat="49.24493" lon="1.39819">
        <ele>81.4</ele>
        <time>2018-05-27T07:05:09Z</time>
      </trkpt>
      <trkpt lat="49.24484" lon="1.39812">
        <ele>81.4</ele>
        <time>2018-05-27T07:05:11Z</time>
      </trkpt>
      <trkpt lat="49.24475" lon="1.39806">
        <ele>81.4</ele>
        <time>2018-05-27T07:05:13Z</time>
      </trkpt>
      <trkpt lat="49.24473" lon="1.39793">
        <ele>81.1</ele>
        <time>2018-05-27T07:05:17Z</time>
      </trkpt>
      <trkpt lat="49.24481" lon="1.39782">
        <ele>81</ele>
        <time>2018-05-27T07:05:20Z</time>
      </trkpt>
      <trkpt lat="49.24492" lon="1.3977">
        <ele>81</ele>
        <time>2018-05-27T07:05:23Z</time>
      </trkpt>
      <trkpt lat="49.245" lon="1.39762">
        <ele>80.9</ele>
        <time>2018-05-27T07:05:25Z</time>
      </trkpt>
      <trkpt lat="49.24508" lon="1.39753">
        <ele>80.9</ele>
        <time>2018-05-27T07:05:27Z</time>
      </trkpt>
      <trkpt lat="49.24517" lon="1.39743">
        <ele>81</ele>
        <time>2018-05-27T07:05:29Z</time>
      </trkpt>
      <trkpt lat="49.24525" lon="1.39734">
        <ele>81</ele>
        <time>2018-05-27T07:05:31Z</time>
      </trkpt>
      <trkpt lat="49.24534" lon="1.39724">
        <ele>81.1</ele>
        <time>2018-05-27T07:05:33Z</time>
      </trkpt>
      <trkpt lat="49.24542" lon="1.39715">
        <ele>81</ele>
        <time>2018-05-27T07:05:35Z</time>
      </trkpt>
      <trkpt lat="49.24552" lon="1.39707">
        <ele>81</ele>
        <time>2018-05-27T07:05:37Z</time>
      </trkpt>
      <trkpt lat="49.24562" lon="1.39707">
        <ele>81</ele>
        <time>2018-05-27T07:05:39Z</time>
      </trkpt>
      <trkpt lat="49.2457" lon="1.39721">
        <ele>81.5</ele>
        <time>2018-05-27T07:05:42Z</time>
      </trkpt>
      <trkpt lat="49.24571" lon="1.3974">
        <ele>81.8</ele>
        <time>2018-05-27T07:05:45Z</time>
      </trkpt>
      <trkpt lat="49.24574" lon="1.39759">
        <ele>82.2</ele>
        <time>2018-05-27T07:05:48Z</time>
      </trkpt>
      <trkpt lat="49.24578" lon="1.39778">
        <ele>82.5</ele>
        <time>2018-05-27T07:05:51Z</time>
      </trkpt>
      <trkpt lat="49.24582" lon="1.39791">
        <ele>82.6</ele>
        <time>2018-05-27T07:05:53Z</time>
      </trkpt>
      <trkpt lat="49.24585" lon="1.39806">
        <ele>82.7</ele>
        <time>2018-05-27T07:05:55Z</time>
      </trkpt>
      <trkpt lat="49.24588" lon="1.39822">
        <ele>82.6</ele>
        <time>2018-05-27T07:05:57Z</time>
      </trkpt>
      <trkpt lat="49.24591" lon="1.39838">
        <ele>82.3</ele>
        <time>2018-05-27T07:05:59Z</time>
      </trkpt>
      <trkpt lat="49.24594" lon="1.39856">
        <ele>82</ele>
        <time>2018-05-27T07:06:01Z</time>
      </trkpt>
      <trkpt lat="49.24596" lon="1.39875">
        <ele>81.7</ele>
        <time>2018-05-27T07:06:03Z</time>
      </trkpt>
      <trkpt lat="49.24598" lon="1.39893">
        <ele>81.4</ele>
        <time>2018-05-27T07:06:05Z</time>
      </trkpt>
      <trkpt lat="49.246" lon="1.3991">
        <ele>81.2</ele>
        <time>2018-05-27T07:06:07Z</time>
      </trkpt>
      <trkpt lat="49.246" lon="1.39924">
        <ele>81</ele>
        <time>2018-05-27T07:06:09Z</time>
      </trkpt>
      <trkpt lat="49.246" lon="1.39939">
        <ele>80.6</ele>
        <time>2018-05-27T07:06:12Z</time>
      </trkpt>
      <trkpt lat="49.24608" lon="1.39946">
        <ele>80.5</ele>
        <time>2018-05-27T07:06:27Z</time>
      </trkpt>
      <trkpt lat="49.2461" lon="1.3996">
        <ele>80.8</ele>
        <time>2018-05-27T07:06:32Z</time>
      </trkpt>
      <trkpt lat="49.24613" lon="1.39975">
        <ele>81.4</ele>
        <time>2018-05-27T07:06:36Z</time>
      </trkpt>
      <trkpt lat="49.24614" lon="1.39991">
        <ele>82.3</ele>
        <time>2018-05-27T07:06:40Z</time>
      </trkpt>
      <trkpt lat="49.24616" lon="1.40007">
        <ele>83</ele>
        <time>2018-05-27T07:06:44Z</time>
      </trkpt>
      <trkpt lat="49.24618" lon="1.40023">
        <ele>83.6</ele>
        <time>2018-05-27T07:06:48Z</time>
      </trkpt>
      <trkpt lat="49.24621" lon="1.4004">
        <ele>84.3</ele>
        <time>2018-05-27T07:06:52Z</time>
      </trkpt>
      <trkpt lat="49.24623" lon="1.40055">
        <ele>84.8</ele>
        <time>2018-05-27T07:06:56Z</time>
      </trkpt>
      <trkpt lat="49.24625" lon="1.40071">
        <ele>85.2</ele>
        <time>2018-05-27T07:07:00Z</time>
      </trkpt>
      <trkpt lat="49.24627" lon="1.40085">
        <ele>85.6</ele>
        <time>2018-05-27T07:07:04Z</time>
      </trkpt>
      <trkpt lat="49.24629" lon="1.40101">
        <ele>86.6</ele>
        <time>2018-05-27T07:07:08Z</time>
      </trkpt>
      <trkpt lat="49.24634" lon="1.40115">
        <ele>87.8</ele>
        <time>2018-05-27T07:07:13Z</time>
      </trkpt>
      <trkpt lat="49.24642" lon="1.40126">
        <ele>89.2</ele>
        <time>2018-05-27T07:07:19Z</time>
      </trkpt>
      <trkpt lat="49.2465" lon="1.40135">
        <ele>91.1</ele>
        <time>2018-05-27T07:07:27Z</time>
      </trkpt>
      <trkpt lat="49.24659" lon="1.40142">
        <ele>92.6</ele>
        <time>2018-05-27T07:07:33Z</time>
      </trkpt>
      <trkpt lat="49.24664" lon="1.40155">
        <ele>93.6</ele>
        <time>2018-05-27T07:07:38Z</time>
      </trkpt>
      <trkpt lat="49.24668" lon="1.4017">
        <ele>94.4</ele>
        <time>2018-05-27T07:07:43Z</time>
      </trkpt>
      <trkpt lat="49.24672" lon="1.40185">
        <ele>95.3</ele>
        <time>2018-05-27T07:07:48Z</time>
      </trkpt>
      <trkpt lat="49.24678" lon="1.40199">
        <ele>96.1</ele>
        <time>2018-05-27T07:07:53Z</time>
      </trkpt>
      <trkpt lat="49.24683" lon="1.40211">
        <ele>96.8</ele>
        <time>2018-05-27T07:07:58Z</time>
      </trkpt>
      <trkpt lat="49.24688" lon="1.40226">
        <ele>97.5</ele>
        <time>2018-05-27T07:08:04Z</time>
      </trkpt>
      <trkpt lat="49.2469" lon="1.4024">
        <ele>98.3</ele>
        <time>2018-05-27T07:08:09Z</time>
      </trkpt>
      <trkpt lat="49.24692" lon="1.40255">
        <ele>99</ele>
        <time>2018-05-27T07:08:14Z</time>
      </trkpt>
      <trkpt lat="49.24697" lon="1.40269">
        <ele>99.7</ele>
        <time>2018-05-27T07:08:19Z</time>
      </trkpt>
      <trkpt lat="49.24704" lon="1.4028">
        <ele>100.5</ele>
        <time>2018-05-27T07:08:24Z</time>
      </trkpt>
      <trkpt lat="49.24711" lon="1.40289">
        <ele>101.2</ele>
        <time>2018-05-27T07:08:29Z</time>
      </trkpt>
      <trkpt lat="49.24719" lon="1.40298">
        <ele>102</ele>
        <time>2018-05-27T07:08:35Z</time>
      </trkpt>
      <trkpt lat="49.24728" lon="1.40305">
        <ele>103.3</ele>
        <time>2018-05-27T07:08:41Z</time>
      </trkpt>
      <trkpt lat="49.24737" lon="1.40314">
        <ele>104.4</ele>
        <time>2018-05-27T07:08:46Z</time>
      </trkpt>
      <trkpt lat="49.24744" lon="1.40323">
        <ele>105.1</ele>
        <time>2018-05-27T07:08:51Z</time>
      </trkpt>
      <trkpt lat="49.24752" lon="1.40331">
        <ele>106.2</ele>
        <time>2018-05-27T07:08:57Z</time>
      </trkpt>
      <trkpt lat="49.2476" lon="1.40341">
        <ele>107.4</ele>
        <time>2018-05-27T07:09:03Z</time>
      </trkpt>
      <trkpt lat="49.24769" lon="1.4035">
        <ele>108.8</ele>
        <time>2018-05-27T07:09:09Z</time>
      </trkpt>
      <trkpt lat="49.24778" lon="1.40356">
        <ele>109.6</ele>
        <time>2018-05-27T07:09:14Z</time>
      </trkpt>
      <trkpt lat="49.24786" lon="1.40364">
        <ele>110.9</ele>
        <time>2018-05-27T07:09:21Z</time>
      </trkpt>
      <trkpt lat="49.24792" lon="1.40377">
        <ele>112.5</ele>
        <time>2018-05-27T07:09:28Z</time>
      </trkpt>
      <trkpt lat="49.248" lon="1.40384">
        <ele>113.9</ele>
        <time>2018-05-27T07:09:35Z</time>
      </trkpt>
      <trkpt lat="49.24809" lon="1.40388">
        <ele>115.5</ele>
        <time>2018-05-27T07:09:43Z</time>
      </trkpt>
      <trkpt lat="49.24817" lon="1.40403">
        <ele>118.5</ele>
        <time>2018-05-27T07:09:56Z</time>
      </trkpt>
      <trkpt lat="49.24827" lon="1.40418">
        <ele>120.7</ele>
        <time>2018-05-27T07:10:06Z</time>
      </trkpt>
      <trkpt lat="49.24835" lon="1.4042">
        <ele>122.1</ele>
        <time>2018-05-27T07:10:11Z</time>
      </trkpt>
      <trkpt lat="49.24845" lon="1.40419">
        <ele>123.7</ele>
        <time>2018-05-27T07:10:18Z</time>
      </trkpt>
      <trkpt lat="49.24854" lon="1.40411">
        <ele>125.7</ele>
        <time>2018-05-27T07:10:27Z</time>
      </trkpt>
      <trkpt lat="49.2486" lon="1.404">
        <ele>127.3</ele>
        <time>2018-05-27T07:10:34Z</time>
      </trkpt>
      <trkpt lat="49.24869" lon="1.40393">
        <ele>129</ele>
        <time>2018-05-27T07:10:41Z</time>
      </trkpt>
      <trkpt lat="49.24878" lon="1.40387">
        <ele>130</ele>
        <time>2018-05-27T07:10:47Z</time>
      </trkpt>
      <trkpt lat="49.24886" lon="1.40381">
        <ele>131.3</ele>
        <time>2018-05-27T07:10:53Z</time>
      </trkpt>
      <trkpt lat="49.24896" lon="1.40377">
        <ele>132.7</ele>
        <time>2018-05-27T07:10:59Z</time>
      </trkpt>
      <trkpt lat="49.24904" lon="1.40368">
        <ele>134.2</ele>
        <time>2018-05-27T07:11:06Z</time>
      </trkpt>
      <trkpt lat="49.24909" lon="1.40357">
        <ele>135.5</ele>
        <time>2018-05-27T07:11:12Z</time>
      </trkpt>
      <trkpt lat="49.24917" lon="1.40347">
        <ele>136.9</ele>
        <time>2018-05-27T07:11:19Z</time>
      </trkpt>
      <trkpt lat="49.24922" lon="1.40334">
        <ele>139</ele>
        <time>2018-05-27T07:11:26Z</time>
      </trkpt>
      <trkpt lat="49.24927" lon="1.40321">
        <ele>140.3</ele>
        <time>2018-05-27T07:11:32Z</time>
      </trkpt>
      <trkpt lat="49.24932" lon="1.40309">
        <ele>140.8</ele>
        <time>2018-05-27T07:11:37Z</time>
      </trkpt>
      <trkpt lat="49.24936" lon="1.40296">
        <ele>141.9</ele>
        <time>2018-05-27T07:11:43Z</time>
      </trkpt>
      <trkpt lat="49.2494" lon="1.40282">
        <ele>143.1</ele>
        <time>2018-05-27T07:11:49Z</time>
      </trkpt>
      <trkpt lat="49.24943" lon="1.40267">
        <ele>144.1</ele>
        <time>2018-05-27T07:11:55Z</time>
      </trkpt>
      <trkpt lat="49.24945" lon="1.40252">
        <ele>145</ele>
        <time>2018-05-27T07:12:01Z</time>
      </trkpt>
      <trkpt lat="49.24946" lon="1.40237">
        <ele>145.7</ele>
        <time>2018-05-27T07:12:06Z</time>
      </trkpt>
      <trkpt lat="49.24947" lon="1.40223">
        <ele>146.6</ele>
        <time>2018-05-27T07:12:11Z</time>
      </trkpt>
      <trkpt lat="49.24948" lon="1.40208">
        <ele>147.3</ele>
        <time>2018-05-27T07:12:16Z</time>
      </trkpt>
      <trkpt lat="49.24949" lon="1.40193">
        <ele>148.1</ele>
        <time>2018-05-27T07:12:21Z</time>
      </trkpt>
      <trkpt lat="49.24953" lon="1.40178">
        <ele>149</ele>
        <time>2018-05-27T07:12:27Z</time>
      </trkpt>
      <trkpt lat="49.24956" lon="1.40163">
        <ele>150</ele>
        <time>2018-05-27T07:12:33Z</time>
      </trkpt>
      <trkpt lat="49.24961" lon="1.4015">
        <ele>150.8</ele>
        <time>2018-05-27T07:12:39Z</time>
      </trkpt>
      <trkpt lat="49.24967" lon="1.40137">
        <ele>151.8</ele>
        <time>2018-05-27T07:12:45Z</time>
      </trkpt>
      <trkpt lat="49.24971" lon="1.40123">
        <ele>152.9</ele>
        <time>2018-05-27T07:12:51Z</time>
      </trkpt>
      <trkpt lat="49.24975" lon="1.4011">
        <ele>154.1</ele>
        <time>2018-05-27T07:12:57Z</time>
      </trkpt>
      <trkpt lat="49.24981" lon="1.40098">
        <ele>155.1</ele>
        <time>2018-05-27T07:13:03Z</time>
      </trkpt>
      <trkpt lat="49.24988" lon="1.40088">
        <ele>156.4</ele>
        <time>2018-05-27T07:13:10Z</time>
      </trkpt>
      <trkpt lat="49.24995" lon="1.40078">
        <ele>157.4</ele>
        <time>2018-05-27T07:13:16Z</time>
      </trkpt>
      <trkpt lat="49.25001" lon="1.40066">
        <ele>158.7</ele>
        <time>2018-05-27T07:13:22Z</time>
      </trkpt>
      <trkpt lat="49.25006" lon="1.40054">
        <ele>159.6</ele>
        <time>2018-05-27T07:13:28Z</time>
      </trkpt>
      <trkpt lat="49.25012" lon="1.4004">
        <ele>160.5</ele>
        <time>2018-05-27T07:13:34Z</time>
      </trkpt>
      <trkpt lat="49.25015" lon="1.40024">
        <ele>161.4</ele>
        <time>2018-05-27T07:13:40Z</time>
      </trkpt>
      <trkpt lat="49.25018" lon="1.40011">
        <ele>162.3</ele>
        <time>2018-05-27T07:13:45Z</time>
      </trkpt>
      <trkpt lat="49.25022" lon="1.39998">
        <ele>163.4</ele>
        <time>2018-05-27T07:13:50Z</time>
      </trkpt>
      <trkpt lat="49.25027" lon="1.39984">
        <ele>164.4</ele>
        <time>2018-05-27T07:13:55Z</time>
      </trkpt>
      <trkpt lat="49.25033" lon="1.39972">
        <ele>165.1</ele>
        <time>2018-05-27T07:14:00Z</time>
      </trkpt>
      <trkpt lat="49.25039" lon="1.39961">
        <ele>166.2</ele>
        <time>2018-05-27T07:14:05Z</time>
      </trkpt>
      <trkpt lat="49.25045" lon="1.3995">
        <ele>167.3</ele>
        <time>2018-05-27T07:14:10Z</time>
      </trkpt>
      <trkpt lat="49.25052" lon="1.39938">
        <ele>168.9</ele>
        <time>2018-05-27T07:14:16Z</time>
      </trkpt>
      <trkpt lat="49.25057" lon="1.39924">
        <ele>170.5</ele>
        <time>2018-05-27T07:14:22Z</time>
      </trkpt>
      <trkpt lat="49.25064" lon="1.39912">
        <ele>171.9</ele>
        <time>2018-05-27T07:14:28Z</time>
      </trkpt>
      <trkpt lat="49.2507" lon="1.39901">
        <ele>172.7</ele>
        <time>2018-05-27T07:14:33Z</time>
      </trkpt>
      <trkpt lat="49.25076" lon="1.3989">
        <ele>173.6</ele>
        <time>2018-05-27T07:14:38Z</time>
      </trkpt>
      <trkpt lat="49.25082" lon="1.3988">
        <ele>174.5</ele>
        <time>2018-05-27T07:14:43Z</time>
      </trkpt>
      <trkpt lat="49.25089" lon="1.39867">
        <ele>175.2</ele>
        <time>2018-05-27T07:14:48Z</time>
      </trkpt>
      <trkpt lat="49.25095" lon="1.39856">
        <ele>175.8</ele>
        <time>2018-05-27T07:14:52Z</time>
      </trkpt>
      <trkpt lat="49.25102" lon="1.39845">
        <ele>176.4</ele>
        <time>2018-05-27T07:14:56Z</time>
      </trkpt>
      <trkpt lat="49.2511" lon="1.39834">
        <ele>177.2</ele>
        <time>2018-05-27T07:15:00Z</time>
      </trkpt>
      <trkpt lat="49.25118" lon="1.39823">
        <ele>177.9</ele>
        <time>2018-05-27T07:15:04Z</time>
      </trkpt>
      <trkpt lat="49.25127" lon="1.39812">
        <ele>178.3</ele>
        <time>2018-05-27T07:15:08Z</time>
      </trkpt>
      <trkpt lat="49.25136" lon="1.398">
        <ele>178.5</ele>
        <time>2018-05-27T07:15:12Z</time>
      </trkpt>
      <trkpt lat="49.25143" lon="1.39789">
        <ele>178.7</ele>
        <time>2018-05-27T07:15:15Z</time>
      </trkpt>
      <trkpt lat="49.2515" lon="1.39778">
        <ele>178.8</ele>
        <time>2018-05-27T07:15:18Z</time>
      </trkpt>
      <trkpt lat="49.25159" lon="1.39766">
        <ele>178.7</ele>
        <time>2018-05-27T07:15:21Z</time>
      </trkpt>
      <trkpt lat="49.25171" lon="1.39758">
        <ele>179</ele>
        <time>2018-05-27T07:15:24Z</time>
      </trkpt>
      <trkpt lat="49.25182" lon="1.3975">
        <ele>178.9</ele>
        <time>2018-05-27T07:15:27Z</time>
      </trkpt>
      <trkpt lat="49.25194" lon="1.39744">
        <ele>178.9</ele>
        <time>2018-05-27T07:15:30Z</time>
      </trkpt>
      <trkpt lat="49.25205" lon="1.39737">
        <ele>178.9</ele>
        <time>2018-05-27T07:15:33Z</time>
      </trkpt>
      <trkpt lat="49.25213" lon="1.39732">
        <ele>178.9</ele>
        <time>2018-05-27T07:15:35Z</time>
      </trkpt>
      <trkpt lat="49.25226" lon="1.39724">
        <ele>178.8</ele>
        <time>2018-05-27T07:15:38Z</time>
      </trkpt>
      <trkpt lat="49.25235" lon="1.39719">
        <ele>178.9</ele>
        <time>2018-05-27T07:15:40Z</time>
      </trkpt>
      <trkpt lat="49.25245" lon="1.39714">
        <ele>178.9</ele>
        <time>2018-05-27T07:15:42Z</time>
      </trkpt>
      <trkpt lat="49.25255" lon="1.39708">
        <ele>178.8</ele>
        <time>2018-05-27T07:15:44Z</time>
      </trkpt>
      <trkpt lat="49.25264" lon="1.39701">
        <ele>178.8</ele>
        <time>2018-05-27T07:15:46Z</time>
      </trkpt>
      <trkpt lat="49.25274" lon="1.39693">
        <ele>178.8</ele>
        <time>2018-05-27T07:15:48Z</time>
      </trkpt>
      <trkpt lat="49.25284" lon="1.39685">
        <ele>178.9</ele>
        <time>2018-05-27T07:15:50Z</time>
      </trkpt>
      <trkpt lat="49.25293" lon="1.39676">
        <ele>178.8</ele>
        <time>2018-05-27T07:15:52Z</time>
      </trkpt>
      <trkpt lat="49.25301" lon="1.39666">
        <ele>178.9</ele>
        <time>2018-05-27T07:15:54Z</time>
      </trkpt>
      <trkpt lat="49.2531" lon="1.39656">
        <ele>178.9</ele>
        <time>2018-05-27T07:15:56Z</time>
      </trkpt>
      <trkpt lat="49.25318" lon="1.39645">
        <ele>178.9</ele>
        <time>2018-05-27T07:15:58Z</time>
      </trkpt>
      <trkpt lat="49.25324" lon="1.39633">
        <ele>178.7</ele>
        <time>2018-05-27T07:16:00Z</time>
      </trkpt>
      <trkpt lat="49.25334" lon="1.39623">
        <ele>178.7</ele>
        <time>2018-05-27T07:16:02Z</time>
      </trkpt>
      <trkpt lat="49.25344" lon="1.39614">
        <ele>178.6</ele>
        <time>2018-05-27T07:16:04Z</time>
      </trkpt>
      <trkpt lat="49.25354" lon="1.39607">
        <ele>178.4</ele>
        <time>2018-05-27T07:16:06Z</time>
      </trkpt>
      <trkpt lat="49.25364" lon="1.39599">
        <ele>178.4</ele>
        <time>2018-05-27T07:16:08Z</time>
      </trkpt>
      <trkpt lat="49.25374" lon="1.39592">
        <ele>178.2</ele>
        <time>2018-05-27T07:16:10Z</time>
      </trkpt>
      <trkpt lat="49.25383" lon="1.39584">
        <ele>178.1</ele>
        <time>2018-05-27T07:16:12Z</time>
      </trkpt>
      <trkpt lat="49.25392" lon="1.39575">
        <ele>177.9</ele>
        <time>2018-05-27T07:16:14Z</time>
      </trkpt>
      <trkpt lat="49.25402" lon="1.39567">
        <ele>177.8</ele>
        <time>2018-05-27T07:16:16Z</time>
      </trkpt>
      <trkpt lat="49.25415" lon="1.39562">
        <ele>177.6</ele>
        <time>2018-05-27T07:16:18Z</time>
      </trkpt>
      <trkpt lat="49.25424" lon="1.39559">
        <ele>177.4</ele>
        <time>2018-05-27T07:16:20Z</time>
      </trkpt>
      <trkpt lat="49.25437" lon="1.39556">
        <ele>177.2</ele>
        <time>2018-05-27T07:16:22Z</time>
      </trkpt>
      <trkpt lat="49.2545" lon="1.39551">
        <ele>176.9</ele>
        <time>2018-05-27T07:16:24Z</time>
      </trkpt>
      <trkpt lat="49.25462" lon="1.39546">
        <ele>176.7</ele>
        <time>2018-05-27T07:16:26Z</time>
      </trkpt>
      <trkpt lat="49.25473" lon="1.39541">
        <ele>176.6</ele>
        <time>2018-05-27T07:16:28Z</time>
      </trkpt>
      <trkpt lat="49.25485" lon="1.39537">
        <ele>176.5</ele>
        <time>2018-05-27T07:16:30Z</time>
      </trkpt>
      <trkpt lat="49.25496" lon="1.39533">
        <ele>176.3</ele>
        <time>2018-05-27T07:16:32Z</time>
      </trkpt>
      <trkpt lat="49.25511" lon="1.3953">
        <ele>176</ele>
        <time>2018-05-27T07:16:34Z</time>
      </trkpt>
      <trkpt lat="49.25523" lon="1.39526">
        <ele>175.7</ele>
        <time>2018-05-27T07:16:36Z</time>
      </trkpt>
      <trkpt lat="49.25531" lon="1.39517">
        <ele>175.3</ele>
        <time>2018-05-27T07:16:38Z</time>
      </trkpt>
      <trkpt lat="49.25532" lon="1.39496">
        <ele>174.8</ele>
        <time>2018-05-27T07:16:41Z</time>
      </trkpt>
      <trkpt lat="49.25532" lon="1.39482">
        <ele>174.3</ele>
        <time>2018-05-27T07:16:43Z</time>
      </trkpt>
      <trkpt lat="49.25538" lon="1.39464">
        <ele>173.7</ele>
        <time>2018-05-27T07:16:46Z</time>
      </trkpt>
      <trkpt lat="49.2555" lon="1.39456">
        <ele>173.2</ele>
        <time>2018-05-27T07:16:49Z</time>
      </trkpt>
      <trkpt lat="49.25561" lon="1.39451">
        <ele>173.1</ele>
        <time>2018-05-27T07:16:51Z</time>
      </trkpt>
      <trkpt lat="49.25572" lon="1.39446">
        <ele>172.8</ele>
        <time>2018-05-27T07:16:53Z</time>
      </trkpt>
      <trkpt lat="49.25583" lon="1.39441">
        <ele>172.5</ele>
        <time>2018-05-27T07:16:55Z</time>
      </trkpt>
      <trkpt lat="49.25593" lon="1.39437">
        <ele>172.4</ele>
        <time>2018-05-27T07:16:57Z</time>
      </trkpt>
      <trkpt lat="49.25602" lon="1.39433">
        <ele>171.9</ele>
        <time>2018-05-27T07:16:59Z</time>
      </trkpt>
      <trkpt lat="49.25613" lon="1.39427">
        <ele>171.3</ele>
        <time>2018-05-27T07:17:02Z</time>
      </trkpt>
      <trkpt lat="49.25624" lon="1.39424">
        <ele>171</ele>
        <time>2018-05-27T07:17:04Z</time>
      </trkpt>
      <trkpt lat="49.25636" lon="1.39421">
        <ele>170.8</ele>
        <time>2018-05-27T07:17:06Z</time>
      </trkpt>
      <trkpt lat="49.25643" lon="1.39412">
        <ele>170.4</ele>
        <time>2018-05-27T07:17:08Z</time>
      </trkpt>
      <trkpt lat="49.25652" lon="1.39405">
        <ele>169.9</ele>
        <time>2018-05-27T07:17:10Z</time>
      </trkpt>
      <trkpt lat="49.25665" lon="1.39398">
        <ele>169.3</ele>
        <time>2018-05-27T07:17:13Z</time>
      </trkpt>
      <trkpt lat="49.25675" lon="1.39391">
        <ele>169.3</ele>
        <time>2018-05-27T07:17:15Z</time>
      </trkpt>
      <trkpt lat="49.25686" lon="1.39387">
        <ele>169.1</ele>
        <time>2018-05-27T07:17:17Z</time>
      </trkpt>
      <trkpt lat="49.25694" lon="1.39379">
        <ele>168.9</ele>
        <time>2018-05-27T07:17:19Z</time>
      </trkpt>
      <trkpt lat="49.25706" lon="1.39369">
        <ele>168.6</ele>
        <time>2018-05-27T07:17:22Z</time>
      </trkpt>
      <trkpt lat="49.25716" lon="1.39359">
        <ele>168.4</ele>
        <time>2018-05-27T07:17:24Z</time>
      </trkpt>
      <trkpt lat="49.25726" lon="1.39352">
        <ele>168.2</ele>
        <time>2018-05-27T07:17:26Z</time>
      </trkpt>
      <trkpt lat="49.25737" lon="1.39344">
        <ele>168</ele>
        <time>2018-05-27T07:17:28Z</time>
      </trkpt>
      <trkpt lat="49.25745" lon="1.39338">
        <ele>168.1</ele>
        <time>2018-05-27T07:17:30Z</time>
      </trkpt>
      <trkpt lat="49.25756" lon="1.39336">
        <ele>168.2</ele>
        <time>2018-05-27T07:17:32Z</time>
      </trkpt>
      <trkpt lat="49.25767" lon="1.39329">
        <ele>168.4</ele>
        <time>2018-05-27T07:17:35Z</time>
      </trkpt>
      <trkpt lat="49.25777" lon="1.39324">
        <ele>168.4</ele>
        <time>2018-05-27T07:17:37Z</time>
      </trkpt>
      <trkpt lat="49.25788" lon="1.39316">
        <ele>168.5</ele>
        <time>2018-05-27T07:17:40Z</time>
      </trkpt>
      <trkpt lat="49.25795" lon="1.39306">
        <ele>168.7</ele>
        <time>2018-05-27T07:17:42Z</time>
      </trkpt>
      <trkpt lat="49.25804" lon="1.39296">
        <ele>169</ele>
        <time>2018-05-27T07:17:44Z</time>
      </trkpt>
      <trkpt lat="49.25811" lon="1.39285">
        <ele>169</ele>
        <time>2018-05-27T07:17:46Z</time>
      </trkpt>
      <trkpt lat="49.2582" lon="1.39274">
        <ele>169.1</ele>
        <time>2018-05-27T07:17:48Z</time>
      </trkpt>
      <trkpt lat="49.25827" lon="1.39265">
        <ele>169.1</ele>
        <time>2018-05-27T07:17:50Z</time>
      </trkpt>
      <trkpt lat="49.25836" lon="1.39255">
        <ele>169</ele>
        <time>2018-05-27T07:17:53Z</time>
      </trkpt>
      <trkpt lat="49.25847" lon="1.39245">
        <ele>168.9</ele>
        <time>2018-05-27T07:17:56Z</time>
      </trkpt>
      <trkpt lat="49.25854" lon="1.39236">
        <ele>169</ele>
        <time>2018-05-27T07:17:58Z</time>
      </trkpt>
      <trkpt lat="49.25861" lon="1.39228">
        <ele>169.1</ele>
        <time>2018-05-27T07:18:00Z</time>
      </trkpt>
      <trkpt lat="49.2587" lon="1.39221">
        <ele>169.3</ele>
        <time>2018-05-27T07:18:03Z</time>
      </trkpt>
      <trkpt lat="49.25878" lon="1.39216">
        <ele>169.4</ele>
        <time>2018-05-27T07:18:05Z</time>
      </trkpt>
      <trkpt lat="49.25888" lon="1.3921">
        <ele>169.3</ele>
        <time>2018-05-27T07:18:07Z</time>
      </trkpt>
      <trkpt lat="49.25896" lon="1.39203">
        <ele>169.3</ele>
        <time>2018-05-27T07:18:09Z</time>
      </trkpt>
      <trkpt lat="49.25906" lon="1.39198">
        <ele>169.2</ele>
        <time>2018-05-27T07:18:11Z</time>
      </trkpt>
      <trkpt lat="49.25913" lon="1.3919">
        <ele>169.3</ele>
        <time>2018-05-27T07:18:13Z</time>
      </trkpt>
      <trkpt lat="49.25922" lon="1.39181">
        <ele>169.3</ele>
        <time>2018-05-27T07:18:15Z</time>
      </trkpt>
      <trkpt lat="49.25929" lon="1.3917">
        <ele>169.2</ele>
        <time>2018-05-27T07:18:17Z</time>
      </trkpt>
      <trkpt lat="49.25937" lon="1.3916">
        <ele>169.1</ele>
        <time>2018-05-27T07:18:19Z</time>
      </trkpt>
      <trkpt lat="49.25945" lon="1.39151">
        <ele>169.1</ele>
        <time>2018-05-27T07:18:21Z</time>
      </trkpt>
      <trkpt lat="49.25954" lon="1.39142">
        <ele>169.1</ele>
        <time>2018-05-27T07:18:23Z</time>
      </trkpt>
      <trkpt lat="49.25963" lon="1.39134">
        <ele>169</ele>
        <time>2018-05-27T07:18:25Z</time>
      </trkpt>
      <trkpt lat="49.25972" lon="1.39127">
        <ele>168.9</ele>
        <time>2018-05-27T07:18:27Z</time>
      </trkpt>
      <trkpt lat="49.25981" lon="1.39121">
        <ele>168.7</ele>
        <time>2018-05-27T07:18:29Z</time>
      </trkpt>
      <trkpt lat="49.25991" lon="1.39112">
        <ele>168.6</ele>
        <time>2018-05-27T07:18:31Z</time>
      </trkpt>
      <trkpt lat="49.26001" lon="1.39104">
        <ele>168.7</ele>
        <time>2018-05-27T07:18:33Z</time>
      </trkpt>
      <trkpt lat="49.26011" lon="1.3909">
        <ele>168.5</ele>
        <time>2018-05-27T07:18:36Z</time>
      </trkpt>
      <trkpt lat="49.26019" lon="1.39082">
        <ele>168.5</ele>
        <time>2018-05-27T07:18:38Z</time>
      </trkpt>
      <trkpt lat="49.26027" lon="1.39078">
        <ele>168.3</ele>
        <time>2018-05-27T07:18:40Z</time>
      </trkpt>
      <trkpt lat="49.26039" lon="1.39073">
        <ele>168.1</ele>
        <time>2018-05-27T07:18:42Z</time>
      </trkpt>
      <trkpt lat="49.26051" lon="1.39067">
        <ele>168.1</ele>
        <time>2018-05-27T07:18:44Z</time>
      </trkpt>
      <trkpt lat="49.26063" lon="1.39066">
        <ele>167.8</ele>
        <time>2018-05-27T07:18:46Z</time>
      </trkpt>
      <trkpt lat="49.26075" lon="1.39064">
        <ele>167.6</ele>
        <time>2018-05-27T07:18:48Z</time>
      </trkpt>
      <trkpt lat="49.26085" lon="1.39059">
        <ele>167.3</ele>
        <time>2018-05-27T07:18:50Z</time>
      </trkpt>
      <trkpt lat="49.26096" lon="1.39054">
        <ele>166.9</ele>
        <time>2018-05-27T07:18:52Z</time>
      </trkpt>
      <trkpt lat="49.26105" lon="1.39048">
        <ele>166.6</ele>
        <time>2018-05-27T07:18:54Z</time>
      </trkpt>
      <trkpt lat="49.26116" lon="1.39034">
        <ele>166.1</ele>
        <time>2018-05-27T07:18:57Z</time>
      </trkpt>
      <trkpt lat="49.26123" lon="1.39017">
        <ele>165.6</ele>
        <time>2018-05-27T07:19:00Z</time>
      </trkpt>
      <trkpt lat="49.26134" lon="1.39006">
        <ele>165.5</ele>
        <time>2018-05-27T07:19:02Z</time>
      </trkpt>
      <trkpt lat="49.26141" lon="1.38997">
        <ele>165.1</ele>
        <time>2018-05-27T07:19:04Z</time>
      </trkpt>
      <trkpt lat="49.26146" lon="1.38982">
        <ele>164.9</ele>
        <time>2018-05-27T07:19:06Z</time>
      </trkpt>
      <trkpt lat="49.26152" lon="1.38967">
        <ele>164.6</ele>
        <time>2018-05-27T07:19:08Z</time>
      </trkpt>
      <trkpt lat="49.26157" lon="1.38951">
        <ele>164.5</ele>
        <time>2018-05-27T07:19:10Z</time>
      </trkpt>
      <trkpt lat="49.26163" lon="1.3893">
        <ele>164.1</ele>
        <time>2018-05-27T07:19:12Z</time>
      </trkpt>
      <trkpt lat="49.26171" lon="1.3891">
        <ele>163.9</ele>
        <time>2018-05-27T07:19:14Z</time>
      </trkpt>
      <trkpt lat="49.2618" lon="1.38893">
        <ele>163.6</ele>
        <time>2018-05-27T07:19:16Z</time>
      </trkpt>
      <trkpt lat="49.26189" lon="1.38876">
        <ele>162.8</ele>
        <time>2018-05-27T07:19:18Z</time>
      </trkpt>
      <trkpt lat="49.26197" lon="1.38862">
        <ele>162.7</ele>
        <time>2018-05-27T07:19:20Z</time>
      </trkpt>
      <trkpt lat="49.262" lon="1.38844">
        <ele>162.5</ele>
        <time>2018-05-27T07:19:22Z</time>
      </trkpt>
      <trkpt lat="49.26197" lon="1.38828">
        <ele>162.3</ele>
        <time>2018-05-27T07:19:24Z</time>
      </trkpt>
      <trkpt lat="49.26195" lon="1.3881">
        <ele>162.2</ele>
        <time>2018-05-27T07:19:26Z</time>
      </trkpt>
      <trkpt lat="49.26192" lon="1.38795">
        <ele>162</ele>
        <time>2018-05-27T07:19:28Z</time>
      </trkpt>
      <trkpt lat="49.26188" lon="1.38779">
        <ele>161.8</ele>
        <time>2018-05-27T07:19:30Z</time>
      </trkpt>
      <trkpt lat="49.26183" lon="1.38763">
        <ele>161.7</ele>
        <time>2018-05-27T07:19:32Z</time>
      </trkpt>
      <trkpt lat="49.26178" lon="1.38747">
        <ele>161.7</ele>
        <time>2018-05-27T07:19:34Z</time>
      </trkpt>
      <trkpt lat="49.26173" lon="1.38732">
        <ele>161.6</ele>
        <time>2018-05-27T07:19:36Z</time>
      </trkpt>
      <trkpt lat="49.26169" lon="1.38717">
        <ele>161.3</ele>
        <time>2018-05-27T07:19:38Z</time>
      </trkpt>
      <trkpt lat="49.26169" lon="1.38701">
        <ele>161.2</ele>
        <time>2018-05-27T07:19:40Z</time>
      </trkpt>
      <trkpt lat="49.26171" lon="1.38686">
        <ele>160.9</ele>
        <time>2018-05-27T07:19:42Z</time>
      </trkpt>
      <trkpt lat="49.26174" lon="1.38673">
        <ele>160.4</ele>
        <time>2018-05-27T07:19:44Z</time>
      </trkpt>
      <trkpt lat="49.26179" lon="1.38659">
        <ele>159.5</ele>
        <time>2018-05-27T07:19:46Z</time>
      </trkpt>
      <trkpt lat="49.26186" lon="1.38648">
        <ele>158.4</ele>
        <time>2018-05-27T07:19:48Z</time>
      </trkpt>
      <trkpt lat="49.26193" lon="1.38634">
        <ele>157.1</ele>
        <time>2018-05-27T07:19:50Z</time>
      </trkpt>
      <trkpt lat="49.26201" lon="1.3862">
        <ele>155.7</ele>
        <time>2018-05-27T07:19:52Z</time>
      </trkpt>
      <trkpt lat="49.26209" lon="1.38604">
        <ele>154.3</ele>
        <time>2018-05-27T07:19:54Z</time>
      </trkpt>
      <trkpt lat="49.26218" lon="1.38588">
        <ele>152.6</ele>
        <time>2018-05-27T07:19:56Z</time>
      </trkpt>
      <trkpt lat="49.26226" lon="1.38571">
        <ele>151.2</ele>
        <time>2018-05-27T07:19:58Z</time>
      </trkpt>
      <trkpt lat="49.26236" lon="1.38551">
        <ele>149.6</ele>
        <time>2018-05-27T07:20:00Z</time>
      </trkpt>
      <trkpt lat="49.26246" lon="1.38532">
        <ele>147.6</ele>
        <time>2018-05-27T07:20:02Z</time>
      </trkpt>
      <trkpt lat="49.26259" lon="1.38519">
        <ele>145.4</ele>
        <time>2018-05-27T07:20:04Z</time>
      </trkpt>
      <trkpt lat="49.26272" lon="1.38512">
        <ele>143.6</ele>
        <time>2018-05-27T07:20:06Z</time>
      </trkpt>
      <trkpt lat="49.26286" lon="1.38504">
        <ele>142</ele>
        <time>2018-05-27T07:20:08Z</time>
      </trkpt>
      <trkpt lat="49.26301" lon="1.38498">
        <ele>140.7</ele>
        <time>2018-05-27T07:20:10Z</time>
      </trkpt>
      <trkpt lat="49.26313" lon="1.3849">
        <ele>139.2</ele>
        <time>2018-05-27T07:20:12Z</time>
      </trkpt>
      <trkpt lat="49.26326" lon="1.38483">
        <ele>137.7</ele>
        <time>2018-05-27T07:20:14Z</time>
      </trkpt>
      <trkpt lat="49.26341" lon="1.38473">
        <ele>136.2</ele>
        <time>2018-05-27T07:20:16Z</time>
      </trkpt>
      <trkpt lat="49.26355" lon="1.3847">
        <ele>134.5</ele>
        <time>2018-05-27T07:20:18Z</time>
      </trkpt>
      <trkpt lat="49.2637" lon="1.38461">
        <ele>132.7</ele>
        <time>2018-05-27T07:20:20Z</time>
      </trkpt>
      <trkpt lat="49.26382" lon="1.38452">
        <ele>130.6</ele>
        <time>2018-05-27T07:20:22Z</time>
      </trkpt>
      <trkpt lat="49.2639" lon="1.3845">
        <ele>129.8</ele>
        <time>2018-05-27T07:20:23Z</time>
      </trkpt>
      <trkpt lat="49.26407" lon="1.38442">
        <ele>127.9</ele>
        <time>2018-05-27T07:20:25Z</time>
      </trkpt>
      <trkpt lat="49.26419" lon="1.38435">
        <ele>126.2</ele>
        <time>2018-05-27T07:20:27Z</time>
      </trkpt>
      <trkpt lat="49.26431" lon="1.38428">
        <ele>124.8</ele>
        <time>2018-05-27T07:20:29Z</time>
      </trkpt>
      <trkpt lat="49.26445" lon="1.38429">
        <ele>123.5</ele>
        <time>2018-05-27T07:20:31Z</time>
      </trkpt>
      <trkpt lat="49.26454" lon="1.38433">
        <ele>122.1</ele>
        <time>2018-05-27T07:20:33Z</time>
      </trkpt>
      <trkpt lat="49.26467" lon="1.38438">
        <ele>120.4</ele>
        <time>2018-05-27T07:20:36Z</time>
      </trkpt>
      <trkpt lat="49.26476" lon="1.38453">
        <ele>117.6</ele>
        <time>2018-05-27T07:20:39Z</time>
      </trkpt>
      <trkpt lat="49.26482" lon="1.38466">
        <ele>115.9</ele>
        <time>2018-05-27T07:20:41Z</time>
      </trkpt>
      <trkpt lat="49.26492" lon="1.38477">
        <ele>112.9</ele>
        <time>2018-05-27T07:20:44Z</time>
      </trkpt>
      <trkpt lat="49.265" lon="1.38496">
        <ele>110.2</ele>
        <time>2018-05-27T07:20:47Z</time>
      </trkpt>
      <trkpt lat="49.26505" lon="1.3851">
        <ele>108.6</ele>
        <time>2018-05-27T07:20:49Z</time>
      </trkpt>
      <trkpt lat="49.26506" lon="1.38523">
        <ele>107.5</ele>
        <time>2018-05-27T07:20:51Z</time>
      </trkpt>
      <trkpt lat="49.26517" lon="1.38522">
        <ele>104.1</ele>
        <time>2018-05-27T07:20:58Z</time>
      </trkpt>
      <trkpt lat="49.26528" lon="1.38514">
        <ele>101.9</ele>
        <time>2018-05-27T07:21:02Z</time>
      </trkpt>
      <trkpt lat="49.26532" lon="1.38502">
        <ele>100.8</ele>
        <time>2018-05-27T07:21:04Z</time>
      </trkpt>
      <trkpt lat="49.26536" lon="1.38488">
        <ele>99.6</ele>
        <time>2018-05-27T07:21:06Z</time>
      </trkpt>
      <trkpt lat="49.26541" lon="1.38475">
        <ele>98.3</ele>
        <time>2018-05-27T07:21:08Z</time>
      </trkpt>
      <trkpt lat="49.26545" lon="1.38461">
        <ele>96.4</ele>
        <time>2018-05-27T07:21:10Z</time>
      </trkpt>
      <trkpt lat="49.26553" lon="1.38448">
        <ele>94.7</ele>
        <time>2018-05-27T07:21:12Z</time>
      </trkpt>
      <trkpt lat="49.26563" lon="1.38433">
        <ele>92.8</ele>
        <time>2018-05-27T07:21:14Z</time>
      </trkpt>
      <trkpt lat="49.26567" lon="1.38417">
        <ele>90.7</ele>
        <time>2018-05-27T07:21:16Z</time>
      </trkpt>
      <trkpt lat="49.26571" lon="1.38403">
        <ele>87.9</ele>
        <time>2018-05-27T07:21:18Z</time>
      </trkpt>
      <trkpt lat="49.26573" lon="1.38384">
        <ele>85.8</ele>
        <time>2018-05-27T07:21:20Z</time>
      </trkpt>
      <trkpt lat="49.26577" lon="1.38366">
        <ele>83.1</ele>
        <time>2018-05-27T07:21:23Z</time>
      </trkpt>
      <trkpt lat="49.26575" lon="1.38352">
        <ele>81.3</ele>
        <time>2018-05-27T07:21:25Z</time>
      </trkpt>
      <trkpt lat="49.26573" lon="1.38336">
        <ele>80</ele>
        <time>2018-05-27T07:21:27Z</time>
      </trkpt>
      <trkpt lat="49.26572" lon="1.38322">
        <ele>78.7</ele>
        <time>2018-05-27T07:21:29Z</time>
      </trkpt>
      <trkpt lat="49.26569" lon="1.38304">
        <ele>76.9</ele>
        <time>2018-05-27T07:21:32Z</time>
      </trkpt>
      <trkpt lat="49.26567" lon="1.38286">
        <ele>74.8</ele>
        <time>2018-05-27T07:21:35Z</time>
      </trkpt>
      <trkpt lat="49.26562" lon="1.38264">
        <ele>72.8</ele>
        <time>2018-05-27T07:21:38Z</time>
      </trkpt>
      <trkpt lat="49.26556" lon="1.38248">
        <ele>70.5</ele>
        <time>2018-05-27T07:21:41Z</time>
      </trkpt>
      <trkpt lat="49.26551" lon="1.38233">
        <ele>68.9</ele>
        <time>2018-05-27T07:21:43Z</time>
      </trkpt>
      <trkpt lat="49.26546" lon="1.38215">
        <ele>67.2</ele>
        <time>2018-05-27T07:21:45Z</time>
      </trkpt>
      <trkpt lat="49.2654" lon="1.38194">
        <ele>64.4</ele>
        <time>2018-05-27T07:21:47Z</time>
      </trkpt>
      <trkpt lat="49.26541" lon="1.38174">
        <ele>62.1</ele>
        <time>2018-05-27T07:21:50Z</time>
      </trkpt>
      <trkpt lat="49.26542" lon="1.38158">
        <ele>60.9</ele>
        <time>2018-05-27T07:21:52Z</time>
      </trkpt>
      <trkpt lat="49.26541" lon="1.3814">
        <ele>60.1</ele>
        <time>2018-05-27T07:21:54Z</time>
      </trkpt>
      <trkpt lat="49.2654" lon="1.38118">
        <ele>59.4</ele>
        <time>2018-05-27T07:21:56Z</time>
      </trkpt>
      <trkpt lat="49.26539" lon="1.38098">
        <ele>59.1</ele>
        <time>2018-05-27T07:21:58Z</time>
      </trkpt>
      <trkpt lat="49.26539" lon="1.38076">
        <ele>58.7</ele>
        <time>2018-05-27T07:22:00Z</time>
      </trkpt>
      <trkpt lat="49.2654" lon="1.38058">
        <ele>58.2</ele>
        <time>2018-05-27T07:22:02Z</time>
      </trkpt>
      <trkpt lat="49.26542" lon="1.38036">
        <ele>58</ele>
        <time>2018-05-27T07:22:04Z</time>
      </trkpt>
      <trkpt lat="49.26544" lon="1.38015">
        <ele>57.3</ele>
        <time>2018-05-27T07:22:06Z</time>
      </trkpt>
      <trkpt lat="49.26544" lon="1.37993">
        <ele>56.7</ele>
        <time>2018-05-27T07:22:08Z</time>
      </trkpt>
      <trkpt lat="49.26543" lon="1.3797">
        <ele>56.3</ele>
        <time>2018-05-27T07:22:10Z</time>
      </trkpt>
      <trkpt lat="49.26542" lon="1.37951">
        <ele>56.2</ele>
        <time>2018-05-27T07:22:12Z</time>
      </trkpt>
      <trkpt lat="49.26543" lon="1.37929">
        <ele>56.2</ele>
        <time>2018-05-27T07:22:14Z</time>
      </trkpt>
      <trkpt lat="49.26542" lon="1.37908">
        <ele>56.1</ele>
        <time>2018-05-27T07:22:16Z</time>
      </trkpt>
      <trkpt lat="49.26541" lon="1.37882">
        <ele>56.1</ele>
        <time>2018-05-27T07:22:18Z</time>
      </trkpt>
      <trkpt lat="49.26538" lon="1.37856">
        <ele>56</ele>
        <time>2018-05-27T07:22:20Z</time>
      </trkpt>
      <trkpt lat="49.26538" lon="1.37835">
        <ele>56.1</ele>
        <time>2018-05-27T07:22:22Z</time>
      </trkpt>
      <trkpt lat="49.26535" lon="1.37815">
        <ele>56.1</ele>
        <time>2018-05-27T07:22:24Z</time>
      </trkpt>
      <trkpt lat="49.26533" lon="1.37794">
        <ele>55.9</ele>
        <time>2018-05-27T07:22:26Z</time>
      </trkpt>
      <trkpt lat="49.26533" lon="1.37771">
        <ele>55.5</ele>
        <time>2018-05-27T07:22:28Z</time>
      </trkpt>
      <trkpt lat="49.26532" lon="1.37748">
        <ele>55</ele>
        <time>2018-05-27T07:22:30Z</time>
      </trkpt>
      <trkpt lat="49.26531" lon="1.37728">
        <ele>54.5</ele>
        <time>2018-05-27T07:22:32Z</time>
      </trkpt>
      <trkpt lat="49.26526" lon="1.3771">
        <ele>54</ele>
        <time>2018-05-27T07:22:34Z</time>
      </trkpt>
      <trkpt lat="49.26522" lon="1.37693">
        <ele>53.8</ele>
        <time>2018-05-27T07:22:36Z</time>
      </trkpt>
      <trkpt lat="49.2652" lon="1.37679">
        <ele>53.7</ele>
        <time>2018-05-27T07:22:38Z</time>
      </trkpt>
      <trkpt lat="49.26518" lon="1.37661">
        <ele>53.6</ele>
        <time>2018-05-27T07:22:40Z</time>
      </trkpt>
      <trkpt lat="49.26516" lon="1.37645">
        <ele>53.5</ele>
        <time>2018-05-27T07:22:42Z</time>
      </trkpt>
      <trkpt lat="49.26515" lon="1.37626">
        <ele>53.5</ele>
        <time>2018-05-27T07:22:44Z</time>
      </trkpt>
      <trkpt lat="49.26514" lon="1.37608">
        <ele>53.8</ele>
        <time>2018-05-27T07:22:46Z</time>
      </trkpt>
      <trkpt lat="49.26511" lon="1.37589">
        <ele>54.2</ele>
        <time>2018-05-27T07:22:48Z</time>
      </trkpt>
      <trkpt lat="49.26509" lon="1.37575">
        <ele>54.4</ele>
        <time>2018-05-27T07:22:50Z</time>
      </trkpt>
      <trkpt lat="49.26506" lon="1.37559">
        <ele>54.3</ele>
        <time>2018-05-27T07:22:52Z</time>
      </trkpt>
      <trkpt lat="49.26504" lon="1.37543">
        <ele>54.5</ele>
        <time>2018-05-27T07:22:54Z</time>
      </trkpt>
      <trkpt lat="49.26504" lon="1.37527">
        <ele>54.6</ele>
        <time>2018-05-27T07:22:56Z</time>
      </trkpt>
      <trkpt lat="49.26503" lon="1.37511">
        <ele>54.5</ele>
        <time>2018-05-27T07:22:58Z</time>
      </trkpt>
      <trkpt lat="49.26503" lon="1.37492">
        <ele>55</ele>
        <time>2018-05-27T07:23:01Z</time>
      </trkpt>
      <trkpt lat="49.26503" lon="1.37477">
        <ele>55.3</ele>
        <time>2018-05-27T07:23:03Z</time>
      </trkpt>
      <trkpt lat="49.26504" lon="1.37461">
        <ele>55.4</ele>
        <time>2018-05-27T07:23:05Z</time>
      </trkpt>
      <trkpt lat="49.26503" lon="1.37445">
        <ele>55.5</ele>
        <time>2018-05-27T07:23:07Z</time>
      </trkpt>
      <trkpt lat="49.26504" lon="1.3743">
        <ele>55.7</ele>
        <time>2018-05-27T07:23:09Z</time>
      </trkpt>
      <trkpt lat="49.26507" lon="1.37414">
        <ele>55.7</ele>
        <time>2018-05-27T07:23:12Z</time>
      </trkpt>
      <trkpt lat="49.26515" lon="1.37401">
        <ele>55.5</ele>
        <time>2018-05-27T07:23:15Z</time>
      </trkpt>
      <trkpt lat="49.26522" lon="1.37387">
        <ele>55.6</ele>
        <time>2018-05-27T07:23:18Z</time>
      </trkpt>
      <trkpt lat="49.26528" lon="1.37373">
        <ele>55.7</ele>
        <time>2018-05-27T07:23:21Z</time>
      </trkpt>
      <trkpt lat="49.26534" lon="1.37359">
        <ele>55.5</ele>
        <time>2018-05-27T07:23:25Z</time>
      </trkpt>
      <trkpt lat="49.2654" lon="1.37349">
        <ele>55.6</ele>
        <time>2018-05-27T07:23:28Z</time>
      </trkpt>
      <trkpt lat="49.2655" lon="1.3734">
        <ele>55.8</ele>
        <time>2018-05-27T07:23:31Z</time>
      </trkpt>
      <trkpt lat="49.26559" lon="1.37332">
        <ele>55.9</ele>
        <time>2018-05-27T07:23:34Z</time>
      </trkpt>
      <trkpt lat="49.26566" lon="1.3732">
        <ele>56.3</ele>
        <time>2018-05-27T07:23:37Z</time>
      </trkpt>
      <trkpt lat="49.26574" lon="1.37312">
        <ele>56.6</ele>
        <time>2018-05-27T07:23:40Z</time>
      </trkpt>
      <trkpt lat="49.26583" lon="1.37299">
        <ele>56.8</ele>
        <time>2018-05-27T07:23:43Z</time>
      </trkpt>
      <trkpt lat="49.26594" lon="1.37289">
        <ele>56.9</ele>
        <time>2018-05-27T07:23:46Z</time>
      </trkpt>
      <trkpt lat="49.26603" lon="1.37283">
        <ele>57.1</ele>
        <time>2018-05-27T07:23:48Z</time>
      </trkpt>
      <trkpt lat="49.26616" lon="1.37276">
        <ele>56.9</ele>
        <time>2018-05-27T07:23:51Z</time>
      </trkpt>
      <trkpt lat="49.26623" lon="1.37268">
        <ele>56.9</ele>
        <time>2018-05-27T07:23:53Z</time>
      </trkpt>
      <trkpt lat="49.26634" lon="1.37262">
        <ele>56.9</ele>
        <time>2018-05-27T07:23:56Z</time>
      </trkpt>
      <trkpt lat="49.26645" lon="1.37259">
        <ele>56.7</ele>
        <time>2018-05-27T07:23:59Z</time>
      </trkpt>
      <trkpt lat="49.26656" lon="1.37255">
        <ele>56.9</ele>
        <time>2018-05-27T07:24:01Z</time>
      </trkpt>
      <trkpt lat="49.26666" lon="1.37249">
        <ele>56.8</ele>
        <time>2018-05-27T07:24:03Z</time>
      </trkpt>
      <trkpt lat="49.26676" lon="1.37246">
        <ele>57</ele>
        <time>2018-05-27T07:24:05Z</time>
      </trkpt>
      <trkpt lat="49.26687" lon="1.37242">
        <ele>57.3</ele>
        <time>2018-05-27T07:24:07Z</time>
      </trkpt>
      <trkpt lat="49.26697" lon="1.37234">
        <ele>57.2</ele>
        <time>2018-05-27T07:24:10Z</time>
      </trkpt>
      <trkpt lat="49.26708" lon="1.37224">
        <ele>56.9</ele>
        <time>2018-05-27T07:24:13Z</time>
      </trkpt>
      <trkpt lat="49.2672" lon="1.37215">
        <ele>56.7</ele>
        <time>2018-05-27T07:24:16Z</time>
      </trkpt>
      <trkpt lat="49.26731" lon="1.37203">
        <ele>56.7</ele>
        <time>2018-05-27T07:24:19Z</time>
      </trkpt>
      <trkpt lat="49.2674" lon="1.37196">
        <ele>56.7</ele>
        <time>2018-05-27T07:24:21Z</time>
      </trkpt>
      <trkpt lat="49.26753" lon="1.37189">
        <ele>56.7</ele>
        <time>2018-05-27T07:24:24Z</time>
      </trkpt>
      <trkpt lat="49.26759" lon="1.37176">
        <ele>56.7</ele>
        <time>2018-05-27T07:24:27Z</time>
      </trkpt>
      <trkpt lat="49.2677" lon="1.37165">
        <ele>56.8</ele>
        <time>2018-05-27T07:24:30Z</time>
      </trkpt>
      <trkpt lat="49.26782" lon="1.37156">
        <ele>56.7</ele>
        <time>2018-05-27T07:24:33Z</time>
      </trkpt>
      <trkpt lat="49.2679" lon="1.37147">
        <ele>56.8</ele>
        <time>2018-05-27T07:24:35Z</time>
      </trkpt>
      <trkpt lat="49.26799" lon="1.3714">
        <ele>56.8</ele>
        <time>2018-05-27T07:24:37Z</time>
      </trkpt>
      <trkpt lat="49.26811" lon="1.37134">
        <ele>56.8</ele>
        <time>2018-05-27T07:24:40Z</time>
      </trkpt>
      <trkpt lat="49.26823" lon="1.37129">
        <ele>56.8</ele>
        <time>2018-05-27T07:24:43Z</time>
      </trkpt>
      <trkpt lat="49.26832" lon="1.37117">
        <ele>56.9</ele>
        <time>2018-05-27T07:24:46Z</time>
      </trkpt>
      <trkpt lat="49.26838" lon="1.37106">
        <ele>57.2</ele>
        <time>2018-05-27T07:24:48Z</time>
      </trkpt>
      <trkpt lat="49.26844" lon="1.37087">
        <ele>57.2</ele>
        <time>2018-05-27T07:24:51Z</time>
      </trkpt>
      <trkpt lat="49.26847" lon="1.37074">
        <ele>57.4</ele>
        <time>2018-05-27T07:24:53Z</time>
      </trkpt>
      <trkpt lat="49.26849" lon="1.37057">
        <ele>57.4</ele>
        <time>2018-05-27T07:24:55Z</time>
      </trkpt>
      <trkpt lat="49.26851" lon="1.37042">
        <ele>57.5</ele>
        <time>2018-05-27T07:24:57Z</time>
      </trkpt>
      <trkpt lat="49.26855" lon="1.37029">
        <ele>57.6</ele>
        <time>2018-05-27T07:24:59Z</time>
      </trkpt>
      <trkpt lat="49.26861" lon="1.37012">
        <ele>57.3</ele>
        <time>2018-05-27T07:25:02Z</time>
      </trkpt>
      <trkpt lat="49.26866" lon="1.36999">
        <ele>57.3</ele>
        <time>2018-05-27T07:25:04Z</time>
      </trkpt>
      <trkpt lat="49.26871" lon="1.36987">
        <ele>57.5</ele>
        <time>2018-05-27T07:25:06Z</time>
      </trkpt>
      <trkpt lat="49.26879" lon="1.36973">
        <ele>57.5</ele>
        <time>2018-05-27T07:25:09Z</time>
      </trkpt>
      <trkpt lat="49.2689" lon="1.36964">
        <ele>57.5</ele>
        <time>2018-05-27T07:25:12Z</time>
      </trkpt>
      <trkpt lat="49.26903" lon="1.36957">
        <ele>57.4</ele>
        <time>2018-05-27T07:25:15Z</time>
      </trkpt>
      <trkpt lat="49.26913" lon="1.36954">
        <ele>57.4</ele>
        <time>2018-05-27T07:25:17Z</time>
      </trkpt>
      <trkpt lat="49.26922" lon="1.36951">
        <ele>57.3</ele>
        <time>2018-05-27T07:25:19Z</time>
      </trkpt>
      <trkpt lat="49.26933" lon="1.36951">
        <ele>57.4</ele>
        <time>2018-05-27T07:25:21Z</time>
      </trkpt>
      <trkpt lat="49.26943" lon="1.36949">
        <ele>57.4</ele>
        <time>2018-05-27T07:25:23Z</time>
      </trkpt>
      <trkpt lat="49.26953" lon="1.36946">
        <ele>57.3</ele>
        <time>2018-05-27T07:25:25Z</time>
      </trkpt>
      <trkpt lat="49.26965" lon="1.3694">
        <ele>57.4</ele>
        <time>2018-05-27T07:25:28Z</time>
      </trkpt>
      <trkpt lat="49.26976" lon="1.36937">
        <ele>57.3</ele>
        <time>2018-05-27T07:25:30Z</time>
      </trkpt>
      <trkpt lat="49.26985" lon="1.36934">
        <ele>57.4</ele>
        <time>2018-05-27T07:25:32Z</time>
      </trkpt>
      <trkpt lat="49.26996" lon="1.36926">
        <ele>57.8</ele>
        <time>2018-05-27T07:25:35Z</time>
      </trkpt>
      <trkpt lat="49.27006" lon="1.36917">
        <ele>57.8</ele>
        <time>2018-05-27T07:25:38Z</time>
      </trkpt>
      <trkpt lat="49.27017" lon="1.36912">
        <ele>57.9</ele>
        <time>2018-05-27T07:25:41Z</time>
      </trkpt>
      <trkpt lat="49.27027" lon="1.36903">
        <ele>57.9</ele>
        <time>2018-05-27T07:25:44Z</time>
      </trkpt>
      <trkpt lat="49.27038" lon="1.36898">
        <ele>58</ele>
        <time>2018-05-27T07:25:47Z</time>
      </trkpt>
      <trkpt lat="49.2705" lon="1.36898">
        <ele>58</ele>
        <time>2018-05-27T07:25:50Z</time>
      </trkpt>
      <trkpt lat="49.2706" lon="1.36896">
        <ele>58.2</ele>
        <time>2018-05-27T07:25:52Z</time>
      </trkpt>
      <trkpt lat="49.27069" lon="1.36893">
        <ele>58.5</ele>
        <time>2018-05-27T07:25:54Z</time>
      </trkpt>
      <trkpt lat="49.27079" lon="1.36891">
        <ele>58.8</ele>
        <time>2018-05-27T07:25:57Z</time>
      </trkpt>
      <trkpt lat="49.27091" lon="1.36889">
        <ele>59</ele>
        <time>2018-05-27T07:26:00Z</time>
      </trkpt>
      <trkpt lat="49.27101" lon="1.36884">
        <ele>59.1</ele>
        <time>2018-05-27T07:26:02Z</time>
      </trkpt>
      <trkpt lat="49.27113" lon="1.36883">
        <ele>59.5</ele>
        <time>2018-05-27T07:26:05Z</time>
      </trkpt>
      <trkpt lat="49.27124" lon="1.36873">
        <ele>59.9</ele>
        <time>2018-05-27T07:26:08Z</time>
      </trkpt>
      <trkpt lat="49.27135" lon="1.36863">
        <ele>60</ele>
        <time>2018-05-27T07:26:11Z</time>
      </trkpt>
      <trkpt lat="49.27144" lon="1.36856">
        <ele>60.2</ele>
        <time>2018-05-27T07:26:14Z</time>
      </trkpt>
      <trkpt lat="49.27158" lon="1.36854">
        <ele>60.3</ele>
        <time>2018-05-27T07:26:17Z</time>
      </trkpt>
      <trkpt lat="49.27168" lon="1.36852">
        <ele>60.3</ele>
        <time>2018-05-27T07:26:19Z</time>
      </trkpt>
      <trkpt lat="49.2718" lon="1.36847">
        <ele>60.5</ele>
        <time>2018-05-27T07:26:22Z</time>
      </trkpt>
      <trkpt lat="49.27188" lon="1.36838">
        <ele>60.8</ele>
        <time>2018-05-27T07:26:25Z</time>
      </trkpt>
      <trkpt lat="49.27197" lon="1.3683">
        <ele>60.6</ele>
        <time>2018-05-27T07:26:28Z</time>
      </trkpt>
      <trkpt lat="49.27204" lon="1.36821">
        <ele>60.6</ele>
        <time>2018-05-27T07:26:30Z</time>
      </trkpt>
      <trkpt lat="49.27215" lon="1.36815">
        <ele>60.5</ele>
        <time>2018-05-27T07:26:32Z</time>
      </trkpt>
      <trkpt lat="49.27226" lon="1.36812">
        <ele>60.6</ele>
        <time>2018-05-27T07:26:34Z</time>
      </trkpt>
      <trkpt lat="49.27235" lon="1.36806">
        <ele>60.7</ele>
        <time>2018-05-27T07:26:36Z</time>
      </trkpt>
      <trkpt lat="49.27243" lon="1.36799">
        <ele>60.8</ele>
        <time>2018-05-27T07:26:38Z</time>
      </trkpt>
      <trkpt lat="49.27256" lon="1.368">
        <ele>61</ele>
        <time>2018-05-27T07:26:40Z</time>
      </trkpt>
      <trkpt lat="49.27266" lon="1.36798">
        <ele>61</ele>
        <time>2018-05-27T07:26:42Z</time>
      </trkpt>
      <trkpt lat="49.27276" lon="1.36797">
        <ele>61</ele>
        <time>2018-05-27T07:26:44Z</time>
      </trkpt>
      <trkpt lat="49.27285" lon="1.36797">
        <ele>61.1</ele>
        <time>2018-05-27T07:26:46Z</time>
      </trkpt>
      <trkpt lat="49.27294" lon="1.36797">
        <ele>61.3</ele>
        <time>2018-05-27T07:26:48Z</time>
      </trkpt>
      <trkpt lat="49.27306" lon="1.36798">
        <ele>61.4</ele>
        <time>2018-05-27T07:26:51Z</time>
      </trkpt>
      <trkpt lat="49.27316" lon="1.36803">
        <ele>61.6</ele>
        <time>2018-05-27T07:26:53Z</time>
      </trkpt>
      <trkpt lat="49.27324" lon="1.36808">
        <ele>61.9</ele>
        <time>2018-05-27T07:26:55Z</time>
      </trkpt>
      <trkpt lat="49.27332" lon="1.36815">
        <ele>62</ele>
        <time>2018-05-27T07:26:57Z</time>
      </trkpt>
      <trkpt lat="49.2734" lon="1.36823">
        <ele>62.2</ele>
        <time>2018-05-27T07:26:59Z</time>
      </trkpt>
      <trkpt lat="49.27348" lon="1.36831">
        <ele>62.3</ele>
        <time>2018-05-27T07:27:01Z</time>
      </trkpt>
      <trkpt lat="49.27357" lon="1.36845">
        <ele>62.7</ele>
        <time>2018-05-27T07:27:04Z</time>
      </trkpt>
      <trkpt lat="49.27364" lon="1.36858">
        <ele>63.2</ele>
        <time>2018-05-27T07:27:07Z</time>
      </trkpt>
      <trkpt lat="49.27375" lon="1.3687">
        <ele>63.5</ele>
        <time>2018-05-27T07:27:10Z</time>
      </trkpt>
      <trkpt lat="49.27383" lon="1.36884">
        <ele>63.9</ele>
        <time>2018-05-27T07:27:13Z</time>
      </trkpt>
      <trkpt lat="49.27391" lon="1.36897">
        <ele>64.5</ele>
        <time>2018-05-27T07:27:16Z</time>
      </trkpt>
      <trkpt lat="49.27399" lon="1.36909">
        <ele>65</ele>
        <time>2018-05-27T07:27:19Z</time>
      </trkpt>
      <trkpt lat="49.27409" lon="1.36916">
        <ele>65.6</ele>
        <time>2018-05-27T07:27:22Z</time>
      </trkpt>
      <trkpt lat="49.2742" lon="1.36917">
        <ele>66.1</ele>
        <time>2018-05-27T07:27:25Z</time>
      </trkpt>
      <trkpt lat="49.27433" lon="1.36917">
        <ele>66.5</ele>
        <time>2018-05-27T07:27:28Z</time>
      </trkpt>
      <trkpt lat="49.27445" lon="1.36914">
        <ele>67.1</ele>
        <time>2018-05-27T07:27:31Z</time>
      </trkpt>
      <trkpt lat="49.27456" lon="1.36906">
        <ele>67.3</ele>
        <time>2018-05-27T07:27:34Z</time>
      </trkpt>
      <trkpt lat="49.27465" lon="1.36898">
        <ele>67.5</ele>
        <time>2018-05-27T07:27:37Z</time>
      </trkpt>
      <trkpt lat="49.27475" lon="1.36892">
        <ele>67.9</ele>
        <time>2018-05-27T07:27:40Z</time>
      </trkpt>
      <trkpt lat="49.27483" lon="1.36882">
        <ele>68.8</ele>
        <time>2018-05-27T07:27:43Z</time>
      </trkpt>
      <trkpt lat="49.27489" lon="1.36869">
        <ele>69.4</ele>
        <time>2018-05-27T07:27:46Z</time>
      </trkpt>
      <trkpt lat="49.27497" lon="1.36858">
        <ele>69.7</ele>
        <time>2018-05-27T07:27:49Z</time>
      </trkpt>
      <trkpt lat="49.27504" lon="1.3685">
        <ele>70.5</ele>
        <time>2018-05-27T07:27:52Z</time>
      </trkpt>
      <trkpt lat="49.27509" lon="1.36835">
        <ele>71</ele>
        <time>2018-05-27T07:27:56Z</time>
      </trkpt>
      <trkpt lat="49.27518" lon="1.36823">
        <ele>71.4</ele>
        <time>2018-05-27T07:27:59Z</time>
      </trkpt>
      <trkpt lat="49.27525" lon="1.36812">
        <ele>71.7</ele>
        <time>2018-05-27T07:28:02Z</time>
      </trkpt>
      <trkpt lat="49.27534" lon="1.36801">
        <ele>72.4</ele>
        <time>2018-05-27T07:28:05Z</time>
      </trkpt>
      <trkpt lat="49.27541" lon="1.36788">
        <ele>73.1</ele>
        <time>2018-05-27T07:28:09Z</time>
      </trkpt>
      <trkpt lat="49.27548" lon="1.36774">
        <ele>73.9</ele>
        <time>2018-05-27T07:28:13Z</time>
      </trkpt>
      <trkpt lat="49.27555" lon="1.36761">
        <ele>74.6</ele>
        <time>2018-05-27T07:28:17Z</time>
      </trkpt>
      <trkpt lat="49.27559" lon="1.36748">
        <ele>75</ele>
        <time>2018-05-27T07:28:20Z</time>
      </trkpt>
      <trkpt lat="49.27561" lon="1.36734">
        <ele>75.9</ele>
        <time>2018-05-27T07:28:24Z</time>
      </trkpt>
      <trkpt lat="49.27556" lon="1.3672">
        <ele>77</ele>
        <time>2018-05-27T07:28:29Z</time>
      </trkpt>
      <trkpt lat="49.27548" lon="1.36708">
        <ele>78.3</ele>
        <time>2018-05-27T07:28:34Z</time>
      </trkpt>
      <trkpt lat="49.27543" lon="1.36696">
        <ele>79.2</ele>
        <time>2018-05-27T07:28:37Z</time>
      </trkpt>
      <trkpt lat="49.27535" lon="1.36687">
        <ele>80.2</ele>
        <time>2018-05-27T07:28:41Z</time>
      </trkpt>
      <trkpt lat="49.27528" lon="1.36676">
        <ele>81.3</ele>
        <time>2018-05-27T07:28:46Z</time>
      </trkpt>
      <trkpt lat="49.27522" lon="1.36662">
        <ele>82.2</ele>
        <time>2018-05-27T07:28:51Z</time>
      </trkpt>
      <trkpt lat="49.27519" lon="1.36648">
        <ele>83</ele>
        <time>2018-05-27T07:28:56Z</time>
      </trkpt>
      <trkpt lat="49.27519" lon="1.36633">
        <ele>84.1</ele>
        <time>2018-05-27T07:29:01Z</time>
      </trkpt>
      <trkpt lat="49.27517" lon="1.36618">
        <ele>85.4</ele>
        <time>2018-05-27T07:29:07Z</time>
      </trkpt>
      <trkpt lat="49.27516" lon="1.36602">
        <ele>86.6</ele>
        <time>2018-05-27T07:29:12Z</time>
      </trkpt>
      <trkpt lat="49.2752" lon="1.36586">
        <ele>87.8</ele>
        <time>2018-05-27T07:29:17Z</time>
      </trkpt>
      <trkpt lat="49.27523" lon="1.3657">
        <ele>88.5</ele>
        <time>2018-05-27T07:29:22Z</time>
      </trkpt>
      <trkpt lat="49.27527" lon="1.36557">
        <ele>89.2</ele>
        <time>2018-05-27T07:29:26Z</time>
      </trkpt>
      <trkpt lat="49.27531" lon="1.36542">
        <ele>89.9</ele>
        <time>2018-05-27T07:29:30Z</time>
      </trkpt>
      <trkpt lat="49.27533" lon="1.36528">
        <ele>90.6</ele>
        <time>2018-05-27T07:29:34Z</time>
      </trkpt>
      <trkpt lat="49.27538" lon="1.36515">
        <ele>91.3</ele>
        <time>2018-05-27T07:29:38Z</time>
      </trkpt>
      <trkpt lat="49.27545" lon="1.36502">
        <ele>92.4</ele>
        <time>2018-05-27T07:29:43Z</time>
      </trkpt>
      <trkpt lat="49.27551" lon="1.3649">
        <ele>93.4</ele>
        <time>2018-05-27T07:29:47Z</time>
      </trkpt>
      <trkpt lat="49.27556" lon="1.36476">
        <ele>94.4</ele>
        <time>2018-05-27T07:29:51Z</time>
      </trkpt>
      <trkpt lat="49.27561" lon="1.36464">
        <ele>95.4</ele>
        <time>2018-05-27T07:29:55Z</time>
      </trkpt>
      <trkpt lat="49.27567" lon="1.36452">
        <ele>96.5</ele>
        <time>2018-05-27T07:30:00Z</time>
      </trkpt>
      <trkpt lat="49.27574" lon="1.3644">
        <ele>97.6</ele>
        <time>2018-05-27T07:30:05Z</time>
      </trkpt>
      <trkpt lat="49.27579" lon="1.36428">
        <ele>98.4</ele>
        <time>2018-05-27T07:30:09Z</time>
      </trkpt>
      <trkpt lat="49.27586" lon="1.36414">
        <ele>99.2</ele>
        <time>2018-05-27T07:30:13Z</time>
      </trkpt>
      <trkpt lat="49.27594" lon="1.36403">
        <ele>99.9</ele>
        <time>2018-05-27T07:30:17Z</time>
      </trkpt>
      <trkpt lat="49.27602" lon="1.36394">
        <ele>100.6</ele>
        <time>2018-05-27T07:30:21Z</time>
      </trkpt>
      <trkpt lat="49.2761" lon="1.36387">
        <ele>101.1</ele>
        <time>2018-05-27T07:30:25Z</time>
      </trkpt>
      <trkpt lat="49.27619" lon="1.36381">
        <ele>101.8</ele>
        <time>2018-05-27T07:30:29Z</time>
      </trkpt>
      <trkpt lat="49.27627" lon="1.36372">
        <ele>102.4</ele>
        <time>2018-05-27T07:30:33Z</time>
      </trkpt>
      <trkpt lat="49.27637" lon="1.36367">
        <ele>103.4</ele>
        <time>2018-05-27T07:30:38Z</time>
      </trkpt>
      <trkpt lat="49.27647" lon="1.36363">
        <ele>104.2</ele>
        <time>2018-05-27T07:30:42Z</time>
      </trkpt>
      <trkpt lat="49.27656" lon="1.36359">
        <ele>104.8</ele>
        <time>2018-05-27T07:30:46Z</time>
      </trkpt>
      <trkpt lat="49.27667" lon="1.36356">
        <ele>105.6</ele>
        <time>2018-05-27T07:30:50Z</time>
      </trkpt>
      <trkpt lat="49.27676" lon="1.36349">
        <ele>106.4</ele>
        <time>2018-05-27T07:30:56Z</time>
      </trkpt>
      <trkpt lat="49.27686" lon="1.36343">
        <ele>107.2</ele>
        <time>2018-05-27T07:31:01Z</time>
      </trkpt>
      <trkpt lat="49.27695" lon="1.36337">
        <ele>108.3</ele>
        <time>2018-05-27T07:31:09Z</time>
      </trkpt>
      <trkpt lat="49.27704" lon="1.36329">
        <ele>108.6</ele>
        <time>2018-05-27T07:31:17Z</time>
      </trkpt>
      <trkpt lat="49.27713" lon="1.36324">
        <ele>108.8</ele>
        <time>2018-05-27T07:31:21Z</time>
      </trkpt>
      <trkpt lat="49.27722" lon="1.36318">
        <ele>109.1</ele>
        <time>2018-05-27T07:31:25Z</time>
      </trkpt>
      <trkpt lat="49.27731" lon="1.36313">
        <ele>109.7</ele>
        <time>2018-05-27T07:31:29Z</time>
      </trkpt>
      <trkpt lat="49.27739" lon="1.36303">
        <ele>110.5</ele>
        <time>2018-05-27T07:31:34Z</time>
      </trkpt>
      <trkpt lat="49.27748" lon="1.36298">
        <ele>111.3</ele>
        <time>2018-05-27T07:31:38Z</time>
      </trkpt>
      <trkpt lat="49.2776" lon="1.36297">
        <ele>112</ele>
        <time>2018-05-27T07:31:42Z</time>
      </trkpt>
      <trkpt lat="49.27769" lon="1.36294">
        <ele>112.9</ele>
        <time>2018-05-27T07:31:46Z</time>
      </trkpt>
      <trkpt lat="49.27778" lon="1.36291">
        <ele>113.1</ele>
        <time>2018-05-27T07:31:50Z</time>
      </trkpt>
      <trkpt lat="49.27787" lon="1.36287">
        <ele>113.4</ele>
        <time>2018-05-27T07:31:53Z</time>
      </trkpt>
      <trkpt lat="49.27797" lon="1.36284">
        <ele>113.9</ele>
        <time>2018-05-27T07:31:57Z</time>
      </trkpt>
      <trkpt lat="49.27808" lon="1.36284">
        <ele>114.4</ele>
        <time>2018-05-27T07:32:01Z</time>
      </trkpt>
      <trkpt lat="49.27819" lon="1.3628">
        <ele>114.9</ele>
        <time>2018-05-27T07:32:05Z</time>
      </trkpt>
      <trkpt lat="49.27828" lon="1.36279">
        <ele>115.2</ele>
        <time>2018-05-27T07:32:08Z</time>
      </trkpt>
      <trkpt lat="49.27838" lon="1.36278">
        <ele>115.8</ele>
        <time>2018-05-27T07:32:12Z</time>
      </trkpt>
      <trkpt lat="49.27845" lon="1.36288">
        <ele>117.1</ele>
        <time>2018-05-27T07:32:19Z</time>
      </trkpt>
      <trkpt lat="49.27853" lon="1.36299">
        <ele>118.2</ele>
        <time>2018-05-27T07:32:23Z</time>
      </trkpt>
      <trkpt lat="49.27859" lon="1.3631">
        <ele>119.1</ele>
        <time>2018-05-27T07:32:27Z</time>
      </trkpt>
      <trkpt lat="49.27862" lon="1.36323">
        <ele>120.3</ele>
        <time>2018-05-27T07:32:32Z</time>
      </trkpt>
      <trkpt lat="49.27868" lon="1.36336">
        <ele>122</ele>
        <time>2018-05-27T07:32:38Z</time>
      </trkpt>
      <trkpt lat="49.27872" lon="1.3635">
        <ele>123.8</ele>
        <time>2018-05-27T07:32:44Z</time>
      </trkpt>
      <trkpt lat="49.27877" lon="1.36364">
        <ele>125.6</ele>
        <time>2018-05-27T07:32:50Z</time>
      </trkpt>
      <trkpt lat="49.27881" lon="1.36378">
        <ele>126.7</ele>
        <time>2018-05-27T07:32:55Z</time>
      </trkpt>
      <trkpt lat="49.27886" lon="1.3639">
        <ele>127.8</ele>
        <time>2018-05-27T07:32:59Z</time>
      </trkpt>
      <trkpt lat="49.27892" lon="1.36404">
        <ele>128.6</ele>
        <time>2018-05-27T07:33:03Z</time>
      </trkpt>
      <trkpt lat="49.27898" lon="1.36417">
        <ele>129</ele>
        <time>2018-05-27T07:33:06Z</time>
      </trkpt>
      <trkpt lat="49.27903" lon="1.36429">
        <ele>129.3</ele>
        <time>2018-05-27T07:33:09Z</time>
      </trkpt>
      <trkpt lat="49.2791" lon="1.36444">
        <ele>130</ele>
        <time>2018-05-27T07:33:13Z</time>
      </trkpt>
      <trkpt lat="49.27916" lon="1.36459">
        <ele>130.5</ele>
        <time>2018-05-27T07:33:17Z</time>
      </trkpt>
      <trkpt lat="49.27922" lon="1.36474">
        <ele>131</ele>
        <time>2018-05-27T07:33:21Z</time>
      </trkpt>
      <trkpt lat="49.27927" lon="1.36486">
        <ele>131.4</ele>
        <time>2018-05-27T07:33:24Z</time>
      </trkpt>
      <trkpt lat="49.27931" lon="1.36497">
        <ele>131.8</ele>
        <time>2018-05-27T07:33:27Z</time>
      </trkpt>
      <trkpt lat="49.27938" lon="1.36513">
        <ele>132.2</ele>
        <time>2018-05-27T07:33:31Z</time>
      </trkpt>
      <trkpt lat="49.27944" lon="1.36529">
        <ele>132.7</ele>
        <time>2018-05-27T07:33:35Z</time>
      </trkpt>
      <trkpt lat="49.27949" lon="1.36541">
        <ele>133.1</ele>
        <time>2018-05-27T07:33:38Z</time>
      </trkpt>
      <trkpt lat="49.27954" lon="1.36553">
        <ele>133.4</ele>
        <time>2018-05-27T07:33:41Z</time>
      </trkpt>
      <trkpt lat="49.27959" lon="1.36565">
        <ele>133.7</ele>
        <time>2018-05-27T07:33:44Z</time>
      </trkpt>
      <trkpt lat="49.27965" lon="1.36578">
        <ele>134.1</ele>
        <time>2018-05-27T07:33:47Z</time>
      </trkpt>
      <trkpt lat="49.2797" lon="1.36591">
        <ele>134.5</ele>
        <time>2018-05-27T07:33:50Z</time>
      </trkpt>
      <trkpt lat="49.27976" lon="1.36605">
        <ele>135.1</ele>
        <time>2018-05-27T07:33:53Z</time>
      </trkpt>
      <trkpt lat="49.27981" lon="1.36619">
        <ele>135.5</ele>
        <time>2018-05-27T07:33:56Z</time>
      </trkpt>
      <trkpt lat="49.27987" lon="1.36633">
        <ele>136.1</ele>
        <time>2018-05-27T07:33:59Z</time>
      </trkpt>
      <trkpt lat="49.27993" lon="1.36648">
        <ele>136.2</ele>
        <time>2018-05-27T07:34:02Z</time>
      </trkpt>
      <trkpt lat="49.27998" lon="1.36662">
        <ele>136.7</ele>
        <time>2018-05-27T07:34:05Z</time>
      </trkpt>
      <trkpt lat="49.28004" lon="1.36676">
        <ele>137.3</ele>
        <time>2018-05-27T07:34:08Z</time>
      </trkpt>
      <trkpt lat="49.2801" lon="1.3669">
        <ele>137.7</ele>
        <time>2018-05-27T07:34:11Z</time>
      </trkpt>
      <trkpt lat="49.28016" lon="1.36704">
        <ele>138</ele>
        <time>2018-05-27T07:34:14Z</time>
      </trkpt>
      <trkpt lat="49.28022" lon="1.36718">
        <ele>138.1</ele>
        <time>2018-05-27T07:34:17Z</time>
      </trkpt>
      <trkpt lat="49.28028" lon="1.36734">
        <ele>138.4</ele>
        <time>2018-05-27T07:34:20Z</time>
      </trkpt>
      <trkpt lat="49.28035" lon="1.3675">
        <ele>138.5</ele>
        <time>2018-05-27T07:34:23Z</time>
      </trkpt>
      <trkpt lat="49.28041" lon="1.36767">
        <ele>138.7</ele>
        <time>2018-05-27T07:34:26Z</time>
      </trkpt>
      <trkpt lat="49.28048" lon="1.36783">
        <ele>138.9</ele>
        <time>2018-05-27T07:34:29Z</time>
      </trkpt>
      <trkpt lat="49.28054" lon="1.36799">
        <ele>139</ele>
        <time>2018-05-27T07:34:32Z</time>
      </trkpt>
      <trkpt lat="49.28061" lon="1.36817">
        <ele>139.1</ele>
        <time>2018-05-27T07:34:35Z</time>
      </trkpt>
      <trkpt lat="49.28065" lon="1.36829">
        <ele>139.1</ele>
        <time>2018-05-27T07:34:37Z</time>
      </trkpt>
      <trkpt lat="49.28071" lon="1.36846">
        <ele>139.3</ele>
        <time>2018-05-27T07:34:40Z</time>
      </trkpt>
      <trkpt lat="49.28078" lon="1.36863">
        <ele>139.6</ele>
        <time>2018-05-27T07:34:43Z</time>
      </trkpt>
      <trkpt lat="49.28087" lon="1.36877">
        <ele>139.9</ele>
        <time>2018-05-27T07:34:46Z</time>
      </trkpt>
      <trkpt lat="49.28097" lon="1.3689">
        <ele>140.1</ele>
        <time>2018-05-27T07:34:49Z</time>
      </trkpt>
      <trkpt lat="49.28107" lon="1.36903">
        <ele>140.3</ele>
        <time>2018-05-27T07:34:52Z</time>
      </trkpt>
      <trkpt lat="49.28117" lon="1.36916">
        <ele>140.6</ele>
        <time>2018-05-27T07:34:55Z</time>
      </trkpt>
      <trkpt lat="49.28128" lon="1.36929">
        <ele>141</ele>
        <time>2018-05-27T07:34:58Z</time>
      </trkpt>
      <trkpt lat="49.28138" lon="1.36941">
        <ele>141.1</ele>
        <time>2018-05-27T07:35:01Z</time>
      </trkpt>
      <trkpt lat="49.28147" lon="1.36953">
        <ele>141.6</ele>
        <time>2018-05-27T07:35:04Z</time>
      </trkpt>
      <trkpt lat="49.28158" lon="1.36966">
        <ele>142.1</ele>
        <time>2018-05-27T07:35:07Z</time>
      </trkpt>
      <trkpt lat="49.28168" lon="1.36979">
        <ele>142.4</ele>
        <time>2018-05-27T07:35:10Z</time>
      </trkpt>
      <trkpt lat="49.28178" lon="1.36991">
        <ele>142.6</ele>
        <time>2018-05-27T07:35:13Z</time>
      </trkpt>
      <trkpt lat="49.28188" lon="1.37003">
        <ele>143</ele>
        <time>2018-05-27T07:35:16Z</time>
      </trkpt>
      <trkpt lat="49.28198" lon="1.37015">
        <ele>143.6</ele>
        <time>2018-05-27T07:35:19Z</time>
      </trkpt>
      <trkpt lat="49.28209" lon="1.37027">
        <ele>143.8</ele>
        <time>2018-05-27T07:35:22Z</time>
      </trkpt>
      <trkpt lat="49.28219" lon="1.3704">
        <ele>144.2</ele>
        <time>2018-05-27T07:35:25Z</time>
      </trkpt>
      <trkpt lat="49.28227" lon="1.37048">
        <ele>144.4</ele>
        <time>2018-05-27T07:35:27Z</time>
      </trkpt>
      <trkpt lat="49.28234" lon="1.37057">
        <ele>144.6</ele>
        <time>2018-05-27T07:35:29Z</time>
      </trkpt>
      <trkpt lat="49.28242" lon="1.37066">
        <ele>144.7</ele>
        <time>2018-05-27T07:35:31Z</time>
      </trkpt>
      <trkpt lat="49.2825" lon="1.37074">
        <ele>144.8</ele>
        <time>2018-05-27T07:35:33Z</time>
      </trkpt>
      <trkpt lat="49.28257" lon="1.37083">
        <ele>144.9</ele>
        <time>2018-05-27T07:35:35Z</time>
      </trkpt>
      <trkpt lat="49.28266" lon="1.37091">
        <ele>144.9</ele>
        <time>2018-05-27T07:35:37Z</time>
      </trkpt>
      <trkpt lat="49.28274" lon="1.371">
        <ele>145.1</ele>
        <time>2018-05-27T07:35:39Z</time>
      </trkpt>
      <trkpt lat="49.28282" lon="1.37109">
        <ele>145.3</ele>
        <time>2018-05-27T07:35:41Z</time>
      </trkpt>
      <trkpt lat="49.2829" lon="1.37119">
        <ele>145.5</ele>
        <time>2018-05-27T07:35:43Z</time>
      </trkpt>
      <trkpt lat="49.28298" lon="1.37128">
        <ele>145.7</ele>
        <time>2018-05-27T07:35:45Z</time>
      </trkpt>
      <trkpt lat="49.28307" lon="1.37138">
        <ele>145.8</ele>
        <time>2018-05-27T07:35:47Z</time>
      </trkpt>
      <trkpt lat="49.28315" lon="1.37147">
        <ele>146</ele>
        <time>2018-05-27T07:35:49Z</time>
      </trkpt>
      <trkpt lat="49.28323" lon="1.37156">
        <ele>146.1</ele>
        <time>2018-05-27T07:35:51Z</time>
      </trkpt>
      <trkpt lat="49.28331" lon="1.37166">
        <ele>146.1</ele>
        <time>2018-05-27T07:35:53Z</time>
      </trkpt>
      <trkpt lat="49.28342" lon="1.37168">
        <ele>146.2</ele>
        <time>2018-05-27T07:35:56Z</time>
      </trkpt>
      <trkpt lat="49.28342" lon="1.37151">
        <ele>146.3</ele>
        <time>2018-05-27T07:35:59Z</time>
      </trkpt>
      <trkpt lat="49.28341" lon="1.37138">
        <ele>146.3</ele>
        <time>2018-05-27T07:36:01Z</time>
      </trkpt>
      <trkpt lat="49.28339" lon="1.37123">
        <ele>146.4</ele>
        <time>2018-05-27T07:36:03Z</time>
      </trkpt>
      <trkpt lat="49.28338" lon="1.37107">
        <ele>146.5</ele>
        <time>2018-05-27T07:36:05Z</time>
      </trkpt>
      <trkpt lat="49.28337" lon="1.37092">
        <ele>146.7</ele>
        <time>2018-05-27T07:36:07Z</time>
      </trkpt>
      <trkpt lat="49.28335" lon="1.37076">
        <ele>146.9</ele>
        <time>2018-05-27T07:36:09Z</time>
      </trkpt>
      <trkpt lat="49.28334" lon="1.3706">
        <ele>147.1</ele>
        <time>2018-05-27T07:36:11Z</time>
      </trkpt>
      <trkpt lat="49.28332" lon="1.37043">
        <ele>147.2</ele>
        <time>2018-05-27T07:36:13Z</time>
      </trkpt>
      <trkpt lat="49.2833" lon="1.37027">
        <ele>147.3</ele>
        <time>2018-05-27T07:36:15Z</time>
      </trkpt>
      <trkpt lat="49.28329" lon="1.3701">
        <ele>147.4</ele>
        <time>2018-05-27T07:36:17Z</time>
      </trkpt>
      <trkpt lat="49.28328" lon="1.36993">
        <ele>147.6</ele>
        <time>2018-05-27T07:36:19Z</time>
      </trkpt>
      <trkpt lat="49.28326" lon="1.36976">
        <ele>147.8</ele>
        <time>2018-05-27T07:36:21Z</time>
      </trkpt>
      <trkpt lat="49.28325" lon="1.36959">
        <ele>148</ele>
        <time>2018-05-27T07:36:23Z</time>
      </trkpt>
      <trkpt lat="49.28323" lon="1.36942">
        <ele>148.3</ele>
        <time>2018-05-27T07:36:25Z</time>
      </trkpt>
      <trkpt lat="49.28322" lon="1.36925">
        <ele>148.7</ele>
        <time>2018-05-27T07:36:27Z</time>
      </trkpt>
      <trkpt lat="49.2832" lon="1.36908">
        <ele>148.8</ele>
        <time>2018-05-27T07:36:29Z</time>
      </trkpt>
      <trkpt lat="49.28319" lon="1.36891">
        <ele>148.9</ele>
        <time>2018-05-27T07:36:31Z</time>
      </trkpt>
      <trkpt lat="49.28317" lon="1.36873">
        <ele>149.1</ele>
        <time>2018-05-27T07:36:33Z</time>
      </trkpt>
      <trkpt lat="49.28315" lon="1.36855">
        <ele>149.1</ele>
        <time>2018-05-27T07:36:35Z</time>
      </trkpt>
      <trkpt lat="49.28314" lon="1.36837">
        <ele>149.1</ele>
        <time>2018-05-27T07:36:37Z</time>
      </trkpt>
      <trkpt lat="49.28312" lon="1.36818">
        <ele>148.8</ele>
        <time>2018-05-27T07:36:39Z</time>
      </trkpt>
      <trkpt lat="49.2831" lon="1.36799">
        <ele>148.6</ele>
        <time>2018-05-27T07:36:41Z</time>
      </trkpt>
      <trkpt lat="49.28308" lon="1.36779">
        <ele>148.6</ele>
        <time>2018-05-27T07:36:43Z</time>
      </trkpt>
      <trkpt lat="49.28306" lon="1.3676">
        <ele>148.4</ele>
        <time>2018-05-27T07:36:45Z</time>
      </trkpt>
      <trkpt lat="49.28304" lon="1.3674">
        <ele>148.3</ele>
        <time>2018-05-27T07:36:47Z</time>
      </trkpt>
      <trkpt lat="49.28303" lon="1.3672">
        <ele>148.1</ele>
        <time>2018-05-27T07:36:49Z</time>
      </trkpt>
      <trkpt lat="49.283" lon="1.36699">
        <ele>147.8</ele>
        <time>2018-05-27T07:36:51Z</time>
      </trkpt>
      <trkpt lat="49.28298" lon="1.36679">
        <ele>147.5</ele>
        <time>2018-05-27T07:36:53Z</time>
      </trkpt>
      <trkpt lat="49.28297" lon="1.36659">
        <ele>147.3</ele>
        <time>2018-05-27T07:36:55Z</time>
      </trkpt>
      <trkpt lat="49.28295" lon="1.36638">
        <ele>146.9</ele>
        <time>2018-05-27T07:36:57Z</time>
      </trkpt>
      <trkpt lat="49.28293" lon="1.36617">
        <ele>146.6</ele>
        <time>2018-05-27T07:36:59Z</time>
      </trkpt>
      <trkpt lat="49.28291" lon="1.36596">
        <ele>146.3</ele>
        <time>2018-05-27T07:37:01Z</time>
      </trkpt>
      <trkpt lat="49.28289" lon="1.36575">
        <ele>146</ele>
        <time>2018-05-27T07:37:03Z</time>
      </trkpt>
      <trkpt lat="49.28285" lon="1.36555">
        <ele>145.8</ele>
        <time>2018-05-27T07:37:05Z</time>
      </trkpt>
      <trkpt lat="49.28282" lon="1.36534">
        <ele>145.5</ele>
        <time>2018-05-27T07:37:07Z</time>
      </trkpt>
      <trkpt lat="49.28278" lon="1.36513">
        <ele>145.3</ele>
        <time>2018-05-27T07:37:09Z</time>
      </trkpt>
      <trkpt lat="49.28274" lon="1.36491">
        <ele>145.1</ele>
        <time>2018-05-27T07:37:11Z</time>
      </trkpt>
      <trkpt lat="49.28271" lon="1.3647">
        <ele>144.9</ele>
        <time>2018-05-27T07:37:13Z</time>
      </trkpt>
      <trkpt lat="49.28268" lon="1.36448">
        <ele>144.5</ele>
        <time>2018-05-27T07:37:15Z</time>
      </trkpt>
      <trkpt lat="49.28267" lon="1.36426">
        <ele>144.3</ele>
        <time>2018-05-27T07:37:17Z</time>
      </trkpt>
      <trkpt lat="49.28265" lon="1.36404">
        <ele>144.1</ele>
        <time>2018-05-27T07:37:19Z</time>
      </trkpt>
      <trkpt lat="49.28264" lon="1.36383">
        <ele>144</ele>
        <time>2018-05-27T07:37:21Z</time>
      </trkpt>
      <trkpt lat="49.28262" lon="1.36362">
        <ele>144</ele>
        <time>2018-05-27T07:37:23Z</time>
      </trkpt>
      <trkpt lat="49.2826" lon="1.36341">
        <ele>143.8</ele>
        <time>2018-05-27T07:37:25Z</time>
      </trkpt>
      <trkpt lat="49.28258" lon="1.3632">
        <ele>143.6</ele>
        <time>2018-05-27T07:37:27Z</time>
      </trkpt>
      <trkpt lat="49.28257" lon="1.36299">
        <ele>143.4</ele>
        <time>2018-05-27T07:37:29Z</time>
      </trkpt>
      <trkpt lat="49.28255" lon="1.36278">
        <ele>143.3</ele>
        <time>2018-05-27T07:37:31Z</time>
      </trkpt>
      <trkpt lat="49.28253" lon="1.36257">
        <ele>143.1</ele>
        <time>2018-05-27T07:37:33Z</time>
      </trkpt>
      <trkpt lat="49.28251" lon="1.36236">
        <ele>143</ele>
        <time>2018-05-27T07:37:35Z</time>
      </trkpt>
      <trkpt lat="49.28249" lon="1.36214">
        <ele>142.8</ele>
        <time>2018-05-27T07:37:37Z</time>
      </trkpt>
      <trkpt lat="49.28247" lon="1.36193">
        <ele>142.7</ele>
        <time>2018-05-27T07:37:39Z</time>
      </trkpt>
      <trkpt lat="49.28245" lon="1.36171">
        <ele>142.4</ele>
        <time>2018-05-27T07:37:41Z</time>
      </trkpt>
      <trkpt lat="49.28243" lon="1.36149">
        <ele>142.3</ele>
        <time>2018-05-27T07:37:43Z</time>
      </trkpt>
      <trkpt lat="49.28241" lon="1.36127">
        <ele>142.1</ele>
        <time>2018-05-27T07:37:45Z</time>
      </trkpt>
      <trkpt lat="49.28239" lon="1.36105">
        <ele>142</ele>
        <time>2018-05-27T07:37:47Z</time>
      </trkpt>
      <trkpt lat="49.28237" lon="1.36084">
        <ele>141.9</ele>
        <time>2018-05-27T07:37:49Z</time>
      </trkpt>
      <trkpt lat="49.28235" lon="1.36063">
        <ele>141.9</ele>
        <time>2018-05-27T07:37:51Z</time>
      </trkpt>
      <trkpt lat="49.28232" lon="1.36042">
        <ele>141.6</ele>
        <time>2018-05-27T07:37:53Z</time>
      </trkpt>
      <trkpt lat="49.2823" lon="1.36022">
        <ele>141.4</ele>
        <time>2018-05-27T07:37:55Z</time>
      </trkpt>
      <trkpt lat="49.28227" lon="1.36002">
        <ele>141.2</ele>
        <time>2018-05-27T07:37:57Z</time>
      </trkpt>
      <trkpt lat="49.28224" lon="1.35984">
        <ele>140.8</ele>
        <time>2018-05-27T07:37:59Z</time>
      </trkpt>
      <trkpt lat="49.28221" lon="1.35966">
        <ele>140.6</ele>
        <time>2018-05-27T07:38:01Z</time>
      </trkpt>
      <trkpt lat="49.28218" lon="1.35949">
        <ele>140.4</ele>
        <time>2018-05-27T07:38:03Z</time>
      </trkpt>
      <trkpt lat="49.2821" lon="1.35935">
        <ele>140.4</ele>
        <time>2018-05-27T07:38:05Z</time>
      </trkpt>
      <trkpt lat="49.28202" lon="1.35921">
        <ele>140.4</ele>
        <time>2018-05-27T07:38:07Z</time>
      </trkpt>
      <trkpt lat="49.28193" lon="1.35907">
        <ele>140.2</ele>
        <time>2018-05-27T07:38:09Z</time>
      </trkpt>
      <trkpt lat="49.28184" lon="1.35892">
        <ele>140</ele>
        <time>2018-05-27T07:38:11Z</time>
      </trkpt>
      <trkpt lat="49.28174" lon="1.35878">
        <ele>139.7</ele>
        <time>2018-05-27T07:38:13Z</time>
      </trkpt>
      <trkpt lat="49.28162" lon="1.35864">
        <ele>139.4</ele>
        <time>2018-05-27T07:38:15Z</time>
      </trkpt>
      <trkpt lat="49.28149" lon="1.35852">
        <ele>139.1</ele>
        <time>2018-05-27T07:38:17Z</time>
      </trkpt>
      <trkpt lat="49.28136" lon="1.35841">
        <ele>138.7</ele>
        <time>2018-05-27T07:38:19Z</time>
      </trkpt>
      <trkpt lat="49.28122" lon="1.35831">
        <ele>138.5</ele>
        <time>2018-05-27T07:38:21Z</time>
      </trkpt>
      <trkpt lat="49.28107" lon="1.35822">
        <ele>138.3</ele>
        <time>2018-05-27T07:38:23Z</time>
      </trkpt>
      <trkpt lat="49.28093" lon="1.35813">
        <ele>138</ele>
        <time>2018-05-27T07:38:25Z</time>
      </trkpt>
      <trkpt lat="49.28079" lon="1.35805">
        <ele>137.7</ele>
        <time>2018-05-27T07:38:27Z</time>
      </trkpt>
      <trkpt lat="49.28065" lon="1.35798">
        <ele>137.5</ele>
        <time>2018-05-27T07:38:29Z</time>
      </trkpt>
      <trkpt lat="49.28051" lon="1.35792">
        <ele>137.2</ele>
        <time>2018-05-27T07:38:31Z</time>
      </trkpt>
      <trkpt lat="49.28038" lon="1.35786">
        <ele>137.1</ele>
        <time>2018-05-27T07:38:33Z</time>
      </trkpt>
      <trkpt lat="49.28024" lon="1.35782">
        <ele>137</ele>
        <time>2018-05-27T07:38:35Z</time>
      </trkpt>
      <trkpt lat="49.28011" lon="1.35777">
        <ele>137</ele>
        <time>2018-05-27T07:38:37Z</time>
      </trkpt>
      <trkpt lat="49.27999" lon="1.35768">
        <ele>136.9</ele>
        <time>2018-05-27T07:38:39Z</time>
      </trkpt>
      <trkpt lat="49.27987" lon="1.35757">
        <ele>137</ele>
        <time>2018-05-27T07:38:41Z</time>
      </trkpt>
      <trkpt lat="49.27976" lon="1.35745">
        <ele>137.1</ele>
        <time>2018-05-27T07:38:43Z</time>
      </trkpt>
      <trkpt lat="49.27966" lon="1.35733">
        <ele>137.3</ele>
        <time>2018-05-27T07:38:45Z</time>
      </trkpt>
      <trkpt lat="49.27956" lon="1.3572">
        <ele>137.6</ele>
        <time>2018-05-27T07:38:47Z</time>
      </trkpt>
      <trkpt lat="49.27946" lon="1.35708">
        <ele>137.7</ele>
        <time>2018-05-27T07:38:49Z</time>
      </trkpt>
      <trkpt lat="49.27935" lon="1.35697">
        <ele>137.9</ele>
        <time>2018-05-27T07:38:51Z</time>
      </trkpt>
      <trkpt lat="49.27925" lon="1.35686">
        <ele>137.9</ele>
        <time>2018-05-27T07:38:53Z</time>
      </trkpt>
      <trkpt lat="49.27914" lon="1.35675">
        <ele>138.1</ele>
        <time>2018-05-27T07:38:55Z</time>
      </trkpt>
      <trkpt lat="49.27902" lon="1.35666">
        <ele>138.3</ele>
        <time>2018-05-27T07:38:57Z</time>
      </trkpt>
      <trkpt lat="49.27891" lon="1.35658">
        <ele>138.7</ele>
        <time>2018-05-27T07:38:59Z</time>
      </trkpt>
      <trkpt lat="49.27879" lon="1.35649">
        <ele>138.9</ele>
        <time>2018-05-27T07:39:01Z</time>
      </trkpt>
      <trkpt lat="49.27868" lon="1.35642">
        <ele>139.1</ele>
        <time>2018-05-27T07:39:03Z</time>
      </trkpt>
      <trkpt lat="49.27856" lon="1.35634">
        <ele>139.4</ele>
        <time>2018-05-27T07:39:05Z</time>
      </trkpt>
      <trkpt lat="49.27844" lon="1.35626">
        <ele>139.6</ele>
        <time>2018-05-27T07:39:07Z</time>
      </trkpt>
      <trkpt lat="49.27833" lon="1.35618">
        <ele>139.9</ele>
        <time>2018-05-27T07:39:09Z</time>
      </trkpt>
      <trkpt lat="49.27821" lon="1.3561">
        <ele>140</ele>
        <time>2018-05-27T07:39:11Z</time>
      </trkpt>
      <trkpt lat="49.27808" lon="1.35602">
        <ele>140.1</ele>
        <time>2018-05-27T07:39:13Z</time>
      </trkpt>
      <trkpt lat="49.27796" lon="1.35594">
        <ele>139.9</ele>
        <time>2018-05-27T07:39:15Z</time>
      </trkpt>
      <trkpt lat="49.27783" lon="1.35586">
        <ele>139.9</ele>
        <time>2018-05-27T07:39:17Z</time>
      </trkpt>
      <trkpt lat="49.27771" lon="1.35577">
        <ele>139.9</ele>
        <time>2018-05-27T07:39:19Z</time>
      </trkpt>
      <trkpt lat="49.27759" lon="1.35569">
        <ele>140.1</ele>
        <time>2018-05-27T07:39:21Z</time>
      </trkpt>
      <trkpt lat="49.27747" lon="1.35561">
        <ele>140.1</ele>
        <time>2018-05-27T07:39:23Z</time>
      </trkpt>
      <trkpt lat="49.27735" lon="1.35553">
        <ele>140.2</ele>
        <time>2018-05-27T07:39:25Z</time>
      </trkpt>
      <trkpt lat="49.27723" lon="1.35545">
        <ele>140.2</ele>
        <time>2018-05-27T07:39:27Z</time>
      </trkpt>
      <trkpt lat="49.27711" lon="1.35537">
        <ele>140.4</ele>
        <time>2018-05-27T07:39:29Z</time>
      </trkpt>
      <trkpt lat="49.27699" lon="1.35527">
        <ele>140.3</ele>
        <time>2018-05-27T07:39:31Z</time>
      </trkpt>
      <trkpt lat="49.27689" lon="1.35515">
        <ele>140.3</ele>
        <time>2018-05-27T07:39:33Z</time>
      </trkpt>
      <trkpt lat="49.2768" lon="1.35501">
        <ele>140.3</ele>
        <time>2018-05-27T07:39:35Z</time>
      </trkpt>
      <trkpt lat="49.27672" lon="1.35485">
        <ele>140.3</ele>
        <time>2018-05-27T07:39:37Z</time>
      </trkpt>
      <trkpt lat="49.27665" lon="1.35469">
        <ele>140.2</ele>
        <time>2018-05-27T07:39:39Z</time>
      </trkpt>
      <trkpt lat="49.27658" lon="1.35452">
        <ele>140.3</ele>
        <time>2018-05-27T07:39:41Z</time>
      </trkpt>
      <trkpt lat="49.27652" lon="1.35435">
        <ele>140.3</ele>
        <time>2018-05-27T07:39:43Z</time>
      </trkpt>
      <trkpt lat="49.27645" lon="1.35418">
        <ele>140.3</ele>
        <time>2018-05-27T07:39:45Z</time>
      </trkpt>
      <trkpt lat="49.27638" lon="1.35402">
        <ele>140.3</ele>
        <time>2018-05-27T07:39:47Z</time>
      </trkpt>
      <trkpt lat="49.27632" lon="1.35384">
        <ele>140.3</ele>
        <time>2018-05-27T07:39:49Z</time>
      </trkpt>
      <trkpt lat="49.27625" lon="1.35367">
        <ele>140.2</ele>
        <time>2018-05-27T07:39:51Z</time>
      </trkpt>
      <trkpt lat="49.27618" lon="1.35349">
        <ele>140.1</ele>
        <time>2018-05-27T07:39:53Z</time>
      </trkpt>
      <trkpt lat="49.27611" lon="1.3533">
        <ele>139.9</ele>
        <time>2018-05-27T07:39:55Z</time>
      </trkpt>
      <trkpt lat="49.27603" lon="1.35312">
        <ele>139.8</ele>
        <time>2018-05-27T07:39:57Z</time>
      </trkpt>
      <trkpt lat="49.27596" lon="1.35293">
        <ele>139.4</ele>
        <time>2018-05-27T07:39:59Z</time>
      </trkpt>
      <trkpt lat="49.27588" lon="1.35275">
        <ele>139.2</ele>
        <time>2018-05-27T07:40:01Z</time>
      </trkpt>
      <trkpt lat="49.27581" lon="1.35256">
        <ele>138.9</ele>
        <time>2018-05-27T07:40:03Z</time>
      </trkpt>
      <trkpt lat="49.27573" lon="1.35237">
        <ele>138.7</ele>
        <time>2018-05-27T07:40:05Z</time>
      </trkpt>
      <trkpt lat="49.27566" lon="1.35218">
        <ele>138.6</ele>
        <time>2018-05-27T07:40:07Z</time>
      </trkpt>
      <trkpt lat="49.27558" lon="1.35199">
        <ele>138.4</ele>
        <time>2018-05-27T07:40:09Z</time>
      </trkpt>
      <trkpt lat="49.27551" lon="1.35179">
        <ele>138.3</ele>
        <time>2018-05-27T07:40:11Z</time>
      </trkpt>
      <trkpt lat="49.27543" lon="1.3516">
        <ele>138.1</ele>
        <time>2018-05-27T07:40:13Z</time>
      </trkpt>
      <trkpt lat="49.27536" lon="1.35141">
        <ele>138</ele>
        <time>2018-05-27T07:40:15Z</time>
      </trkpt>
      <trkpt lat="49.27528" lon="1.35122">
        <ele>137.8</ele>
        <time>2018-05-27T07:40:17Z</time>
      </trkpt>
      <trkpt lat="49.27522" lon="1.35104">
        <ele>137.7</ele>
        <time>2018-05-27T07:40:19Z</time>
      </trkpt>
      <trkpt lat="49.27514" lon="1.35085">
        <ele>137.6</ele>
        <time>2018-05-27T07:40:21Z</time>
      </trkpt>
      <trkpt lat="49.27507" lon="1.35067">
        <ele>137.6</ele>
        <time>2018-05-27T07:40:23Z</time>
      </trkpt>
      <trkpt lat="49.275" lon="1.3505">
        <ele>137.6</ele>
        <time>2018-05-27T07:40:25Z</time>
      </trkpt>
      <trkpt lat="49.27493" lon="1.35032">
        <ele>137.8</ele>
        <time>2018-05-27T07:40:27Z</time>
      </trkpt>
      <trkpt lat="49.27487" lon="1.35015">
        <ele>137.9</ele>
        <time>2018-05-27T07:40:29Z</time>
      </trkpt>
      <trkpt lat="49.2748" lon="1.34998">
        <ele>137.9</ele>
        <time>2018-05-27T07:40:31Z</time>
      </trkpt>
      <trkpt lat="49.27473" lon="1.34981">
        <ele>138.1</ele>
        <time>2018-05-27T07:40:33Z</time>
      </trkpt>
      <trkpt lat="49.27467" lon="1.34964">
        <ele>138.1</ele>
        <time>2018-05-27T07:40:35Z</time>
      </trkpt>
      <trkpt lat="49.2746" lon="1.34947">
        <ele>138.1</ele>
        <time>2018-05-27T07:40:37Z</time>
      </trkpt>
      <trkpt lat="49.27454" lon="1.3493">
        <ele>138.2</ele>
        <time>2018-05-27T07:40:39Z</time>
      </trkpt>
      <trkpt lat="49.27447" lon="1.34912">
        <ele>138.3</ele>
        <time>2018-05-27T07:40:41Z</time>
      </trkpt>
      <trkpt lat="49.2744" lon="1.34895">
        <ele>138.3</ele>
        <time>2018-05-27T07:40:43Z</time>
      </trkpt>
      <trkpt lat="49.27432" lon="1.34877">
        <ele>138.2</ele>
        <time>2018-05-27T07:40:45Z</time>
      </trkpt>
      <trkpt lat="49.27425" lon="1.34858">
        <ele>138.2</ele>
        <time>2018-05-27T07:40:47Z</time>
      </trkpt>
      <trkpt lat="49.27417" lon="1.34839">
        <ele>138.1</ele>
        <time>2018-05-27T07:40:49Z</time>
      </trkpt>
      <trkpt lat="49.2741" lon="1.3482">
        <ele>137.8</ele>
        <time>2018-05-27T07:40:51Z</time>
      </trkpt>
      <trkpt lat="49.27402" lon="1.34803">
        <ele>137.6</ele>
        <time>2018-05-27T07:40:53Z</time>
      </trkpt>
      <trkpt lat="49.27395" lon="1.34785">
        <ele>137.4</ele>
        <time>2018-05-27T07:40:55Z</time>
      </trkpt>
      <trkpt lat="49.27387" lon="1.34769">
        <ele>137.2</ele>
        <time>2018-05-27T07:40:57Z</time>
      </trkpt>
      <trkpt lat="49.27379" lon="1.34753">
        <ele>137.2</ele>
        <time>2018-05-27T07:40:59Z</time>
      </trkpt>
      <trkpt lat="49.2737" lon="1.34738">
        <ele>137.1</ele>
        <time>2018-05-27T07:41:01Z</time>
      </trkpt>
      <trkpt lat="49.27362" lon="1.34724">
        <ele>137.1</ele>
        <time>2018-05-27T07:41:03Z</time>
      </trkpt>
      <trkpt lat="49.27354" lon="1.34713">
        <ele>137</ele>
        <time>2018-05-27T07:41:05Z</time>
      </trkpt>
      <trkpt lat="49.27346" lon="1.34703">
        <ele>137</ele>
        <time>2018-05-27T07:41:07Z</time>
      </trkpt>
      <trkpt lat="49.27336" lon="1.34694">
        <ele>137.2</ele>
        <time>2018-05-27T07:41:09Z</time>
      </trkpt>
      <trkpt lat="49.27326" lon="1.34687">
        <ele>137.3</ele>
        <time>2018-05-27T07:41:11Z</time>
      </trkpt>
      <trkpt lat="49.27314" lon="1.34684">
        <ele>137.4</ele>
        <time>2018-05-27T07:41:13Z</time>
      </trkpt>
      <trkpt lat="49.27301" lon="1.34684">
        <ele>137.4</ele>
        <time>2018-05-27T07:41:15Z</time>
      </trkpt>
      <trkpt lat="49.27289" lon="1.34687">
        <ele>137.6</ele>
        <time>2018-05-27T07:41:17Z</time>
      </trkpt>
      <trkpt lat="49.27277" lon="1.34691">
        <ele>137.5</ele>
        <time>2018-05-27T07:41:19Z</time>
      </trkpt>
      <trkpt lat="49.27266" lon="1.34697">
        <ele>137.6</ele>
        <time>2018-05-27T07:41:21Z</time>
      </trkpt>
      <trkpt lat="49.27254" lon="1.34704">
        <ele>137.7</ele>
        <time>2018-05-27T07:41:23Z</time>
      </trkpt>
      <trkpt lat="49.27244" lon="1.34713">
        <ele>137.6</ele>
        <time>2018-05-27T07:41:25Z</time>
      </trkpt>
      <trkpt lat="49.27233" lon="1.34723">
        <ele>137.5</ele>
        <time>2018-05-27T07:41:27Z</time>
      </trkpt>
      <trkpt lat="49.27222" lon="1.34733">
        <ele>137.3</ele>
        <time>2018-05-27T07:41:29Z</time>
      </trkpt>
      <trkpt lat="49.27212" lon="1.34743">
        <ele>137.2</ele>
        <time>2018-05-27T07:41:31Z</time>
      </trkpt>
      <trkpt lat="49.272" lon="1.34752">
        <ele>137.1</ele>
        <time>2018-05-27T07:41:33Z</time>
      </trkpt>
      <trkpt lat="49.27188" lon="1.34761">
        <ele>137</ele>
        <time>2018-05-27T07:41:35Z</time>
      </trkpt>
      <trkpt lat="49.27174" lon="1.34768">
        <ele>136.9</ele>
        <time>2018-05-27T07:41:37Z</time>
      </trkpt>
      <trkpt lat="49.2716" lon="1.34773">
        <ele>136.7</ele>
        <time>2018-05-27T07:41:39Z</time>
      </trkpt>
      <trkpt lat="49.27146" lon="1.34777">
        <ele>136.4</ele>
        <time>2018-05-27T07:41:41Z</time>
      </trkpt>
      <trkpt lat="49.27133" lon="1.3478">
        <ele>136.1</ele>
        <time>2018-05-27T07:41:43Z</time>
      </trkpt>
      <trkpt lat="49.27119" lon="1.34782">
        <ele>136</ele>
        <time>2018-05-27T07:41:45Z</time>
      </trkpt>
      <trkpt lat="49.27104" lon="1.34782">
        <ele>135.8</ele>
        <time>2018-05-27T07:41:47Z</time>
      </trkpt>
      <trkpt lat="49.2709" lon="1.34781">
        <ele>135.5</ele>
        <time>2018-05-27T07:41:49Z</time>
      </trkpt>
      <trkpt lat="49.27077" lon="1.34777">
        <ele>135.2</ele>
        <time>2018-05-27T07:41:51Z</time>
      </trkpt>
      <trkpt lat="49.27063" lon="1.34772">
        <ele>134.7</ele>
        <time>2018-05-27T07:41:53Z</time>
      </trkpt>
      <trkpt lat="49.2705" lon="1.34766">
        <ele>134.3</ele>
        <time>2018-05-27T07:41:55Z</time>
      </trkpt>
      <trkpt lat="49.27038" lon="1.34754">
        <ele>134</ele>
        <time>2018-05-27T07:41:57Z</time>
      </trkpt>
      <trkpt lat="49.27028" lon="1.3474">
        <ele>133.6</ele>
        <time>2018-05-27T07:41:59Z</time>
      </trkpt>
      <trkpt lat="49.2702" lon="1.34722">
        <ele>133.1</ele>
        <time>2018-05-27T07:42:01Z</time>
      </trkpt>
      <trkpt lat="49.27014" lon="1.34704">
        <ele>132.8</ele>
        <time>2018-05-27T07:42:03Z</time>
      </trkpt>
      <trkpt lat="49.27009" lon="1.34687">
        <ele>132.6</ele>
        <time>2018-05-27T07:42:05Z</time>
      </trkpt>
      <trkpt lat="49.27003" lon="1.34671">
        <ele>132.4</ele>
        <time>2018-05-27T07:42:07Z</time>
      </trkpt>
      <trkpt lat="49.26997" lon="1.34654">
        <ele>132.3</ele>
        <time>2018-05-27T07:42:09Z</time>
      </trkpt>
      <trkpt lat="49.26993" lon="1.34638">
        <ele>132.3</ele>
        <time>2018-05-27T07:42:11Z</time>
      </trkpt>
      <trkpt lat="49.26989" lon="1.3462">
        <ele>132.1</ele>
        <time>2018-05-27T07:42:13Z</time>
      </trkpt>
      <trkpt lat="49.26987" lon="1.34601">
        <ele>132</ele>
        <time>2018-05-27T07:42:15Z</time>
      </trkpt>
      <trkpt lat="49.26983" lon="1.34583">
        <ele>131.6</ele>
        <time>2018-05-27T07:42:17Z</time>
      </trkpt>
      <trkpt lat="49.2698" lon="1.34564">
        <ele>131.2</ele>
        <time>2018-05-27T07:42:19Z</time>
      </trkpt>
      <trkpt lat="49.26978" lon="1.34546">
        <ele>130.7</ele>
        <time>2018-05-27T07:42:21Z</time>
      </trkpt>
      <trkpt lat="49.26981" lon="1.34531">
        <ele>130.1</ele>
        <time>2018-05-27T07:42:23Z</time>
      </trkpt>
      <trkpt lat="49.26988" lon="1.34517">
        <ele>129.7</ele>
        <time>2018-05-27T07:42:25Z</time>
      </trkpt>
      <trkpt lat="49.26995" lon="1.34504">
        <ele>129.2</ele>
        <time>2018-05-27T07:42:27Z</time>
      </trkpt>
      <trkpt lat="49.27002" lon="1.34489">
        <ele>129</ele>
        <time>2018-05-27T07:42:29Z</time>
      </trkpt>
      <trkpt lat="49.27009" lon="1.34474">
        <ele>128.8</ele>
        <time>2018-05-27T07:42:31Z</time>
      </trkpt>
      <trkpt lat="49.27016" lon="1.34461">
        <ele>128.9</ele>
        <time>2018-05-27T07:42:33Z</time>
      </trkpt>
      <trkpt lat="49.27022" lon="1.34447">
        <ele>129.2</ele>
        <time>2018-05-27T07:42:35Z</time>
      </trkpt>
      <trkpt lat="49.27028" lon="1.34433">
        <ele>129.4</ele>
        <time>2018-05-27T07:42:37Z</time>
      </trkpt>
      <trkpt lat="49.27034" lon="1.34419">
        <ele>129.7</ele>
        <time>2018-05-27T07:42:39Z</time>
      </trkpt>
      <trkpt lat="49.2704" lon="1.34406">
        <ele>129.8</ele>
        <time>2018-05-27T07:42:41Z</time>
      </trkpt>
      <trkpt lat="49.27046" lon="1.34394">
        <ele>130</ele>
        <time>2018-05-27T07:42:43Z</time>
      </trkpt>
      <trkpt lat="49.27054" lon="1.34382">
        <ele>130.2</ele>
        <time>2018-05-27T07:42:45Z</time>
      </trkpt>
      <trkpt lat="49.27062" lon="1.34372">
        <ele>130.6</ele>
        <time>2018-05-27T07:42:47Z</time>
      </trkpt>
      <trkpt lat="49.2707" lon="1.34362">
        <ele>130.8</ele>
        <time>2018-05-27T07:42:49Z</time>
      </trkpt>
      <trkpt lat="49.27078" lon="1.34353">
        <ele>130.9</ele>
        <time>2018-05-27T07:42:51Z</time>
      </trkpt>
      <trkpt lat="49.27086" lon="1.34344">
        <ele>131</ele>
        <time>2018-05-27T07:42:53Z</time>
      </trkpt>
      <trkpt lat="49.27094" lon="1.34335">
        <ele>131.3</ele>
        <time>2018-05-27T07:42:55Z</time>
      </trkpt>
      <trkpt lat="49.27102" lon="1.34325">
        <ele>131.4</ele>
        <time>2018-05-27T07:42:57Z</time>
      </trkpt>
      <trkpt lat="49.27111" lon="1.34315">
        <ele>131.6</ele>
        <time>2018-05-27T07:42:59Z</time>
      </trkpt>
      <trkpt lat="49.27119" lon="1.34305">
        <ele>131.7</ele>
        <time>2018-05-27T07:43:01Z</time>
      </trkpt>
      <trkpt lat="49.27128" lon="1.34294">
        <ele>131.7</ele>
        <time>2018-05-27T07:43:03Z</time>
      </trkpt>
      <trkpt lat="49.27136" lon="1.34284">
        <ele>132</ele>
        <time>2018-05-27T07:43:05Z</time>
      </trkpt>
      <trkpt lat="49.27145" lon="1.34274">
        <ele>132.1</ele>
        <time>2018-05-27T07:43:07Z</time>
      </trkpt>
      <trkpt lat="49.27152" lon="1.34262">
        <ele>132.1</ele>
        <time>2018-05-27T07:43:09Z</time>
      </trkpt>
      <trkpt lat="49.27152" lon="1.34242">
        <ele>131.7</ele>
        <time>2018-05-27T07:43:12Z</time>
      </trkpt>
      <trkpt lat="49.27152" lon="1.34226">
        <ele>131.6</ele>
        <time>2018-05-27T07:43:14Z</time>
      </trkpt>
      <trkpt lat="49.27152" lon="1.34209">
        <ele>131.4</ele>
        <time>2018-05-27T07:43:16Z</time>
      </trkpt>
      <trkpt lat="49.27153" lon="1.34193">
        <ele>131.1</ele>
        <time>2018-05-27T07:43:18Z</time>
      </trkpt>
      <trkpt lat="49.27153" lon="1.34176">
        <ele>130.8</ele>
        <time>2018-05-27T07:43:20Z</time>
      </trkpt>
      <trkpt lat="49.27152" lon="1.34161">
        <ele>130.6</ele>
        <time>2018-05-27T07:43:22Z</time>
      </trkpt>
      <trkpt lat="49.27152" lon="1.34145">
        <ele>130.3</ele>
        <time>2018-05-27T07:43:24Z</time>
      </trkpt>
      <trkpt lat="49.27153" lon="1.34128">
        <ele>130</ele>
        <time>2018-05-27T07:43:26Z</time>
      </trkpt>
      <trkpt lat="49.27153" lon="1.34111">
        <ele>129.9</ele>
        <time>2018-05-27T07:43:28Z</time>
      </trkpt>
      <trkpt lat="49.27153" lon="1.34092">
        <ele>129.8</ele>
        <time>2018-05-27T07:43:30Z</time>
      </trkpt>
      <trkpt lat="49.27153" lon="1.34074">
        <ele>129.5</ele>
        <time>2018-05-27T07:43:32Z</time>
      </trkpt>
      <trkpt lat="49.27153" lon="1.34056">
        <ele>129.3</ele>
        <time>2018-05-27T07:43:34Z</time>
      </trkpt>
      <trkpt lat="49.27153" lon="1.34038">
        <ele>128.9</ele>
        <time>2018-05-27T07:43:36Z</time>
      </trkpt>
      <trkpt lat="49.27153" lon="1.3402">
        <ele>128.7</ele>
        <time>2018-05-27T07:43:38Z</time>
      </trkpt>
      <trkpt lat="49.27154" lon="1.34002">
        <ele>128.4</ele>
        <time>2018-05-27T07:43:40Z</time>
      </trkpt>
      <trkpt lat="49.27154" lon="1.33985">
        <ele>127.8</ele>
        <time>2018-05-27T07:43:42Z</time>
      </trkpt>
      <trkpt lat="49.27156" lon="1.33969">
        <ele>127.7</ele>
        <time>2018-05-27T07:43:44Z</time>
      </trkpt>
      <trkpt lat="49.27156" lon="1.33952">
        <ele>127.6</ele>
        <time>2018-05-27T07:43:46Z</time>
      </trkpt>
      <trkpt lat="49.27155" lon="1.33934">
        <ele>127.2</ele>
        <time>2018-05-27T07:43:48Z</time>
      </trkpt>
      <trkpt lat="49.27156" lon="1.33918">
        <ele>126.8</ele>
        <time>2018-05-27T07:43:50Z</time>
      </trkpt>
      <trkpt lat="49.2716" lon="1.33904">
        <ele>126.6</ele>
        <time>2018-05-27T07:43:52Z</time>
      </trkpt>
      <trkpt lat="49.27162" lon="1.33891">
        <ele>126</ele>
        <time>2018-05-27T07:43:54Z</time>
      </trkpt>
      <trkpt lat="49.27163" lon="1.33872">
        <ele>125.3</ele>
        <time>2018-05-27T07:43:57Z</time>
      </trkpt>
      <trkpt lat="49.2716" lon="1.33852">
        <ele>124.6</ele>
        <time>2018-05-27T07:44:00Z</time>
      </trkpt>
      <trkpt lat="49.27157" lon="1.33835">
        <ele>124</ele>
        <time>2018-05-27T07:44:02Z</time>
      </trkpt>
      <trkpt lat="49.27156" lon="1.33812">
        <ele>123.3</ele>
        <time>2018-05-27T07:44:04Z</time>
      </trkpt>
      <trkpt lat="49.27152" lon="1.33791">
        <ele>122.3</ele>
        <time>2018-05-27T07:44:06Z</time>
      </trkpt>
      <trkpt lat="49.27146" lon="1.3377">
        <ele>121.3</ele>
        <time>2018-05-27T07:44:08Z</time>
      </trkpt>
      <trkpt lat="49.27141" lon="1.33753">
        <ele>120</ele>
        <time>2018-05-27T07:44:10Z</time>
      </trkpt>
      <trkpt lat="49.27134" lon="1.33739">
        <ele>118.3</ele>
        <time>2018-05-27T07:44:12Z</time>
      </trkpt>
      <trkpt lat="49.27126" lon="1.33722">
        <ele>116.8</ele>
        <time>2018-05-27T07:44:14Z</time>
      </trkpt>
      <trkpt lat="49.27118" lon="1.33704">
        <ele>115.1</ele>
        <time>2018-05-27T07:44:16Z</time>
      </trkpt>
      <trkpt lat="49.27111" lon="1.33694">
        <ele>114.4</ele>
        <time>2018-05-27T07:44:17Z</time>
      </trkpt>
      <trkpt lat="49.27105" lon="1.33678">
        <ele>113.7</ele>
        <time>2018-05-27T07:44:18Z</time>
      </trkpt>
      <trkpt lat="49.27094" lon="1.33662">
        <ele>112.3</ele>
        <time>2018-05-27T07:44:20Z</time>
      </trkpt>
      <trkpt lat="49.27087" lon="1.33651">
        <ele>111.6</ele>
        <time>2018-05-27T07:44:21Z</time>
      </trkpt>
      <trkpt lat="49.2708" lon="1.33643">
        <ele>110.7</ele>
        <time>2018-05-27T07:44:22Z</time>
      </trkpt>
      <trkpt lat="49.27066" lon="1.33629">
        <ele>108.7</ele>
        <time>2018-05-27T07:44:24Z</time>
      </trkpt>
      <trkpt lat="49.27059" lon="1.33618">
        <ele>107.1</ele>
        <time>2018-05-27T07:44:26Z</time>
      </trkpt>
      <trkpt lat="49.27055" lon="1.33603">
        <ele>105.5</ele>
        <time>2018-05-27T07:44:28Z</time>
      </trkpt>
      <trkpt lat="49.27058" lon="1.33584">
        <ele>103</ele>
        <time>2018-05-27T07:44:31Z</time>
      </trkpt>
      <trkpt lat="49.27064" lon="1.33563">
        <ele>100.6</ele>
        <time>2018-05-27T07:44:34Z</time>
      </trkpt>
      <trkpt lat="49.27068" lon="1.3355">
        <ele>98.7</ele>
        <time>2018-05-27T07:44:36Z</time>
      </trkpt>
      <trkpt lat="49.27072" lon="1.33537">
        <ele>97.5</ele>
        <time>2018-05-27T07:44:38Z</time>
      </trkpt>
      <trkpt lat="49.27079" lon="1.3352">
        <ele>96.3</ele>
        <time>2018-05-27T07:44:40Z</time>
      </trkpt>
      <trkpt lat="49.27087" lon="1.33503">
        <ele>94.9</ele>
        <time>2018-05-27T07:44:42Z</time>
      </trkpt>
      <trkpt lat="49.27094" lon="1.33491">
        <ele>93.2</ele>
        <time>2018-05-27T07:44:44Z</time>
      </trkpt>
      <trkpt lat="49.27102" lon="1.33482">
        <ele>90.8</ele>
        <time>2018-05-27T07:44:47Z</time>
      </trkpt>
      <trkpt lat="49.27112" lon="1.3349">
        <ele>88.3</ele>
        <time>2018-05-27T07:44:51Z</time>
      </trkpt>
      <trkpt lat="49.27119" lon="1.335">
        <ele>86.2</ele>
        <time>2018-05-27T07:44:54Z</time>
      </trkpt>
      <trkpt lat="49.27127" lon="1.33512">
        <ele>84.7</ele>
        <time>2018-05-27T07:44:57Z</time>
      </trkpt>
      <trkpt lat="49.27137" lon="1.33519">
        <ele>82.9</ele>
        <time>2018-05-27T07:45:00Z</time>
      </trkpt>
      <trkpt lat="49.27148" lon="1.33515">
        <ele>79.9</ele>
        <time>2018-05-27T07:45:04Z</time>
      </trkpt>
      <trkpt lat="49.27161" lon="1.33509">
        <ele>78.7</ele>
        <time>2018-05-27T07:45:06Z</time>
      </trkpt>
      <trkpt lat="49.27172" lon="1.335">
        <ele>77.2</ele>
        <time>2018-05-27T07:45:08Z</time>
      </trkpt>
      <trkpt lat="49.27179" lon="1.33488">
        <ele>75.5</ele>
        <time>2018-05-27T07:45:10Z</time>
      </trkpt>
      <trkpt lat="49.27186" lon="1.33473">
        <ele>72.7</ele>
        <time>2018-05-27T07:45:13Z</time>
      </trkpt>
      <trkpt lat="49.27192" lon="1.33454">
        <ele>70.4</ele>
        <time>2018-05-27T07:45:16Z</time>
      </trkpt>
      <trkpt lat="49.27196" lon="1.3344">
        <ele>69.1</ele>
        <time>2018-05-27T07:45:18Z</time>
      </trkpt>
      <trkpt lat="49.27202" lon="1.33429">
        <ele>68.1</ele>
        <time>2018-05-27T07:45:20Z</time>
      </trkpt>
      <trkpt lat="49.27207" lon="1.33411">
        <ele>66.8</ele>
        <time>2018-05-27T07:45:23Z</time>
      </trkpt>
      <trkpt lat="49.27203" lon="1.33397">
        <ele>66.2</ele>
        <time>2018-05-27T07:45:26Z</time>
      </trkpt>
      <trkpt lat="49.27193" lon="1.33389">
        <ele>65.9</ele>
        <time>2018-05-27T07:45:30Z</time>
      </trkpt>
      <trkpt lat="49.27184" lon="1.33376">
        <ele>65.9</ele>
        <time>2018-05-27T07:45:33Z</time>
      </trkpt>
      <trkpt lat="49.27177" lon="1.33365">
        <ele>65.7</ele>
        <time>2018-05-27T07:45:36Z</time>
      </trkpt>
      <trkpt lat="49.27169" lon="1.33354">
        <ele>65.7</ele>
        <time>2018-05-27T07:45:38Z</time>
      </trkpt>
      <trkpt lat="49.2716" lon="1.33346">
        <ele>65.5</ele>
        <time>2018-05-27T07:45:40Z</time>
      </trkpt>
      <trkpt lat="49.27152" lon="1.33337">
        <ele>65.3</ele>
        <time>2018-05-27T07:45:42Z</time>
      </trkpt>
      <trkpt lat="49.27144" lon="1.3333">
        <ele>65.2</ele>
        <time>2018-05-27T07:45:44Z</time>
      </trkpt>
      <trkpt lat="49.27134" lon="1.33317">
        <ele>65.5</ele>
        <time>2018-05-27T07:45:46Z</time>
      </trkpt>
      <trkpt lat="49.27124" lon="1.3331">
        <ele>65.5</ele>
        <time>2018-05-27T07:45:48Z</time>
      </trkpt>
      <trkpt lat="49.27112" lon="1.33306">
        <ele>65.5</ele>
        <time>2018-05-27T07:45:51Z</time>
      </trkpt>
      <trkpt lat="49.27099" lon="1.33305">
        <ele>65.3</ele>
        <time>2018-05-27T07:45:54Z</time>
      </trkpt>
      <trkpt lat="49.27088" lon="1.33307">
        <ele>64.9</ele>
        <time>2018-05-27T07:45:56Z</time>
      </trkpt>
      <trkpt lat="49.27078" lon="1.33311">
        <ele>64.4</ele>
        <time>2018-05-27T07:45:58Z</time>
      </trkpt>
      <trkpt lat="49.27068" lon="1.33315">
        <ele>64</ele>
        <time>2018-05-27T07:46:00Z</time>
      </trkpt>
      <trkpt lat="49.2706" lon="1.33325">
        <ele>63.3</ele>
        <time>2018-05-27T07:46:03Z</time>
      </trkpt>
      <trkpt lat="49.27052" lon="1.33337">
        <ele>63.1</ele>
        <time>2018-05-27T07:46:05Z</time>
      </trkpt>
      <trkpt lat="49.2705" lon="1.33352">
        <ele>62.9</ele>
        <time>2018-05-27T07:46:07Z</time>
      </trkpt>
      <trkpt lat="49.27047" lon="1.33369">
        <ele>62.7</ele>
        <time>2018-05-27T07:46:09Z</time>
      </trkpt>
      <trkpt lat="49.2704" lon="1.33384">
        <ele>62.7</ele>
        <time>2018-05-27T07:46:11Z</time>
      </trkpt>
      <trkpt lat="49.27031" lon="1.33396">
        <ele>62.7</ele>
        <time>2018-05-27T07:46:13Z</time>
      </trkpt>
      <trkpt lat="49.27023" lon="1.33407">
        <ele>62.7</ele>
        <time>2018-05-27T07:46:15Z</time>
      </trkpt>
      <trkpt lat="49.27007" lon="1.33414">
        <ele>62.2</ele>
        <time>2018-05-27T07:46:18Z</time>
      </trkpt>
      <trkpt lat="49.26995" lon="1.33418">
        <ele>61.8</ele>
        <time>2018-05-27T07:46:20Z</time>
      </trkpt>
      <trkpt lat="49.26981" lon="1.33418">
        <ele>61.6</ele>
        <time>2018-05-27T07:46:22Z</time>
      </trkpt>
      <trkpt lat="49.26968" lon="1.3342">
        <ele>61.5</ele>
        <time>2018-05-27T07:46:24Z</time>
      </trkpt>
      <trkpt lat="49.26957" lon="1.3342">
        <ele>61.5</ele>
        <time>2018-05-27T07:46:26Z</time>
      </trkpt>
      <trkpt lat="49.26945" lon="1.33419">
        <ele>61.3</ele>
        <time>2018-05-27T07:46:28Z</time>
      </trkpt>
      <trkpt lat="49.26934" lon="1.33418">
        <ele>61.3</ele>
        <time>2018-05-27T07:46:30Z</time>
      </trkpt>
      <trkpt lat="49.26924" lon="1.33417">
        <ele>61.2</ele>
        <time>2018-05-27T07:46:32Z</time>
      </trkpt>
      <trkpt lat="49.2691" lon="1.33413">
        <ele>60.8</ele>
        <time>2018-05-27T07:46:35Z</time>
      </trkpt>
      <trkpt lat="49.26896" lon="1.33411">
        <ele>60.9</ele>
        <time>2018-05-27T07:46:37Z</time>
      </trkpt>
      <trkpt lat="49.26884" lon="1.33413">
        <ele>60.8</ele>
        <time>2018-05-27T07:46:39Z</time>
      </trkpt>
      <trkpt lat="49.26874" lon="1.33416">
        <ele>60.5</ele>
        <time>2018-05-27T07:46:41Z</time>
      </trkpt>
      <trkpt lat="49.26862" lon="1.33425">
        <ele>60.2</ele>
        <time>2018-05-27T07:46:43Z</time>
      </trkpt>
      <trkpt lat="49.2685" lon="1.33437">
        <ele>59.9</ele>
        <time>2018-05-27T07:46:45Z</time>
      </trkpt>
      <trkpt lat="49.2684" lon="1.3345">
        <ele>59.7</ele>
        <time>2018-05-27T07:46:47Z</time>
      </trkpt>
      <trkpt lat="49.26828" lon="1.33463">
        <ele>59.5</ele>
        <time>2018-05-27T07:46:49Z</time>
      </trkpt>
      <trkpt lat="49.26819" lon="1.33476">
        <ele>59.3</ele>
        <time>2018-05-27T07:46:51Z</time>
      </trkpt>
      <trkpt lat="49.26808" lon="1.33489">
        <ele>58.9</ele>
        <time>2018-05-27T07:46:53Z</time>
      </trkpt>
      <trkpt lat="49.26799" lon="1.33505">
        <ele>58.6</ele>
        <time>2018-05-27T07:46:55Z</time>
      </trkpt>
      <trkpt lat="49.2679" lon="1.33523">
        <ele>58.4</ele>
        <time>2018-05-27T07:46:57Z</time>
      </trkpt>
      <trkpt lat="49.26779" lon="1.33535">
        <ele>58.2</ele>
        <time>2018-05-27T07:46:59Z</time>
      </trkpt>
      <trkpt lat="49.2677" lon="1.33548">
        <ele>58</ele>
        <time>2018-05-27T07:47:01Z</time>
      </trkpt>
      <trkpt lat="49.26763" lon="1.33561">
        <ele>57.8</ele>
        <time>2018-05-27T07:47:03Z</time>
      </trkpt>
      <trkpt lat="49.26751" lon="1.33574">
        <ele>57.6</ele>
        <time>2018-05-27T07:47:05Z</time>
      </trkpt>
      <trkpt lat="49.26741" lon="1.33585">
        <ele>57.3</ele>
        <time>2018-05-27T07:47:07Z</time>
      </trkpt>
      <trkpt lat="49.26731" lon="1.3359">
        <ele>57.3</ele>
        <time>2018-05-27T07:47:09Z</time>
      </trkpt>
      <trkpt lat="49.26722" lon="1.33592">
        <ele>57.1</ele>
        <time>2018-05-27T07:47:11Z</time>
      </trkpt>
      <trkpt lat="49.26712" lon="1.33591">
        <ele>56.7</ele>
        <time>2018-05-27T07:47:13Z</time>
      </trkpt>
      <trkpt lat="49.26702" lon="1.33584">
        <ele>56.3</ele>
        <time>2018-05-27T07:47:16Z</time>
      </trkpt>
      <trkpt lat="49.26696" lon="1.33568">
        <ele>55.9</ele>
        <time>2018-05-27T07:47:19Z</time>
      </trkpt>
      <trkpt lat="49.26687" lon="1.33557">
        <ele>55.9</ele>
        <time>2018-05-27T07:47:22Z</time>
      </trkpt>
      <trkpt lat="49.26678" lon="1.33545">
        <ele>55.9</ele>
        <time>2018-05-27T07:47:25Z</time>
      </trkpt>
      <trkpt lat="49.2667" lon="1.33534">
        <ele>55.8</ele>
        <time>2018-05-27T07:47:27Z</time>
      </trkpt>
      <trkpt lat="49.26664" lon="1.33524">
        <ele>55.7</ele>
        <time>2018-05-27T07:47:29Z</time>
      </trkpt>
      <trkpt lat="49.26654" lon="1.33514">
        <ele>55.6</ele>
        <time>2018-05-27T07:47:32Z</time>
      </trkpt>
      <trkpt lat="49.26645" lon="1.33503">
        <ele>55.5</ele>
        <time>2018-05-27T07:47:34Z</time>
      </trkpt>
      <trkpt lat="49.26636" lon="1.33491">
        <ele>55.4</ele>
        <time>2018-05-27T07:47:36Z</time>
      </trkpt>
      <trkpt lat="49.26628" lon="1.3348">
        <ele>55.3</ele>
        <time>2018-05-27T07:47:38Z</time>
      </trkpt>
      <trkpt lat="49.26616" lon="1.33468">
        <ele>55.3</ele>
        <time>2018-05-27T07:47:40Z</time>
      </trkpt>
      <trkpt lat="49.26607" lon="1.33455">
        <ele>55.2</ele>
        <time>2018-05-27T07:47:42Z</time>
      </trkpt>
      <trkpt lat="49.26599" lon="1.33441">
        <ele>55</ele>
        <time>2018-05-27T07:47:44Z</time>
      </trkpt>
      <trkpt lat="49.26591" lon="1.33425">
        <ele>54.9</ele>
        <time>2018-05-27T07:47:46Z</time>
      </trkpt>
      <trkpt lat="49.26582" lon="1.33411">
        <ele>54.8</ele>
        <time>2018-05-27T07:47:48Z</time>
      </trkpt>
      <trkpt lat="49.26574" lon="1.33397">
        <ele>54.6</ele>
        <time>2018-05-27T07:47:50Z</time>
      </trkpt>
      <trkpt lat="49.26565" lon="1.33385">
        <ele>54.6</ele>
        <time>2018-05-27T07:47:52Z</time>
      </trkpt>
      <trkpt lat="49.26557" lon="1.33369">
        <ele>54.1</ele>
        <time>2018-05-27T07:47:54Z</time>
      </trkpt>
      <trkpt lat="49.2655" lon="1.33357">
        <ele>54.2</ele>
        <time>2018-05-27T07:47:56Z</time>
      </trkpt>
      <trkpt lat="49.26541" lon="1.33342">
        <ele>54</ele>
        <time>2018-05-27T07:47:58Z</time>
      </trkpt>
      <trkpt lat="49.26533" lon="1.33328">
        <ele>54</ele>
        <time>2018-05-27T07:48:00Z</time>
      </trkpt>
      <trkpt lat="49.26524" lon="1.33313">
        <ele>53.7</ele>
        <time>2018-05-27T07:48:02Z</time>
      </trkpt>
      <trkpt lat="49.26514" lon="1.33302">
        <ele>53.5</ele>
        <time>2018-05-27T07:48:04Z</time>
      </trkpt>
      <trkpt lat="49.26504" lon="1.3329">
        <ele>53.6</ele>
        <time>2018-05-27T07:48:06Z</time>
      </trkpt>
      <trkpt lat="49.26494" lon="1.33279">
        <ele>53.5</ele>
        <time>2018-05-27T07:48:08Z</time>
      </trkpt>
      <trkpt lat="49.26484" lon="1.33271">
        <ele>53.3</ele>
        <time>2018-05-27T07:48:10Z</time>
      </trkpt>
      <trkpt lat="49.26474" lon="1.33265">
        <ele>53.1</ele>
        <time>2018-05-27T07:48:12Z</time>
      </trkpt>
      <trkpt lat="49.26463" lon="1.33257">
        <ele>52.8</ele>
        <time>2018-05-27T07:48:14Z</time>
      </trkpt>
      <trkpt lat="49.26451" lon="1.33251">
        <ele>52.6</ele>
        <time>2018-05-27T07:48:16Z</time>
      </trkpt>
      <trkpt lat="49.26441" lon="1.33248">
        <ele>52.5</ele>
        <time>2018-05-27T07:48:18Z</time>
      </trkpt>
      <trkpt lat="49.26431" lon="1.33238">
        <ele>52.5</ele>
        <time>2018-05-27T07:48:20Z</time>
      </trkpt>
      <trkpt lat="49.2642" lon="1.33226">
        <ele>52.3</ele>
        <time>2018-05-27T07:48:22Z</time>
      </trkpt>
      <trkpt lat="49.26408" lon="1.33214">
        <ele>52.3</ele>
        <time>2018-05-27T07:48:24Z</time>
      </trkpt>
      <trkpt lat="49.26396" lon="1.33203">
        <ele>52.2</ele>
        <time>2018-05-27T07:48:26Z</time>
      </trkpt>
      <trkpt lat="49.26384" lon="1.33194">
        <ele>52.2</ele>
        <time>2018-05-27T07:48:28Z</time>
      </trkpt>
      <trkpt lat="49.26373" lon="1.33184">
        <ele>52</ele>
        <time>2018-05-27T07:48:30Z</time>
      </trkpt>
      <trkpt lat="49.26363" lon="1.33175">
        <ele>51.9</ele>
        <time>2018-05-27T07:48:32Z</time>
      </trkpt>
      <trkpt lat="49.26353" lon="1.33164">
        <ele>51.9</ele>
        <time>2018-05-27T07:48:34Z</time>
      </trkpt>
      <trkpt lat="49.26343" lon="1.33155">
        <ele>51.9</ele>
        <time>2018-05-27T07:48:36Z</time>
      </trkpt>
      <trkpt lat="49.26333" lon="1.33144">
        <ele>51.9</ele>
        <time>2018-05-27T07:48:38Z</time>
      </trkpt>
      <trkpt lat="49.26324" lon="1.33135">
        <ele>51.9</ele>
        <time>2018-05-27T07:48:40Z</time>
      </trkpt>
      <trkpt lat="49.26316" lon="1.33124">
        <ele>51.8</ele>
        <time>2018-05-27T07:48:42Z</time>
      </trkpt>
      <trkpt lat="49.26307" lon="1.33113">
        <ele>51.7</ele>
        <time>2018-05-27T07:48:44Z</time>
      </trkpt>
      <trkpt lat="49.26297" lon="1.33102">
        <ele>51.6</ele>
        <time>2018-05-27T07:48:46Z</time>
      </trkpt>
      <trkpt lat="49.26288" lon="1.3309">
        <ele>51.4</ele>
        <time>2018-05-27T07:48:48Z</time>
      </trkpt>
      <trkpt lat="49.26279" lon="1.33077">
        <ele>51.3</ele>
        <time>2018-05-27T07:48:50Z</time>
      </trkpt>
      <trkpt lat="49.26272" lon="1.33065">
        <ele>51</ele>
        <time>2018-05-27T07:48:52Z</time>
      </trkpt>
      <trkpt lat="49.26266" lon="1.33048">
        <ele>51</ele>
        <time>2018-05-27T07:48:54Z</time>
      </trkpt>
      <trkpt lat="49.2626" lon="1.33028">
        <ele>50.8</ele>
        <time>2018-05-27T07:48:56Z</time>
      </trkpt>
      <trkpt lat="49.26256" lon="1.33007">
        <ele>50.7</ele>
        <time>2018-05-27T07:48:58Z</time>
      </trkpt>
      <trkpt lat="49.26254" lon="1.32985">
        <ele>50.5</ele>
        <time>2018-05-27T07:49:00Z</time>
      </trkpt>
      <trkpt lat="49.26252" lon="1.32965">
        <ele>50.5</ele>
        <time>2018-05-27T07:49:02Z</time>
      </trkpt>
      <trkpt lat="49.2625" lon="1.32945">
        <ele>50.2</ele>
        <time>2018-05-27T07:49:04Z</time>
      </trkpt>
      <trkpt lat="49.26249" lon="1.32927">
        <ele>50.2</ele>
        <time>2018-05-27T07:49:06Z</time>
      </trkpt>
      <trkpt lat="49.26248" lon="1.32909">
        <ele>50.4</ele>
        <time>2018-05-27T07:49:08Z</time>
      </trkpt>
      <trkpt lat="49.26247" lon="1.32892">
        <ele>50.4</ele>
        <time>2018-05-27T07:49:10Z</time>
      </trkpt>
      <trkpt lat="49.26246" lon="1.32874">
        <ele>50.6</ele>
        <time>2018-05-27T07:49:12Z</time>
      </trkpt>
      <trkpt lat="49.26244" lon="1.32856">
        <ele>50.5</ele>
        <time>2018-05-27T07:49:14Z</time>
      </trkpt>
      <trkpt lat="49.26243" lon="1.32838">
        <ele>50.5</ele>
        <time>2018-05-27T07:49:16Z</time>
      </trkpt>
      <trkpt lat="49.26241" lon="1.32821">
        <ele>50.7</ele>
        <time>2018-05-27T07:49:18Z</time>
      </trkpt>
      <trkpt lat="49.26239" lon="1.32803">
        <ele>50.8</ele>
        <time>2018-05-27T07:49:20Z</time>
      </trkpt>
      <trkpt lat="49.26236" lon="1.32785">
        <ele>50.7</ele>
        <time>2018-05-27T07:49:22Z</time>
      </trkpt>
      <trkpt lat="49.26232" lon="1.32767">
        <ele>50.7</ele>
        <time>2018-05-27T07:49:24Z</time>
      </trkpt>
      <trkpt lat="49.26229" lon="1.32749">
        <ele>50.6</ele>
        <time>2018-05-27T07:49:26Z</time>
      </trkpt>
      <trkpt lat="49.26227" lon="1.32731">
        <ele>50.5</ele>
        <time>2018-05-27T07:49:28Z</time>
      </trkpt>
      <trkpt lat="49.26225" lon="1.32713">
        <ele>50.5</ele>
        <time>2018-05-27T07:49:30Z</time>
      </trkpt>
      <trkpt lat="49.26221" lon="1.32698">
        <ele>50.8</ele>
        <time>2018-05-27T07:49:32Z</time>
      </trkpt>
      <trkpt lat="49.26213" lon="1.32684">
        <ele>51.2</ele>
        <time>2018-05-27T07:49:35Z</time>
      </trkpt>
      <trkpt lat="49.2622" lon="1.32674">
        <ele>52</ele>
        <time>2018-05-27T07:49:55Z</time>
      </trkpt>
      <trkpt lat="49.26232" lon="1.32677">
        <ele>51.7</ele>
        <time>2018-05-27T07:49:58Z</time>
      </trkpt>
      <trkpt lat="49.26242" lon="1.32679">
        <ele>51.4</ele>
        <time>2018-05-27T07:50:00Z</time>
      </trkpt>
      <trkpt lat="49.26254" lon="1.32679">
        <ele>51</ele>
        <time>2018-05-27T07:50:02Z</time>
      </trkpt>
      <trkpt lat="49.26265" lon="1.32678">
        <ele>50.2</ele>
        <time>2018-05-27T07:50:04Z</time>
      </trkpt>
      <trkpt lat="49.26276" lon="1.32678">
        <ele>49.3</ele>
        <time>2018-05-27T07:50:06Z</time>
      </trkpt>
      <trkpt lat="49.26285" lon="1.32675">
        <ele>48.7</ele>
        <time>2018-05-27T07:50:08Z</time>
      </trkpt>
      <trkpt lat="49.26294" lon="1.32671">
        <ele>48.2</ele>
        <time>2018-05-27T07:50:10Z</time>
      </trkpt>
      <trkpt lat="49.26302" lon="1.32664">
        <ele>47.7</ele>
        <time>2018-05-27T07:50:12Z</time>
      </trkpt>
      <trkpt lat="49.26312" lon="1.32653">
        <ele>47.2</ele>
        <time>2018-05-27T07:50:15Z</time>
      </trkpt>
      <trkpt lat="49.26323" lon="1.32645">
        <ele>47.4</ele>
        <time>2018-05-27T07:50:19Z</time>
      </trkpt>
      <trkpt lat="49.26333" lon="1.32642">
        <ele>48.2</ele>
        <time>2018-05-27T07:50:23Z</time>
      </trkpt>
      <trkpt lat="49.26341" lon="1.32634">
        <ele>50.4</ele>
        <time>2018-05-27T07:50:29Z</time>
      </trkpt>
      <trkpt lat="49.26348" lon="1.32622">
        <ele>51.2</ele>
        <time>2018-05-27T07:50:34Z</time>
      </trkpt>
      <trkpt lat="49.26353" lon="1.3261">
        <ele>51.8</ele>
        <time>2018-05-27T07:50:38Z</time>
      </trkpt>
      <trkpt lat="49.26355" lon="1.32595">
        <ele>52.8</ele>
        <time>2018-05-27T07:50:42Z</time>
      </trkpt>
      <trkpt lat="49.2636" lon="1.32579">
        <ele>54.5</ele>
        <time>2018-05-27T07:50:48Z</time>
      </trkpt>
      <trkpt lat="49.26366" lon="1.32564">
        <ele>55.5</ele>
        <time>2018-05-27T07:50:53Z</time>
      </trkpt>
      <trkpt lat="49.26369" lon="1.32549">
        <ele>55.5</ele>
        <time>2018-05-27T07:50:57Z</time>
      </trkpt>
      <trkpt lat="49.26371" lon="1.32532">
        <ele>56</ele>
        <time>2018-05-27T07:51:01Z</time>
      </trkpt>
      <trkpt lat="49.26374" lon="1.32516">
        <ele>56.5</ele>
        <time>2018-05-27T07:51:05Z</time>
      </trkpt>
      <trkpt lat="49.26378" lon="1.32504">
        <ele>56.9</ele>
        <time>2018-05-27T07:51:08Z</time>
      </trkpt>
      <trkpt lat="49.26382" lon="1.32491">
        <ele>57.8</ele>
        <time>2018-05-27T07:51:12Z</time>
      </trkpt>
      <trkpt lat="49.26378" lon="1.32475">
        <ele>58.8</ele>
        <time>2018-05-27T07:51:16Z</time>
      </trkpt>
      <trkpt lat="49.26373" lon="1.32463">
        <ele>59.4</ele>
        <time>2018-05-27T07:51:19Z</time>
      </trkpt>
      <trkpt lat="49.26371" lon="1.3245">
        <ele>59.6</ele>
        <time>2018-05-27T07:51:22Z</time>
      </trkpt>
      <trkpt lat="49.26371" lon="1.32434">
        <ele>60.2</ele>
        <time>2018-05-27T07:51:26Z</time>
      </trkpt>
      <trkpt lat="49.26378" lon="1.3242">
        <ele>61</ele>
        <time>2018-05-27T07:51:31Z</time>
      </trkpt>
      <trkpt lat="49.26386" lon="1.32411">
        <ele>62.1</ele>
        <time>2018-05-27T07:51:36Z</time>
      </trkpt>
      <trkpt lat="49.26391" lon="1.32398">
        <ele>62.9</ele>
        <time>2018-05-27T07:51:40Z</time>
      </trkpt>
      <trkpt lat="49.26395" lon="1.32383">
        <ele>64.1</ele>
        <time>2018-05-27T07:51:44Z</time>
      </trkpt>
      <trkpt lat="49.26398" lon="1.3237">
        <ele>65.7</ele>
        <time>2018-05-27T07:51:49Z</time>
      </trkpt>
      <trkpt lat="49.26402" lon="1.32357">
        <ele>67.9</ele>
        <time>2018-05-27T07:51:55Z</time>
      </trkpt>
      <trkpt lat="49.26407" lon="1.32344">
        <ele>69.6</ele>
        <time>2018-05-27T07:52:00Z</time>
      </trkpt>
      <trkpt lat="49.26412" lon="1.32329">
        <ele>70.8</ele>
        <time>2018-05-27T07:52:05Z</time>
      </trkpt>
      <trkpt lat="49.26417" lon="1.32314">
        <ele>71</ele>
        <time>2018-05-27T07:52:09Z</time>
      </trkpt>
      <trkpt lat="49.26424" lon="1.32302">
        <ele>71</ele>
        <time>2018-05-27T07:52:12Z</time>
      </trkpt>
      <trkpt lat="49.2643" lon="1.3229">
        <ele>71.2</ele>
        <time>2018-05-27T07:52:15Z</time>
      </trkpt>
      <trkpt lat="49.26437" lon="1.32274">
        <ele>71</ele>
        <time>2018-05-27T07:52:18Z</time>
      </trkpt>
      <trkpt lat="49.26446" lon="1.32262">
        <ele>71</ele>
        <time>2018-05-27T07:52:21Z</time>
      </trkpt>
      <trkpt lat="49.26453" lon="1.32254">
        <ele>71.1</ele>
        <time>2018-05-27T07:52:24Z</time>
      </trkpt>
      <trkpt lat="49.26463" lon="1.32245">
        <ele>71.4</ele>
        <time>2018-05-27T07:52:27Z</time>
      </trkpt>
      <trkpt lat="49.26471" lon="1.32233">
        <ele>71.6</ele>
        <time>2018-05-27T07:52:30Z</time>
      </trkpt>
      <trkpt lat="49.2648" lon="1.32221">
        <ele>71.6</ele>
        <time>2018-05-27T07:52:33Z</time>
      </trkpt>
      <trkpt lat="49.26487" lon="1.32213">
        <ele>71.7</ele>
        <time>2018-05-27T07:52:35Z</time>
      </trkpt>
      <trkpt lat="49.26499" lon="1.32203">
        <ele>71.7</ele>
        <time>2018-05-27T07:52:38Z</time>
      </trkpt>
      <trkpt lat="49.2651" lon="1.32191">
        <ele>71.7</ele>
        <time>2018-05-27T07:52:41Z</time>
      </trkpt>
      <trkpt lat="49.26517" lon="1.32181">
        <ele>71.8</ele>
        <time>2018-05-27T07:52:43Z</time>
      </trkpt>
      <trkpt lat="49.26524" lon="1.32167">
        <ele>71.9</ele>
        <time>2018-05-27T07:52:45Z</time>
      </trkpt>
      <trkpt lat="49.26529" lon="1.32154">
        <ele>71.7</ele>
        <time>2018-05-27T07:52:47Z</time>
      </trkpt>
      <trkpt lat="49.26532" lon="1.3214">
        <ele>71.6</ele>
        <time>2018-05-27T07:52:49Z</time>
      </trkpt>
      <trkpt lat="49.26536" lon="1.32124">
        <ele>71.1</ele>
        <time>2018-05-27T07:52:51Z</time>
      </trkpt>
      <trkpt lat="49.2654" lon="1.32109">
        <ele>70.8</ele>
        <time>2018-05-27T07:52:53Z</time>
      </trkpt>
      <trkpt lat="49.26547" lon="1.32094">
        <ele>70.5</ele>
        <time>2018-05-27T07:52:55Z</time>
      </trkpt>
      <trkpt lat="49.26552" lon="1.32075">
        <ele>70.3</ele>
        <time>2018-05-27T07:52:57Z</time>
      </trkpt>
      <trkpt lat="49.26558" lon="1.3206">
        <ele>70.2</ele>
        <time>2018-05-27T07:52:59Z</time>
      </trkpt>
      <trkpt lat="49.26564" lon="1.32042">
        <ele>69.9</ele>
        <time>2018-05-27T07:53:01Z</time>
      </trkpt>
      <trkpt lat="49.26566" lon="1.32024">
        <ele>69.3</ele>
        <time>2018-05-27T07:53:03Z</time>
      </trkpt>
      <trkpt lat="49.26568" lon="1.32009">
        <ele>68.9</ele>
        <time>2018-05-27T07:53:05Z</time>
      </trkpt>
      <trkpt lat="49.26578" lon="1.32006">
        <ele>68.5</ele>
        <time>2018-05-27T07:53:08Z</time>
      </trkpt>
      <trkpt lat="49.26588" lon="1.32009">
        <ele>68.6</ele>
        <time>2018-05-27T07:53:11Z</time>
      </trkpt>
      <trkpt lat="49.26599" lon="1.32009">
        <ele>68.8</ele>
        <time>2018-05-27T07:53:14Z</time>
      </trkpt>
      <trkpt lat="49.26609" lon="1.3201">
        <ele>69.3</ele>
        <time>2018-05-27T07:53:17Z</time>
      </trkpt>
      <trkpt lat="49.26621" lon="1.32012">
        <ele>69.9</ele>
        <time>2018-05-27T07:53:20Z</time>
      </trkpt>
      <trkpt lat="49.26632" lon="1.32017">
        <ele>70.4</ele>
        <time>2018-05-27T07:53:23Z</time>
      </trkpt>
      <trkpt lat="49.26638" lon="1.32028">
        <ele>71</ele>
        <time>2018-05-27T07:53:26Z</time>
      </trkpt>
      <trkpt lat="49.26638" lon="1.32047">
        <ele>71.7</ele>
        <time>2018-05-27T07:53:30Z</time>
      </trkpt>
      <trkpt lat="49.26639" lon="1.32062">
        <ele>72.2</ele>
        <time>2018-05-27T07:53:33Z</time>
      </trkpt>
      <trkpt lat="49.26639" lon="1.32079">
        <ele>72.7</ele>
        <time>2018-05-27T07:53:36Z</time>
      </trkpt>
      <trkpt lat="49.26639" lon="1.32096">
        <ele>73.1</ele>
        <time>2018-05-27T07:53:39Z</time>
      </trkpt>
      <trkpt lat="49.2664" lon="1.32113">
        <ele>73.6</ele>
        <time>2018-05-27T07:53:42Z</time>
      </trkpt>
      <trkpt lat="49.26647" lon="1.32122">
        <ele>74.2</ele>
        <time>2018-05-27T07:53:45Z</time>
      </trkpt>
      <trkpt lat="49.26658" lon="1.32123">
        <ele>74.7</ele>
        <time>2018-05-27T07:53:48Z</time>
      </trkpt>
      <trkpt lat="49.26669" lon="1.32121">
        <ele>75.3</ele>
        <time>2018-05-27T07:53:51Z</time>
      </trkpt>
      <trkpt lat="49.2668" lon="1.3212">
        <ele>75.8</ele>
        <time>2018-05-27T07:53:54Z</time>
      </trkpt>
      <trkpt lat="49.2669" lon="1.32119">
        <ele>76.3</ele>
        <time>2018-05-27T07:53:57Z</time>
      </trkpt>
      <trkpt lat="49.267" lon="1.32118">
        <ele>76.9</ele>
        <time>2018-05-27T07:54:00Z</time>
      </trkpt>
      <trkpt lat="49.2671" lon="1.32116">
        <ele>77.4</ele>
        <time>2018-05-27T07:54:03Z</time>
      </trkpt>
      <trkpt lat="49.2672" lon="1.32115">
        <ele>78.1</ele>
        <time>2018-05-27T07:54:06Z</time>
      </trkpt>
      <trkpt lat="49.26731" lon="1.32116">
        <ele>78.7</ele>
        <time>2018-05-27T07:54:09Z</time>
      </trkpt>
      <trkpt lat="49.26741" lon="1.32114">
        <ele>79.2</ele>
        <time>2018-05-27T07:54:12Z</time>
      </trkpt>
      <trkpt lat="49.26752" lon="1.32114">
        <ele>79.8</ele>
        <time>2018-05-27T07:54:15Z</time>
      </trkpt>
      <trkpt lat="49.26762" lon="1.32113">
        <ele>80.5</ele>
        <time>2018-05-27T07:54:18Z</time>
      </trkpt>
      <trkpt lat="49.26771" lon="1.32114">
        <ele>81</ele>
        <time>2018-05-27T07:54:21Z</time>
      </trkpt>
      <trkpt lat="49.26781" lon="1.32114">
        <ele>82</ele>
        <time>2018-05-27T07:54:24Z</time>
      </trkpt>
      <trkpt lat="49.26791" lon="1.32107">
        <ele>83</ele>
        <time>2018-05-27T07:54:28Z</time>
      </trkpt>
      <trkpt lat="49.26797" lon="1.3209">
        <ele>83.4</ele>
        <time>2018-05-27T07:54:31Z</time>
      </trkpt>
      <trkpt lat="49.26799" lon="1.32076">
        <ele>83.5</ele>
        <time>2018-05-27T07:54:33Z</time>
      </trkpt>
      <trkpt lat="49.26802" lon="1.3206">
        <ele>83.4</ele>
        <time>2018-05-27T07:54:35Z</time>
      </trkpt>
      <trkpt lat="49.26805" lon="1.32044">
        <ele>83.1</ele>
        <time>2018-05-27T07:54:37Z</time>
      </trkpt>
      <trkpt lat="49.26808" lon="1.32027">
        <ele>82.9</ele>
        <time>2018-05-27T07:54:39Z</time>
      </trkpt>
      <trkpt lat="49.26811" lon="1.32008">
        <ele>82.7</ele>
        <time>2018-05-27T07:54:41Z</time>
      </trkpt>
      <trkpt lat="49.26815" lon="1.31989">
        <ele>82.3</ele>
        <time>2018-05-27T07:54:43Z</time>
      </trkpt>
      <trkpt lat="49.26818" lon="1.31968">
        <ele>81.7</ele>
        <time>2018-05-27T07:54:45Z</time>
      </trkpt>
      <trkpt lat="49.26822" lon="1.31948">
        <ele>81.2</ele>
        <time>2018-05-27T07:54:47Z</time>
      </trkpt>
      <trkpt lat="49.26825" lon="1.31928">
        <ele>80.5</ele>
        <time>2018-05-27T07:54:49Z</time>
      </trkpt>
      <trkpt lat="49.2683" lon="1.31909">
        <ele>79.9</ele>
        <time>2018-05-27T07:54:51Z</time>
      </trkpt>
      <trkpt lat="49.26839" lon="1.319">
        <ele>79.5</ele>
        <time>2018-05-27T07:54:53Z</time>
      </trkpt>
      <trkpt lat="49.26851" lon="1.31903">
        <ele>79.3</ele>
        <time>2018-05-27T07:54:56Z</time>
      </trkpt>
      <trkpt lat="49.26861" lon="1.31905">
        <ele>79.8</ele>
        <time>2018-05-27T07:54:59Z</time>
      </trkpt>
      <trkpt lat="49.26871" lon="1.31895">
        <ele>80.3</ele>
        <time>2018-05-27T07:55:02Z</time>
      </trkpt>
      <trkpt lat="49.26875" lon="1.31879">
        <ele>80.5</ele>
        <time>2018-05-27T07:55:04Z</time>
      </trkpt>
      <trkpt lat="49.26878" lon="1.31862">
        <ele>80.4</ele>
        <time>2018-05-27T07:55:06Z</time>
      </trkpt>
      <trkpt lat="49.2688" lon="1.31844">
        <ele>80.3</ele>
        <time>2018-05-27T07:55:08Z</time>
      </trkpt>
      <trkpt lat="49.26883" lon="1.31826">
        <ele>80.2</ele>
        <time>2018-05-27T07:55:10Z</time>
      </trkpt>
      <trkpt lat="49.26885" lon="1.31809">
        <ele>80</ele>
        <time>2018-05-27T07:55:12Z</time>
      </trkpt>
      <trkpt lat="49.26888" lon="1.31791">
        <ele>79.7</ele>
        <time>2018-05-27T07:55:14Z</time>
      </trkpt>
      <trkpt lat="49.26896" lon="1.31783">
        <ele>79.5</ele>
        <time>2018-05-27T07:55:16Z</time>
      </trkpt>
      <trkpt lat="49.26905" lon="1.31787">
        <ele>79.7</ele>
        <time>2018-05-27T07:55:19Z</time>
      </trkpt>
      <trkpt lat="49.26914" lon="1.31792">
        <ele>80.4</ele>
        <time>2018-05-27T07:55:23Z</time>
      </trkpt>
      <trkpt lat="49.26923" lon="1.31786">
        <ele>81.4</ele>
        <time>2018-05-27T07:55:27Z</time>
      </trkpt>
      <trkpt lat="49.26926" lon="1.31771">
        <ele>81.9</ele>
        <time>2018-05-27T07:55:30Z</time>
      </trkpt>
      <trkpt lat="49.26929" lon="1.31751">
        <ele>82.3</ele>
        <time>2018-05-27T07:55:33Z</time>
      </trkpt>
      <trkpt lat="49.26932" lon="1.31736">
        <ele>82.1</ele>
        <time>2018-05-27T07:55:35Z</time>
      </trkpt>
      <trkpt lat="49.26934" lon="1.31721">
        <ele>82</ele>
        <time>2018-05-27T07:55:37Z</time>
      </trkpt>
      <trkpt lat="49.26936" lon="1.31706">
        <ele>81.7</ele>
        <time>2018-05-27T07:55:39Z</time>
      </trkpt>
      <trkpt lat="49.26938" lon="1.31691">
        <ele>81.5</ele>
        <time>2018-05-27T07:55:41Z</time>
      </trkpt>
      <trkpt lat="49.2694" lon="1.31675">
        <ele>81.4</ele>
        <time>2018-05-27T07:55:43Z</time>
      </trkpt>
      <trkpt lat="49.26942" lon="1.3166">
        <ele>81.3</ele>
        <time>2018-05-27T07:55:45Z</time>
      </trkpt>
      <trkpt lat="49.26944" lon="1.31644">
        <ele>81</ele>
        <time>2018-05-27T07:55:47Z</time>
      </trkpt>
      <trkpt lat="49.26954" lon="1.31632">
        <ele>80.8</ele>
        <time>2018-05-27T07:55:50Z</time>
      </trkpt>
      <trkpt lat="49.26963" lon="1.31636">
        <ele>81.1</ele>
        <time>2018-05-27T07:55:53Z</time>
      </trkpt>
      <trkpt lat="49.26973" lon="1.31631">
        <ele>81.9</ele>
        <time>2018-05-27T07:55:57Z</time>
      </trkpt>
      <trkpt lat="49.26976" lon="1.31611">
        <ele>82.1</ele>
        <time>2018-05-27T07:56:00Z</time>
      </trkpt>
      <trkpt lat="49.26978" lon="1.31596">
        <ele>82.4</ele>
        <time>2018-05-27T07:56:02Z</time>
      </trkpt>
      <trkpt lat="49.26981" lon="1.3158">
        <ele>82.3</ele>
        <time>2018-05-27T07:56:04Z</time>
      </trkpt>
      <trkpt lat="49.26983" lon="1.31563">
        <ele>82.1</ele>
        <time>2018-05-27T07:56:06Z</time>
      </trkpt>
      <trkpt lat="49.26984" lon="1.31547">
        <ele>82</ele>
        <time>2018-05-27T07:56:08Z</time>
      </trkpt>
      <trkpt lat="49.26986" lon="1.31531">
        <ele>82</ele>
        <time>2018-05-27T07:56:10Z</time>
      </trkpt>
      <trkpt lat="49.26988" lon="1.31514">
        <ele>81.7</ele>
        <time>2018-05-27T07:56:12Z</time>
      </trkpt>
      <trkpt lat="49.26991" lon="1.31498">
        <ele>81.5</ele>
        <time>2018-05-27T07:56:14Z</time>
      </trkpt>
      <trkpt lat="49.26997" lon="1.31487">
        <ele>81.3</ele>
        <time>2018-05-27T07:56:16Z</time>
      </trkpt>
      <trkpt lat="49.27007" lon="1.31482">
        <ele>81.8</ele>
        <time>2018-05-27T07:56:19Z</time>
      </trkpt>
      <trkpt lat="49.27016" lon="1.31481">
        <ele>82.5</ele>
        <time>2018-05-27T07:56:22Z</time>
      </trkpt>
      <trkpt lat="49.27027" lon="1.31477">
        <ele>84</ele>
        <time>2018-05-27T07:56:26Z</time>
      </trkpt>
      <trkpt lat="49.27034" lon="1.31467">
        <ele>84.7</ele>
        <time>2018-05-27T07:56:29Z</time>
      </trkpt>
      <trkpt lat="49.27038" lon="1.31447">
        <ele>85.3</ele>
        <time>2018-05-27T07:56:32Z</time>
      </trkpt>
      <trkpt lat="49.2704" lon="1.31433">
        <ele>85.6</ele>
        <time>2018-05-27T07:56:34Z</time>
      </trkpt>
      <trkpt lat="49.27042" lon="1.31418">
        <ele>85.6</ele>
        <time>2018-05-27T07:56:36Z</time>
      </trkpt>
      <trkpt lat="49.27044" lon="1.31403">
        <ele>85.5</ele>
        <time>2018-05-27T07:56:38Z</time>
      </trkpt>
      <trkpt lat="49.27046" lon="1.31387">
        <ele>85.5</ele>
        <time>2018-05-27T07:56:40Z</time>
      </trkpt>
      <trkpt lat="49.27048" lon="1.31371">
        <ele>85.3</ele>
        <time>2018-05-27T07:56:42Z</time>
      </trkpt>
      <trkpt lat="49.2705" lon="1.31355">
        <ele>85.2</ele>
        <time>2018-05-27T07:56:44Z</time>
      </trkpt>
      <trkpt lat="49.27052" lon="1.31337">
        <ele>85</ele>
        <time>2018-05-27T07:56:46Z</time>
      </trkpt>
      <trkpt lat="49.27054" lon="1.31321">
        <ele>84.7</ele>
        <time>2018-05-27T07:56:48Z</time>
      </trkpt>
      <trkpt lat="49.27056" lon="1.31304">
        <ele>84.7</ele>
        <time>2018-05-27T07:56:50Z</time>
      </trkpt>
      <trkpt lat="49.27057" lon="1.31286">
        <ele>84.5</ele>
        <time>2018-05-27T07:56:52Z</time>
      </trkpt>
      <trkpt lat="49.27059" lon="1.31268">
        <ele>84.3</ele>
        <time>2018-05-27T07:56:54Z</time>
      </trkpt>
      <trkpt lat="49.27061" lon="1.31251">
        <ele>84.1</ele>
        <time>2018-05-27T07:56:56Z</time>
      </trkpt>
      <trkpt lat="49.27063" lon="1.31233">
        <ele>83.9</ele>
        <time>2018-05-27T07:56:58Z</time>
      </trkpt>
      <trkpt lat="49.27064" lon="1.31216">
        <ele>83.7</ele>
        <time>2018-05-27T07:57:00Z</time>
      </trkpt>
      <trkpt lat="49.27066" lon="1.312">
        <ele>83.7</ele>
        <time>2018-05-27T07:57:02Z</time>
      </trkpt>
      <trkpt lat="49.27067" lon="1.31184">
        <ele>83.7</ele>
        <time>2018-05-27T07:57:04Z</time>
      </trkpt>
      <trkpt lat="49.27069" lon="1.31169">
        <ele>83.8</ele>
        <time>2018-05-27T07:57:06Z</time>
      </trkpt>
      <trkpt lat="49.27071" lon="1.31154">
        <ele>83.7</ele>
        <time>2018-05-27T07:57:08Z</time>
      </trkpt>
      <trkpt lat="49.27073" lon="1.31139">
        <ele>83.7</ele>
        <time>2018-05-27T07:57:10Z</time>
      </trkpt>
      <trkpt lat="49.27075" lon="1.31121">
        <ele>83.7</ele>
        <time>2018-05-27T07:57:12Z</time>
      </trkpt>
      <trkpt lat="49.27077" lon="1.31104">
        <ele>83.8</ele>
        <time>2018-05-27T07:57:14Z</time>
      </trkpt>
      <trkpt lat="49.27079" lon="1.31088">
        <ele>83.7</ele>
        <time>2018-05-27T07:57:16Z</time>
      </trkpt>
      <trkpt lat="49.2708" lon="1.31071">
        <ele>83.6</ele>
        <time>2018-05-27T07:57:18Z</time>
      </trkpt>
      <trkpt lat="49.27082" lon="1.31054">
        <ele>83.6</ele>
        <time>2018-05-27T07:57:20Z</time>
      </trkpt>
      <trkpt lat="49.27084" lon="1.31038">
        <ele>83.7</ele>
        <time>2018-05-27T07:57:22Z</time>
      </trkpt>
      <trkpt lat="49.27085" lon="1.31021">
        <ele>83.9</ele>
        <time>2018-05-27T07:57:24Z</time>
      </trkpt>
      <trkpt lat="49.27087" lon="1.31005">
        <ele>84.2</ele>
        <time>2018-05-27T07:57:26Z</time>
      </trkpt>
      <trkpt lat="49.27091" lon="1.30989">
        <ele>84.3</ele>
        <time>2018-05-27T07:57:28Z</time>
      </trkpt>
      <trkpt lat="49.27097" lon="1.30977">
        <ele>84.5</ele>
        <time>2018-05-27T07:57:30Z</time>
      </trkpt>
      <trkpt lat="49.27103" lon="1.30967">
        <ele>84.9</ele>
        <time>2018-05-27T07:57:32Z</time>
      </trkpt>
      <trkpt lat="49.27112" lon="1.30954">
        <ele>85.6</ele>
        <time>2018-05-27T07:57:35Z</time>
      </trkpt>
      <trkpt lat="49.2712" lon="1.30943">
        <ele>86.4</ele>
        <time>2018-05-27T07:57:38Z</time>
      </trkpt>
      <trkpt lat="49.27126" lon="1.30928">
        <ele>87.1</ele>
        <time>2018-05-27T07:57:41Z</time>
      </trkpt>
      <trkpt lat="49.27128" lon="1.30912">
        <ele>87.7</ele>
        <time>2018-05-27T07:57:44Z</time>
      </trkpt>
      <trkpt lat="49.2713" lon="1.30895">
        <ele>88.3</ele>
        <time>2018-05-27T07:57:47Z</time>
      </trkpt>
      <trkpt lat="49.27132" lon="1.30876">
        <ele>88.8</ele>
        <time>2018-05-27T07:57:50Z</time>
      </trkpt>
      <trkpt lat="49.27132" lon="1.30856">
        <ele>89.2</ele>
        <time>2018-05-27T07:57:53Z</time>
      </trkpt>
      <trkpt lat="49.27132" lon="1.30836">
        <ele>89.6</ele>
        <time>2018-05-27T07:57:56Z</time>
      </trkpt>
      <trkpt lat="49.2713" lon="1.30822">
        <ele>89.5</ele>
        <time>2018-05-27T07:57:58Z</time>
      </trkpt>
      <trkpt lat="49.27128" lon="1.30805">
        <ele>89.5</ele>
        <time>2018-05-27T07:58:00Z</time>
      </trkpt>
      <trkpt lat="49.27125" lon="1.30786">
        <ele>89.3</ele>
        <time>2018-05-27T07:58:02Z</time>
      </trkpt>
      <trkpt lat="49.27124" lon="1.30767">
        <ele>89.1</ele>
        <time>2018-05-27T07:58:04Z</time>
      </trkpt>
      <trkpt lat="49.27123" lon="1.30749">
        <ele>88.8</ele>
        <time>2018-05-27T07:58:06Z</time>
      </trkpt>
      <trkpt lat="49.27123" lon="1.30732">
        <ele>88.7</ele>
        <time>2018-05-27T07:58:08Z</time>
      </trkpt>
      <trkpt lat="49.27123" lon="1.30714">
        <ele>88.6</ele>
        <time>2018-05-27T07:58:10Z</time>
      </trkpt>
      <trkpt lat="49.27122" lon="1.30694">
        <ele>88.4</ele>
        <time>2018-05-27T07:58:12Z</time>
      </trkpt>
      <trkpt lat="49.2712" lon="1.30673">
        <ele>88.2</ele>
        <time>2018-05-27T07:58:14Z</time>
      </trkpt>
      <trkpt lat="49.27118" lon="1.30651">
        <ele>87.6</ele>
        <time>2018-05-27T07:58:16Z</time>
      </trkpt>
      <trkpt lat="49.27116" lon="1.30626">
        <ele>86.7</ele>
        <time>2018-05-27T07:58:18Z</time>
      </trkpt>
      <trkpt lat="49.27115" lon="1.30602">
        <ele>85.9</ele>
        <time>2018-05-27T07:58:20Z</time>
      </trkpt>
      <trkpt lat="49.27114" lon="1.30582">
        <ele>85.1</ele>
        <time>2018-05-27T07:58:22Z</time>
      </trkpt>
      <trkpt lat="49.27121" lon="1.30595">
        <ele>83</ele>
        <time>2018-05-27T07:58:38Z</time>
      </trkpt>
      <trkpt lat="49.27126" lon="1.3061">
        <ele>84.3</ele>
        <time>2018-05-27T07:58:43Z</time>
      </trkpt>
      <trkpt lat="49.27132" lon="1.30623">
        <ele>86</ele>
        <time>2018-05-27T07:58:48Z</time>
      </trkpt>
      <trkpt lat="49.27137" lon="1.30635">
        <ele>87.6</ele>
        <time>2018-05-27T07:58:53Z</time>
      </trkpt>
      <trkpt lat="49.27142" lon="1.30648">
        <ele>89</ele>
        <time>2018-05-27T07:58:58Z</time>
      </trkpt>
      <trkpt lat="49.27146" lon="1.30661">
        <ele>90.4</ele>
        <time>2018-05-27T07:59:03Z</time>
      </trkpt>
      <trkpt lat="49.27148" lon="1.30675">
        <ele>91.9</ele>
        <time>2018-05-27T07:59:08Z</time>
      </trkpt>
      <trkpt lat="49.27151" lon="1.30691">
        <ele>93.7</ele>
        <time>2018-05-27T07:59:14Z</time>
      </trkpt>
      <trkpt lat="49.27153" lon="1.30707">
        <ele>95</ele>
        <time>2018-05-27T07:59:19Z</time>
      </trkpt>
      <trkpt lat="49.27158" lon="1.30721">
        <ele>96.4</ele>
        <time>2018-05-27T07:59:25Z</time>
      </trkpt>
      <trkpt lat="49.27162" lon="1.30734">
        <ele>97.4</ele>
        <time>2018-05-27T07:59:30Z</time>
      </trkpt>
      <trkpt lat="49.27166" lon="1.30748">
        <ele>99</ele>
        <time>2018-05-27T07:59:36Z</time>
      </trkpt>
      <trkpt lat="49.2717" lon="1.30762">
        <ele>100.1</ele>
        <time>2018-05-27T07:59:42Z</time>
      </trkpt>
      <trkpt lat="49.27175" lon="1.30776">
        <ele>101.3</ele>
        <time>2018-05-27T07:59:48Z</time>
      </trkpt>
      <trkpt lat="49.27179" lon="1.30791">
        <ele>102.4</ele>
        <time>2018-05-27T07:59:54Z</time>
      </trkpt>
      <trkpt lat="49.27183" lon="1.30804">
        <ele>103.5</ele>
        <time>2018-05-27T08:00:00Z</time>
      </trkpt>
      <trkpt lat="49.27188" lon="1.30817">
        <ele>104.6</ele>
        <time>2018-05-27T08:00:06Z</time>
      </trkpt>
      <trkpt lat="49.27193" lon="1.3083">
        <ele>105.8</ele>
        <time>2018-05-27T08:00:12Z</time>
      </trkpt>
      <trkpt lat="49.27198" lon="1.30842">
        <ele>107.3</ele>
        <time>2018-05-27T08:00:18Z</time>
      </trkpt>
      <trkpt lat="49.27204" lon="1.30853">
        <ele>108.5</ele>
        <time>2018-05-27T08:00:24Z</time>
      </trkpt>
      <trkpt lat="49.2721" lon="1.30862">
        <ele>109.8</ele>
        <time>2018-05-27T08:00:30Z</time>
      </trkpt>
      <trkpt lat="49.27218" lon="1.30871">
        <ele>111.1</ele>
        <time>2018-05-27T08:00:37Z</time>
      </trkpt>
      <trkpt lat="49.27226" lon="1.30879">
        <ele>112.6</ele>
        <time>2018-05-27T08:00:43Z</time>
      </trkpt>
      <trkpt lat="49.27233" lon="1.30887">
        <ele>113.9</ele>
        <time>2018-05-27T08:00:49Z</time>
      </trkpt>
      <trkpt lat="49.27242" lon="1.30896">
        <ele>115.4</ele>
        <time>2018-05-27T08:00:56Z</time>
      </trkpt>
      <trkpt lat="49.27249" lon="1.30906">
        <ele>116.4</ele>
        <time>2018-05-27T08:01:02Z</time>
      </trkpt>
      <trkpt lat="49.27255" lon="1.30918">
        <ele>117.5</ele>
        <time>2018-05-27T08:01:08Z</time>
      </trkpt>
      <trkpt lat="49.2726" lon="1.30931">
        <ele>118.9</ele>
        <time>2018-05-27T08:01:14Z</time>
      </trkpt>
      <trkpt lat="49.27266" lon="1.30944">
        <ele>119.7</ele>
        <time>2018-05-27T08:01:20Z</time>
      </trkpt>
      <trkpt lat="49.27272" lon="1.30955">
        <ele>120.5</ele>
        <time>2018-05-27T08:01:25Z</time>
      </trkpt>
      <trkpt lat="49.2728" lon="1.30964">
        <ele>121.6</ele>
        <time>2018-05-27T08:01:31Z</time>
      </trkpt>
      <trkpt lat="49.27288" lon="1.30973">
        <ele>122.7</ele>
        <time>2018-05-27T08:01:37Z</time>
      </trkpt>
      <trkpt lat="49.27296" lon="1.30982">
        <ele>123.8</ele>
        <time>2018-05-27T08:01:43Z</time>
      </trkpt>
      <trkpt lat="49.27305" lon="1.30991">
        <ele>125</ele>
        <time>2018-05-27T08:01:49Z</time>
      </trkpt>
      <trkpt lat="49.27313" lon="1.30999">
        <ele>125.9</ele>
        <time>2018-05-27T08:01:55Z</time>
      </trkpt>
      <trkpt lat="49.27321" lon="1.31007">
        <ele>126.9</ele>
        <time>2018-05-27T08:02:00Z</time>
      </trkpt>
      <trkpt lat="49.27331" lon="1.31015">
        <ele>128.2</ele>
        <time>2018-05-27T08:02:06Z</time>
      </trkpt>
      <trkpt lat="49.27339" lon="1.31022">
        <ele>129.1</ele>
        <time>2018-05-27T08:02:11Z</time>
      </trkpt>
      <trkpt lat="49.27347" lon="1.31028">
        <ele>130.2</ele>
        <time>2018-05-27T08:02:16Z</time>
      </trkpt>
      <trkpt lat="49.27356" lon="1.31032">
        <ele>131.1</ele>
        <time>2018-05-27T08:02:21Z</time>
      </trkpt>
      <trkpt lat="49.27367" lon="1.31036">
        <ele>132.5</ele>
        <time>2018-05-27T08:02:29Z</time>
      </trkpt>
      <trkpt lat="49.27376" lon="1.31042">
        <ele>134.1</ele>
        <time>2018-05-27T08:02:35Z</time>
      </trkpt>
      <trkpt lat="49.27385" lon="1.31049">
        <ele>135.3</ele>
        <time>2018-05-27T08:02:40Z</time>
      </trkpt>
      <trkpt lat="49.27395" lon="1.31055">
        <ele>136</ele>
        <time>2018-05-27T08:02:45Z</time>
      </trkpt>
      <trkpt lat="49.27404" lon="1.31061">
        <ele>136.4</ele>
        <time>2018-05-27T08:02:49Z</time>
      </trkpt>
      <trkpt lat="49.27416" lon="1.31068">
        <ele>136.7</ele>
        <time>2018-05-27T08:02:53Z</time>
      </trkpt>
      <trkpt lat="49.27426" lon="1.31074">
        <ele>137.2</ele>
        <time>2018-05-27T08:02:56Z</time>
      </trkpt>
      <trkpt lat="49.27435" lon="1.3108">
        <ele>137.5</ele>
        <time>2018-05-27T08:02:59Z</time>
      </trkpt>
      <trkpt lat="49.27444" lon="1.31084">
        <ele>137.9</ele>
        <time>2018-05-27T08:03:02Z</time>
      </trkpt>
      <trkpt lat="49.27455" lon="1.31091">
        <ele>138.4</ele>
        <time>2018-05-27T08:03:06Z</time>
      </trkpt>
      <trkpt lat="49.27465" lon="1.31097">
        <ele>138.6</ele>
        <time>2018-05-27T08:03:09Z</time>
      </trkpt>
      <trkpt lat="49.27477" lon="1.31103">
        <ele>138.9</ele>
        <time>2018-05-27T08:03:12Z</time>
      </trkpt>
      <trkpt lat="49.27487" lon="1.31109">
        <ele>139.2</ele>
        <time>2018-05-27T08:03:15Z</time>
      </trkpt>
      <trkpt lat="49.27499" lon="1.31115">
        <ele>139.4</ele>
        <time>2018-05-27T08:03:18Z</time>
      </trkpt>
      <trkpt lat="49.27511" lon="1.31121">
        <ele>139.5</ele>
        <time>2018-05-27T08:03:21Z</time>
      </trkpt>
      <trkpt lat="49.27524" lon="1.31128">
        <ele>139.8</ele>
        <time>2018-05-27T08:03:24Z</time>
      </trkpt>
      <trkpt lat="49.27537" lon="1.31133">
        <ele>140</ele>
        <time>2018-05-27T08:03:27Z</time>
      </trkpt>
      <trkpt lat="49.2755" lon="1.31139">
        <ele>140.3</ele>
        <time>2018-05-27T08:03:30Z</time>
      </trkpt>
      <trkpt lat="49.27559" lon="1.31144">
        <ele>140.5</ele>
        <time>2018-05-27T08:03:32Z</time>
      </trkpt>
      <trkpt lat="49.27568" lon="1.31148">
        <ele>140.6</ele>
        <time>2018-05-27T08:03:34Z</time>
      </trkpt>
      <trkpt lat="49.27577" lon="1.31153">
        <ele>140.8</ele>
        <time>2018-05-27T08:03:36Z</time>
      </trkpt>
      <trkpt lat="49.27586" lon="1.31157">
        <ele>141</ele>
        <time>2018-05-27T08:03:38Z</time>
      </trkpt>
      <trkpt lat="49.27595" lon="1.31162">
        <ele>141</ele>
        <time>2018-05-27T08:03:40Z</time>
      </trkpt>
      <trkpt lat="49.27604" lon="1.31166">
        <ele>141</ele>
        <time>2018-05-27T08:03:42Z</time>
      </trkpt>
      <trkpt lat="49.27613" lon="1.3117">
        <ele>141.1</ele>
        <time>2018-05-27T08:03:44Z</time>
      </trkpt>
      <trkpt lat="49.27622" lon="1.31175">
        <ele>141.4</ele>
        <time>2018-05-27T08:03:46Z</time>
      </trkpt>
      <trkpt lat="49.27635" lon="1.31181">
        <ele>141.5</ele>
        <time>2018-05-27T08:03:49Z</time>
      </trkpt>
      <trkpt lat="49.27643" lon="1.31186">
        <ele>141.7</ele>
        <time>2018-05-27T08:03:51Z</time>
      </trkpt>
      <trkpt lat="49.27655" lon="1.31192">
        <ele>141.8</ele>
        <time>2018-05-27T08:03:54Z</time>
      </trkpt>
      <trkpt lat="49.27663" lon="1.31198">
        <ele>142.1</ele>
        <time>2018-05-27T08:03:56Z</time>
      </trkpt>
      <trkpt lat="49.27672" lon="1.31204">
        <ele>142.2</ele>
        <time>2018-05-27T08:03:58Z</time>
      </trkpt>
      <trkpt lat="49.2768" lon="1.31208">
        <ele>142.2</ele>
        <time>2018-05-27T08:04:00Z</time>
      </trkpt>
      <trkpt lat="49.27693" lon="1.31215">
        <ele>142.5</ele>
        <time>2018-05-27T08:04:03Z</time>
      </trkpt>
      <trkpt lat="49.27702" lon="1.3122">
        <ele>142.6</ele>
        <time>2018-05-27T08:04:05Z</time>
      </trkpt>
      <trkpt lat="49.27711" lon="1.31225">
        <ele>142.7</ele>
        <time>2018-05-27T08:04:07Z</time>
      </trkpt>
      <trkpt lat="49.2772" lon="1.3123">
        <ele>142.5</ele>
        <time>2018-05-27T08:04:09Z</time>
      </trkpt>
      <trkpt lat="49.2773" lon="1.31236">
        <ele>142.4</ele>
        <time>2018-05-27T08:04:11Z</time>
      </trkpt>
      <trkpt lat="49.2774" lon="1.31242">
        <ele>142.5</ele>
        <time>2018-05-27T08:04:13Z</time>
      </trkpt>
      <trkpt lat="49.27749" lon="1.31249">
        <ele>142.5</ele>
        <time>2018-05-27T08:04:15Z</time>
      </trkpt>
      <trkpt lat="49.27758" lon="1.31256">
        <ele>142.6</ele>
        <time>2018-05-27T08:04:17Z</time>
      </trkpt>
      <trkpt lat="49.27768" lon="1.31263">
        <ele>142.4</ele>
        <time>2018-05-27T08:04:19Z</time>
      </trkpt>
      <trkpt lat="49.27778" lon="1.31271">
        <ele>142.3</ele>
        <time>2018-05-27T08:04:21Z</time>
      </trkpt>
      <trkpt lat="49.27788" lon="1.31278">
        <ele>142.4</ele>
        <time>2018-05-27T08:04:23Z</time>
      </trkpt>
      <trkpt lat="49.27798" lon="1.31283">
        <ele>142.3</ele>
        <time>2018-05-27T08:04:25Z</time>
      </trkpt>
      <trkpt lat="49.27808" lon="1.31284">
        <ele>142.2</ele>
        <time>2018-05-27T08:04:27Z</time>
      </trkpt>
      <trkpt lat="49.27818" lon="1.3128">
        <ele>142.2</ele>
        <time>2018-05-27T08:04:29Z</time>
      </trkpt>
      <trkpt lat="49.27827" lon="1.31274">
        <ele>142.2</ele>
        <time>2018-05-27T08:04:31Z</time>
      </trkpt>
      <trkpt lat="49.27835" lon="1.31266">
        <ele>142.1</ele>
        <time>2018-05-27T08:04:33Z</time>
      </trkpt>
      <trkpt lat="49.27844" lon="1.31257">
        <ele>142.2</ele>
        <time>2018-05-27T08:04:35Z</time>
      </trkpt>
      <trkpt lat="49.27853" lon="1.31248">
        <ele>142.3</ele>
        <time>2018-05-27T08:04:37Z</time>
      </trkpt>
      <trkpt lat="49.27863" lon="1.3124">
        <ele>142.3</ele>
        <time>2018-05-27T08:04:39Z</time>
      </trkpt>
      <trkpt lat="49.27873" lon="1.3123">
        <ele>142.1</ele>
        <time>2018-05-27T08:04:41Z</time>
      </trkpt>
      <trkpt lat="49.27884" lon="1.3122">
        <ele>141.8</ele>
        <time>2018-05-27T08:04:43Z</time>
      </trkpt>
      <trkpt lat="49.27894" lon="1.3121">
        <ele>141.4</ele>
        <time>2018-05-27T08:04:45Z</time>
      </trkpt>
      <trkpt lat="49.27905" lon="1.312">
        <ele>140.9</ele>
        <time>2018-05-27T08:04:47Z</time>
      </trkpt>
      <trkpt lat="49.27916" lon="1.3119">
        <ele>140.6</ele>
        <time>2018-05-27T08:04:49Z</time>
      </trkpt>
      <trkpt lat="49.27927" lon="1.3118">
        <ele>140.1</ele>
        <time>2018-05-27T08:04:51Z</time>
      </trkpt>
      <trkpt lat="49.27939" lon="1.31169">
        <ele>139.8</ele>
        <time>2018-05-27T08:04:53Z</time>
      </trkpt>
      <trkpt lat="49.27951" lon="1.31158">
        <ele>139.6</ele>
        <time>2018-05-27T08:04:55Z</time>
      </trkpt>
      <trkpt lat="49.27962" lon="1.31148">
        <ele>139</ele>
        <time>2018-05-27T08:04:57Z</time>
      </trkpt>
      <trkpt lat="49.27973" lon="1.31138">
        <ele>138.5</ele>
        <time>2018-05-27T08:04:59Z</time>
      </trkpt>
      <trkpt lat="49.27985" lon="1.31126">
        <ele>137.8</ele>
        <time>2018-05-27T08:05:01Z</time>
      </trkpt>
      <trkpt lat="49.27998" lon="1.31115">
        <ele>137.1</ele>
        <time>2018-05-27T08:05:03Z</time>
      </trkpt>
      <trkpt lat="49.28012" lon="1.31104">
        <ele>136.2</ele>
        <time>2018-05-27T08:05:05Z</time>
      </trkpt>
      <trkpt lat="49.28026" lon="1.31094">
        <ele>134.8</ele>
        <time>2018-05-27T08:05:07Z</time>
      </trkpt>
      <trkpt lat="49.28038" lon="1.31086">
        <ele>133.7</ele>
        <time>2018-05-27T08:05:09Z</time>
      </trkpt>
      <trkpt lat="49.28049" lon="1.31081">
        <ele>132.7</ele>
        <time>2018-05-27T08:05:11Z</time>
      </trkpt>
      <trkpt lat="49.2806" lon="1.31078">
        <ele>131.7</ele>
        <time>2018-05-27T08:05:13Z</time>
      </trkpt>
      <trkpt lat="49.28069" lon="1.31078">
        <ele>130.7</ele>
        <time>2018-05-27T08:05:15Z</time>
      </trkpt>
      <trkpt lat="49.2808" lon="1.31079">
        <ele>129.1</ele>
        <time>2018-05-27T08:05:18Z</time>
      </trkpt>
      <trkpt lat="49.2809" lon="1.31078">
        <ele>126.1</ele>
        <time>2018-05-27T08:05:24Z</time>
      </trkpt>
      <trkpt lat="49.281" lon="1.31077">
        <ele>124.7</ele>
        <time>2018-05-27T08:05:28Z</time>
      </trkpt>
      <trkpt lat="49.28109" lon="1.31074">
        <ele>124.2</ele>
        <time>2018-05-27T08:05:30Z</time>
      </trkpt>
      <trkpt lat="49.28118" lon="1.31069">
        <ele>123.3</ele>
        <time>2018-05-27T08:05:32Z</time>
      </trkpt>
      <trkpt lat="49.28127" lon="1.31063">
        <ele>122.4</ele>
        <time>2018-05-27T08:05:34Z</time>
      </trkpt>
      <trkpt lat="49.28137" lon="1.31057">
        <ele>121.9</ele>
        <time>2018-05-27T08:05:36Z</time>
      </trkpt>
      <trkpt lat="49.28148" lon="1.31049">
        <ele>121.1</ele>
        <time>2018-05-27T08:05:38Z</time>
      </trkpt>
      <trkpt lat="49.2816" lon="1.31042">
        <ele>120.6</ele>
        <time>2018-05-27T08:05:40Z</time>
      </trkpt>
      <trkpt lat="49.28174" lon="1.31034">
        <ele>119.8</ele>
        <time>2018-05-27T08:05:42Z</time>
      </trkpt>
      <trkpt lat="49.28189" lon="1.31027">
        <ele>119.1</ele>
        <time>2018-05-27T08:05:44Z</time>
      </trkpt>
      <trkpt lat="49.28204" lon="1.3102">
        <ele>118.5</ele>
        <time>2018-05-27T08:05:46Z</time>
      </trkpt>
      <trkpt lat="49.28217" lon="1.31011">
        <ele>117.8</ele>
        <time>2018-05-27T08:05:48Z</time>
      </trkpt>
      <trkpt lat="49.28229" lon="1.31002">
        <ele>117.1</ele>
        <time>2018-05-27T08:05:50Z</time>
      </trkpt>
      <trkpt lat="49.2824" lon="1.30994">
        <ele>116.8</ele>
        <time>2018-05-27T08:05:52Z</time>
      </trkpt>
      <trkpt lat="49.2825" lon="1.30987">
        <ele>116.8</ele>
        <time>2018-05-27T08:05:54Z</time>
      </trkpt>
      <trkpt lat="49.28259" lon="1.3098">
        <ele>116.5</ele>
        <time>2018-05-27T08:05:56Z</time>
      </trkpt>
      <trkpt lat="49.28268" lon="1.30973">
        <ele>116.6</ele>
        <time>2018-05-27T08:05:58Z</time>
      </trkpt>
      <trkpt lat="49.28277" lon="1.30966">
        <ele>116.6</ele>
        <time>2018-05-27T08:06:00Z</time>
      </trkpt>
      <trkpt lat="49.28287" lon="1.30962">
        <ele>116.8</ele>
        <time>2018-05-27T08:06:02Z</time>
      </trkpt>
      <trkpt lat="49.28297" lon="1.3096">
        <ele>116.9</ele>
        <time>2018-05-27T08:06:04Z</time>
      </trkpt>
      <trkpt lat="49.28307" lon="1.30959">
        <ele>117.2</ele>
        <time>2018-05-27T08:06:06Z</time>
      </trkpt>
      <trkpt lat="49.28316" lon="1.30958">
        <ele>117.6</ele>
        <time>2018-05-27T08:06:08Z</time>
      </trkpt>
      <trkpt lat="49.28328" lon="1.30954">
        <ele>118.3</ele>
        <time>2018-05-27T08:06:11Z</time>
      </trkpt>
      <trkpt lat="49.28338" lon="1.30949">
        <ele>119.2</ele>
        <time>2018-05-27T08:06:14Z</time>
      </trkpt>
      <trkpt lat="49.28347" lon="1.30945">
        <ele>120.3</ele>
        <time>2018-05-27T08:06:17Z</time>
      </trkpt>
      <trkpt lat="49.28359" lon="1.30943">
        <ele>121.9</ele>
        <time>2018-05-27T08:06:21Z</time>
      </trkpt>
      <trkpt lat="49.2837" lon="1.30946">
        <ele>123.4</ele>
        <time>2018-05-27T08:06:25Z</time>
      </trkpt>
      <trkpt lat="49.2838" lon="1.30954">
        <ele>124.6</ele>
        <time>2018-05-27T08:06:29Z</time>
      </trkpt>
      <trkpt lat="49.2839" lon="1.30963">
        <ele>125.8</ele>
        <time>2018-05-27T08:06:33Z</time>
      </trkpt>
      <trkpt lat="49.28398" lon="1.30972">
        <ele>126.9</ele>
        <time>2018-05-27T08:06:37Z</time>
      </trkpt>
      <trkpt lat="49.28406" lon="1.30982">
        <ele>127.8</ele>
        <time>2018-05-27T08:06:41Z</time>
      </trkpt>
      <trkpt lat="49.28412" lon="1.30994">
        <ele>128.6</ele>
        <time>2018-05-27T08:06:45Z</time>
      </trkpt>
      <trkpt lat="49.28422" lon="1.30994">
        <ele>129.3</ele>
        <time>2018-05-27T08:06:49Z</time>
      </trkpt>
      <trkpt lat="49.28429" lon="1.30978">
        <ele>129.3</ele>
        <time>2018-05-27T08:06:52Z</time>
      </trkpt>
      <trkpt lat="49.28437" lon="1.30964">
        <ele>128.8</ele>
        <time>2018-05-27T08:06:54Z</time>
      </trkpt>
      <trkpt lat="49.28449" lon="1.30957">
        <ele>128.2</ele>
        <time>2018-05-27T08:06:56Z</time>
      </trkpt>
      <trkpt lat="49.28456" lon="1.30949">
        <ele>127.6</ele>
        <time>2018-05-27T08:06:58Z</time>
      </trkpt>
      <trkpt lat="49.28464" lon="1.3094">
        <ele>127.8</ele>
        <time>2018-05-27T08:07:01Z</time>
      </trkpt>
      <trkpt lat="49.28472" lon="1.3093">
        <ele>128.5</ele>
        <time>2018-05-27T08:07:05Z</time>
      </trkpt>
      <trkpt lat="49.28478" lon="1.30917">
        <ele>129.4</ele>
        <time>2018-05-27T08:07:09Z</time>
      </trkpt>
      <trkpt lat="49.28483" lon="1.30902">
        <ele>130.3</ele>
        <time>2018-05-27T08:07:13Z</time>
      </trkpt>
      <trkpt lat="49.28489" lon="1.30885">
        <ele>131.1</ele>
        <time>2018-05-27T08:07:17Z</time>
      </trkpt>
      <trkpt lat="49.28491" lon="1.30871">
        <ele>131.7</ele>
        <time>2018-05-27T08:07:20Z</time>
      </trkpt>
      <trkpt lat="49.28485" lon="1.30857">
        <ele>132</ele>
        <time>2018-05-27T08:07:23Z</time>
      </trkpt>
      <trkpt lat="49.28479" lon="1.3084">
        <ele>132</ele>
        <time>2018-05-27T08:07:26Z</time>
      </trkpt>
      <trkpt lat="49.28475" lon="1.30826">
        <ele>132</ele>
        <time>2018-05-27T08:07:28Z</time>
      </trkpt>
      <trkpt lat="49.28472" lon="1.30812">
        <ele>132</ele>
        <time>2018-05-27T08:07:30Z</time>
      </trkpt>
      <trkpt lat="49.28468" lon="1.30798">
        <ele>131.8</ele>
        <time>2018-05-27T08:07:32Z</time>
      </trkpt>
      <trkpt lat="49.28464" lon="1.30782">
        <ele>131.7</ele>
        <time>2018-05-27T08:07:34Z</time>
      </trkpt>
      <trkpt lat="49.28461" lon="1.30766">
        <ele>131.7</ele>
        <time>2018-05-27T08:07:36Z</time>
      </trkpt>
      <trkpt lat="49.28458" lon="1.3075">
        <ele>131.8</ele>
        <time>2018-05-27T08:07:38Z</time>
      </trkpt>
      <trkpt lat="49.28457" lon="1.30735">
        <ele>131.8</ele>
        <time>2018-05-27T08:07:40Z</time>
      </trkpt>
      <trkpt lat="49.28454" lon="1.3072">
        <ele>131.8</ele>
        <time>2018-05-27T08:07:42Z</time>
      </trkpt>
      <trkpt lat="49.28451" lon="1.30706">
        <ele>131.8</ele>
        <time>2018-05-27T08:07:44Z</time>
      </trkpt>
      <trkpt lat="49.28447" lon="1.30694">
        <ele>131.8</ele>
        <time>2018-05-27T08:07:46Z</time>
      </trkpt>
      <trkpt lat="49.28437" lon="1.30682">
        <ele>131.7</ele>
        <time>2018-05-27T08:07:49Z</time>
      </trkpt>
      <trkpt lat="49.28429" lon="1.30675">
        <ele>131.8</ele>
        <time>2018-05-27T08:07:51Z</time>
      </trkpt>
      <trkpt lat="49.28419" lon="1.30674">
        <ele>131.7</ele>
        <time>2018-05-27T08:07:53Z</time>
      </trkpt>
      <trkpt lat="49.28407" lon="1.30673">
        <ele>131.2</ele>
        <time>2018-05-27T08:07:56Z</time>
      </trkpt>
      <trkpt lat="49.28398" lon="1.30667">
        <ele>130.3</ele>
        <time>2018-05-27T08:07:58Z</time>
      </trkpt>
      <trkpt lat="49.28387" lon="1.30661">
        <ele>129.5</ele>
        <time>2018-05-27T08:08:00Z</time>
      </trkpt>
      <trkpt lat="49.28377" lon="1.30654">
        <ele>128.6</ele>
        <time>2018-05-27T08:08:02Z</time>
      </trkpt>
      <trkpt lat="49.28368" lon="1.30644">
        <ele>127.7</ele>
        <time>2018-05-27T08:08:04Z</time>
      </trkpt>
      <trkpt lat="49.28361" lon="1.30632">
        <ele>126.3</ele>
        <time>2018-05-27T08:08:06Z</time>
      </trkpt>
      <trkpt lat="49.28356" lon="1.30617">
        <ele>125.2</ele>
        <time>2018-05-27T08:08:08Z</time>
      </trkpt>
      <trkpt lat="49.28349" lon="1.30603">
        <ele>124</ele>
        <time>2018-05-27T08:08:10Z</time>
      </trkpt>
      <trkpt lat="49.28341" lon="1.30595">
        <ele>123.4</ele>
        <time>2018-05-27T08:08:12Z</time>
      </trkpt>
      <trkpt lat="49.28333" lon="1.30587">
        <ele>123.1</ele>
        <time>2018-05-27T08:08:14Z</time>
      </trkpt>
      <trkpt lat="49.28321" lon="1.30577">
        <ele>123</ele>
        <time>2018-05-27T08:08:17Z</time>
      </trkpt>
      <trkpt lat="49.2831" lon="1.30566">
        <ele>123</ele>
        <time>2018-05-27T08:08:20Z</time>
      </trkpt>
      <trkpt lat="49.28301" lon="1.30556">
        <ele>123.4</ele>
        <time>2018-05-27T08:08:23Z</time>
      </trkpt>
      <trkpt lat="49.28292" lon="1.30547">
        <ele>123.9</ele>
        <time>2018-05-27T08:08:26Z</time>
      </trkpt>
      <trkpt lat="49.28283" lon="1.30537">
        <ele>124.5</ele>
        <time>2018-05-27T08:08:30Z</time>
      </trkpt>
      <trkpt lat="49.28276" lon="1.30527">
        <ele>124.9</ele>
        <time>2018-05-27T08:08:34Z</time>
      </trkpt>
      <trkpt lat="49.28267" lon="1.30516">
        <ele>125.6</ele>
        <time>2018-05-27T08:08:39Z</time>
      </trkpt>
      <trkpt lat="49.2826" lon="1.30507">
        <ele>126.3</ele>
        <time>2018-05-27T08:08:43Z</time>
      </trkpt>
      <trkpt lat="49.28253" lon="1.30498">
        <ele>127.1</ele>
        <time>2018-05-27T08:08:47Z</time>
      </trkpt>
      <trkpt lat="49.28246" lon="1.30488">
        <ele>127.6</ele>
        <time>2018-05-27T08:08:51Z</time>
      </trkpt>
      <trkpt lat="49.28239" lon="1.30479">
        <ele>128.3</ele>
        <time>2018-05-27T08:08:55Z</time>
      </trkpt>
      <trkpt lat="49.28232" lon="1.30469">
        <ele>129.3</ele>
        <time>2018-05-27T08:09:00Z</time>
      </trkpt>
      <trkpt lat="49.28223" lon="1.30458">
        <ele>130.1</ele>
        <time>2018-05-27T08:09:05Z</time>
      </trkpt>
      <trkpt lat="49.28215" lon="1.30446">
        <ele>130.9</ele>
        <time>2018-05-27T08:09:10Z</time>
      </trkpt>
      <trkpt lat="49.28208" lon="1.30437">
        <ele>132</ele>
        <time>2018-05-27T08:09:15Z</time>
      </trkpt>
      <trkpt lat="49.28201" lon="1.30427">
        <ele>133</ele>
        <time>2018-05-27T08:09:20Z</time>
      </trkpt>
      <trkpt lat="49.28193" lon="1.30416">
        <ele>134</ele>
        <time>2018-05-27T08:09:26Z</time>
      </trkpt>
      <trkpt lat="49.28185" lon="1.30405">
        <ele>135</ele>
        <time>2018-05-27T08:09:32Z</time>
      </trkpt>
      <trkpt lat="49.28178" lon="1.30395">
        <ele>135.5</ele>
        <time>2018-05-27T08:09:36Z</time>
      </trkpt>
      <trkpt lat="49.28171" lon="1.30385">
        <ele>136.3</ele>
        <time>2018-05-27T08:09:41Z</time>
      </trkpt>
      <trkpt lat="49.28162" lon="1.30375">
        <ele>137.1</ele>
        <time>2018-05-27T08:09:46Z</time>
      </trkpt>
      <trkpt lat="49.28155" lon="1.30365">
        <ele>137.6</ele>
        <time>2018-05-27T08:09:50Z</time>
      </trkpt>
      <trkpt lat="49.28148" lon="1.30355">
        <ele>138.1</ele>
        <time>2018-05-27T08:09:54Z</time>
      </trkpt>
      <trkpt lat="49.2814" lon="1.30346">
        <ele>138.7</ele>
        <time>2018-05-27T08:09:58Z</time>
      </trkpt>
      <trkpt lat="49.28131" lon="1.30336">
        <ele>138.8</ele>
        <time>2018-05-27T08:10:02Z</time>
      </trkpt>
      <trkpt lat="49.28122" lon="1.30326">
        <ele>139.2</ele>
        <time>2018-05-27T08:10:06Z</time>
      </trkpt>
      <trkpt lat="49.28113" lon="1.30315">
        <ele>139.4</ele>
        <time>2018-05-27T08:10:10Z</time>
      </trkpt>
      <trkpt lat="49.28106" lon="1.30306">
        <ele>139.8</ele>
        <time>2018-05-27T08:10:13Z</time>
      </trkpt>
      <trkpt lat="49.28097" lon="1.30297">
        <ele>140.2</ele>
        <time>2018-05-27T08:10:17Z</time>
      </trkpt>
      <trkpt lat="49.28088" lon="1.30285">
        <ele>140.4</ele>
        <time>2018-05-27T08:10:21Z</time>
      </trkpt>
      <trkpt lat="49.2808" lon="1.30275">
        <ele>140.6</ele>
        <time>2018-05-27T08:10:24Z</time>
      </trkpt>
      <trkpt lat="49.28072" lon="1.30265">
        <ele>140.7</ele>
        <time>2018-05-27T08:10:27Z</time>
      </trkpt>
      <trkpt lat="49.28065" lon="1.30255">
        <ele>140.9</ele>
        <time>2018-05-27T08:10:30Z</time>
      </trkpt>
      <trkpt lat="49.28057" lon="1.30245">
        <ele>140.9</ele>
        <time>2018-05-27T08:10:33Z</time>
      </trkpt>
      <trkpt lat="49.28049" lon="1.30235">
        <ele>141</ele>
        <time>2018-05-27T08:10:36Z</time>
      </trkpt>
      <trkpt lat="49.2804" lon="1.30224">
        <ele>141.1</ele>
        <time>2018-05-27T08:10:39Z</time>
      </trkpt>
      <trkpt lat="49.28032" lon="1.30213">
        <ele>141.1</ele>
        <time>2018-05-27T08:10:42Z</time>
      </trkpt>
      <trkpt lat="49.28023" lon="1.30204">
        <ele>141.4</ele>
        <time>2018-05-27T08:10:45Z</time>
      </trkpt>
      <trkpt lat="49.28015" lon="1.30192">
        <ele>141.6</ele>
        <time>2018-05-27T08:10:49Z</time>
      </trkpt>
      <trkpt lat="49.28006" lon="1.30181">
        <ele>141.5</ele>
        <time>2018-05-27T08:10:52Z</time>
      </trkpt>
      <trkpt lat="49.27997" lon="1.30169">
        <ele>141.6</ele>
        <time>2018-05-27T08:10:55Z</time>
      </trkpt>
      <trkpt lat="49.27988" lon="1.30157">
        <ele>141.8</ele>
        <time>2018-05-27T08:10:58Z</time>
      </trkpt>
      <trkpt lat="49.27978" lon="1.30144">
        <ele>142</ele>
        <time>2018-05-27T08:11:01Z</time>
      </trkpt>
      <trkpt lat="49.27967" lon="1.30132">
        <ele>142</ele>
        <time>2018-05-27T08:11:04Z</time>
      </trkpt>
      <trkpt lat="49.27957" lon="1.30121">
        <ele>142.1</ele>
        <time>2018-05-27T08:11:07Z</time>
      </trkpt>
      <trkpt lat="49.27946" lon="1.30111">
        <ele>142.1</ele>
        <time>2018-05-27T08:11:10Z</time>
      </trkpt>
      <trkpt lat="49.27934" lon="1.30101">
        <ele>142.3</ele>
        <time>2018-05-27T08:11:13Z</time>
      </trkpt>
      <trkpt lat="49.27923" lon="1.30093">
        <ele>142.4</ele>
        <time>2018-05-27T08:11:16Z</time>
      </trkpt>
      <trkpt lat="49.27912" lon="1.30085">
        <ele>142.7</ele>
        <time>2018-05-27T08:11:19Z</time>
      </trkpt>
      <trkpt lat="49.279" lon="1.30077">
        <ele>142.9</ele>
        <time>2018-05-27T08:11:22Z</time>
      </trkpt>
      <trkpt lat="49.27889" lon="1.3007">
        <ele>143.1</ele>
        <time>2018-05-27T08:11:25Z</time>
      </trkpt>
      <trkpt lat="49.27878" lon="1.30063">
        <ele>143.5</ele>
        <time>2018-05-27T08:11:28Z</time>
      </trkpt>
      <trkpt lat="49.27868" lon="1.30055">
        <ele>144.1</ele>
        <time>2018-05-27T08:11:31Z</time>
      </trkpt>
      <trkpt lat="49.27857" lon="1.30047">
        <ele>144.5</ele>
        <time>2018-05-27T08:11:34Z</time>
      </trkpt>
      <trkpt lat="49.27845" lon="1.30039">
        <ele>144.4</ele>
        <time>2018-05-27T08:11:37Z</time>
      </trkpt>
      <trkpt lat="49.27833" lon="1.30031">
        <ele>144.7</ele>
        <time>2018-05-27T08:11:40Z</time>
      </trkpt>
      <trkpt lat="49.27821" lon="1.30023">
        <ele>144.8</ele>
        <time>2018-05-27T08:11:43Z</time>
      </trkpt>
      <trkpt lat="49.27813" lon="1.30017">
        <ele>145</ele>
        <time>2018-05-27T08:11:45Z</time>
      </trkpt>
      <trkpt lat="49.27805" lon="1.30011">
        <ele>145</ele>
        <time>2018-05-27T08:11:47Z</time>
      </trkpt>
      <trkpt lat="49.27796" lon="1.30004">
        <ele>144.9</ele>
        <time>2018-05-27T08:11:49Z</time>
      </trkpt>
      <trkpt lat="49.27788" lon="1.29996">
        <ele>144.9</ele>
        <time>2018-05-27T08:11:51Z</time>
      </trkpt>
      <trkpt lat="49.27779" lon="1.2999">
        <ele>144.7</ele>
        <time>2018-05-27T08:11:53Z</time>
      </trkpt>
      <trkpt lat="49.2777" lon="1.29985">
        <ele>144.6</ele>
        <time>2018-05-27T08:11:55Z</time>
      </trkpt>
      <trkpt lat="49.27761" lon="1.29981">
        <ele>144.2</ele>
        <time>2018-05-27T08:11:57Z</time>
      </trkpt>
      <trkpt lat="49.27752" lon="1.29974">
        <ele>143.9</ele>
        <time>2018-05-27T08:11:59Z</time>
      </trkpt>
      <trkpt lat="49.27742" lon="1.29968">
        <ele>143.6</ele>
        <time>2018-05-27T08:12:01Z</time>
      </trkpt>
      <trkpt lat="49.27732" lon="1.29961">
        <ele>143.2</ele>
        <time>2018-05-27T08:12:03Z</time>
      </trkpt>
      <trkpt lat="49.2772" lon="1.29954">
        <ele>142.7</ele>
        <time>2018-05-27T08:12:05Z</time>
      </trkpt>
      <trkpt lat="49.27709" lon="1.29948">
        <ele>142.5</ele>
        <time>2018-05-27T08:12:07Z</time>
      </trkpt>
      <trkpt lat="49.27697" lon="1.29944">
        <ele>142.2</ele>
        <time>2018-05-27T08:12:09Z</time>
      </trkpt>
      <trkpt lat="49.27686" lon="1.29939">
        <ele>142.2</ele>
        <time>2018-05-27T08:12:11Z</time>
      </trkpt>
      <trkpt lat="49.27674" lon="1.29934">
        <ele>142.1</ele>
        <time>2018-05-27T08:12:13Z</time>
      </trkpt>
      <trkpt lat="49.27663" lon="1.2993">
        <ele>141.9</ele>
        <time>2018-05-27T08:12:15Z</time>
      </trkpt>
      <trkpt lat="49.2765" lon="1.29928">
        <ele>141.6</ele>
        <time>2018-05-27T08:12:17Z</time>
      </trkpt>
      <trkpt lat="49.27637" lon="1.29928">
        <ele>140.8</ele>
        <time>2018-05-27T08:12:19Z</time>
      </trkpt>
      <trkpt lat="49.27624" lon="1.29928">
        <ele>140.6</ele>
        <time>2018-05-27T08:12:21Z</time>
      </trkpt>
      <trkpt lat="49.27612" lon="1.29928">
        <ele>140.3</ele>
        <time>2018-05-27T08:12:23Z</time>
      </trkpt>
      <trkpt lat="49.27599" lon="1.29929">
        <ele>139.9</ele>
        <time>2018-05-27T08:12:25Z</time>
      </trkpt>
      <trkpt lat="49.27585" lon="1.29928">
        <ele>139.6</ele>
        <time>2018-05-27T08:12:27Z</time>
      </trkpt>
      <trkpt lat="49.27571" lon="1.29929">
        <ele>139.2</ele>
        <time>2018-05-27T08:12:29Z</time>
      </trkpt>
      <trkpt lat="49.27558" lon="1.29931">
        <ele>138.9</ele>
        <time>2018-05-27T08:12:31Z</time>
      </trkpt>
      <trkpt lat="49.27548" lon="1.29933">
        <ele>138.3</ele>
        <time>2018-05-27T08:12:33Z</time>
      </trkpt>
      <trkpt lat="49.27536" lon="1.29937">
        <ele>137.6</ele>
        <time>2018-05-27T08:12:36Z</time>
      </trkpt>
      <trkpt lat="49.27524" lon="1.29939">
        <ele>137.2</ele>
        <time>2018-05-27T08:12:39Z</time>
      </trkpt>
      <trkpt lat="49.27514" lon="1.29943">
        <ele>137.1</ele>
        <time>2018-05-27T08:12:41Z</time>
      </trkpt>
      <trkpt lat="49.27503" lon="1.29947">
        <ele>136.6</ele>
        <time>2018-05-27T08:12:43Z</time>
      </trkpt>
      <trkpt lat="49.27492" lon="1.29951">
        <ele>136.4</ele>
        <time>2018-05-27T08:12:45Z</time>
      </trkpt>
      <trkpt lat="49.2748" lon="1.29955">
        <ele>135.9</ele>
        <time>2018-05-27T08:12:47Z</time>
      </trkpt>
      <trkpt lat="49.27467" lon="1.29959">
        <ele>135.6</ele>
        <time>2018-05-27T08:12:49Z</time>
      </trkpt>
      <trkpt lat="49.27454" lon="1.29963">
        <ele>135.3</ele>
        <time>2018-05-27T08:12:51Z</time>
      </trkpt>
      <trkpt lat="49.27442" lon="1.29968">
        <ele>134.9</ele>
        <time>2018-05-27T08:12:53Z</time>
      </trkpt>
      <trkpt lat="49.27429" lon="1.29975">
        <ele>134.3</ele>
        <time>2018-05-27T08:12:55Z</time>
      </trkpt>
      <trkpt lat="49.27417" lon="1.29984">
        <ele>133.5</ele>
        <time>2018-05-27T08:12:57Z</time>
      </trkpt>
      <trkpt lat="49.27405" lon="1.29993">
        <ele>132.5</ele>
        <time>2018-05-27T08:12:59Z</time>
      </trkpt>
      <trkpt lat="49.27391" lon="1.3">
        <ele>131.9</ele>
        <time>2018-05-27T08:13:01Z</time>
      </trkpt>
      <trkpt lat="49.27377" lon="1.30002">
        <ele>130.9</ele>
        <time>2018-05-27T08:13:03Z</time>
      </trkpt>
      <trkpt lat="49.27362" lon="1.30004">
        <ele>129.8</ele>
        <time>2018-05-27T08:13:05Z</time>
      </trkpt>
      <trkpt lat="49.27347" lon="1.30006">
        <ele>128.6</ele>
        <time>2018-05-27T08:13:07Z</time>
      </trkpt>
      <trkpt lat="49.27332" lon="1.30009">
        <ele>127.1</ele>
        <time>2018-05-27T08:13:09Z</time>
      </trkpt>
      <trkpt lat="49.27316" lon="1.30011">
        <ele>125.6</ele>
        <time>2018-05-27T08:13:11Z</time>
      </trkpt>
      <trkpt lat="49.273" lon="1.30011">
        <ele>123.9</ele>
        <time>2018-05-27T08:13:13Z</time>
      </trkpt>
      <trkpt lat="49.27284" lon="1.30013">
        <ele>121.9</ele>
        <time>2018-05-27T08:13:15Z</time>
      </trkpt>
      <trkpt lat="49.27268" lon="1.30016">
        <ele>119.5</ele>
        <time>2018-05-27T08:13:17Z</time>
      </trkpt>
      <trkpt lat="49.27252" lon="1.3002">
        <ele>117.3</ele>
        <time>2018-05-27T08:13:19Z</time>
      </trkpt>
      <trkpt lat="49.27236" lon="1.30023">
        <ele>114.8</ele>
        <time>2018-05-27T08:13:21Z</time>
      </trkpt>
      <trkpt lat="49.27221" lon="1.30029">
        <ele>112.3</ele>
        <time>2018-05-27T08:13:23Z</time>
      </trkpt>
      <trkpt lat="49.27208" lon="1.30035">
        <ele>109.7</ele>
        <time>2018-05-27T08:13:25Z</time>
      </trkpt>
      <trkpt lat="49.27196" lon="1.30041">
        <ele>107.3</ele>
        <time>2018-05-27T08:13:27Z</time>
      </trkpt>
      <trkpt lat="49.27184" lon="1.30046">
        <ele>105</ele>
        <time>2018-05-27T08:13:29Z</time>
      </trkpt>
      <trkpt lat="49.27173" lon="1.30057">
        <ele>103.4</ele>
        <time>2018-05-27T08:13:31Z</time>
      </trkpt>
      <trkpt lat="49.27166" lon="1.30046">
        <ele>100.7</ele>
        <time>2018-05-27T08:13:35Z</time>
      </trkpt>
      <trkpt lat="49.27165" lon="1.30031">
        <ele>99.1</ele>
        <time>2018-05-27T08:13:37Z</time>
      </trkpt>
      <trkpt lat="49.27157" lon="1.3002">
        <ele>97.3</ele>
        <time>2018-05-27T08:13:39Z</time>
      </trkpt>
      <trkpt lat="49.27146" lon="1.30014">
        <ele>94.5</ele>
        <time>2018-05-27T08:13:42Z</time>
      </trkpt>
      <trkpt lat="49.27133" lon="1.30018">
        <ele>91.6</ele>
        <time>2018-05-27T08:13:45Z</time>
      </trkpt>
      <trkpt lat="49.27123" lon="1.30024">
        <ele>90.1</ele>
        <time>2018-05-27T08:13:47Z</time>
      </trkpt>
      <trkpt lat="49.27114" lon="1.30031">
        <ele>88.5</ele>
        <time>2018-05-27T08:13:49Z</time>
      </trkpt>
      <trkpt lat="49.27104" lon="1.30036">
        <ele>86.8</ele>
        <time>2018-05-27T08:13:51Z</time>
      </trkpt>
      <trkpt lat="49.27094" lon="1.30039">
        <ele>85.2</ele>
        <time>2018-05-27T08:13:53Z</time>
      </trkpt>
      <trkpt lat="49.27083" lon="1.30041">
        <ele>83.8</ele>
        <time>2018-05-27T08:13:55Z</time>
      </trkpt>
      <trkpt lat="49.27072" lon="1.3004">
        <ele>81.8</ele>
        <time>2018-05-27T08:13:57Z</time>
      </trkpt>
      <trkpt lat="49.2706" lon="1.30039">
        <ele>79.9</ele>
        <time>2018-05-27T08:13:59Z</time>
      </trkpt>
      <trkpt lat="49.27046" lon="1.30037">
        <ele>78.3</ele>
        <time>2018-05-27T08:14:01Z</time>
      </trkpt>
      <trkpt lat="49.27031" lon="1.30037">
        <ele>76.9</ele>
        <time>2018-05-27T08:14:03Z</time>
      </trkpt>
      <trkpt lat="49.27017" lon="1.30036">
        <ele>75.2</ele>
        <time>2018-05-27T08:14:05Z</time>
      </trkpt>
      <trkpt lat="49.27004" lon="1.30039">
        <ele>73.2</ele>
        <time>2018-05-27T08:14:07Z</time>
      </trkpt>
      <trkpt lat="49.26993" lon="1.3004">
        <ele>71.3</ele>
        <time>2018-05-27T08:14:09Z</time>
      </trkpt>
      <trkpt lat="49.26982" lon="1.30043">
        <ele>70.1</ele>
        <time>2018-05-27T08:14:11Z</time>
      </trkpt>
      <trkpt lat="49.26973" lon="1.30047">
        <ele>68.9</ele>
        <time>2018-05-27T08:14:13Z</time>
      </trkpt>
      <trkpt lat="49.26961" lon="1.30056">
        <ele>67.3</ele>
        <time>2018-05-27T08:14:16Z</time>
      </trkpt>
      <trkpt lat="49.26952" lon="1.30066">
        <ele>66.5</ele>
        <time>2018-05-27T08:14:18Z</time>
      </trkpt>
      <trkpt lat="49.26945" lon="1.30077">
        <ele>65.5</ele>
        <time>2018-05-27T08:14:20Z</time>
      </trkpt>
      <trkpt lat="49.26938" lon="1.30087">
        <ele>64.7</ele>
        <time>2018-05-27T08:14:22Z</time>
      </trkpt>
      <trkpt lat="49.26931" lon="1.30099">
        <ele>63.9</ele>
        <time>2018-05-27T08:14:24Z</time>
      </trkpt>
      <trkpt lat="49.26925" lon="1.30112">
        <ele>63.2</ele>
        <time>2018-05-27T08:14:26Z</time>
      </trkpt>
      <trkpt lat="49.2692" lon="1.30127">
        <ele>62.8</ele>
        <time>2018-05-27T08:14:28Z</time>
      </trkpt>
      <trkpt lat="49.26915" lon="1.30143">
        <ele>62.2</ele>
        <time>2018-05-27T08:14:30Z</time>
      </trkpt>
      <trkpt lat="49.26908" lon="1.30159">
        <ele>61.8</ele>
        <time>2018-05-27T08:14:32Z</time>
      </trkpt>
      <trkpt lat="49.26902" lon="1.30175">
        <ele>61.5</ele>
        <time>2018-05-27T08:14:34Z</time>
      </trkpt>
      <trkpt lat="49.26894" lon="1.30191">
        <ele>61.3</ele>
        <time>2018-05-27T08:14:36Z</time>
      </trkpt>
      <trkpt lat="49.26883" lon="1.30207">
        <ele>60.8</ele>
        <time>2018-05-27T08:14:38Z</time>
      </trkpt>
      <trkpt lat="49.26868" lon="1.30217">
        <ele>60.1</ele>
        <time>2018-05-27T08:14:40Z</time>
      </trkpt>
      <trkpt lat="49.26852" lon="1.3022">
        <ele>59.2</ele>
        <time>2018-05-27T08:14:42Z</time>
      </trkpt>
      <trkpt lat="49.26834" lon="1.30223">
        <ele>58.3</ele>
        <time>2018-05-27T08:14:44Z</time>
      </trkpt>
      <trkpt lat="49.26818" lon="1.30224">
        <ele>57.2</ele>
        <time>2018-05-27T08:14:46Z</time>
      </trkpt>
      <trkpt lat="49.26804" lon="1.30224">
        <ele>55.6</ele>
        <time>2018-05-27T08:14:48Z</time>
      </trkpt>
      <trkpt lat="49.26789" lon="1.30222">
        <ele>54.1</ele>
        <time>2018-05-27T08:14:50Z</time>
      </trkpt>
      <trkpt lat="49.26772" lon="1.30218">
        <ele>52.6</ele>
        <time>2018-05-27T08:14:52Z</time>
      </trkpt>
      <trkpt lat="49.26763" lon="1.30216">
        <ele>51.9</ele>
        <time>2018-05-27T08:14:53Z</time>
      </trkpt>
      <trkpt lat="49.26745" lon="1.30213">
        <ele>50.4</ele>
        <time>2018-05-27T08:14:55Z</time>
      </trkpt>
      <trkpt lat="49.26736" lon="1.3021">
        <ele>49.7</ele>
        <time>2018-05-27T08:14:56Z</time>
      </trkpt>
      <trkpt lat="49.26727" lon="1.30208">
        <ele>49.1</ele>
        <time>2018-05-27T08:14:57Z</time>
      </trkpt>
      <trkpt lat="49.26718" lon="1.30205">
        <ele>48.3</ele>
        <time>2018-05-27T08:14:58Z</time>
      </trkpt>
      <trkpt lat="49.26709" lon="1.30201">
        <ele>47.5</ele>
        <time>2018-05-27T08:14:59Z</time>
      </trkpt>
      <trkpt lat="49.267" lon="1.30199">
        <ele>46.8</ele>
        <time>2018-05-27T08:15:00Z</time>
      </trkpt>
      <trkpt lat="49.2669" lon="1.30196">
        <ele>46.2</ele>
        <time>2018-05-27T08:15:01Z</time>
      </trkpt>
      <trkpt lat="49.26681" lon="1.30194">
        <ele>45.5</ele>
        <time>2018-05-27T08:15:02Z</time>
      </trkpt>
      <trkpt lat="49.26671" lon="1.30191">
        <ele>44.8</ele>
        <time>2018-05-27T08:15:03Z</time>
      </trkpt>
      <trkpt lat="49.26661" lon="1.30189">
        <ele>44.2</ele>
        <time>2018-05-27T08:15:04Z</time>
      </trkpt>
      <trkpt lat="49.26651" lon="1.30188">
        <ele>43.5</ele>
        <time>2018-05-27T08:15:05Z</time>
      </trkpt>
      <trkpt lat="49.26641" lon="1.30186">
        <ele>42.8</ele>
        <time>2018-05-27T08:15:06Z</time>
      </trkpt>
      <trkpt lat="49.26631" lon="1.30184">
        <ele>42</ele>
        <time>2018-05-27T08:15:07Z</time>
      </trkpt>
      <trkpt lat="49.26622" lon="1.30183">
        <ele>41</ele>
        <time>2018-05-27T08:15:08Z</time>
      </trkpt>
      <trkpt lat="49.26612" lon="1.30181">
        <ele>40.2</ele>
        <time>2018-05-27T08:15:09Z</time>
      </trkpt>
      <trkpt lat="49.26603" lon="1.3018">
        <ele>39.5</ele>
        <time>2018-05-27T08:15:10Z</time>
      </trkpt>
      <trkpt lat="49.26593" lon="1.30177">
        <ele>38.9</ele>
        <time>2018-05-27T08:15:11Z</time>
      </trkpt>
      <trkpt lat="49.26584" lon="1.30176">
        <ele>38.3</ele>
        <time>2018-05-27T08:15:12Z</time>
      </trkpt>
      <trkpt lat="49.26566" lon="1.30174">
        <ele>37.5</ele>
        <time>2018-05-27T08:15:14Z</time>
      </trkpt>
      <trkpt lat="49.26551" lon="1.30172">
        <ele>36.7</ele>
        <time>2018-05-27T08:15:16Z</time>
      </trkpt>
      <trkpt lat="49.26538" lon="1.30164">
        <ele>36</ele>
        <time>2018-05-27T08:15:18Z</time>
      </trkpt>
      <trkpt lat="49.26528" lon="1.30154">
        <ele>35.8</ele>
        <time>2018-05-27T08:15:20Z</time>
      </trkpt>
      <trkpt lat="49.26518" lon="1.30148">
        <ele>35.8</ele>
        <time>2018-05-27T08:15:22Z</time>
      </trkpt>
      <trkpt lat="49.26509" lon="1.30143">
        <ele>35.8</ele>
        <time>2018-05-27T08:15:24Z</time>
      </trkpt>
      <trkpt lat="49.26498" lon="1.30136">
        <ele>36.4</ele>
        <time>2018-05-27T08:15:27Z</time>
      </trkpt>
      <trkpt lat="49.26489" lon="1.30129">
        <ele>37.1</ele>
        <time>2018-05-27T08:15:31Z</time>
      </trkpt>
      <trkpt lat="49.2648" lon="1.30126">
        <ele>37.8</ele>
        <time>2018-05-27T08:15:35Z</time>
      </trkpt>
      <trkpt lat="49.2647" lon="1.30122">
        <ele>38.8</ele>
        <time>2018-05-27T08:15:40Z</time>
      </trkpt>
      <trkpt lat="49.2646" lon="1.30118">
        <ele>39.9</ele>
        <time>2018-05-27T08:15:45Z</time>
      </trkpt>
      <trkpt lat="49.2645" lon="1.30119">
        <ele>41</ele>
        <time>2018-05-27T08:15:50Z</time>
      </trkpt>
      <trkpt lat="49.26441" lon="1.30116">
        <ele>42</ele>
        <time>2018-05-27T08:15:55Z</time>
      </trkpt>
      <trkpt lat="49.26431" lon="1.30116">
        <ele>42.9</ele>
        <time>2018-05-27T08:16:00Z</time>
      </trkpt>
      <trkpt lat="49.26421" lon="1.30117">
        <ele>43.8</ele>
        <time>2018-05-27T08:16:05Z</time>
      </trkpt>
      <trkpt lat="49.26412" lon="1.30118">
        <ele>44.8</ele>
        <time>2018-05-27T08:16:10Z</time>
      </trkpt>
      <trkpt lat="49.26402" lon="1.3012">
        <ele>46</ele>
        <time>2018-05-27T08:16:16Z</time>
      </trkpt>
      <trkpt lat="49.26392" lon="1.3012">
        <ele>47.2</ele>
        <time>2018-05-27T08:16:22Z</time>
      </trkpt>
      <trkpt lat="49.26383" lon="1.3012">
        <ele>48.5</ele>
        <time>2018-05-27T08:16:27Z</time>
      </trkpt>
      <trkpt lat="49.26372" lon="1.30121">
        <ele>49.5</ele>
        <time>2018-05-27T08:16:32Z</time>
      </trkpt>
      <trkpt lat="49.26363" lon="1.30122">
        <ele>50.5</ele>
        <time>2018-05-27T08:16:37Z</time>
      </trkpt>
      <trkpt lat="49.26354" lon="1.30123">
        <ele>51.4</ele>
        <time>2018-05-27T08:16:42Z</time>
      </trkpt>
      <trkpt lat="49.26345" lon="1.30124">
        <ele>52.3</ele>
        <time>2018-05-27T08:16:47Z</time>
      </trkpt>
      <trkpt lat="49.26335" lon="1.30124">
        <ele>53.1</ele>
        <time>2018-05-27T08:16:53Z</time>
      </trkpt>
      <trkpt lat="49.26325" lon="1.30125">
        <ele>54.2</ele>
        <time>2018-05-27T08:16:58Z</time>
      </trkpt>
      <trkpt lat="49.26316" lon="1.30124">
        <ele>55</ele>
        <time>2018-05-27T08:17:03Z</time>
      </trkpt>
      <trkpt lat="49.26305" lon="1.30123">
        <ele>55.6</ele>
        <time>2018-05-27T08:17:08Z</time>
      </trkpt>
      <trkpt lat="49.26295" lon="1.3012">
        <ele>56</ele>
        <time>2018-05-27T08:17:12Z</time>
      </trkpt>
      <trkpt lat="49.26285" lon="1.30117">
        <ele>56.8</ele>
        <time>2018-05-27T08:17:17Z</time>
      </trkpt>
      <trkpt lat="49.26275" lon="1.30114">
        <ele>57.3</ele>
        <time>2018-05-27T08:17:22Z</time>
      </trkpt>
      <trkpt lat="49.26266" lon="1.30112">
        <ele>57.7</ele>
        <time>2018-05-27T08:17:26Z</time>
      </trkpt>
      <trkpt lat="49.26256" lon="1.3011">
        <ele>58</ele>
        <time>2018-05-27T08:17:30Z</time>
      </trkpt>
      <trkpt lat="49.26246" lon="1.3011">
        <ele>58.4</ele>
        <time>2018-05-27T08:17:34Z</time>
      </trkpt>
      <trkpt lat="49.26236" lon="1.3011">
        <ele>58.8</ele>
        <time>2018-05-27T08:17:39Z</time>
      </trkpt>
      <trkpt lat="49.26231" lon="1.30124">
        <ele>59.2</ele>
        <time>2018-05-27T08:17:43Z</time>
      </trkpt>
      <trkpt lat="49.2623" lon="1.30142">
        <ele>59.4</ele>
        <time>2018-05-27T08:17:46Z</time>
      </trkpt>
      <trkpt lat="49.26231" lon="1.30158">
        <ele>59.8</ele>
        <time>2018-05-27T08:17:49Z</time>
      </trkpt>
      <trkpt lat="49.26232" lon="1.30175">
        <ele>60</ele>
        <time>2018-05-27T08:17:52Z</time>
      </trkpt>
      <trkpt lat="49.26233" lon="1.30192">
        <ele>60.4</ele>
        <time>2018-05-27T08:17:55Z</time>
      </trkpt>
      <trkpt lat="49.26235" lon="1.30211">
        <ele>60.9</ele>
        <time>2018-05-27T08:17:58Z</time>
      </trkpt>
      <trkpt lat="49.26236" lon="1.3023">
        <ele>61.2</ele>
        <time>2018-05-27T08:18:01Z</time>
      </trkpt>
      <trkpt lat="49.26238" lon="1.3025">
        <ele>61.4</ele>
        <time>2018-05-27T08:18:04Z</time>
      </trkpt>
      <trkpt lat="49.26239" lon="1.30264">
        <ele>61.6</ele>
        <time>2018-05-27T08:18:06Z</time>
      </trkpt>
      <trkpt lat="49.2624" lon="1.30279">
        <ele>61.6</ele>
        <time>2018-05-27T08:18:08Z</time>
      </trkpt>
      <trkpt lat="49.26241" lon="1.30295">
        <ele>61.7</ele>
        <time>2018-05-27T08:18:10Z</time>
      </trkpt>
      <trkpt lat="49.26242" lon="1.3031">
        <ele>61.7</ele>
        <time>2018-05-27T08:18:12Z</time>
      </trkpt>
      <trkpt lat="49.26243" lon="1.30326">
        <ele>61.7</ele>
        <time>2018-05-27T08:18:14Z</time>
      </trkpt>
      <trkpt lat="49.26244" lon="1.30343">
        <ele>61.8</ele>
        <time>2018-05-27T08:18:16Z</time>
      </trkpt>
      <trkpt lat="49.26245" lon="1.3036">
        <ele>61.9</ele>
        <time>2018-05-27T08:18:18Z</time>
      </trkpt>
      <trkpt lat="49.26246" lon="1.30377">
        <ele>62</ele>
        <time>2018-05-27T08:18:20Z</time>
      </trkpt>
      <trkpt lat="49.26247" lon="1.30394">
        <ele>62</ele>
        <time>2018-05-27T08:18:22Z</time>
      </trkpt>
      <trkpt lat="49.26248" lon="1.30412">
        <ele>61.9</ele>
        <time>2018-05-27T08:18:24Z</time>
      </trkpt>
      <trkpt lat="49.2625" lon="1.30429">
        <ele>61.8</ele>
        <time>2018-05-27T08:18:26Z</time>
      </trkpt>
      <trkpt lat="49.2625" lon="1.30447">
        <ele>61.7</ele>
        <time>2018-05-27T08:18:28Z</time>
      </trkpt>
      <trkpt lat="49.26251" lon="1.30465">
        <ele>61.8</ele>
        <time>2018-05-27T08:18:30Z</time>
      </trkpt>
      <trkpt lat="49.26252" lon="1.30482">
        <ele>61.8</ele>
        <time>2018-05-27T08:18:32Z</time>
      </trkpt>
      <trkpt lat="49.26253" lon="1.30501">
        <ele>61.9</ele>
        <time>2018-05-27T08:18:34Z</time>
      </trkpt>
      <trkpt lat="49.26254" lon="1.30519">
        <ele>61.8</ele>
        <time>2018-05-27T08:18:36Z</time>
      </trkpt>
      <trkpt lat="49.26255" lon="1.30538">
        <ele>61.8</ele>
        <time>2018-05-27T08:18:38Z</time>
      </trkpt>
      <trkpt lat="49.26256" lon="1.30557">
        <ele>61.7</ele>
        <time>2018-05-27T08:18:40Z</time>
      </trkpt>
      <trkpt lat="49.26256" lon="1.30575">
        <ele>61.6</ele>
        <time>2018-05-27T08:18:42Z</time>
      </trkpt>
      <trkpt lat="49.26256" lon="1.30594">
        <ele>61.6</ele>
        <time>2018-05-27T08:18:44Z</time>
      </trkpt>
      <trkpt lat="49.26256" lon="1.30612">
        <ele>61.6</ele>
        <time>2018-05-27T08:18:46Z</time>
      </trkpt>
      <trkpt lat="49.26256" lon="1.3063">
        <ele>61.7</ele>
        <time>2018-05-27T08:18:48Z</time>
      </trkpt>
      <trkpt lat="49.26256" lon="1.30649">
        <ele>61.6</ele>
        <time>2018-05-27T08:18:50Z</time>
      </trkpt>
      <trkpt lat="49.26256" lon="1.30667">
        <ele>61.6</ele>
        <time>2018-05-27T08:18:52Z</time>
      </trkpt>
      <trkpt lat="49.26256" lon="1.30684">
        <ele>61.6</ele>
        <time>2018-05-27T08:18:54Z</time>
      </trkpt>
      <trkpt lat="49.26249" lon="1.30698">
        <ele>61.3</ele>
        <time>2018-05-27T08:18:57Z</time>
      </trkpt>
      <trkpt lat="49.26237" lon="1.30703">
        <ele>61.2</ele>
        <time>2018-05-27T08:19:00Z</time>
      </trkpt>
      <trkpt lat="49.26224" lon="1.30708">
        <ele>61.4</ele>
        <time>2018-05-27T08:19:03Z</time>
      </trkpt>
      <trkpt lat="49.26215" lon="1.30709">
        <ele>61.4</ele>
        <time>2018-05-27T08:19:05Z</time>
      </trkpt>
      <trkpt lat="49.26204" lon="1.3071">
        <ele>61.4</ele>
        <time>2018-05-27T08:19:07Z</time>
      </trkpt>
      <trkpt lat="49.26194" lon="1.30711">
        <ele>61.3</ele>
        <time>2018-05-27T08:19:09Z</time>
      </trkpt>
      <trkpt lat="49.26184" lon="1.30712">
        <ele>61.5</ele>
        <time>2018-05-27T08:19:11Z</time>
      </trkpt>
      <trkpt lat="49.26173" lon="1.30712">
        <ele>61.4</ele>
        <time>2018-05-27T08:19:13Z</time>
      </trkpt>
      <trkpt lat="49.26162" lon="1.30713">
        <ele>61.6</ele>
        <time>2018-05-27T08:19:15Z</time>
      </trkpt>
      <trkpt lat="49.26152" lon="1.30714">
        <ele>61.9</ele>
        <time>2018-05-27T08:19:17Z</time>
      </trkpt>
      <trkpt lat="49.26141" lon="1.30714">
        <ele>62.1</ele>
        <time>2018-05-27T08:19:19Z</time>
      </trkpt>
      <trkpt lat="49.2613" lon="1.30715">
        <ele>62.2</ele>
        <time>2018-05-27T08:19:21Z</time>
      </trkpt>
      <trkpt lat="49.2612" lon="1.30715">
        <ele>62.2</ele>
        <time>2018-05-27T08:19:23Z</time>
      </trkpt>
      <trkpt lat="49.26109" lon="1.30716">
        <ele>62</ele>
        <time>2018-05-27T08:19:25Z</time>
      </trkpt>
      <trkpt lat="49.26099" lon="1.30717">
        <ele>62.2</ele>
        <time>2018-05-27T08:19:27Z</time>
      </trkpt>
      <trkpt lat="49.26089" lon="1.30718">
        <ele>62.4</ele>
        <time>2018-05-27T08:19:29Z</time>
      </trkpt>
      <trkpt lat="49.26079" lon="1.30719">
        <ele>62.5</ele>
        <time>2018-05-27T08:19:31Z</time>
      </trkpt>
      <trkpt lat="49.26069" lon="1.3072">
        <ele>62.7</ele>
        <time>2018-05-27T08:19:33Z</time>
      </trkpt>
      <trkpt lat="49.2606" lon="1.3072">
        <ele>62.6</ele>
        <time>2018-05-27T08:19:35Z</time>
      </trkpt>
      <trkpt lat="49.2605" lon="1.30721">
        <ele>62.7</ele>
        <time>2018-05-27T08:19:37Z</time>
      </trkpt>
      <trkpt lat="49.2604" lon="1.30722">
        <ele>62.8</ele>
        <time>2018-05-27T08:19:39Z</time>
      </trkpt>
      <trkpt lat="49.26031" lon="1.30722">
        <ele>62.9</ele>
        <time>2018-05-27T08:19:41Z</time>
      </trkpt>
      <trkpt lat="49.26021" lon="1.30723">
        <ele>62.9</ele>
        <time>2018-05-27T08:19:43Z</time>
      </trkpt>
      <trkpt lat="49.26011" lon="1.30724">
        <ele>62.9</ele>
        <time>2018-05-27T08:19:45Z</time>
      </trkpt>
      <trkpt lat="49.26001" lon="1.30726">
        <ele>62.9</ele>
        <time>2018-05-27T08:19:47Z</time>
      </trkpt>
      <trkpt lat="49.25991" lon="1.30727">
        <ele>62.8</ele>
        <time>2018-05-27T08:19:49Z</time>
      </trkpt>
      <trkpt lat="49.25981" lon="1.30728">
        <ele>62.8</ele>
        <time>2018-05-27T08:19:51Z</time>
      </trkpt>
      <trkpt lat="49.25971" lon="1.30729">
        <ele>62.8</ele>
        <time>2018-05-27T08:19:53Z</time>
      </trkpt>
      <trkpt lat="49.2596" lon="1.3073">
        <ele>62.8</ele>
        <time>2018-05-27T08:19:55Z</time>
      </trkpt>
      <trkpt lat="49.2595" lon="1.30731">
        <ele>62.9</ele>
        <time>2018-05-27T08:19:57Z</time>
      </trkpt>
      <trkpt lat="49.25941" lon="1.30732">
        <ele>62.7</ele>
        <time>2018-05-27T08:19:59Z</time>
      </trkpt>
      <trkpt lat="49.25931" lon="1.30733">
        <ele>62.8</ele>
        <time>2018-05-27T08:20:01Z</time>
      </trkpt>
      <trkpt lat="49.25921" lon="1.30734">
        <ele>62.8</ele>
        <time>2018-05-27T08:20:03Z</time>
      </trkpt>
      <trkpt lat="49.25912" lon="1.30735">
        <ele>62.8</ele>
        <time>2018-05-27T08:20:05Z</time>
      </trkpt>
      <trkpt lat="49.25902" lon="1.30735">
        <ele>62.7</ele>
        <time>2018-05-27T08:20:07Z</time>
      </trkpt>
      <trkpt lat="49.25892" lon="1.30737">
        <ele>62.5</ele>
        <time>2018-05-27T08:20:09Z</time>
      </trkpt>
      <trkpt lat="49.25883" lon="1.30738">
        <ele>62.8</ele>
        <time>2018-05-27T08:20:11Z</time>
      </trkpt>
      <trkpt lat="49.25873" lon="1.30739">
        <ele>62.9</ele>
        <time>2018-05-27T08:20:13Z</time>
      </trkpt>
      <trkpt lat="49.25864" lon="1.3074">
        <ele>63</ele>
        <time>2018-05-27T08:20:15Z</time>
      </trkpt>
      <trkpt lat="49.25855" lon="1.30741">
        <ele>63</ele>
        <time>2018-05-27T08:20:17Z</time>
      </trkpt>
      <trkpt lat="49.25845" lon="1.30742">
        <ele>62.9</ele>
        <time>2018-05-27T08:20:19Z</time>
      </trkpt>
      <trkpt lat="49.25836" lon="1.30743">
        <ele>63</ele>
        <time>2018-05-27T08:20:21Z</time>
      </trkpt>
      <trkpt lat="49.25827" lon="1.30745">
        <ele>63.2</ele>
        <time>2018-05-27T08:20:23Z</time>
      </trkpt>
      <trkpt lat="49.25818" lon="1.30746">
        <ele>63.3</ele>
        <time>2018-05-27T08:20:25Z</time>
      </trkpt>
      <trkpt lat="49.25808" lon="1.30747">
        <ele>63.3</ele>
        <time>2018-05-27T08:20:27Z</time>
      </trkpt>
      <trkpt lat="49.25799" lon="1.30748">
        <ele>63.3</ele>
        <time>2018-05-27T08:20:29Z</time>
      </trkpt>
      <trkpt lat="49.2579" lon="1.30749">
        <ele>63.3</ele>
        <time>2018-05-27T08:20:31Z</time>
      </trkpt>
      <trkpt lat="49.25781" lon="1.3075">
        <ele>63.4</ele>
        <time>2018-05-27T08:20:33Z</time>
      </trkpt>
      <trkpt lat="49.25768" lon="1.30752">
        <ele>63.4</ele>
        <time>2018-05-27T08:20:36Z</time>
      </trkpt>
      <trkpt lat="49.25755" lon="1.30754">
        <ele>63.6</ele>
        <time>2018-05-27T08:20:39Z</time>
      </trkpt>
      <trkpt lat="49.25742" lon="1.30756">
        <ele>63.8</ele>
        <time>2018-05-27T08:20:42Z</time>
      </trkpt>
      <trkpt lat="49.25729" lon="1.30757">
        <ele>64.1</ele>
        <time>2018-05-27T08:20:45Z</time>
      </trkpt>
      <trkpt lat="49.25715" lon="1.30759">
        <ele>64.4</ele>
        <time>2018-05-27T08:20:48Z</time>
      </trkpt>
      <trkpt lat="49.25702" lon="1.30761">
        <ele>64.8</ele>
        <time>2018-05-27T08:20:51Z</time>
      </trkpt>
      <trkpt lat="49.25689" lon="1.30763">
        <ele>65.1</ele>
        <time>2018-05-27T08:20:54Z</time>
      </trkpt>
      <trkpt lat="49.25676" lon="1.30766">
        <ele>65.4</ele>
        <time>2018-05-27T08:20:57Z</time>
      </trkpt>
      <trkpt lat="49.25663" lon="1.30769">
        <ele>65.5</ele>
        <time>2018-05-27T08:21:00Z</time>
      </trkpt>
      <trkpt lat="49.2565" lon="1.30771">
        <ele>65.7</ele>
        <time>2018-05-27T08:21:03Z</time>
      </trkpt>
      <trkpt lat="49.25637" lon="1.30773">
        <ele>65.9</ele>
        <time>2018-05-27T08:21:06Z</time>
      </trkpt>
      <trkpt lat="49.25624" lon="1.30775">
        <ele>66.1</ele>
        <time>2018-05-27T08:21:09Z</time>
      </trkpt>
      <trkpt lat="49.25612" lon="1.30778">
        <ele>66.5</ele>
        <time>2018-05-27T08:21:12Z</time>
      </trkpt>
      <trkpt lat="49.25598" lon="1.3078">
        <ele>66.9</ele>
        <time>2018-05-27T08:21:15Z</time>
      </trkpt>
      <trkpt lat="49.25589" lon="1.30782">
        <ele>67</ele>
        <time>2018-05-27T08:21:17Z</time>
      </trkpt>
      <trkpt lat="49.2558" lon="1.30783">
        <ele>67.2</ele>
        <time>2018-05-27T08:21:19Z</time>
      </trkpt>
      <trkpt lat="49.25571" lon="1.30786">
        <ele>67.4</ele>
        <time>2018-05-27T08:21:21Z</time>
      </trkpt>
      <trkpt lat="49.25561" lon="1.30788">
        <ele>67.5</ele>
        <time>2018-05-27T08:21:23Z</time>
      </trkpt>
      <trkpt lat="49.25552" lon="1.3079">
        <ele>67.5</ele>
        <time>2018-05-27T08:21:25Z</time>
      </trkpt>
      <trkpt lat="49.25542" lon="1.30792">
        <ele>67.7</ele>
        <time>2018-05-27T08:21:27Z</time>
      </trkpt>
      <trkpt lat="49.25532" lon="1.30794">
        <ele>67.6</ele>
        <time>2018-05-27T08:21:29Z</time>
      </trkpt>
      <trkpt lat="49.25523" lon="1.30796">
        <ele>67.6</ele>
        <time>2018-05-27T08:21:31Z</time>
      </trkpt>
      <trkpt lat="49.25513" lon="1.30798">
        <ele>67.7</ele>
        <time>2018-05-27T08:21:33Z</time>
      </trkpt>
      <trkpt lat="49.25504" lon="1.308">
        <ele>67.8</ele>
        <time>2018-05-27T08:21:35Z</time>
      </trkpt>
      <trkpt lat="49.25494" lon="1.30802">
        <ele>67.8</ele>
        <time>2018-05-27T08:21:37Z</time>
      </trkpt>
      <trkpt lat="49.25484" lon="1.30804">
        <ele>67.7</ele>
        <time>2018-05-27T08:21:39Z</time>
      </trkpt>
      <trkpt lat="49.25474" lon="1.30806">
        <ele>67.5</ele>
        <time>2018-05-27T08:21:41Z</time>
      </trkpt>
      <trkpt lat="49.25464" lon="1.30808">
        <ele>67.4</ele>
        <time>2018-05-27T08:21:43Z</time>
      </trkpt>
      <trkpt lat="49.25453" lon="1.3081">
        <ele>67.1</ele>
        <time>2018-05-27T08:21:45Z</time>
      </trkpt>
      <trkpt lat="49.25442" lon="1.30812">
        <ele>67.1</ele>
        <time>2018-05-27T08:21:47Z</time>
      </trkpt>
      <trkpt lat="49.25431" lon="1.30814">
        <ele>67</ele>
        <time>2018-05-27T08:21:49Z</time>
      </trkpt>
      <trkpt lat="49.2542" lon="1.30816">
        <ele>66.7</ele>
        <time>2018-05-27T08:21:51Z</time>
      </trkpt>
      <trkpt lat="49.25409" lon="1.30818">
        <ele>66.3</ele>
        <time>2018-05-27T08:21:53Z</time>
      </trkpt>
      <trkpt lat="49.254" lon="1.3082">
        <ele>65.6</ele>
        <time>2018-05-27T08:21:56Z</time>
      </trkpt>
      <trkpt lat="49.25397" lon="1.30836">
        <ele>65</ele>
        <time>2018-05-27T08:22:00Z</time>
      </trkpt>
      <trkpt lat="49.254" lon="1.30855">
        <ele>64.9</ele>
        <time>2018-05-27T08:22:03Z</time>
      </trkpt>
      <trkpt lat="49.25401" lon="1.3087">
        <ele>64.8</ele>
        <time>2018-05-27T08:22:05Z</time>
      </trkpt>
      <trkpt lat="49.25403" lon="1.30885">
        <ele>64.9</ele>
        <time>2018-05-27T08:22:07Z</time>
      </trkpt>
      <trkpt lat="49.25405" lon="1.30901">
        <ele>64.9</ele>
        <time>2018-05-27T08:22:09Z</time>
      </trkpt>
      <trkpt lat="49.25407" lon="1.30917">
        <ele>64.8</ele>
        <time>2018-05-27T08:22:11Z</time>
      </trkpt>
      <trkpt lat="49.25409" lon="1.30935">
        <ele>64.7</ele>
        <time>2018-05-27T08:22:13Z</time>
      </trkpt>
      <trkpt lat="49.2541" lon="1.30954">
        <ele>64.6</ele>
        <time>2018-05-27T08:22:15Z</time>
      </trkpt>
      <trkpt lat="49.25413" lon="1.30973">
        <ele>64.7</ele>
        <time>2018-05-27T08:22:17Z</time>
      </trkpt>
      <trkpt lat="49.25415" lon="1.30993">
        <ele>64.7</ele>
        <time>2018-05-27T08:22:19Z</time>
      </trkpt>
      <trkpt lat="49.25417" lon="1.31013">
        <ele>64.6</ele>
        <time>2018-05-27T08:22:21Z</time>
      </trkpt>
      <trkpt lat="49.2542" lon="1.31033">
        <ele>64.3</ele>
        <time>2018-05-27T08:22:23Z</time>
      </trkpt>
      <trkpt lat="49.25422" lon="1.31054">
        <ele>64</ele>
        <time>2018-05-27T08:22:25Z</time>
      </trkpt>
      <trkpt lat="49.25425" lon="1.31075">
        <ele>63.8</ele>
        <time>2018-05-27T08:22:27Z</time>
      </trkpt>
      <trkpt lat="49.25427" lon="1.31096">
        <ele>63.4</ele>
        <time>2018-05-27T08:22:29Z</time>
      </trkpt>
      <trkpt lat="49.2543" lon="1.31118">
        <ele>63.2</ele>
        <time>2018-05-27T08:22:31Z</time>
      </trkpt>
      <trkpt lat="49.25433" lon="1.3114">
        <ele>63</ele>
        <time>2018-05-27T08:22:33Z</time>
      </trkpt>
      <trkpt lat="49.25436" lon="1.31162">
        <ele>62.8</ele>
        <time>2018-05-27T08:22:35Z</time>
      </trkpt>
      <trkpt lat="49.25439" lon="1.31184">
        <ele>62.8</ele>
        <time>2018-05-27T08:22:37Z</time>
      </trkpt>
      <trkpt lat="49.25441" lon="1.31206">
        <ele>62.6</ele>
        <time>2018-05-27T08:22:39Z</time>
      </trkpt>
      <trkpt lat="49.25443" lon="1.31228">
        <ele>62.3</ele>
        <time>2018-05-27T08:22:41Z</time>
      </trkpt>
      <trkpt lat="49.25446" lon="1.3125">
        <ele>62.1</ele>
        <time>2018-05-27T08:22:43Z</time>
      </trkpt>
      <trkpt lat="49.25448" lon="1.31271">
        <ele>61.9</ele>
        <time>2018-05-27T08:22:45Z</time>
      </trkpt>
      <trkpt lat="49.2545" lon="1.31292">
        <ele>61.8</ele>
        <time>2018-05-27T08:22:47Z</time>
      </trkpt>
      <trkpt lat="49.25452" lon="1.31313">
        <ele>61.6</ele>
        <time>2018-05-27T08:22:49Z</time>
      </trkpt>
      <trkpt lat="49.25454" lon="1.31334">
        <ele>61.4</ele>
        <time>2018-05-27T08:22:51Z</time>
      </trkpt>
      <trkpt lat="49.25456" lon="1.31355">
        <ele>61.3</ele>
        <time>2018-05-27T08:22:53Z</time>
      </trkpt>
      <trkpt lat="49.25458" lon="1.31376">
        <ele>61.2</ele>
        <time>2018-05-27T08:22:55Z</time>
      </trkpt>
      <trkpt lat="49.2546" lon="1.31397">
        <ele>61.1</ele>
        <time>2018-05-27T08:22:57Z</time>
      </trkpt>
      <trkpt lat="49.25462" lon="1.31418">
        <ele>61.2</ele>
        <time>2018-05-27T08:22:59Z</time>
      </trkpt>
      <trkpt lat="49.25464" lon="1.31439">
        <ele>61.1</ele>
        <time>2018-05-27T08:23:01Z</time>
      </trkpt>
      <trkpt lat="49.25466" lon="1.3146">
        <ele>61</ele>
        <time>2018-05-27T08:23:03Z</time>
      </trkpt>
      <trkpt lat="49.25468" lon="1.31481">
        <ele>61</ele>
        <time>2018-05-27T08:23:05Z</time>
      </trkpt>
      <trkpt lat="49.2547" lon="1.31501">
        <ele>61</ele>
        <time>2018-05-27T08:23:07Z</time>
      </trkpt>
      <trkpt lat="49.25472" lon="1.31521">
        <ele>60.9</ele>
        <time>2018-05-27T08:23:09Z</time>
      </trkpt>
      <trkpt lat="49.25474" lon="1.31541">
        <ele>61.1</ele>
        <time>2018-05-27T08:23:11Z</time>
      </trkpt>
      <trkpt lat="49.25476" lon="1.31561">
        <ele>61</ele>
        <time>2018-05-27T08:23:13Z</time>
      </trkpt>
      <trkpt lat="49.25478" lon="1.31582">
        <ele>61</ele>
        <time>2018-05-27T08:23:15Z</time>
      </trkpt>
      <trkpt lat="49.2548" lon="1.31603">
        <ele>60.9</ele>
        <time>2018-05-27T08:23:17Z</time>
      </trkpt>
      <trkpt lat="49.25482" lon="1.31623">
        <ele>60.7</ele>
        <time>2018-05-27T08:23:19Z</time>
      </trkpt>
      <trkpt lat="49.25484" lon="1.31644">
        <ele>60.6</ele>
        <time>2018-05-27T08:23:21Z</time>
      </trkpt>
      <trkpt lat="49.25487" lon="1.31666">
        <ele>60.6</ele>
        <time>2018-05-27T08:23:23Z</time>
      </trkpt>
      <trkpt lat="49.25489" lon="1.31687">
        <ele>60.5</ele>
        <time>2018-05-27T08:23:25Z</time>
      </trkpt>
      <trkpt lat="49.25491" lon="1.31708">
        <ele>60.5</ele>
        <time>2018-05-27T08:23:27Z</time>
      </trkpt>
      <trkpt lat="49.25493" lon="1.31728">
        <ele>60.5</ele>
        <time>2018-05-27T08:23:29Z</time>
      </trkpt>
      <trkpt lat="49.25495" lon="1.31748">
        <ele>60.5</ele>
        <time>2018-05-27T08:23:31Z</time>
      </trkpt>
      <trkpt lat="49.25497" lon="1.31768">
        <ele>60.6</ele>
        <time>2018-05-27T08:23:33Z</time>
      </trkpt>
      <trkpt lat="49.25499" lon="1.31787">
        <ele>60.7</ele>
        <time>2018-05-27T08:23:35Z</time>
      </trkpt>
      <trkpt lat="49.25501" lon="1.31807">
        <ele>60.7</ele>
        <time>2018-05-27T08:23:37Z</time>
      </trkpt>
      <trkpt lat="49.25503" lon="1.31826">
        <ele>60.7</ele>
        <time>2018-05-27T08:23:39Z</time>
      </trkpt>
      <trkpt lat="49.25504" lon="1.31845">
        <ele>60.7</ele>
        <time>2018-05-27T08:23:41Z</time>
      </trkpt>
      <trkpt lat="49.25506" lon="1.31865">
        <ele>60.9</ele>
        <time>2018-05-27T08:23:43Z</time>
      </trkpt>
      <trkpt lat="49.25507" lon="1.31884">
        <ele>61</ele>
        <time>2018-05-27T08:23:45Z</time>
      </trkpt>
      <trkpt lat="49.25509" lon="1.31903">
        <ele>61</ele>
        <time>2018-05-27T08:23:47Z</time>
      </trkpt>
      <trkpt lat="49.2551" lon="1.31922">
        <ele>61</ele>
        <time>2018-05-27T08:23:49Z</time>
      </trkpt>
      <trkpt lat="49.25512" lon="1.31941">
        <ele>61.1</ele>
        <time>2018-05-27T08:23:51Z</time>
      </trkpt>
      <trkpt lat="49.25514" lon="1.3196">
        <ele>61.3</ele>
        <time>2018-05-27T08:23:53Z</time>
      </trkpt>
      <trkpt lat="49.25516" lon="1.31978">
        <ele>61.4</ele>
        <time>2018-05-27T08:23:55Z</time>
      </trkpt>
      <trkpt lat="49.25517" lon="1.31997">
        <ele>61.5</ele>
        <time>2018-05-27T08:23:57Z</time>
      </trkpt>
      <trkpt lat="49.25519" lon="1.32016">
        <ele>61.5</ele>
        <time>2018-05-27T08:23:59Z</time>
      </trkpt>
      <trkpt lat="49.2552" lon="1.32035">
        <ele>61.6</ele>
        <time>2018-05-27T08:24:01Z</time>
      </trkpt>
      <trkpt lat="49.25522" lon="1.32053">
        <ele>61.7</ele>
        <time>2018-05-27T08:24:03Z</time>
      </trkpt>
      <trkpt lat="49.25523" lon="1.32072">
        <ele>61.9</ele>
        <time>2018-05-27T08:24:05Z</time>
      </trkpt>
      <trkpt lat="49.25525" lon="1.3209">
        <ele>62.2</ele>
        <time>2018-05-27T08:24:07Z</time>
      </trkpt>
      <trkpt lat="49.25526" lon="1.32108">
        <ele>62.4</ele>
        <time>2018-05-27T08:24:09Z</time>
      </trkpt>
      <trkpt lat="49.25528" lon="1.32125">
        <ele>62.7</ele>
        <time>2018-05-27T08:24:11Z</time>
      </trkpt>
      <trkpt lat="49.2553" lon="1.32142">
        <ele>62.9</ele>
        <time>2018-05-27T08:24:13Z</time>
      </trkpt>
      <trkpt lat="49.25531" lon="1.3216">
        <ele>63</ele>
        <time>2018-05-27T08:24:15Z</time>
      </trkpt>
      <trkpt lat="49.25532" lon="1.32177">
        <ele>63.1</ele>
        <time>2018-05-27T08:24:17Z</time>
      </trkpt>
      <trkpt lat="49.25534" lon="1.32194">
        <ele>63.3</ele>
        <time>2018-05-27T08:24:19Z</time>
      </trkpt>
      <trkpt lat="49.25536" lon="1.32211">
        <ele>63.4</ele>
        <time>2018-05-27T08:24:21Z</time>
      </trkpt>
      <trkpt lat="49.25538" lon="1.32229">
        <ele>63.6</ele>
        <time>2018-05-27T08:24:23Z</time>
      </trkpt>
      <trkpt lat="49.2554" lon="1.32247">
        <ele>63.6</ele>
        <time>2018-05-27T08:24:25Z</time>
      </trkpt>
      <trkpt lat="49.25544" lon="1.32265">
        <ele>63.7</ele>
        <time>2018-05-27T08:24:27Z</time>
      </trkpt>
      <trkpt lat="49.25548" lon="1.32282">
        <ele>63.7</ele>
        <time>2018-05-27T08:24:29Z</time>
      </trkpt>
      <trkpt lat="49.25553" lon="1.32299">
        <ele>63.9</ele>
        <time>2018-05-27T08:24:31Z</time>
      </trkpt>
      <trkpt lat="49.25558" lon="1.32315">
        <ele>64.1</ele>
        <time>2018-05-27T08:24:33Z</time>
      </trkpt>
      <trkpt lat="49.25563" lon="1.32331">
        <ele>64.3</ele>
        <time>2018-05-27T08:24:35Z</time>
      </trkpt>
      <trkpt lat="49.25568" lon="1.32346">
        <ele>64.6</ele>
        <time>2018-05-27T08:24:37Z</time>
      </trkpt>
      <trkpt lat="49.25573" lon="1.32362">
        <ele>64.7</ele>
        <time>2018-05-27T08:24:39Z</time>
      </trkpt>
      <trkpt lat="49.25577" lon="1.32376">
        <ele>65.1</ele>
        <time>2018-05-27T08:24:41Z</time>
      </trkpt>
      <trkpt lat="49.25581" lon="1.3239">
        <ele>65.5</ele>
        <time>2018-05-27T08:24:43Z</time>
      </trkpt>
      <trkpt lat="49.25586" lon="1.32404">
        <ele>65.9</ele>
        <time>2018-05-27T08:24:45Z</time>
      </trkpt>
      <trkpt lat="49.2559" lon="1.32418">
        <ele>66.2</ele>
        <time>2018-05-27T08:24:47Z</time>
      </trkpt>
      <trkpt lat="49.25595" lon="1.32431">
        <ele>66.5</ele>
        <time>2018-05-27T08:24:49Z</time>
      </trkpt>
      <trkpt lat="49.25599" lon="1.32445">
        <ele>66.8</ele>
        <time>2018-05-27T08:24:51Z</time>
      </trkpt>
      <trkpt lat="49.25603" lon="1.32459">
        <ele>67.2</ele>
        <time>2018-05-27T08:24:53Z</time>
      </trkpt>
      <trkpt lat="49.25608" lon="1.32473">
        <ele>67.6</ele>
        <time>2018-05-27T08:24:55Z</time>
      </trkpt>
      <trkpt lat="49.25612" lon="1.32487">
        <ele>68.1</ele>
        <time>2018-05-27T08:24:57Z</time>
      </trkpt>
      <trkpt lat="49.25616" lon="1.32501">
        <ele>68.4</ele>
        <time>2018-05-27T08:24:59Z</time>
      </trkpt>
      <trkpt lat="49.2562" lon="1.32515">
        <ele>68.6</ele>
        <time>2018-05-27T08:25:01Z</time>
      </trkpt>
      <trkpt lat="49.25625" lon="1.32528">
        <ele>68.9</ele>
        <time>2018-05-27T08:25:03Z</time>
      </trkpt>
      <trkpt lat="49.25629" lon="1.32543">
        <ele>69.4</ele>
        <time>2018-05-27T08:25:05Z</time>
      </trkpt>
      <trkpt lat="49.25633" lon="1.32556">
        <ele>69.7</ele>
        <time>2018-05-27T08:25:07Z</time>
      </trkpt>
      <trkpt lat="49.25637" lon="1.3257">
        <ele>70.2</ele>
        <time>2018-05-27T08:25:09Z</time>
      </trkpt>
      <trkpt lat="49.25641" lon="1.32583">
        <ele>70.6</ele>
        <time>2018-05-27T08:25:11Z</time>
      </trkpt>
      <trkpt lat="49.25646" lon="1.32595">
        <ele>71.2</ele>
        <time>2018-05-27T08:25:13Z</time>
      </trkpt>
      <trkpt lat="49.2565" lon="1.32608">
        <ele>71.6</ele>
        <time>2018-05-27T08:25:15Z</time>
      </trkpt>
      <trkpt lat="49.25654" lon="1.3262">
        <ele>72</ele>
        <time>2018-05-27T08:25:17Z</time>
      </trkpt>
      <trkpt lat="49.2566" lon="1.32639">
        <ele>72.5</ele>
        <time>2018-05-27T08:25:20Z</time>
      </trkpt>
      <trkpt lat="49.25664" lon="1.32656">
        <ele>73.1</ele>
        <time>2018-05-27T08:25:23Z</time>
      </trkpt>
      <trkpt lat="49.25667" lon="1.32675">
        <ele>73.7</ele>
        <time>2018-05-27T08:25:26Z</time>
      </trkpt>
      <trkpt lat="49.25667" lon="1.32693">
        <ele>74.3</ele>
        <time>2018-05-27T08:25:29Z</time>
      </trkpt>
      <trkpt lat="49.25667" lon="1.32709">
        <ele>74.9</ele>
        <time>2018-05-27T08:25:32Z</time>
      </trkpt>
      <trkpt lat="49.25668" lon="1.32725">
        <ele>75.5</ele>
        <time>2018-05-27T08:25:35Z</time>
      </trkpt>
      <trkpt lat="49.25667" lon="1.3274">
        <ele>76.2</ele>
        <time>2018-05-27T08:25:38Z</time>
      </trkpt>
      <trkpt lat="49.25668" lon="1.32755">
        <ele>76.9</ele>
        <time>2018-05-27T08:25:41Z</time>
      </trkpt>
      <trkpt lat="49.2567" lon="1.3277">
        <ele>77.5</ele>
        <time>2018-05-27T08:25:44Z</time>
      </trkpt>
      <trkpt lat="49.25672" lon="1.32786">
        <ele>78.3</ele>
        <time>2018-05-27T08:25:47Z</time>
      </trkpt>
      <trkpt lat="49.25674" lon="1.32801">
        <ele>78.9</ele>
        <time>2018-05-27T08:25:50Z</time>
      </trkpt>
      <trkpt lat="49.25677" lon="1.32816">
        <ele>79.7</ele>
        <time>2018-05-27T08:25:53Z</time>
      </trkpt>
      <trkpt lat="49.2568" lon="1.32832">
        <ele>80.2</ele>
        <time>2018-05-27T08:25:56Z</time>
      </trkpt>
      <trkpt lat="49.25682" lon="1.32847">
        <ele>80.7</ele>
        <time>2018-05-27T08:25:59Z</time>
      </trkpt>
      <trkpt lat="49.25684" lon="1.32862">
        <ele>81.3</ele>
        <time>2018-05-27T08:26:02Z</time>
      </trkpt>
      <trkpt lat="49.25686" lon="1.32877">
        <ele>81.9</ele>
        <time>2018-05-27T08:26:05Z</time>
      </trkpt>
      <trkpt lat="49.25688" lon="1.32892">
        <ele>82.7</ele>
        <time>2018-05-27T08:26:08Z</time>
      </trkpt>
      <trkpt lat="49.25691" lon="1.32906">
        <ele>83.5</ele>
        <time>2018-05-27T08:26:11Z</time>
      </trkpt>
      <trkpt lat="49.25694" lon="1.32919">
        <ele>84.4</ele>
        <time>2018-05-27T08:26:14Z</time>
      </trkpt>
      <trkpt lat="49.25699" lon="1.32931">
        <ele>85.2</ele>
        <time>2018-05-27T08:26:17Z</time>
      </trkpt>
      <trkpt lat="49.25691" lon="1.3294">
        <ele>86.4</ele>
        <time>2018-05-27T08:26:23Z</time>
      </trkpt>
      <trkpt lat="49.25682" lon="1.3294">
        <ele>86.8</ele>
        <time>2018-05-27T08:26:26Z</time>
      </trkpt>
      <trkpt lat="49.25672" lon="1.32941">
        <ele>87.1</ele>
        <time>2018-05-27T08:26:29Z</time>
      </trkpt>
      <trkpt lat="49.25664" lon="1.32945">
        <ele>87.4</ele>
        <time>2018-05-27T08:26:32Z</time>
      </trkpt>
      <trkpt lat="49.25655" lon="1.32952">
        <ele>87.7</ele>
        <time>2018-05-27T08:26:35Z</time>
      </trkpt>
      <trkpt lat="49.25646" lon="1.32963">
        <ele>88.3</ele>
        <time>2018-05-27T08:26:39Z</time>
      </trkpt>
      <trkpt lat="49.25638" lon="1.32971">
        <ele>88.8</ele>
        <time>2018-05-27T08:26:42Z</time>
      </trkpt>
      <trkpt lat="49.25629" lon="1.32982">
        <ele>89.4</ele>
        <time>2018-05-27T08:26:46Z</time>
      </trkpt>
      <trkpt lat="49.25621" lon="1.3299">
        <ele>90.3</ele>
        <time>2018-05-27T08:26:50Z</time>
      </trkpt>
      <trkpt lat="49.25613" lon="1.33">
        <ele>91.2</ele>
        <time>2018-05-27T08:26:54Z</time>
      </trkpt>
      <trkpt lat="49.25605" lon="1.33011">
        <ele>92.1</ele>
        <time>2018-05-27T08:26:58Z</time>
      </trkpt>
      <trkpt lat="49.25598" lon="1.3302">
        <ele>93.3</ele>
        <time>2018-05-27T08:27:02Z</time>
      </trkpt>
      <trkpt lat="49.25591" lon="1.3303">
        <ele>94.1</ele>
        <time>2018-05-27T08:27:06Z</time>
      </trkpt>
      <trkpt lat="49.25584" lon="1.33043">
        <ele>95.2</ele>
        <time>2018-05-27T08:27:11Z</time>
      </trkpt>
      <trkpt lat="49.25578" lon="1.33053">
        <ele>95.7</ele>
        <time>2018-05-27T08:27:15Z</time>
      </trkpt>
      <trkpt lat="49.25571" lon="1.33065">
        <ele>96.6</ele>
        <time>2018-05-27T08:27:20Z</time>
      </trkpt>
      <trkpt lat="49.25565" lon="1.33077">
        <ele>97.9</ele>
        <time>2018-05-27T08:27:25Z</time>
      </trkpt>
      <trkpt lat="49.25558" lon="1.33089">
        <ele>99</ele>
        <time>2018-05-27T08:27:30Z</time>
      </trkpt>
      <trkpt lat="49.25552" lon="1.33102">
        <ele>100.2</ele>
        <time>2018-05-27T08:27:35Z</time>
      </trkpt>
      <trkpt lat="49.25545" lon="1.33112">
        <ele>101.3</ele>
        <time>2018-05-27T08:27:40Z</time>
      </trkpt>
      <trkpt lat="49.25538" lon="1.33124">
        <ele>102.8</ele>
        <time>2018-05-27T08:27:45Z</time>
      </trkpt>
      <trkpt lat="49.25531" lon="1.33135">
        <ele>104</ele>
        <time>2018-05-27T08:27:50Z</time>
      </trkpt>
      <trkpt lat="49.25523" lon="1.33146">
        <ele>105</ele>
        <time>2018-05-27T08:27:55Z</time>
      </trkpt>
      <trkpt lat="49.25516" lon="1.33155">
        <ele>106</ele>
        <time>2018-05-27T08:28:00Z</time>
      </trkpt>
      <trkpt lat="49.25508" lon="1.33166">
        <ele>107.2</ele>
        <time>2018-05-27T08:28:07Z</time>
      </trkpt>
      <trkpt lat="49.25498" lon="1.33178">
        <ele>108.1</ele>
        <time>2018-05-27T08:28:12Z</time>
      </trkpt>
      <trkpt lat="49.2549" lon="1.33184">
        <ele>108.9</ele>
        <time>2018-05-27T08:28:16Z</time>
      </trkpt>
      <trkpt lat="49.25481" lon="1.33193">
        <ele>109.7</ele>
        <time>2018-05-27T08:28:20Z</time>
      </trkpt>
      <trkpt lat="49.25472" lon="1.33203">
        <ele>110.3</ele>
        <time>2018-05-27T08:28:24Z</time>
      </trkpt>
      <trkpt lat="49.25463" lon="1.33213">
        <ele>111.3</ele>
        <time>2018-05-27T08:28:30Z</time>
      </trkpt>
      <trkpt lat="49.25456" lon="1.33226">
        <ele>112.7</ele>
        <time>2018-05-27T08:28:35Z</time>
      </trkpt>
      <trkpt lat="49.25449" lon="1.33239">
        <ele>113.7</ele>
        <time>2018-05-27T08:28:40Z</time>
      </trkpt>
      <trkpt lat="49.25443" lon="1.3325">
        <ele>114.6</ele>
        <time>2018-05-27T08:28:45Z</time>
      </trkpt>
      <trkpt lat="49.25437" lon="1.33261">
        <ele>116</ele>
        <time>2018-05-27T08:28:50Z</time>
      </trkpt>
      <trkpt lat="49.2543" lon="1.33271">
        <ele>117.6</ele>
        <time>2018-05-27T08:28:55Z</time>
      </trkpt>
      <trkpt lat="49.25423" lon="1.33283">
        <ele>119.3</ele>
        <time>2018-05-27T08:29:01Z</time>
      </trkpt>
      <trkpt lat="49.25416" lon="1.33294">
        <ele>120.1</ele>
        <time>2018-05-27T08:29:06Z</time>
      </trkpt>
      <trkpt lat="49.2541" lon="1.33308">
        <ele>121.4</ele>
        <time>2018-05-27T08:29:12Z</time>
      </trkpt>
      <trkpt lat="49.25404" lon="1.33319">
        <ele>122.3</ele>
        <time>2018-05-27T08:29:16Z</time>
      </trkpt>
      <trkpt lat="49.25397" lon="1.33328">
        <ele>123.3</ele>
        <time>2018-05-27T08:29:20Z</time>
      </trkpt>
      <trkpt lat="49.2539" lon="1.33338">
        <ele>124.2</ele>
        <time>2018-05-27T08:29:24Z</time>
      </trkpt>
      <trkpt lat="49.25384" lon="1.3335">
        <ele>125.5</ele>
        <time>2018-05-27T08:29:30Z</time>
      </trkpt>
      <trkpt lat="49.25377" lon="1.33363">
        <ele>126.6</ele>
        <time>2018-05-27T08:29:36Z</time>
      </trkpt>
      <trkpt lat="49.25371" lon="1.33376">
        <ele>127.6</ele>
        <time>2018-05-27T08:29:42Z</time>
      </trkpt>
      <trkpt lat="49.25363" lon="1.33388">
        <ele>128.5</ele>
        <time>2018-05-27T08:29:46Z</time>
      </trkpt>
      <trkpt lat="49.25356" lon="1.33398">
        <ele>129.1</ele>
        <time>2018-05-27T08:29:50Z</time>
      </trkpt>
      <trkpt lat="49.2535" lon="1.3341">
        <ele>129.6</ele>
        <time>2018-05-27T08:29:54Z</time>
      </trkpt>
      <trkpt lat="49.25343" lon="1.33421">
        <ele>130</ele>
        <time>2018-05-27T08:29:58Z</time>
      </trkpt>
      <trkpt lat="49.25337" lon="1.33434">
        <ele>130.5</ele>
        <time>2018-05-27T08:30:02Z</time>
      </trkpt>
      <trkpt lat="49.25333" lon="1.33448">
        <ele>130.6</ele>
        <time>2018-05-27T08:30:05Z</time>
      </trkpt>
      <trkpt lat="49.25329" lon="1.33461">
        <ele>130.9</ele>
        <time>2018-05-27T08:30:08Z</time>
      </trkpt>
      <trkpt lat="49.25323" lon="1.33473">
        <ele>131</ele>
        <time>2018-05-27T08:30:11Z</time>
      </trkpt>
      <trkpt lat="49.25316" lon="1.33486">
        <ele>131.2</ele>
        <time>2018-05-27T08:30:14Z</time>
      </trkpt>
      <trkpt lat="49.25313" lon="1.335">
        <ele>131.2</ele>
        <time>2018-05-27T08:30:17Z</time>
      </trkpt>
      <trkpt lat="49.2531" lon="1.33513">
        <ele>131.2</ele>
        <time>2018-05-27T08:30:19Z</time>
      </trkpt>
      <trkpt lat="49.25307" lon="1.33534">
        <ele>131.1</ele>
        <time>2018-05-27T08:30:22Z</time>
      </trkpt>
      <trkpt lat="49.25305" lon="1.33548">
        <ele>130.9</ele>
        <time>2018-05-27T08:30:24Z</time>
      </trkpt>
      <trkpt lat="49.253" lon="1.33563">
        <ele>130.9</ele>
        <time>2018-05-27T08:30:26Z</time>
      </trkpt>
      <trkpt lat="49.25297" lon="1.33577">
        <ele>130.5</ele>
        <time>2018-05-27T08:30:28Z</time>
      </trkpt>
      <trkpt lat="49.25292" lon="1.33591">
        <ele>130.3</ele>
        <time>2018-05-27T08:30:30Z</time>
      </trkpt>
      <trkpt lat="49.25289" lon="1.33607">
        <ele>130.2</ele>
        <time>2018-05-27T08:30:32Z</time>
      </trkpt>
      <trkpt lat="49.25282" lon="1.33634">
        <ele>129</ele>
        <time>2018-05-27T08:30:35Z</time>
      </trkpt>
      <trkpt lat="49.25274" lon="1.33663">
        <ele>129.3</ele>
        <time>2018-05-27T08:30:38Z</time>
      </trkpt>
      <trkpt lat="49.25267" lon="1.33684">
        <ele>129.2</ele>
        <time>2018-05-27T08:30:40Z</time>
      </trkpt>
      <trkpt lat="49.2526" lon="1.33705">
        <ele>128.7</ele>
        <time>2018-05-27T08:30:42Z</time>
      </trkpt>
      <trkpt lat="49.25255" lon="1.33725">
        <ele>127.7</ele>
        <time>2018-05-27T08:30:44Z</time>
      </trkpt>
      <trkpt lat="49.25251" lon="1.33745">
        <ele>127.5</ele>
        <time>2018-05-27T08:30:46Z</time>
      </trkpt>
      <trkpt lat="49.25245" lon="1.33765">
        <ele>127.1</ele>
        <time>2018-05-27T08:30:48Z</time>
      </trkpt>
      <trkpt lat="49.25239" lon="1.33785">
        <ele>126.7</ele>
        <time>2018-05-27T08:30:50Z</time>
      </trkpt>
      <trkpt lat="49.25234" lon="1.33807">
        <ele>126</ele>
        <time>2018-05-27T08:30:52Z</time>
      </trkpt>
      <trkpt lat="49.25229" lon="1.3383">
        <ele>125.6</ele>
        <time>2018-05-27T08:30:54Z</time>
      </trkpt>
      <trkpt lat="49.25225" lon="1.33852">
        <ele>124.9</ele>
        <time>2018-05-27T08:30:56Z</time>
      </trkpt>
      <trkpt lat="49.2522" lon="1.33876">
        <ele>124.3</ele>
        <time>2018-05-27T08:30:58Z</time>
      </trkpt>
      <trkpt lat="49.25216" lon="1.33901">
        <ele>123.7</ele>
        <time>2018-05-27T08:31:00Z</time>
      </trkpt>
      <trkpt lat="49.25212" lon="1.33922">
        <ele>123.3</ele>
        <time>2018-05-27T08:31:02Z</time>
      </trkpt>
      <trkpt lat="49.25211" lon="1.3394">
        <ele>123.4</ele>
        <time>2018-05-27T08:31:04Z</time>
      </trkpt>
      <trkpt lat="49.25209" lon="1.33958">
        <ele>124</ele>
        <time>2018-05-27T08:31:06Z</time>
      </trkpt>
      <trkpt lat="49.25207" lon="1.33975">
        <ele>124.7</ele>
        <time>2018-05-27T08:31:08Z</time>
      </trkpt>
      <trkpt lat="49.25205" lon="1.33989">
        <ele>125.3</ele>
        <time>2018-05-27T08:31:10Z</time>
      </trkpt>
      <trkpt lat="49.25203" lon="1.34003">
        <ele>125.7</ele>
        <time>2018-05-27T08:31:12Z</time>
      </trkpt>
      <trkpt lat="49.25202" lon="1.34018">
        <ele>126</ele>
        <time>2018-05-27T08:31:14Z</time>
      </trkpt>
      <trkpt lat="49.25201" lon="1.34039">
        <ele>126.4</ele>
        <time>2018-05-27T08:31:17Z</time>
      </trkpt>
      <trkpt lat="49.25199" lon="1.34053">
        <ele>126.8</ele>
        <time>2018-05-27T08:31:19Z</time>
      </trkpt>
      <trkpt lat="49.25195" lon="1.34068">
        <ele>127.2</ele>
        <time>2018-05-27T08:31:21Z</time>
      </trkpt>
      <trkpt lat="49.2519" lon="1.34084">
        <ele>127.4</ele>
        <time>2018-05-27T08:31:23Z</time>
      </trkpt>
      <trkpt lat="49.25185" lon="1.34103">
        <ele>127.6</ele>
        <time>2018-05-27T08:31:25Z</time>
      </trkpt>
      <trkpt lat="49.25181" lon="1.3412">
        <ele>127.7</ele>
        <time>2018-05-27T08:31:27Z</time>
      </trkpt>
      <trkpt lat="49.25177" lon="1.34137">
        <ele>127.7</ele>
        <time>2018-05-27T08:31:29Z</time>
      </trkpt>
      <trkpt lat="49.25171" lon="1.34155">
        <ele>127.9</ele>
        <time>2018-05-27T08:31:31Z</time>
      </trkpt>
      <trkpt lat="49.25167" lon="1.34172">
        <ele>128.1</ele>
        <time>2018-05-27T08:31:33Z</time>
      </trkpt>
      <trkpt lat="49.25163" lon="1.34188">
        <ele>128.2</ele>
        <time>2018-05-27T08:31:35Z</time>
      </trkpt>
      <trkpt lat="49.25157" lon="1.34208">
        <ele>128.1</ele>
        <time>2018-05-27T08:31:37Z</time>
      </trkpt>
      <trkpt lat="49.25152" lon="1.34226">
        <ele>128.3</ele>
        <time>2018-05-27T08:31:39Z</time>
      </trkpt>
      <trkpt lat="49.25148" lon="1.34246">
        <ele>128.3</ele>
        <time>2018-05-27T08:31:41Z</time>
      </trkpt>
      <trkpt lat="49.25145" lon="1.34267">
        <ele>128.3</ele>
        <time>2018-05-27T08:31:43Z</time>
      </trkpt>
      <trkpt lat="49.25141" lon="1.34288">
        <ele>128</ele>
        <time>2018-05-27T08:31:45Z</time>
      </trkpt>
      <trkpt lat="49.2514" lon="1.34308">
        <ele>128.1</ele>
        <time>2018-05-27T08:31:47Z</time>
      </trkpt>
      <trkpt lat="49.25139" lon="1.34325">
        <ele>128.2</ele>
        <time>2018-05-27T08:31:49Z</time>
      </trkpt>
      <trkpt lat="49.25141" lon="1.34343">
        <ele>128.3</ele>
        <time>2018-05-27T08:31:51Z</time>
      </trkpt>
      <trkpt lat="49.25145" lon="1.34359">
        <ele>128.5</ele>
        <time>2018-05-27T08:31:53Z</time>
      </trkpt>
      <trkpt lat="49.25151" lon="1.34373">
        <ele>128.6</ele>
        <time>2018-05-27T08:31:55Z</time>
      </trkpt>
      <trkpt lat="49.25157" lon="1.34386">
        <ele>128.7</ele>
        <time>2018-05-27T08:31:57Z</time>
      </trkpt>
      <trkpt lat="49.25162" lon="1.34397">
        <ele>128.9</ele>
        <time>2018-05-27T08:31:59Z</time>
      </trkpt>
      <trkpt lat="49.25163" lon="1.34411">
        <ele>129.3</ele>
        <time>2018-05-27T08:32:17Z</time>
      </trkpt>
      <trkpt lat="49.25173" lon="1.34416">
        <ele>129.8</ele>
        <time>2018-05-27T08:37:39Z</time>
      </trkpt>
      <trkpt lat="49.25182" lon="1.34416">
        <ele>130.1</ele>
        <time>2018-05-27T08:37:43Z</time>
      </trkpt>
      <trkpt lat="49.25192" lon="1.34419">
        <ele>130.3</ele>
        <time>2018-05-27T08:37:47Z</time>
      </trkpt>
      <trkpt lat="49.25204" lon="1.34422">
        <ele>130.7</ele>
        <time>2018-05-27T08:37:51Z</time>
      </trkpt>
      <trkpt lat="49.25213" lon="1.34426">
        <ele>131.1</ele>
        <time>2018-05-27T08:37:54Z</time>
      </trkpt>
      <trkpt lat="49.25223" lon="1.3443">
        <ele>131.4</ele>
        <time>2018-05-27T08:37:57Z</time>
      </trkpt>
      <trkpt lat="49.25233" lon="1.34435">
        <ele>131.5</ele>
        <time>2018-05-27T08:38:00Z</time>
      </trkpt>
      <trkpt lat="49.25243" lon="1.34443">
        <ele>131.8</ele>
        <time>2018-05-27T08:38:03Z</time>
      </trkpt>
      <trkpt lat="49.25252" lon="1.34454">
        <ele>132</ele>
        <time>2018-05-27T08:38:06Z</time>
      </trkpt>
      <trkpt lat="49.25258" lon="1.34468">
        <ele>132.5</ele>
        <time>2018-05-27T08:38:09Z</time>
      </trkpt>
      <trkpt lat="49.25264" lon="1.34483">
        <ele>132.8</ele>
        <time>2018-05-27T08:38:12Z</time>
      </trkpt>
      <trkpt lat="49.2527" lon="1.34499">
        <ele>133</ele>
        <time>2018-05-27T08:38:15Z</time>
      </trkpt>
      <trkpt lat="49.25275" lon="1.34516">
        <ele>133.1</ele>
        <time>2018-05-27T08:38:18Z</time>
      </trkpt>
      <trkpt lat="49.25282" lon="1.34533">
        <ele>133.3</ele>
        <time>2018-05-27T08:38:21Z</time>
      </trkpt>
      <trkpt lat="49.25286" lon="1.34545">
        <ele>133.4</ele>
        <time>2018-05-27T08:38:23Z</time>
      </trkpt>
      <trkpt lat="49.25291" lon="1.34558">
        <ele>133.4</ele>
        <time>2018-05-27T08:38:25Z</time>
      </trkpt>
      <trkpt lat="49.25296" lon="1.34571">
        <ele>133.4</ele>
        <time>2018-05-27T08:38:27Z</time>
      </trkpt>
      <trkpt lat="49.253" lon="1.34585">
        <ele>133.5</ele>
        <time>2018-05-27T08:38:29Z</time>
      </trkpt>
      <trkpt lat="49.25302" lon="1.346">
        <ele>133.6</ele>
        <time>2018-05-27T08:38:31Z</time>
      </trkpt>
      <trkpt lat="49.25303" lon="1.34615">
        <ele>133.9</ele>
        <time>2018-05-27T08:38:33Z</time>
      </trkpt>
      <trkpt lat="49.25302" lon="1.34632">
        <ele>133.9</ele>
        <time>2018-05-27T08:38:35Z</time>
      </trkpt>
      <trkpt lat="49.25302" lon="1.34648">
        <ele>133.9</ele>
        <time>2018-05-27T08:38:37Z</time>
      </trkpt>
      <trkpt lat="49.25302" lon="1.34664">
        <ele>133.9</ele>
        <time>2018-05-27T08:38:39Z</time>
      </trkpt>
      <trkpt lat="49.25302" lon="1.3468">
        <ele>133.9</ele>
        <time>2018-05-27T08:38:41Z</time>
      </trkpt>
      <trkpt lat="49.25302" lon="1.34696">
        <ele>134.1</ele>
        <time>2018-05-27T08:38:43Z</time>
      </trkpt>
      <trkpt lat="49.25302" lon="1.34712">
        <ele>134.2</ele>
        <time>2018-05-27T08:38:45Z</time>
      </trkpt>
      <trkpt lat="49.25302" lon="1.34727">
        <ele>134.4</ele>
        <time>2018-05-27T08:38:47Z</time>
      </trkpt>
      <trkpt lat="49.25302" lon="1.34743">
        <ele>134.5</ele>
        <time>2018-05-27T08:38:49Z</time>
      </trkpt>
      <trkpt lat="49.25301" lon="1.3476">
        <ele>134.6</ele>
        <time>2018-05-27T08:38:51Z</time>
      </trkpt>
      <trkpt lat="49.25301" lon="1.34776">
        <ele>134.7</ele>
        <time>2018-05-27T08:38:53Z</time>
      </trkpt>
      <trkpt lat="49.25301" lon="1.34791">
        <ele>134.8</ele>
        <time>2018-05-27T08:38:55Z</time>
      </trkpt>
      <trkpt lat="49.25301" lon="1.34808">
        <ele>135</ele>
        <time>2018-05-27T08:38:57Z</time>
      </trkpt>
      <trkpt lat="49.253" lon="1.34823">
        <ele>135.1</ele>
        <time>2018-05-27T08:38:59Z</time>
      </trkpt>
      <trkpt lat="49.253" lon="1.3484">
        <ele>135.2</ele>
        <time>2018-05-27T08:39:01Z</time>
      </trkpt>
      <trkpt lat="49.253" lon="1.34856">
        <ele>135.3</ele>
        <time>2018-05-27T08:39:03Z</time>
      </trkpt>
      <trkpt lat="49.253" lon="1.34873">
        <ele>135.3</ele>
        <time>2018-05-27T08:39:05Z</time>
      </trkpt>
      <trkpt lat="49.25301" lon="1.34889">
        <ele>135.5</ele>
        <time>2018-05-27T08:39:07Z</time>
      </trkpt>
      <trkpt lat="49.25303" lon="1.34905">
        <ele>135.4</ele>
        <time>2018-05-27T08:39:09Z</time>
      </trkpt>
      <trkpt lat="49.25306" lon="1.34921">
        <ele>135.4</ele>
        <time>2018-05-27T08:39:11Z</time>
      </trkpt>
      <trkpt lat="49.25309" lon="1.34936">
        <ele>135.6</ele>
        <time>2018-05-27T08:39:13Z</time>
      </trkpt>
      <trkpt lat="49.25312" lon="1.34952">
        <ele>135.8</ele>
        <time>2018-05-27T08:39:15Z</time>
      </trkpt>
      <trkpt lat="49.25315" lon="1.34968">
        <ele>136</ele>
        <time>2018-05-27T08:39:17Z</time>
      </trkpt>
      <trkpt lat="49.25318" lon="1.34984">
        <ele>136.1</ele>
        <time>2018-05-27T08:39:19Z</time>
      </trkpt>
      <trkpt lat="49.25321" lon="1.35001">
        <ele>136.2</ele>
        <time>2018-05-27T08:39:21Z</time>
      </trkpt>
      <trkpt lat="49.25324" lon="1.35017">
        <ele>136.3</ele>
        <time>2018-05-27T08:39:23Z</time>
      </trkpt>
      <trkpt lat="49.25326" lon="1.35034">
        <ele>136.4</ele>
        <time>2018-05-27T08:39:25Z</time>
      </trkpt>
      <trkpt lat="49.25328" lon="1.3505">
        <ele>136.5</ele>
        <time>2018-05-27T08:39:27Z</time>
      </trkpt>
      <trkpt lat="49.25331" lon="1.35067">
        <ele>136.5</ele>
        <time>2018-05-27T08:39:29Z</time>
      </trkpt>
      <trkpt lat="49.25333" lon="1.35084">
        <ele>136.7</ele>
        <time>2018-05-27T08:39:31Z</time>
      </trkpt>
      <trkpt lat="49.25336" lon="1.351">
        <ele>136.6</ele>
        <time>2018-05-27T08:39:33Z</time>
      </trkpt>
      <trkpt lat="49.2534" lon="1.35117">
        <ele>136.7</ele>
        <time>2018-05-27T08:39:35Z</time>
      </trkpt>
      <trkpt lat="49.25344" lon="1.35132">
        <ele>136.7</ele>
        <time>2018-05-27T08:39:37Z</time>
      </trkpt>
      <trkpt lat="49.25349" lon="1.35148">
        <ele>136.7</ele>
        <time>2018-05-27T08:39:39Z</time>
      </trkpt>
      <trkpt lat="49.25354" lon="1.35163">
        <ele>136.8</ele>
        <time>2018-05-27T08:39:41Z</time>
      </trkpt>
      <trkpt lat="49.25359" lon="1.35179">
        <ele>136.9</ele>
        <time>2018-05-27T08:39:43Z</time>
      </trkpt>
      <trkpt lat="49.25364" lon="1.35194">
        <ele>137</ele>
        <time>2018-05-27T08:39:45Z</time>
      </trkpt>
      <trkpt lat="49.25369" lon="1.3521">
        <ele>137.1</ele>
        <time>2018-05-27T08:39:47Z</time>
      </trkpt>
      <trkpt lat="49.25373" lon="1.35226">
        <ele>137.2</ele>
        <time>2018-05-27T08:39:49Z</time>
      </trkpt>
      <trkpt lat="49.25378" lon="1.35242">
        <ele>137.2</ele>
        <time>2018-05-27T08:39:51Z</time>
      </trkpt>
      <trkpt lat="49.25382" lon="1.35257">
        <ele>137.4</ele>
        <time>2018-05-27T08:39:53Z</time>
      </trkpt>
      <trkpt lat="49.25387" lon="1.35273">
        <ele>137.5</ele>
        <time>2018-05-27T08:39:55Z</time>
      </trkpt>
      <trkpt lat="49.25391" lon="1.35289">
        <ele>137.5</ele>
        <time>2018-05-27T08:39:57Z</time>
      </trkpt>
      <trkpt lat="49.25395" lon="1.35305">
        <ele>137.5</ele>
        <time>2018-05-27T08:39:59Z</time>
      </trkpt>
      <trkpt lat="49.25398" lon="1.35321">
        <ele>137.6</ele>
        <time>2018-05-27T08:40:01Z</time>
      </trkpt>
      <trkpt lat="49.25401" lon="1.35338">
        <ele>137.6</ele>
        <time>2018-05-27T08:40:03Z</time>
      </trkpt>
      <trkpt lat="49.25404" lon="1.35355">
        <ele>137.7</ele>
        <time>2018-05-27T08:40:05Z</time>
      </trkpt>
      <trkpt lat="49.25406" lon="1.35372">
        <ele>137.9</ele>
        <time>2018-05-27T08:40:07Z</time>
      </trkpt>
      <trkpt lat="49.25409" lon="1.35389">
        <ele>137.9</ele>
        <time>2018-05-27T08:40:09Z</time>
      </trkpt>
      <trkpt lat="49.25411" lon="1.35406">
        <ele>138</ele>
        <time>2018-05-27T08:40:11Z</time>
      </trkpt>
      <trkpt lat="49.25414" lon="1.35423">
        <ele>138.1</ele>
        <time>2018-05-27T08:40:13Z</time>
      </trkpt>
      <trkpt lat="49.25417" lon="1.3544">
        <ele>138.2</ele>
        <time>2018-05-27T08:40:15Z</time>
      </trkpt>
      <trkpt lat="49.2542" lon="1.35457">
        <ele>138.2</ele>
        <time>2018-05-27T08:40:17Z</time>
      </trkpt>
      <trkpt lat="49.25424" lon="1.35473">
        <ele>138.3</ele>
        <time>2018-05-27T08:40:19Z</time>
      </trkpt>
      <trkpt lat="49.25431" lon="1.35488">
        <ele>138.4</ele>
        <time>2018-05-27T08:40:21Z</time>
      </trkpt>
      <trkpt lat="49.25438" lon="1.35502">
        <ele>138.2</ele>
        <time>2018-05-27T08:40:23Z</time>
      </trkpt>
      <trkpt lat="49.25444" lon="1.35517">
        <ele>138.2</ele>
        <time>2018-05-27T08:40:25Z</time>
      </trkpt>
      <trkpt lat="49.25451" lon="1.35532">
        <ele>138.3</ele>
        <time>2018-05-27T08:40:27Z</time>
      </trkpt>
      <trkpt lat="49.25458" lon="1.35547">
        <ele>138.3</ele>
        <time>2018-05-27T08:40:29Z</time>
      </trkpt>
      <trkpt lat="49.25464" lon="1.35563">
        <ele>138.2</ele>
        <time>2018-05-27T08:40:31Z</time>
      </trkpt>
      <trkpt lat="49.25471" lon="1.35579">
        <ele>138.1</ele>
        <time>2018-05-27T08:40:33Z</time>
      </trkpt>
      <trkpt lat="49.25477" lon="1.35596">
        <ele>137.8</ele>
        <time>2018-05-27T08:40:35Z</time>
      </trkpt>
      <trkpt lat="49.25485" lon="1.35611">
        <ele>137.8</ele>
        <time>2018-05-27T08:40:37Z</time>
      </trkpt>
      <trkpt lat="49.25493" lon="1.35626">
        <ele>137.6</ele>
        <time>2018-05-27T08:40:39Z</time>
      </trkpt>
      <trkpt lat="49.25502" lon="1.3564">
        <ele>137.6</ele>
        <time>2018-05-27T08:40:41Z</time>
      </trkpt>
      <trkpt lat="49.25512" lon="1.35652">
        <ele>137.4</ele>
        <time>2018-05-27T08:40:43Z</time>
      </trkpt>
      <trkpt lat="49.25523" lon="1.35663">
        <ele>137.2</ele>
        <time>2018-05-27T08:40:45Z</time>
      </trkpt>
      <trkpt lat="49.25534" lon="1.35674">
        <ele>137</ele>
        <time>2018-05-27T08:40:47Z</time>
      </trkpt>
      <trkpt lat="49.25545" lon="1.35686">
        <ele>136.8</ele>
        <time>2018-05-27T08:40:49Z</time>
      </trkpt>
      <trkpt lat="49.25556" lon="1.35697">
        <ele>136.6</ele>
        <time>2018-05-27T08:40:51Z</time>
      </trkpt>
      <trkpt lat="49.25568" lon="1.35707">
        <ele>136.4</ele>
        <time>2018-05-27T08:40:53Z</time>
      </trkpt>
      <trkpt lat="49.25579" lon="1.35717">
        <ele>136.2</ele>
        <time>2018-05-27T08:40:55Z</time>
      </trkpt>
      <trkpt lat="49.25591" lon="1.35726">
        <ele>136.1</ele>
        <time>2018-05-27T08:40:57Z</time>
      </trkpt>
      <trkpt lat="49.25602" lon="1.35735">
        <ele>136</ele>
        <time>2018-05-27T08:40:59Z</time>
      </trkpt>
      <trkpt lat="49.25613" lon="1.35744">
        <ele>135.8</ele>
        <time>2018-05-27T08:41:01Z</time>
      </trkpt>
      <trkpt lat="49.25624" lon="1.35753">
        <ele>135.6</ele>
        <time>2018-05-27T08:41:03Z</time>
      </trkpt>
      <trkpt lat="49.25634" lon="1.35762">
        <ele>135.6</ele>
        <time>2018-05-27T08:41:05Z</time>
      </trkpt>
      <trkpt lat="49.25645" lon="1.3577">
        <ele>135.6</ele>
        <time>2018-05-27T08:41:07Z</time>
      </trkpt>
      <trkpt lat="49.25656" lon="1.35773">
        <ele>135.6</ele>
        <time>2018-05-27T08:41:09Z</time>
      </trkpt>
      <trkpt lat="49.25669" lon="1.3577">
        <ele>135.6</ele>
        <time>2018-05-27T08:41:11Z</time>
      </trkpt>
      <trkpt lat="49.25681" lon="1.35765">
        <ele>135.6</ele>
        <time>2018-05-27T08:41:13Z</time>
      </trkpt>
      <trkpt lat="49.25693" lon="1.3576">
        <ele>135.5</ele>
        <time>2018-05-27T08:41:15Z</time>
      </trkpt>
      <trkpt lat="49.25706" lon="1.35754">
        <ele>135.2</ele>
        <time>2018-05-27T08:41:17Z</time>
      </trkpt>
      <trkpt lat="49.25715" lon="1.35753">
        <ele>134.4</ele>
        <time>2018-05-27T08:41:20Z</time>
      </trkpt>
      <trkpt lat="49.25717" lon="1.3577">
        <ele>133.4</ele>
        <time>2018-05-27T08:41:24Z</time>
      </trkpt>
      <trkpt lat="49.25718" lon="1.35791">
        <ele>133</ele>
        <time>2018-05-27T08:41:27Z</time>
      </trkpt>
      <trkpt lat="49.25719" lon="1.35806">
        <ele>132.9</ele>
        <time>2018-05-27T08:41:29Z</time>
      </trkpt>
      <trkpt lat="49.25718" lon="1.35823">
        <ele>132.9</ele>
        <time>2018-05-27T08:41:31Z</time>
      </trkpt>
      <trkpt lat="49.25719" lon="1.35841">
        <ele>133</ele>
        <time>2018-05-27T08:41:33Z</time>
      </trkpt>
      <trkpt lat="49.2572" lon="1.35857">
        <ele>133.1</ele>
        <time>2018-05-27T08:41:35Z</time>
      </trkpt>
      <trkpt lat="49.25722" lon="1.35873">
        <ele>133.3</ele>
        <time>2018-05-27T08:41:37Z</time>
      </trkpt>
      <trkpt lat="49.25724" lon="1.35889">
        <ele>133.5</ele>
        <time>2018-05-27T08:41:39Z</time>
      </trkpt>
      <trkpt lat="49.25726" lon="1.35904">
        <ele>133.6</ele>
        <time>2018-05-27T08:41:41Z</time>
      </trkpt>
      <trkpt lat="49.25729" lon="1.35919">
        <ele>133.5</ele>
        <time>2018-05-27T08:41:43Z</time>
      </trkpt>
      <trkpt lat="49.2573" lon="1.35934">
        <ele>133.8</ele>
        <time>2018-05-27T08:41:45Z</time>
      </trkpt>
      <trkpt lat="49.25739" lon="1.35947">
        <ele>134</ele>
        <time>2018-05-27T08:41:48Z</time>
      </trkpt>
      <trkpt lat="49.25748" lon="1.35946">
        <ele>134.1</ele>
        <time>2018-05-27T08:41:50Z</time>
      </trkpt>
      <trkpt lat="49.25758" lon="1.35945">
        <ele>134.4</ele>
        <time>2018-05-27T08:41:52Z</time>
      </trkpt>
      <trkpt lat="49.25769" lon="1.35944">
        <ele>134.4</ele>
        <time>2018-05-27T08:41:54Z</time>
      </trkpt>
      <trkpt lat="49.2578" lon="1.35942">
        <ele>134.2</ele>
        <time>2018-05-27T08:41:56Z</time>
      </trkpt>
      <trkpt lat="49.2579" lon="1.35941">
        <ele>134.2</ele>
        <time>2018-05-27T08:41:58Z</time>
      </trkpt>
      <trkpt lat="49.25801" lon="1.35943">
        <ele>134</ele>
        <time>2018-05-27T08:42:01Z</time>
      </trkpt>
      <trkpt lat="49.25805" lon="1.3596">
        <ele>134</ele>
        <time>2018-05-27T08:42:04Z</time>
      </trkpt>
      <trkpt lat="49.25806" lon="1.35973">
        <ele>134.2</ele>
        <time>2018-05-27T08:42:06Z</time>
      </trkpt>
      <trkpt lat="49.25809" lon="1.35988">
        <ele>134.3</ele>
        <time>2018-05-27T08:42:08Z</time>
      </trkpt>
      <trkpt lat="49.25811" lon="1.36004">
        <ele>134.4</ele>
        <time>2018-05-27T08:42:10Z</time>
      </trkpt>
      <trkpt lat="49.25813" lon="1.3602">
        <ele>134.4</ele>
        <time>2018-05-27T08:42:12Z</time>
      </trkpt>
      <trkpt lat="49.25814" lon="1.36038">
        <ele>134.6</ele>
        <time>2018-05-27T08:42:14Z</time>
      </trkpt>
      <trkpt lat="49.25816" lon="1.36054">
        <ele>134.7</ele>
        <time>2018-05-27T08:42:16Z</time>
      </trkpt>
      <trkpt lat="49.25818" lon="1.36071">
        <ele>134.8</ele>
        <time>2018-05-27T08:42:18Z</time>
      </trkpt>
      <trkpt lat="49.25819" lon="1.36089">
        <ele>134.8</ele>
        <time>2018-05-27T08:42:20Z</time>
      </trkpt>
      <trkpt lat="49.25822" lon="1.36106">
        <ele>134.9</ele>
        <time>2018-05-27T08:42:22Z</time>
      </trkpt>
      <trkpt lat="49.25825" lon="1.36124">
        <ele>134.9</ele>
        <time>2018-05-27T08:42:24Z</time>
      </trkpt>
      <trkpt lat="49.25827" lon="1.36142">
        <ele>135</ele>
        <time>2018-05-27T08:42:26Z</time>
      </trkpt>
      <trkpt lat="49.25828" lon="1.3616">
        <ele>135.1</ele>
        <time>2018-05-27T08:42:28Z</time>
      </trkpt>
      <trkpt lat="49.25831" lon="1.36178">
        <ele>135.1</ele>
        <time>2018-05-27T08:42:30Z</time>
      </trkpt>
      <trkpt lat="49.25833" lon="1.36197">
        <ele>135.1</ele>
        <time>2018-05-27T08:42:32Z</time>
      </trkpt>
      <trkpt lat="49.25836" lon="1.36215">
        <ele>135</ele>
        <time>2018-05-27T08:42:34Z</time>
      </trkpt>
      <trkpt lat="49.25839" lon="1.36235">
        <ele>134.8</ele>
        <time>2018-05-27T08:42:36Z</time>
      </trkpt>
      <trkpt lat="49.25842" lon="1.36255">
        <ele>134.8</ele>
        <time>2018-05-27T08:42:38Z</time>
      </trkpt>
      <trkpt lat="49.25844" lon="1.36275">
        <ele>134.5</ele>
        <time>2018-05-27T08:42:40Z</time>
      </trkpt>
      <trkpt lat="49.25847" lon="1.36295">
        <ele>134.4</ele>
        <time>2018-05-27T08:42:42Z</time>
      </trkpt>
      <trkpt lat="49.2585" lon="1.36315">
        <ele>134.4</ele>
        <time>2018-05-27T08:42:44Z</time>
      </trkpt>
      <trkpt lat="49.25853" lon="1.36335">
        <ele>134.4</ele>
        <time>2018-05-27T08:42:46Z</time>
      </trkpt>
      <trkpt lat="49.25855" lon="1.36354">
        <ele>134.2</ele>
        <time>2018-05-27T08:42:48Z</time>
      </trkpt>
      <trkpt lat="49.25858" lon="1.36375">
        <ele>134.1</ele>
        <time>2018-05-27T08:42:50Z</time>
      </trkpt>
      <trkpt lat="49.25861" lon="1.36395">
        <ele>133.9</ele>
        <time>2018-05-27T08:42:52Z</time>
      </trkpt>
      <trkpt lat="49.25864" lon="1.36415">
        <ele>133.8</ele>
        <time>2018-05-27T08:42:54Z</time>
      </trkpt>
      <trkpt lat="49.25868" lon="1.36436">
        <ele>133.6</ele>
        <time>2018-05-27T08:42:56Z</time>
      </trkpt>
      <trkpt lat="49.2587" lon="1.36457">
        <ele>133.5</ele>
        <time>2018-05-27T08:42:58Z</time>
      </trkpt>
      <trkpt lat="49.25873" lon="1.36478">
        <ele>133.4</ele>
        <time>2018-05-27T08:43:00Z</time>
      </trkpt>
      <trkpt lat="49.25876" lon="1.36499">
        <ele>133.4</ele>
        <time>2018-05-27T08:43:02Z</time>
      </trkpt>
      <trkpt lat="49.25879" lon="1.36519">
        <ele>133.3</ele>
        <time>2018-05-27T08:43:04Z</time>
      </trkpt>
      <trkpt lat="49.25882" lon="1.3654">
        <ele>133.3</ele>
        <time>2018-05-27T08:43:06Z</time>
      </trkpt>
      <trkpt lat="49.25885" lon="1.3656">
        <ele>133.3</ele>
        <time>2018-05-27T08:43:08Z</time>
      </trkpt>
      <trkpt lat="49.25888" lon="1.36579">
        <ele>133.3</ele>
        <time>2018-05-27T08:43:10Z</time>
      </trkpt>
      <trkpt lat="49.25889" lon="1.36597">
        <ele>133.2</ele>
        <time>2018-05-27T08:43:12Z</time>
      </trkpt>
      <trkpt lat="49.25889" lon="1.36614">
        <ele>133.2</ele>
        <time>2018-05-27T08:43:14Z</time>
      </trkpt>
      <trkpt lat="49.2588" lon="1.36626">
        <ele>133</ele>
        <time>2018-05-27T08:43:17Z</time>
      </trkpt>
      <trkpt lat="49.25869" lon="1.36631">
        <ele>132.9</ele>
        <time>2018-05-27T08:43:19Z</time>
      </trkpt>
      <trkpt lat="49.25858" lon="1.36636">
        <ele>132.5</ele>
        <time>2018-05-27T08:43:21Z</time>
      </trkpt>
      <trkpt lat="49.25846" lon="1.36641">
        <ele>132.8</ele>
        <time>2018-05-27T08:43:23Z</time>
      </trkpt>
      <trkpt lat="49.25833" lon="1.36647">
        <ele>132.6</ele>
        <time>2018-05-27T08:43:25Z</time>
      </trkpt>
      <trkpt lat="49.25821" lon="1.36652">
        <ele>132.5</ele>
        <time>2018-05-27T08:43:27Z</time>
      </trkpt>
      <trkpt lat="49.25809" lon="1.36658">
        <ele>132.3</ele>
        <time>2018-05-27T08:43:29Z</time>
      </trkpt>
      <trkpt lat="49.25796" lon="1.36663">
        <ele>132</ele>
        <time>2018-05-27T08:43:31Z</time>
      </trkpt>
      <trkpt lat="49.25783" lon="1.36669">
        <ele>131.7</ele>
        <time>2018-05-27T08:43:33Z</time>
      </trkpt>
      <trkpt lat="49.25771" lon="1.36674">
        <ele>131.6</ele>
        <time>2018-05-27T08:43:35Z</time>
      </trkpt>
      <trkpt lat="49.25759" lon="1.3668">
        <ele>131.4</ele>
        <time>2018-05-27T08:43:37Z</time>
      </trkpt>
      <trkpt lat="49.25747" lon="1.36685">
        <ele>131</ele>
        <time>2018-05-27T08:43:39Z</time>
      </trkpt>
      <trkpt lat="49.25735" lon="1.3669">
        <ele>130.6</ele>
        <time>2018-05-27T08:43:41Z</time>
      </trkpt>
      <trkpt lat="49.25723" lon="1.36696">
        <ele>130.2</ele>
        <time>2018-05-27T08:43:43Z</time>
      </trkpt>
      <trkpt lat="49.25711" lon="1.36703">
        <ele>130</ele>
        <time>2018-05-27T08:43:45Z</time>
      </trkpt>
      <trkpt lat="49.25704" lon="1.36718">
        <ele>129.7</ele>
        <time>2018-05-27T08:43:47Z</time>
      </trkpt>
      <trkpt lat="49.25703" lon="1.36736">
        <ele>129.7</ele>
        <time>2018-05-27T08:43:49Z</time>
      </trkpt>
      <trkpt lat="49.25702" lon="1.36756">
        <ele>129.6</ele>
        <time>2018-05-27T08:43:51Z</time>
      </trkpt>
      <trkpt lat="49.25701" lon="1.36776">
        <ele>129.4</ele>
        <time>2018-05-27T08:43:53Z</time>
      </trkpt>
      <trkpt lat="49.25701" lon="1.36795">
        <ele>129.3</ele>
        <time>2018-05-27T08:43:55Z</time>
      </trkpt>
      <trkpt lat="49.257" lon="1.36814">
        <ele>129.3</ele>
        <time>2018-05-27T08:43:57Z</time>
      </trkpt>
      <trkpt lat="49.257" lon="1.36832">
        <ele>129.3</ele>
        <time>2018-05-27T08:43:59Z</time>
      </trkpt>
      <trkpt lat="49.257" lon="1.36851">
        <ele>129.3</ele>
        <time>2018-05-27T08:44:01Z</time>
      </trkpt>
      <trkpt lat="49.25699" lon="1.36869">
        <ele>129.2</ele>
        <time>2018-05-27T08:44:03Z</time>
      </trkpt>
      <trkpt lat="49.25699" lon="1.36888">
        <ele>129.1</ele>
        <time>2018-05-27T08:44:05Z</time>
      </trkpt>
      <trkpt lat="49.25699" lon="1.36907">
        <ele>129.1</ele>
        <time>2018-05-27T08:44:07Z</time>
      </trkpt>
      <trkpt lat="49.25698" lon="1.36926">
        <ele>128.8</ele>
        <time>2018-05-27T08:44:09Z</time>
      </trkpt>
      <trkpt lat="49.25698" lon="1.36946">
        <ele>128.7</ele>
        <time>2018-05-27T08:44:11Z</time>
      </trkpt>
      <trkpt lat="49.25697" lon="1.36965">
        <ele>128.5</ele>
        <time>2018-05-27T08:44:13Z</time>
      </trkpt>
      <trkpt lat="49.25696" lon="1.36985">
        <ele>128.5</ele>
        <time>2018-05-27T08:44:15Z</time>
      </trkpt>
      <trkpt lat="49.25696" lon="1.37005">
        <ele>128.4</ele>
        <time>2018-05-27T08:44:17Z</time>
      </trkpt>
      <trkpt lat="49.25695" lon="1.37026">
        <ele>128.1</ele>
        <time>2018-05-27T08:44:19Z</time>
      </trkpt>
      <trkpt lat="49.25694" lon="1.37047">
        <ele>127.7</ele>
        <time>2018-05-27T08:44:21Z</time>
      </trkpt>
      <trkpt lat="49.25693" lon="1.37068">
        <ele>127.3</ele>
        <time>2018-05-27T08:44:23Z</time>
      </trkpt>
      <trkpt lat="49.25693" lon="1.37089">
        <ele>127</ele>
        <time>2018-05-27T08:44:25Z</time>
      </trkpt>
      <trkpt lat="49.25692" lon="1.37111">
        <ele>126.8</ele>
        <time>2018-05-27T08:44:27Z</time>
      </trkpt>
      <trkpt lat="49.25691" lon="1.37132">
        <ele>126</ele>
        <time>2018-05-27T08:44:29Z</time>
      </trkpt>
      <trkpt lat="49.2569" lon="1.37152">
        <ele>125.7</ele>
        <time>2018-05-27T08:44:31Z</time>
      </trkpt>
      <trkpt lat="49.2569" lon="1.37172">
        <ele>125.5</ele>
        <time>2018-05-27T08:44:33Z</time>
      </trkpt>
      <trkpt lat="49.25691" lon="1.37192">
        <ele>125</ele>
        <time>2018-05-27T08:44:35Z</time>
      </trkpt>
      <trkpt lat="49.25695" lon="1.37212">
        <ele>124.3</ele>
        <time>2018-05-27T08:44:37Z</time>
      </trkpt>
      <trkpt lat="49.25697" lon="1.37234">
        <ele>123.6</ele>
        <time>2018-05-27T08:44:39Z</time>
      </trkpt>
      <trkpt lat="49.25697" lon="1.37259">
        <ele>122.6</ele>
        <time>2018-05-27T08:44:41Z</time>
      </trkpt>
      <trkpt lat="49.25696" lon="1.37283">
        <ele>121.4</ele>
        <time>2018-05-27T08:44:43Z</time>
      </trkpt>
      <trkpt lat="49.25697" lon="1.373">
        <ele>120</ele>
        <time>2018-05-27T08:44:45Z</time>
      </trkpt>
      <trkpt lat="49.25699" lon="1.37314">
        <ele>118.7</ele>
        <time>2018-05-27T08:44:47Z</time>
      </trkpt>
      <trkpt lat="49.25703" lon="1.37329">
        <ele>117.7</ele>
        <time>2018-05-27T08:44:49Z</time>
      </trkpt>
      <trkpt lat="49.25707" lon="1.37347">
        <ele>116.5</ele>
        <time>2018-05-27T08:44:52Z</time>
      </trkpt>
      <trkpt lat="49.25707" lon="1.37363">
        <ele>115.3</ele>
        <time>2018-05-27T08:44:55Z</time>
      </trkpt>
      <trkpt lat="49.25707" lon="1.37382">
        <ele>113.5</ele>
        <time>2018-05-27T08:44:58Z</time>
      </trkpt>
      <trkpt lat="49.25711" lon="1.37399">
        <ele>112.1</ele>
        <time>2018-05-27T08:45:01Z</time>
      </trkpt>
      <trkpt lat="49.25717" lon="1.37413">
        <ele>111.2</ele>
        <time>2018-05-27T08:45:03Z</time>
      </trkpt>
      <trkpt lat="49.25721" lon="1.37426">
        <ele>109.9</ele>
        <time>2018-05-27T08:45:05Z</time>
      </trkpt>
      <trkpt lat="49.25721" lon="1.3744">
        <ele>108.8</ele>
        <time>2018-05-27T08:45:07Z</time>
      </trkpt>
      <trkpt lat="49.2572" lon="1.37459">
        <ele>107.8</ele>
        <time>2018-05-27T08:45:09Z</time>
      </trkpt>
      <trkpt lat="49.25719" lon="1.37479">
        <ele>106.1</ele>
        <time>2018-05-27T08:45:12Z</time>
      </trkpt>
      <trkpt lat="49.2572" lon="1.37499">
        <ele>104.4</ele>
        <time>2018-05-27T08:45:16Z</time>
      </trkpt>
      <trkpt lat="49.25721" lon="1.37519">
        <ele>103.4</ele>
        <time>2018-05-27T08:45:19Z</time>
      </trkpt>
      <trkpt lat="49.25723" lon="1.37537">
        <ele>102</ele>
        <time>2018-05-27T08:45:22Z</time>
      </trkpt>
      <trkpt lat="49.25724" lon="1.37553">
        <ele>100.1</ele>
        <time>2018-05-27T08:45:25Z</time>
      </trkpt>
      <trkpt lat="49.25729" lon="1.3757">
        <ele>98.2</ele>
        <time>2018-05-27T08:45:28Z</time>
      </trkpt>
      <trkpt lat="49.2573" lon="1.37588">
        <ele>97</ele>
        <time>2018-05-27T08:45:30Z</time>
      </trkpt>
      <trkpt lat="49.25729" lon="1.37604">
        <ele>95.6</ele>
        <time>2018-05-27T08:45:32Z</time>
      </trkpt>
      <trkpt lat="49.25732" lon="1.37622">
        <ele>93.2</ele>
        <time>2018-05-27T08:45:35Z</time>
      </trkpt>
      <trkpt lat="49.25731" lon="1.37639">
        <ele>91.4</ele>
        <time>2018-05-27T08:45:37Z</time>
      </trkpt>
      <trkpt lat="49.25729" lon="1.37658">
        <ele>89.3</ele>
        <time>2018-05-27T08:45:40Z</time>
      </trkpt>
      <trkpt lat="49.2573" lon="1.37678">
        <ele>87</ele>
        <time>2018-05-27T08:45:43Z</time>
      </trkpt>
      <trkpt lat="49.2573" lon="1.37698">
        <ele>84.7</ele>
        <time>2018-05-27T08:45:46Z</time>
      </trkpt>
      <trkpt lat="49.25733" lon="1.37712">
        <ele>83.2</ele>
        <time>2018-05-27T08:45:48Z</time>
      </trkpt>
      <trkpt lat="49.25734" lon="1.37731">
        <ele>81.1</ele>
        <time>2018-05-27T08:45:51Z</time>
      </trkpt>
      <trkpt lat="49.25733" lon="1.37748">
        <ele>79</ele>
        <time>2018-05-27T08:45:54Z</time>
      </trkpt>
      <trkpt lat="49.25729" lon="1.37763">
        <ele>76.6</ele>
        <time>2018-05-27T08:45:57Z</time>
      </trkpt>
      <trkpt lat="49.25725" lon="1.37781">
        <ele>74.1</ele>
        <time>2018-05-27T08:46:00Z</time>
      </trkpt>
      <trkpt lat="49.2572" lon="1.37801">
        <ele>71.7</ele>
        <time>2018-05-27T08:46:03Z</time>
      </trkpt>
      <trkpt lat="49.25715" lon="1.37815">
        <ele>70.2</ele>
        <time>2018-05-27T08:46:05Z</time>
      </trkpt>
      <trkpt lat="49.25711" lon="1.37828">
        <ele>68.5</ele>
        <time>2018-05-27T08:46:07Z</time>
      </trkpt>
      <trkpt lat="49.25704" lon="1.37838">
        <ele>66</ele>
        <time>2018-05-27T08:46:10Z</time>
      </trkpt>
      <trkpt lat="49.25694" lon="1.37843">
        <ele>62.9</ele>
        <time>2018-05-27T08:46:15Z</time>
      </trkpt>
      <trkpt lat="49.25684" lon="1.37845">
        <ele>60.7</ele>
        <time>2018-05-27T08:46:19Z</time>
      </trkpt>
      <trkpt lat="49.25672" lon="1.37841">
        <ele>57.5</ele>
        <time>2018-05-27T08:46:25Z</time>
      </trkpt>
      <trkpt lat="49.25659" lon="1.37844">
        <ele>55.7</ele>
        <time>2018-05-27T08:46:29Z</time>
      </trkpt>
      <trkpt lat="49.25652" lon="1.37855">
        <ele>54.9</ele>
        <time>2018-05-27T08:46:32Z</time>
      </trkpt>
      <trkpt lat="49.25643" lon="1.37863">
        <ele>53.9</ele>
        <time>2018-05-27T08:46:37Z</time>
      </trkpt>
      <trkpt lat="49.25631" lon="1.37858">
        <ele>52.5</ele>
        <time>2018-05-27T08:46:41Z</time>
      </trkpt>
      <trkpt lat="49.25622" lon="1.37853">
        <ele>50.5</ele>
        <time>2018-05-27T08:46:44Z</time>
      </trkpt>
      <trkpt lat="49.25612" lon="1.37849">
        <ele>48.5</ele>
        <time>2018-05-27T08:46:47Z</time>
      </trkpt>
      <trkpt lat="49.256" lon="1.37848">
        <ele>45.9</ele>
        <time>2018-05-27T08:46:50Z</time>
      </trkpt>
      <trkpt lat="49.2559" lon="1.37846">
        <ele>43.8</ele>
        <time>2018-05-27T08:46:53Z</time>
      </trkpt>
      <trkpt lat="49.2558" lon="1.37849">
        <ele>42.4</ele>
        <time>2018-05-27T08:46:55Z</time>
      </trkpt>
      <trkpt lat="49.25568" lon="1.37847">
        <ele>39.7</ele>
        <time>2018-05-27T08:46:58Z</time>
      </trkpt>
      <trkpt lat="49.25558" lon="1.37844">
        <ele>37</ele>
        <time>2018-05-27T08:47:00Z</time>
      </trkpt>
      <trkpt lat="49.25543" lon="1.3784">
        <ele>35.5</ele>
        <time>2018-05-27T08:47:03Z</time>
      </trkpt>
      <trkpt lat="49.25529" lon="1.37838">
        <ele>33.5</ele>
        <time>2018-05-27T08:47:05Z</time>
      </trkpt>
      <trkpt lat="49.25519" lon="1.37835">
        <ele>31.8</ele>
        <time>2018-05-27T08:47:07Z</time>
      </trkpt>
      <trkpt lat="49.25508" lon="1.37837">
        <ele>29.4</ele>
        <time>2018-05-27T08:47:10Z</time>
      </trkpt>
      <trkpt lat="49.25496" lon="1.37839">
        <ele>27.5</ele>
        <time>2018-05-27T08:47:13Z</time>
      </trkpt>
      <trkpt lat="49.25485" lon="1.37846">
        <ele>26.4</ele>
        <time>2018-05-27T08:47:15Z</time>
      </trkpt>
      <trkpt lat="49.25473" lon="1.37847">
        <ele>25.4</ele>
        <time>2018-05-27T08:47:17Z</time>
      </trkpt>
      <trkpt lat="49.25459" lon="1.37848">
        <ele>24.4</ele>
        <time>2018-05-27T08:47:19Z</time>
      </trkpt>
      <trkpt lat="49.25444" lon="1.3785">
        <ele>23.5</ele>
        <time>2018-05-27T08:47:21Z</time>
      </trkpt>
      <trkpt lat="49.25429" lon="1.37853">
        <ele>22.6</ele>
        <time>2018-05-27T08:47:23Z</time>
      </trkpt>
      <trkpt lat="49.25414" lon="1.37865">
        <ele>21.6</ele>
        <time>2018-05-27T08:47:25Z</time>
      </trkpt>
      <trkpt lat="49.254" lon="1.37875">
        <ele>20.5</ele>
        <time>2018-05-27T08:47:27Z</time>
      </trkpt>
      <trkpt lat="49.25387" lon="1.37871">
        <ele>19.5</ele>
        <time>2018-05-27T08:47:29Z</time>
      </trkpt>
      <trkpt lat="49.25375" lon="1.3786">
        <ele>18.8</ele>
        <time>2018-05-27T08:47:31Z</time>
      </trkpt>
      <trkpt lat="49.25365" lon="1.37849">
        <ele>18.1</ele>
        <time>2018-05-27T08:47:33Z</time>
      </trkpt>
      <trkpt lat="49.25355" lon="1.37836">
        <ele>17.7</ele>
        <time>2018-05-27T08:47:35Z</time>
      </trkpt>
      <trkpt lat="49.25345" lon="1.37823">
        <ele>17.2</ele>
        <time>2018-05-27T08:47:37Z</time>
      </trkpt>
      <trkpt lat="49.25335" lon="1.3781">
        <ele>16.7</ele>
        <time>2018-05-27T08:47:39Z</time>
      </trkpt>
      <trkpt lat="49.25324" lon="1.37798">
        <ele>16.3</ele>
        <time>2018-05-27T08:47:41Z</time>
      </trkpt>
      <trkpt lat="49.25312" lon="1.37797">
        <ele>16</ele>
        <time>2018-05-27T08:47:43Z</time>
      </trkpt>
      <trkpt lat="49.25298" lon="1.37798">
        <ele>15.4</ele>
        <time>2018-05-27T08:47:45Z</time>
      </trkpt>
      <trkpt lat="49.25284" lon="1.37798">
        <ele>14.8</ele>
        <time>2018-05-27T08:47:47Z</time>
      </trkpt>
      <trkpt lat="49.2527" lon="1.37797">
        <ele>14.2</ele>
        <time>2018-05-27T08:47:49Z</time>
      </trkpt>
      <trkpt lat="49.25256" lon="1.37796">
        <ele>13.8</ele>
        <time>2018-05-27T08:47:51Z</time>
      </trkpt>
      <trkpt lat="49.25243" lon="1.37795">
        <ele>13.2</ele>
        <time>2018-05-27T08:47:53Z</time>
      </trkpt>
      <trkpt lat="49.2523" lon="1.37794">
        <ele>12.8</ele>
        <time>2018-05-27T08:47:55Z</time>
      </trkpt>
      <trkpt lat="49.25216" lon="1.37791">
        <ele>12.8</ele>
        <time>2018-05-27T08:47:57Z</time>
      </trkpt>
      <trkpt lat="49.25203" lon="1.37787">
        <ele>12.7</ele>
        <time>2018-05-27T08:47:59Z</time>
      </trkpt>
      <trkpt lat="49.25191" lon="1.37783">
        <ele>12.4</ele>
        <time>2018-05-27T08:48:01Z</time>
      </trkpt>
      <trkpt lat="49.25178" lon="1.3778">
        <ele>12.4</ele>
        <time>2018-05-27T08:48:03Z</time>
      </trkpt>
      <trkpt lat="49.25166" lon="1.37776">
        <ele>12.2</ele>
        <time>2018-05-27T08:48:05Z</time>
      </trkpt>
      <trkpt lat="49.25154" lon="1.37772">
        <ele>12.1</ele>
        <time>2018-05-27T08:48:07Z</time>
      </trkpt>
      <trkpt lat="49.25144" lon="1.37776">
        <ele>11.8</ele>
        <time>2018-05-27T08:48:10Z</time>
      </trkpt>
      <trkpt lat="49.25135" lon="1.37786">
        <ele>10.8</ele>
        <time>2018-05-27T08:48:18Z</time>
      </trkpt>
      <trkpt lat="49.25134" lon="1.378">
        <ele>10.7</ele>
        <time>2018-05-27T08:48:21Z</time>
      </trkpt>
      <trkpt lat="49.25134" lon="1.37818">
        <ele>10.9</ele>
        <time>2018-05-27T08:48:24Z</time>
      </trkpt>
      <trkpt lat="49.25133" lon="1.37838">
        <ele>10.9</ele>
        <time>2018-05-27T08:48:27Z</time>
      </trkpt>
      <trkpt lat="49.25133" lon="1.37853">
        <ele>11.1</ele>
        <time>2018-05-27T08:48:29Z</time>
      </trkpt>
      <trkpt lat="49.25133" lon="1.37868">
        <ele>11</ele>
        <time>2018-05-27T08:48:31Z</time>
      </trkpt>
      <trkpt lat="49.25134" lon="1.37882">
        <ele>11</ele>
        <time>2018-05-27T08:48:33Z</time>
      </trkpt>
      <trkpt lat="49.25136" lon="1.37897">
        <ele>11</ele>
        <time>2018-05-27T08:48:35Z</time>
      </trkpt>
      <trkpt lat="49.25138" lon="1.37912">
        <ele>11.3</ele>
        <time>2018-05-27T08:48:37Z</time>
      </trkpt>
      <trkpt lat="49.25139" lon="1.37927">
        <ele>11.4</ele>
        <time>2018-05-27T08:48:39Z</time>
      </trkpt>
      <trkpt lat="49.2514" lon="1.37942">
        <ele>11.5</ele>
        <time>2018-05-27T08:48:41Z</time>
      </trkpt>
      <trkpt lat="49.25141" lon="1.37956">
        <ele>11.6</ele>
        <time>2018-05-27T08:48:43Z</time>
      </trkpt>
      <trkpt lat="49.25142" lon="1.37971">
        <ele>11.8</ele>
        <time>2018-05-27T08:48:45Z</time>
      </trkpt>
      <trkpt lat="49.25143" lon="1.37985">
        <ele>11.9</ele>
        <time>2018-05-27T08:48:47Z</time>
      </trkpt>
      <trkpt lat="49.25144" lon="1.38006">
        <ele>12</ele>
        <time>2018-05-27T08:48:50Z</time>
      </trkpt>
      <trkpt lat="49.25144" lon="1.38022">
        <ele>11.9</ele>
        <time>2018-05-27T08:48:52Z</time>
      </trkpt>
      <trkpt lat="49.25144" lon="1.38039">
        <ele>11.9</ele>
        <time>2018-05-27T08:48:54Z</time>
      </trkpt>
      <trkpt lat="49.25143" lon="1.38057">
        <ele>11.9</ele>
        <time>2018-05-27T08:48:56Z</time>
      </trkpt>
      <trkpt lat="49.25142" lon="1.38074">
        <ele>11.8</ele>
        <time>2018-05-27T08:48:58Z</time>
      </trkpt>
      <trkpt lat="49.25141" lon="1.38091">
        <ele>11.8</ele>
        <time>2018-05-27T08:49:00Z</time>
      </trkpt>
      <trkpt lat="49.25139" lon="1.38108">
        <ele>12</ele>
        <time>2018-05-27T08:49:02Z</time>
      </trkpt>
      <trkpt lat="49.25137" lon="1.38125">
        <ele>12</ele>
        <time>2018-05-27T08:49:04Z</time>
      </trkpt>
      <trkpt lat="49.25134" lon="1.38142">
        <ele>12.1</ele>
        <time>2018-05-27T08:49:06Z</time>
      </trkpt>
      <trkpt lat="49.25131" lon="1.38159">
        <ele>11.8</ele>
        <time>2018-05-27T08:49:08Z</time>
      </trkpt>
      <trkpt lat="49.25128" lon="1.38175">
        <ele>11.6</ele>
        <time>2018-05-27T08:49:10Z</time>
      </trkpt>
      <trkpt lat="49.25125" lon="1.38192">
        <ele>11.7</ele>
        <time>2018-05-27T08:49:12Z</time>
      </trkpt>
      <trkpt lat="49.25122" lon="1.38207">
        <ele>11.7</ele>
        <time>2018-05-27T08:49:14Z</time>
      </trkpt>
      <trkpt lat="49.25119" lon="1.38223">
        <ele>11.8</ele>
        <time>2018-05-27T08:49:16Z</time>
      </trkpt>
      <trkpt lat="49.25116" lon="1.38239">
        <ele>11.8</ele>
        <time>2018-05-27T08:49:18Z</time>
      </trkpt>
      <trkpt lat="49.25112" lon="1.38254">
        <ele>11.8</ele>
        <time>2018-05-27T08:49:20Z</time>
      </trkpt>
      <trkpt lat="49.25108" lon="1.38268">
        <ele>12</ele>
        <time>2018-05-27T08:49:22Z</time>
      </trkpt>
      <trkpt lat="49.25104" lon="1.38283">
        <ele>11.7</ele>
        <time>2018-05-27T08:49:24Z</time>
      </trkpt>
      <trkpt lat="49.25099" lon="1.38297">
        <ele>11.6</ele>
        <time>2018-05-27T08:49:26Z</time>
      </trkpt>
      <trkpt lat="49.25092" lon="1.38314">
        <ele>11.4</ele>
        <time>2018-05-27T08:49:29Z</time>
      </trkpt>
      <trkpt lat="49.25086" lon="1.38324">
        <ele>11.4</ele>
        <time>2018-05-27T08:49:31Z</time>
      </trkpt>
      <trkpt lat="49.25081" lon="1.38336">
        <ele>11.4</ele>
        <time>2018-05-27T08:49:33Z</time>
      </trkpt>
      <trkpt lat="49.25076" lon="1.38356">
        <ele>11.1</ele>
        <time>2018-05-27T08:49:36Z</time>
      </trkpt>
      <trkpt lat="49.25071" lon="1.38369">
        <ele>11.1</ele>
        <time>2018-05-27T08:49:38Z</time>
      </trkpt>
      <trkpt lat="49.25066" lon="1.38383">
        <ele>11.2</ele>
        <time>2018-05-27T08:49:40Z</time>
      </trkpt>
      <trkpt lat="49.25061" lon="1.38397">
        <ele>11.3</ele>
        <time>2018-05-27T08:49:42Z</time>
      </trkpt>
      <trkpt lat="49.25056" lon="1.38412">
        <ele>11.2</ele>
        <time>2018-05-27T08:49:44Z</time>
      </trkpt>
      <trkpt lat="49.2505" lon="1.38427">
        <ele>11.1</ele>
        <time>2018-05-27T08:49:46Z</time>
      </trkpt>
      <trkpt lat="49.25045" lon="1.38442">
        <ele>11</ele>
        <time>2018-05-27T08:49:48Z</time>
      </trkpt>
      <trkpt lat="49.25039" lon="1.38456">
        <ele>11</ele>
        <time>2018-05-27T08:49:50Z</time>
      </trkpt>
      <trkpt lat="49.25034" lon="1.3847">
        <ele>11.1</ele>
        <time>2018-05-27T08:49:52Z</time>
      </trkpt>
      <trkpt lat="49.25028" lon="1.38484">
        <ele>11.3</ele>
        <time>2018-05-27T08:49:54Z</time>
      </trkpt>
      <trkpt lat="49.25023" lon="1.38499">
        <ele>11.2</ele>
        <time>2018-05-27T08:49:56Z</time>
      </trkpt>
      <trkpt lat="49.25017" lon="1.38512">
        <ele>11.1</ele>
        <time>2018-05-27T08:49:58Z</time>
      </trkpt>
      <trkpt lat="49.25012" lon="1.38524">
        <ele>11.1</ele>
        <time>2018-05-27T08:50:00Z</time>
      </trkpt>
      <trkpt lat="49.25008" lon="1.38537">
        <ele>11</ele>
        <time>2018-05-27T08:50:02Z</time>
      </trkpt>
      <trkpt lat="49.25002" lon="1.38549">
        <ele>11</ele>
        <time>2018-05-27T08:50:04Z</time>
      </trkpt>
      <trkpt lat="49.24997" lon="1.38561">
        <ele>11.1</ele>
        <time>2018-05-27T08:50:06Z</time>
      </trkpt>
      <trkpt lat="49.24992" lon="1.38573">
        <ele>11.1</ele>
        <time>2018-05-27T08:50:08Z</time>
      </trkpt>
      <trkpt lat="49.24987" lon="1.38585">
        <ele>11.4</ele>
        <time>2018-05-27T08:50:10Z</time>
      </trkpt>
      <trkpt lat="49.2498" lon="1.38597">
        <ele>11.6</ele>
        <time>2018-05-27T08:50:12Z</time>
      </trkpt>
      <trkpt lat="49.24974" lon="1.38611">
        <ele>11.6</ele>
        <time>2018-05-27T08:50:14Z</time>
      </trkpt>
      <trkpt lat="49.24967" lon="1.38624">
        <ele>11.7</ele>
        <time>2018-05-27T08:50:16Z</time>
      </trkpt>
      <trkpt lat="49.2496" lon="1.38637">
        <ele>11.7</ele>
        <time>2018-05-27T08:50:18Z</time>
      </trkpt>
      <trkpt lat="49.24953" lon="1.3865">
        <ele>11.8</ele>
        <time>2018-05-27T08:50:20Z</time>
      </trkpt>
      <trkpt lat="49.24947" lon="1.38663">
        <ele>11.6</ele>
        <time>2018-05-27T08:50:22Z</time>
      </trkpt>
      <trkpt lat="49.24941" lon="1.38678">
        <ele>11.7</ele>
        <time>2018-05-27T08:50:25Z</time>
      </trkpt>
      <trkpt lat="49.24934" lon="1.3869">
        <ele>11.6</ele>
        <time>2018-05-27T08:50:28Z</time>
      </trkpt>
      <trkpt lat="49.24928" lon="1.38706">
        <ele>11.5</ele>
        <time>2018-05-27T08:50:31Z</time>
      </trkpt>
      <trkpt lat="49.24922" lon="1.38721">
        <ele>11.7</ele>
        <time>2018-05-27T08:50:34Z</time>
      </trkpt>
      <trkpt lat="49.24916" lon="1.38735">
        <ele>11.6</ele>
        <time>2018-05-27T08:50:37Z</time>
      </trkpt>
      <trkpt lat="49.24911" lon="1.38747">
        <ele>11.7</ele>
        <time>2018-05-27T08:50:39Z</time>
      </trkpt>
      <trkpt lat="49.24906" lon="1.38759">
        <ele>11.8</ele>
        <time>2018-05-27T08:50:41Z</time>
      </trkpt>
      <trkpt lat="49.249" lon="1.38772">
        <ele>11.8</ele>
        <time>2018-05-27T08:50:43Z</time>
      </trkpt>
      <trkpt lat="49.24893" lon="1.38785">
        <ele>11.8</ele>
        <time>2018-05-27T08:50:45Z</time>
      </trkpt>
      <trkpt lat="49.24887" lon="1.38798">
        <ele>12</ele>
        <time>2018-05-27T08:50:47Z</time>
      </trkpt>
      <trkpt lat="49.2488" lon="1.38812">
        <ele>12</ele>
        <time>2018-05-27T08:50:49Z</time>
      </trkpt>
      <trkpt lat="49.24874" lon="1.38825">
        <ele>11.9</ele>
        <time>2018-05-27T08:50:51Z</time>
      </trkpt>
      <trkpt lat="49.24869" lon="1.3884">
        <ele>11.7</ele>
        <time>2018-05-27T08:50:53Z</time>
      </trkpt>
      <trkpt lat="49.24864" lon="1.38857">
        <ele>11.7</ele>
        <time>2018-05-27T08:50:55Z</time>
      </trkpt>
      <trkpt lat="49.2486" lon="1.38873">
        <ele>11.6</ele>
        <time>2018-05-27T08:50:57Z</time>
      </trkpt>
      <trkpt lat="49.24856" lon="1.38888">
        <ele>11.4</ele>
        <time>2018-05-27T08:50:59Z</time>
      </trkpt>
      <trkpt lat="49.24852" lon="1.38904">
        <ele>11.4</ele>
        <time>2018-05-27T08:51:01Z</time>
      </trkpt>
      <trkpt lat="49.24848" lon="1.38919">
        <ele>11.5</ele>
        <time>2018-05-27T08:51:03Z</time>
      </trkpt>
      <trkpt lat="49.24845" lon="1.38934">
        <ele>11.3</ele>
        <time>2018-05-27T08:51:05Z</time>
      </trkpt>
      <trkpt lat="49.24841" lon="1.38949">
        <ele>11.3</ele>
        <time>2018-05-27T08:51:07Z</time>
      </trkpt>
      <trkpt lat="49.24837" lon="1.38963">
        <ele>11.4</ele>
        <time>2018-05-27T08:51:09Z</time>
      </trkpt>
      <trkpt lat="49.24834" lon="1.38978">
        <ele>11.6</ele>
        <time>2018-05-27T08:51:11Z</time>
      </trkpt>
      <trkpt lat="49.24831" lon="1.38992">
        <ele>11.8</ele>
        <time>2018-05-27T08:51:13Z</time>
      </trkpt>
      <trkpt lat="49.24828" lon="1.39011">
        <ele>12.2</ele>
        <time>2018-05-27T08:51:16Z</time>
      </trkpt>
      <trkpt lat="49.24821" lon="1.39028">
        <ele>12.2</ele>
        <time>2018-05-27T08:51:19Z</time>
      </trkpt>
      <trkpt lat="49.24813" lon="1.39042">
        <ele>12.2</ele>
        <time>2018-05-27T08:51:22Z</time>
      </trkpt>
      <trkpt lat="49.24808" lon="1.39055">
        <ele>11.8</ele>
        <time>2018-05-27T08:51:27Z</time>
      </trkpt>
      <trkpt lat="49.24804" lon="1.39069">
        <ele>11.9</ele>
        <time>2018-05-27T08:51:30Z</time>
      </trkpt>
      <trkpt lat="49.24798" lon="1.39082">
        <ele>12.1</ele>
        <time>2018-05-27T08:51:33Z</time>
      </trkpt>
      <trkpt lat="49.2479" lon="1.39095">
        <ele>12.1</ele>
        <time>2018-05-27T08:51:36Z</time>
      </trkpt>
      <trkpt lat="49.24782" lon="1.3911">
        <ele>11.9</ele>
        <time>2018-05-27T08:51:39Z</time>
      </trkpt>
      <trkpt lat="49.24773" lon="1.39128">
        <ele>11.8</ele>
        <time>2018-05-27T08:51:42Z</time>
      </trkpt>
      <trkpt lat="49.24767" lon="1.39138">
        <ele>11.8</ele>
        <time>2018-05-27T08:51:44Z</time>
      </trkpt>
      <trkpt lat="49.24759" lon="1.39153">
        <ele>11.6</ele>
        <time>2018-05-27T08:51:47Z</time>
      </trkpt>
      <trkpt lat="49.24754" lon="1.39165">
        <ele>11.9</ele>
        <time>2018-05-27T08:51:49Z</time>
      </trkpt>
      <trkpt lat="49.24744" lon="1.3918">
        <ele>11.9</ele>
        <time>2018-05-27T08:51:52Z</time>
      </trkpt>
      <trkpt lat="49.24735" lon="1.39191">
        <ele>12.2</ele>
        <time>2018-05-27T08:51:54Z</time>
      </trkpt>
      <trkpt lat="49.24727" lon="1.39202">
        <ele>12.2</ele>
        <time>2018-05-27T08:51:56Z</time>
      </trkpt>
      <trkpt lat="49.24719" lon="1.39215">
        <ele>12.1</ele>
        <time>2018-05-27T08:51:58Z</time>
      </trkpt>
      <trkpt lat="49.24712" lon="1.39228">
        <ele>12</ele>
        <time>2018-05-27T08:52:00Z</time>
      </trkpt>
      <trkpt lat="49.24704" lon="1.39243">
        <ele>12</ele>
        <time>2018-05-27T08:52:02Z</time>
      </trkpt>
      <trkpt lat="49.24696" lon="1.39258">
        <ele>11.9</ele>
        <time>2018-05-27T08:52:04Z</time>
      </trkpt>
      <trkpt lat="49.24687" lon="1.39273">
        <ele>11.8</ele>
        <time>2018-05-27T08:52:06Z</time>
      </trkpt>
      <trkpt lat="49.24679" lon="1.39286">
        <ele>11.9</ele>
        <time>2018-05-27T08:52:08Z</time>
      </trkpt>
      <trkpt lat="49.2467" lon="1.39302">
        <ele>11.8</ele>
        <time>2018-05-27T08:52:10Z</time>
      </trkpt>
      <trkpt lat="49.24664" lon="1.39315">
        <ele>12</ele>
        <time>2018-05-27T08:52:12Z</time>
      </trkpt>
      <trkpt lat="49.24656" lon="1.3933">
        <ele>12.2</ele>
        <time>2018-05-27T08:52:14Z</time>
      </trkpt>
      <trkpt lat="49.24648" lon="1.39344">
        <ele>12.3</ele>
        <time>2018-05-27T08:52:16Z</time>
      </trkpt>
      <trkpt lat="49.24641" lon="1.39358">
        <ele>12.5</ele>
        <time>2018-05-27T08:52:18Z</time>
      </trkpt>
      <trkpt lat="49.24633" lon="1.39372">
        <ele>12.5</ele>
        <time>2018-05-27T08:52:20Z</time>
      </trkpt>
      <trkpt lat="49.24625" lon="1.39386">
        <ele>12.5</ele>
        <time>2018-05-27T08:52:22Z</time>
      </trkpt>
      <trkpt lat="49.24617" lon="1.39398">
        <ele>12.5</ele>
        <time>2018-05-27T08:52:24Z</time>
      </trkpt>
      <trkpt lat="49.24608" lon="1.39413">
        <ele>12.6</ele>
        <time>2018-05-27T08:52:26Z</time>
      </trkpt>
      <trkpt lat="49.246" lon="1.39427">
        <ele>12.7</ele>
        <time>2018-05-27T08:52:28Z</time>
      </trkpt>
      <trkpt lat="49.24593" lon="1.39443">
        <ele>12.9</ele>
        <time>2018-05-27T08:52:30Z</time>
      </trkpt>
      <trkpt lat="49.24586" lon="1.39457">
        <ele>13</ele>
        <time>2018-05-27T08:52:32Z</time>
      </trkpt>
      <trkpt lat="49.24579" lon="1.39471">
        <ele>13.2</ele>
        <time>2018-05-27T08:52:34Z</time>
      </trkpt>
      <trkpt lat="49.24572" lon="1.39487">
        <ele>13.1</ele>
        <time>2018-05-27T08:52:36Z</time>
      </trkpt>
      <trkpt lat="49.24566" lon="1.39502">
        <ele>13.2</ele>
        <time>2018-05-27T08:52:38Z</time>
      </trkpt>
      <trkpt lat="49.2456" lon="1.39518">
        <ele>13.2</ele>
        <time>2018-05-27T08:52:40Z</time>
      </trkpt>
      <trkpt lat="49.24554" lon="1.39532">
        <ele>13.3</ele>
        <time>2018-05-27T08:52:42Z</time>
      </trkpt>
      <trkpt lat="49.24549" lon="1.39544">
        <ele>13.2</ele>
        <time>2018-05-27T08:52:44Z</time>
      </trkpt>
      <trkpt lat="49.24543" lon="1.39559">
        <ele>13.2</ele>
        <time>2018-05-27T08:52:46Z</time>
      </trkpt>
      <trkpt lat="49.24537" lon="1.39574">
        <ele>13.2</ele>
        <time>2018-05-27T08:52:48Z</time>
      </trkpt>
      <trkpt lat="49.24528" lon="1.39585">
        <ele>13.1</ele>
        <time>2018-05-27T08:52:50Z</time>
      </trkpt>
      <trkpt lat="49.24517" lon="1.39589">
        <ele>13.2</ele>
        <time>2018-05-27T08:52:52Z</time>
      </trkpt>
      <trkpt lat="49.24506" lon="1.39593">
        <ele>13.2</ele>
        <time>2018-05-27T08:52:54Z</time>
      </trkpt>
      <trkpt lat="49.24497" lon="1.39605">
        <ele>13</ele>
        <time>2018-05-27T08:52:56Z</time>
      </trkpt>
      <trkpt lat="49.2449" lon="1.39618">
        <ele>12.9</ele>
        <time>2018-05-27T08:52:58Z</time>
      </trkpt>
      <trkpt lat="49.24482" lon="1.39631">
        <ele>12.8</ele>
        <time>2018-05-27T08:53:00Z</time>
      </trkpt>
      <trkpt lat="49.24475" lon="1.39645">
        <ele>12.8</ele>
        <time>2018-05-27T08:53:02Z</time>
      </trkpt>
      <trkpt lat="49.24468" lon="1.39659">
        <ele>12.8</ele>
        <time>2018-05-27T08:53:04Z</time>
      </trkpt>
      <trkpt lat="49.24461" lon="1.39674">
        <ele>12.8</ele>
        <time>2018-05-27T08:53:06Z</time>
      </trkpt>
      <trkpt lat="49.24454" lon="1.39688">
        <ele>12.8</ele>
        <time>2018-05-27T08:53:08Z</time>
      </trkpt>
      <trkpt lat="49.24446" lon="1.39701">
        <ele>12.9</ele>
        <time>2018-05-27T08:53:10Z</time>
      </trkpt>
      <trkpt lat="49.24438" lon="1.39715">
        <ele>12.8</ele>
        <time>2018-05-27T08:53:12Z</time>
      </trkpt>
      <trkpt lat="49.2443" lon="1.39727">
        <ele>12.9</ele>
        <time>2018-05-27T08:53:14Z</time>
      </trkpt>
      <trkpt lat="49.24421" lon="1.3974">
        <ele>13</ele>
        <time>2018-05-27T08:53:16Z</time>
      </trkpt>
      <trkpt lat="49.24412" lon="1.39752">
        <ele>12.8</ele>
        <time>2018-05-27T08:53:18Z</time>
      </trkpt>
      <trkpt lat="49.24402" lon="1.39763">
        <ele>12.8</ele>
        <time>2018-05-27T08:53:20Z</time>
      </trkpt>
      <trkpt lat="49.24392" lon="1.39773">
        <ele>12.8</ele>
        <time>2018-05-27T08:53:22Z</time>
      </trkpt>
      <trkpt lat="49.24381" lon="1.39779">
        <ele>13</ele>
        <time>2018-05-27T08:53:24Z</time>
      </trkpt>
      <trkpt lat="49.2437" lon="1.39785">
        <ele>13.1</ele>
        <time>2018-05-27T08:53:26Z</time>
      </trkpt>
      <trkpt lat="49.24358" lon="1.39792">
        <ele>13</ele>
        <time>2018-05-27T08:53:28Z</time>
      </trkpt>
      <trkpt lat="49.24346" lon="1.398">
        <ele>12.8</ele>
        <time>2018-05-27T08:53:30Z</time>
      </trkpt>
      <trkpt lat="49.24333" lon="1.39806">
        <ele>12.4</ele>
        <time>2018-05-27T08:53:32Z</time>
      </trkpt>
      <trkpt lat="49.2432" lon="1.39811">
        <ele>12.3</ele>
        <time>2018-05-27T08:53:34Z</time>
      </trkpt>
      <trkpt lat="49.24308" lon="1.39817">
        <ele>12.2</ele>
        <time>2018-05-27T08:53:36Z</time>
      </trkpt>
      <trkpt lat="49.24295" lon="1.39823">
        <ele>12</ele>
        <time>2018-05-27T08:53:38Z</time>
      </trkpt>
      <trkpt lat="49.24283" lon="1.39829">
        <ele>11.9</ele>
        <time>2018-05-27T08:53:40Z</time>
      </trkpt>
      <trkpt lat="49.24271" lon="1.39836">
        <ele>11.9</ele>
        <time>2018-05-27T08:53:42Z</time>
      </trkpt>
      <trkpt lat="49.2426" lon="1.39844">
        <ele>12</ele>
        <time>2018-05-27T08:53:44Z</time>
      </trkpt>
      <trkpt lat="49.24249" lon="1.39853">
        <ele>12.2</ele>
        <time>2018-05-27T08:53:46Z</time>
      </trkpt>
      <trkpt lat="49.24238" lon="1.39862">
        <ele>12.2</ele>
        <time>2018-05-27T08:53:48Z</time>
      </trkpt>
      <trkpt lat="49.24227" lon="1.3987">
        <ele>12.3</ele>
        <time>2018-05-27T08:53:50Z</time>
      </trkpt>
      <trkpt lat="49.24216" lon="1.39877">
        <ele>12.3</ele>
        <time>2018-05-27T08:53:52Z</time>
      </trkpt>
      <trkpt lat="49.24205" lon="1.39884">
        <ele>12.1</ele>
        <time>2018-05-27T08:53:54Z</time>
      </trkpt>
      <trkpt lat="49.24195" lon="1.39892">
        <ele>12</ele>
        <time>2018-05-27T08:53:56Z</time>
      </trkpt>
      <trkpt lat="49.24185" lon="1.39903">
        <ele>11.8</ele>
        <time>2018-05-27T08:53:58Z</time>
      </trkpt>
      <trkpt lat="49.24175" lon="1.39912">
        <ele>11.7</ele>
        <time>2018-05-27T08:54:00Z</time>
      </trkpt>
      <trkpt lat="49.24165" lon="1.39922">
        <ele>12</ele>
        <time>2018-05-27T08:54:02Z</time>
      </trkpt>
      <trkpt lat="49.24155" lon="1.39931">
        <ele>12.2</ele>
        <time>2018-05-27T08:54:04Z</time>
      </trkpt>
      <trkpt lat="49.24145" lon="1.39938">
        <ele>12.4</ele>
        <time>2018-05-27T08:54:06Z</time>
      </trkpt>
      <trkpt lat="49.24135" lon="1.39946">
        <ele>12.4</ele>
        <time>2018-05-27T08:54:08Z</time>
      </trkpt>
      <trkpt lat="49.24124" lon="1.39954">
        <ele>12.4</ele>
        <time>2018-05-27T08:54:10Z</time>
      </trkpt>
      <trkpt lat="49.24114" lon="1.39963">
        <ele>12.4</ele>
        <time>2018-05-27T08:54:12Z</time>
      </trkpt>
      <trkpt lat="49.24104" lon="1.39972">
        <ele>12.5</ele>
        <time>2018-05-27T08:54:14Z</time>
      </trkpt>
      <trkpt lat="49.24095" lon="1.39979">
        <ele>12.3</ele>
        <time>2018-05-27T08:54:16Z</time>
      </trkpt>
      <trkpt lat="49.24091" lon="1.39994">
        <ele>12.2</ele>
        <time>2018-05-27T08:54:19Z</time>
      </trkpt>
      <trkpt lat="49.24098" lon="1.40012">
        <ele>12.5</ele>
        <time>2018-05-27T08:54:22Z</time>
      </trkpt>
      <trkpt lat="49.24105" lon="1.40028">
        <ele>12.6</ele>
        <time>2018-05-27T08:54:25Z</time>
      </trkpt>
      <trkpt lat="49.24111" lon="1.4004">
        <ele>12.8</ele>
        <time>2018-05-27T08:54:28Z</time>
      </trkpt>
      <trkpt lat="49.24106" lon="1.40053">
        <ele>13.3</ele>
        <time>2018-05-27T08:54:32Z</time>
      </trkpt>
      <trkpt lat="49.24097" lon="1.40059">
        <ele>13.6</ele>
        <time>2018-05-27T08:54:36Z</time>
      </trkpt>
      <trkpt lat="49.24084" lon="1.40064">
        <ele>14.2</ele>
        <time>2018-05-27T08:54:39Z</time>
      </trkpt>
      <trkpt lat="49.24074" lon="1.40068">
        <ele>14.1</ele>
        <time>2018-05-27T08:54:41Z</time>
      </trkpt>
      <trkpt lat="49.24064" lon="1.40072">
        <ele>14.4</ele>
        <time>2018-05-27T08:54:43Z</time>
      </trkpt>
      <trkpt lat="49.24054" lon="1.40076">
        <ele>14.5</ele>
        <time>2018-05-27T08:54:45Z</time>
      </trkpt>
      <trkpt lat="49.24045" lon="1.40081">
        <ele>14.7</ele>
        <time>2018-05-27T08:54:47Z</time>
      </trkpt>
      <trkpt lat="49.24035" lon="1.40085">
        <ele>14.9</ele>
        <time>2018-05-27T08:54:49Z</time>
      </trkpt>
      <trkpt lat="49.24024" lon="1.40089">
        <ele>15.2</ele>
        <time>2018-05-27T08:54:51Z</time>
      </trkpt>
      <trkpt lat="49.24013" lon="1.40091">
        <ele>15.4</ele>
        <time>2018-05-27T08:54:53Z</time>
      </trkpt>
      <trkpt lat="49.24002" lon="1.4009">
        <ele>15.6</ele>
        <time>2018-05-27T08:54:55Z</time>
      </trkpt>
      <trkpt lat="49.23991" lon="1.40089">
        <ele>15.6</ele>
        <time>2018-05-27T08:54:57Z</time>
      </trkpt>
      <trkpt lat="49.23979" lon="1.40088">
        <ele>15.5</ele>
        <time>2018-05-27T08:54:59Z</time>
      </trkpt>
      <trkpt lat="49.23966" lon="1.40088">
        <ele>15.5</ele>
        <time>2018-05-27T08:55:01Z</time>
      </trkpt>
      <trkpt lat="49.23954" lon="1.40087">
        <ele>15.3</ele>
        <time>2018-05-27T08:55:03Z</time>
      </trkpt>
      <trkpt lat="49.23941" lon="1.40087">
        <ele>15.2</ele>
        <time>2018-05-27T08:55:05Z</time>
      </trkpt>
      <trkpt lat="49.23929" lon="1.40087">
        <ele>15.2</ele>
        <time>2018-05-27T08:55:07Z</time>
      </trkpt>
      <trkpt lat="49.23916" lon="1.40087">
        <ele>15.1</ele>
        <time>2018-05-27T08:55:09Z</time>
      </trkpt>
      <trkpt lat="49.23903" lon="1.40087">
        <ele>14.9</ele>
        <time>2018-05-27T08:55:11Z</time>
      </trkpt>
      <trkpt lat="49.23889" lon="1.40087">
        <ele>14.6</ele>
        <time>2018-05-27T08:55:13Z</time>
      </trkpt>
      <trkpt lat="49.23875" lon="1.40087">
        <ele>14.3</ele>
        <time>2018-05-27T08:55:15Z</time>
      </trkpt>
      <trkpt lat="49.23862" lon="1.40087">
        <ele>14.2</ele>
        <time>2018-05-27T08:55:17Z</time>
      </trkpt>
      <trkpt lat="49.23849" lon="1.4009">
        <ele>14.3</ele>
        <time>2018-05-27T08:55:19Z</time>
      </trkpt>
      <trkpt lat="49.23836" lon="1.40094">
        <ele>14.3</ele>
        <time>2018-05-27T08:55:21Z</time>
      </trkpt>
      <trkpt lat="49.23824" lon="1.40099">
        <ele>14.3</ele>
        <time>2018-05-27T08:55:23Z</time>
      </trkpt>
      <trkpt lat="49.23812" lon="1.40103">
        <ele>14.1</ele>
        <time>2018-05-27T08:55:25Z</time>
      </trkpt>
      <trkpt lat="49.238" lon="1.40108">
        <ele>14.2</ele>
        <time>2018-05-27T08:55:27Z</time>
      </trkpt>
      <trkpt lat="49.23789" lon="1.40113">
        <ele>14.5</ele>
        <time>2018-05-27T08:55:29Z</time>
      </trkpt>
      <trkpt lat="49.23777" lon="1.40118">
        <ele>14.7</ele>
        <time>2018-05-27T08:55:31Z</time>
      </trkpt>
      <trkpt lat="49.23766" lon="1.40124">
        <ele>14.9</ele>
        <time>2018-05-27T08:55:33Z</time>
      </trkpt>
      <trkpt lat="49.23755" lon="1.40129">
        <ele>15</ele>
        <time>2018-05-27T08:55:35Z</time>
      </trkpt>
      <trkpt lat="49.23744" lon="1.40133">
        <ele>15.1</ele>
        <time>2018-05-27T08:55:37Z</time>
      </trkpt>
      <trkpt lat="49.23733" lon="1.40136">
        <ele>15.2</ele>
        <time>2018-05-27T08:55:39Z</time>
      </trkpt>
      <trkpt lat="49.23722" lon="1.40134">
        <ele>15.2</ele>
        <time>2018-05-27T08:55:41Z</time>
      </trkpt>
      <trkpt lat="49.23713" lon="1.40126">
        <ele>15.3</ele>
        <time>2018-05-27T08:55:43Z</time>
      </trkpt>
      <trkpt lat="49.23706" lon="1.40113">
        <ele>15.5</ele>
        <time>2018-05-27T08:55:45Z</time>
      </trkpt>
      <trkpt lat="49.23699" lon="1.40099">
        <ele>15.7</ele>
        <time>2018-05-27T08:55:47Z</time>
      </trkpt>
      <trkpt lat="49.23694" lon="1.40084">
        <ele>15.9</ele>
        <time>2018-05-27T08:55:49Z</time>
      </trkpt>
      <trkpt lat="49.23691" lon="1.40067">
        <ele>16.1</ele>
        <time>2018-05-27T08:55:51Z</time>
      </trkpt>
      <trkpt lat="49.23688" lon="1.40052">
        <ele>16.4</ele>
        <time>2018-05-27T08:55:53Z</time>
      </trkpt>
      <trkpt lat="49.23685" lon="1.40036">
        <ele>16.7</ele>
        <time>2018-05-27T08:55:55Z</time>
      </trkpt>
      <trkpt lat="49.23682" lon="1.4002">
        <ele>17.2</ele>
        <time>2018-05-27T08:55:57Z</time>
      </trkpt>
      <trkpt lat="49.2368" lon="1.40005">
        <ele>17.5</ele>
        <time>2018-05-27T08:55:59Z</time>
      </trkpt>
      <trkpt lat="49.23677" lon="1.3999">
        <ele>17.9</ele>
        <time>2018-05-27T08:56:01Z</time>
      </trkpt>
      <trkpt lat="49.23675" lon="1.39975">
        <ele>18.3</ele>
        <time>2018-05-27T08:56:03Z</time>
      </trkpt>
      <trkpt lat="49.23673" lon="1.3996">
        <ele>18.7</ele>
        <time>2018-05-27T08:56:05Z</time>
      </trkpt>
      <trkpt lat="49.2367" lon="1.39943">
        <ele>19.1</ele>
        <time>2018-05-27T08:56:07Z</time>
      </trkpt>
      <trkpt lat="49.23668" lon="1.39927">
        <ele>19.4</ele>
        <time>2018-05-27T08:56:09Z</time>
      </trkpt>
      <trkpt lat="49.23665" lon="1.3991">
        <ele>19.7</ele>
        <time>2018-05-27T08:56:11Z</time>
      </trkpt>
      <trkpt lat="49.23662" lon="1.39893">
        <ele>20</ele>
        <time>2018-05-27T08:56:13Z</time>
      </trkpt>
      <trkpt lat="49.23659" lon="1.39876">
        <ele>20.2</ele>
        <time>2018-05-27T08:56:15Z</time>
      </trkpt>
      <trkpt lat="49.23656" lon="1.39858">
        <ele>20.4</ele>
        <time>2018-05-27T08:56:17Z</time>
      </trkpt>
      <trkpt lat="49.23654" lon="1.3984">
        <ele>20.4</ele>
        <time>2018-05-27T08:56:19Z</time>
      </trkpt>
      <trkpt lat="49.23651" lon="1.39822">
        <ele>20.3</ele>
        <time>2018-05-27T08:56:21Z</time>
      </trkpt>
      <trkpt lat="49.23649" lon="1.39804">
        <ele>20.2</ele>
        <time>2018-05-27T08:56:23Z</time>
      </trkpt>
      <trkpt lat="49.23646" lon="1.39786">
        <ele>20.1</ele>
        <time>2018-05-27T08:56:25Z</time>
      </trkpt>
      <trkpt lat="49.23644" lon="1.39767">
        <ele>19.8</ele>
        <time>2018-05-27T08:56:27Z</time>
      </trkpt>
      <trkpt lat="49.23641" lon="1.39747">
        <ele>19.4</ele>
        <time>2018-05-27T08:56:29Z</time>
      </trkpt>
      <trkpt lat="49.23637" lon="1.39726">
        <ele>18.9</ele>
        <time>2018-05-27T08:56:31Z</time>
      </trkpt>
      <trkpt lat="49.23634" lon="1.39705">
        <ele>18.4</ele>
        <time>2018-05-27T08:56:33Z</time>
      </trkpt>
      <trkpt lat="49.23626" lon="1.39687">
        <ele>18.1</ele>
        <time>2018-05-27T08:56:35Z</time>
      </trkpt>
      <trkpt lat="49.23616" lon="1.39673">
        <ele>17.4</ele>
        <time>2018-05-27T08:56:37Z</time>
      </trkpt>
      <trkpt lat="49.23604" lon="1.39663">
        <ele>16.9</ele>
        <time>2018-05-27T08:56:39Z</time>
      </trkpt>
      <trkpt lat="49.23595" lon="1.39657">
        <ele>16.4</ele>
        <time>2018-05-27T08:56:41Z</time>
      </trkpt>
      <trkpt lat="49.23595" lon="1.39672">
        <ele>15.3</ele>
        <time>2018-05-27T08:56:45Z</time>
      </trkpt>
      <trkpt lat="49.23602" lon="1.39685">
        <ele>14.9</ele>
        <time>2018-05-27T08:56:47Z</time>
      </trkpt>
      <trkpt lat="49.23609" lon="1.39699">
        <ele>14.6</ele>
        <time>2018-05-27T08:56:49Z</time>
      </trkpt>
      <trkpt lat="49.23618" lon="1.39714">
        <ele>14.2</ele>
        <time>2018-05-27T08:56:51Z</time>
      </trkpt>
      <trkpt lat="49.23624" lon="1.39732">
        <ele>13.8</ele>
        <time>2018-05-27T08:56:53Z</time>
      </trkpt>
      <trkpt lat="49.23627" lon="1.39752">
        <ele>13.4</ele>
        <time>2018-05-27T08:56:55Z</time>
      </trkpt>
      <trkpt lat="49.23628" lon="1.39771">
        <ele>12.9</ele>
        <time>2018-05-27T08:56:57Z</time>
      </trkpt>
      <trkpt lat="49.23619" lon="1.3978">
        <ele>12.6</ele>
        <time>2018-05-27T08:56:59Z</time>
      </trkpt>
      <trkpt lat="49.23608" lon="1.39782">
        <ele>12.3</ele>
        <time>2018-05-27T08:57:01Z</time>
      </trkpt>
      <trkpt lat="49.23596" lon="1.39783">
        <ele>12.1</ele>
        <time>2018-05-27T08:57:03Z</time>
      </trkpt>
      <trkpt lat="49.23584" lon="1.39786">
        <ele>12</ele>
        <time>2018-05-27T08:57:05Z</time>
      </trkpt>
      <trkpt lat="49.23572" lon="1.39787">
        <ele>11.9</ele>
        <time>2018-05-27T08:57:07Z</time>
      </trkpt>
      <trkpt lat="49.23561" lon="1.39785">
        <ele>11.7</ele>
        <time>2018-05-27T08:57:09Z</time>
      </trkpt>
      <trkpt lat="49.23552" lon="1.3978">
        <ele>11.6</ele>
        <time>2018-05-27T08:57:11Z</time>
      </trkpt>
      <trkpt lat="49.23539" lon="1.39771">
        <ele>11.8</ele>
        <time>2018-05-27T08:57:14Z</time>
      </trkpt>
      <trkpt lat="49.23527" lon="1.39761">
        <ele>11.8</ele>
        <time>2018-05-27T08:57:17Z</time>
      </trkpt>
      <trkpt lat="49.23517" lon="1.39759">
        <ele>11.8</ele>
        <time>2018-05-27T08:57:18Z</time>
      </trkpt>
      <trkpt lat="49.23505" lon="1.39752">
        <ele>11.7</ele>
        <time>2018-05-27T08:57:20Z</time>
      </trkpt>
      <trkpt lat="49.23494" lon="1.39746">
        <ele>11.6</ele>
        <time>2018-05-27T08:57:22Z</time>
      </trkpt>
      <trkpt lat="49.23484" lon="1.39739">
        <ele>11.6</ele>
        <time>2018-05-27T08:57:24Z</time>
      </trkpt>
      <trkpt lat="49.23475" lon="1.39731">
        <ele>11.6</ele>
        <time>2018-05-27T08:57:26Z</time>
      </trkpt>
      <trkpt lat="49.23464" lon="1.39726">
        <ele>11.5</ele>
        <time>2018-05-27T08:57:28Z</time>
      </trkpt>
      <trkpt lat="49.23453" lon="1.39718">
        <ele>11.5</ele>
        <time>2018-05-27T08:57:30Z</time>
      </trkpt>
      <trkpt lat="49.23446" lon="1.39708">
        <ele>11.6</ele>
        <time>2018-05-27T08:57:32Z</time>
      </trkpt>
      <trkpt lat="49.23439" lon="1.39697">
        <ele>11.7</ele>
        <time>2018-05-27T08:57:34Z</time>
      </trkpt>
      <trkpt lat="49.23431" lon="1.39686">
        <ele>11.7</ele>
        <time>2018-05-27T08:57:36Z</time>
      </trkpt>
      <trkpt lat="49.2342" lon="1.39672">
        <ele>11.8</ele>
        <time>2018-05-27T08:57:38Z</time>
      </trkpt>
      <trkpt lat="49.23412" lon="1.39658">
        <ele>11.9</ele>
        <time>2018-05-27T08:57:40Z</time>
      </trkpt>
      <trkpt lat="49.23405" lon="1.39644">
        <ele>11.9</ele>
        <time>2018-05-27T08:57:42Z</time>
      </trkpt>
      <trkpt lat="49.23398" lon="1.39629">
        <ele>11.9</ele>
        <time>2018-05-27T08:57:44Z</time>
      </trkpt>
      <trkpt lat="49.23394" lon="1.39613">
        <ele>11.9</ele>
        <time>2018-05-27T08:57:46Z</time>
      </trkpt>
      <trkpt lat="49.23386" lon="1.39599">
        <ele>12</ele>
        <time>2018-05-27T08:57:48Z</time>
      </trkpt>
      <trkpt lat="49.23378" lon="1.39585">
        <ele>12</ele>
        <time>2018-05-27T08:57:50Z</time>
      </trkpt>
      <trkpt lat="49.23372" lon="1.39571">
        <ele>11.8</ele>
        <time>2018-05-27T08:57:52Z</time>
      </trkpt>
      <trkpt lat="49.23366" lon="1.39555">
        <ele>11.8</ele>
        <time>2018-05-27T08:57:54Z</time>
      </trkpt>
      <trkpt lat="49.23359" lon="1.39539">
        <ele>12</ele>
        <time>2018-05-27T08:57:56Z</time>
      </trkpt>
      <trkpt lat="49.23353" lon="1.39526">
        <ele>12.1</ele>
        <time>2018-05-27T08:57:58Z</time>
      </trkpt>
      <trkpt lat="49.23345" lon="1.39513">
        <ele>12</ele>
        <time>2018-05-27T08:58:00Z</time>
      </trkpt>
      <trkpt lat="49.23339" lon="1.395">
        <ele>11.9</ele>
        <time>2018-05-27T08:58:02Z</time>
      </trkpt>
      <trkpt lat="49.23331" lon="1.39488">
        <ele>11.9</ele>
        <time>2018-05-27T08:58:04Z</time>
      </trkpt>
      <trkpt lat="49.23324" lon="1.39476">
        <ele>12</ele>
        <time>2018-05-27T08:58:06Z</time>
      </trkpt>
      <trkpt lat="49.23312" lon="1.3947">
        <ele>11.9</ele>
        <time>2018-05-27T08:58:08Z</time>
      </trkpt>
      <trkpt lat="49.23301" lon="1.39464">
        <ele>11.6</ele>
        <time>2018-05-27T08:58:10Z</time>
      </trkpt>
      <trkpt lat="49.23289" lon="1.39454">
        <ele>11.4</ele>
        <time>2018-05-27T08:58:12Z</time>
      </trkpt>
      <trkpt lat="49.23279" lon="1.39448">
        <ele>11.3</ele>
        <time>2018-05-27T08:58:14Z</time>
      </trkpt>
      <trkpt lat="49.23268" lon="1.39448">
        <ele>11.4</ele>
        <time>2018-05-27T08:58:16Z</time>
      </trkpt>
      <trkpt lat="49.23258" lon="1.39443">
        <ele>11.5</ele>
        <time>2018-05-27T08:58:18Z</time>
      </trkpt>
      <trkpt lat="49.2325" lon="1.39435">
        <ele>11.5</ele>
        <time>2018-05-27T08:58:20Z</time>
      </trkpt>
      <trkpt lat="49.23241" lon="1.39431">
        <ele>11.4</ele>
        <time>2018-05-27T08:58:22Z</time>
      </trkpt>
      <trkpt lat="49.2323" lon="1.3943">
        <ele>11.4</ele>
        <time>2018-05-27T08:58:24Z</time>
      </trkpt>
      <trkpt lat="49.23221" lon="1.39432">
        <ele>11.5</ele>
        <time>2018-05-27T08:58:26Z</time>
      </trkpt>
      <trkpt lat="49.2321" lon="1.39438">
        <ele>11.5</ele>
        <time>2018-05-27T08:58:28Z</time>
      </trkpt>
      <trkpt lat="49.23198" lon="1.39438">
        <ele>11.6</ele>
        <time>2018-05-27T08:58:30Z</time>
      </trkpt>
      <trkpt lat="49.23187" lon="1.39434">
        <ele>11.6</ele>
        <time>2018-05-27T08:58:32Z</time>
      </trkpt>
      <trkpt lat="49.23174" lon="1.3943">
        <ele>11.6</ele>
        <time>2018-05-27T08:58:34Z</time>
      </trkpt>
      <trkpt lat="49.2316" lon="1.39427">
        <ele>11.4</ele>
        <time>2018-05-27T08:58:36Z</time>
      </trkpt>
      <trkpt lat="49.23149" lon="1.39421">
        <ele>11.4</ele>
        <time>2018-05-27T08:58:38Z</time>
      </trkpt>
      <trkpt lat="49.23138" lon="1.39414">
        <ele>11.5</ele>
        <time>2018-05-27T08:58:40Z</time>
      </trkpt>
      <trkpt lat="49.23127" lon="1.39405">
        <ele>11.6</ele>
        <time>2018-05-27T08:58:42Z</time>
      </trkpt>
      <trkpt lat="49.23118" lon="1.39397">
        <ele>11.9</ele>
        <time>2018-05-27T08:58:44Z</time>
      </trkpt>
      <trkpt lat="49.23109" lon="1.3939">
        <ele>12.1</ele>
        <time>2018-05-27T08:58:46Z</time>
      </trkpt>
      <trkpt lat="49.231" lon="1.39384">
        <ele>12.2</ele>
        <time>2018-05-27T08:58:48Z</time>
      </trkpt>
      <trkpt lat="49.23089" lon="1.39379">
        <ele>12.4</ele>
        <time>2018-05-27T08:58:50Z</time>
      </trkpt>
      <trkpt lat="49.23078" lon="1.39374">
        <ele>12.7</ele>
        <time>2018-05-27T08:58:52Z</time>
      </trkpt>
      <trkpt lat="49.23067" lon="1.39371">
        <ele>13</ele>
        <time>2018-05-27T08:58:54Z</time>
      </trkpt>
      <trkpt lat="49.23055" lon="1.39369">
        <ele>13</ele>
        <time>2018-05-27T08:58:56Z</time>
      </trkpt>
      <trkpt lat="49.23042" lon="1.39368">
        <ele>13.2</ele>
        <time>2018-05-27T08:58:58Z</time>
      </trkpt>
      <trkpt lat="49.23028" lon="1.39366">
        <ele>13</ele>
        <time>2018-05-27T08:59:00Z</time>
      </trkpt>
      <trkpt lat="49.23013" lon="1.39364">
        <ele>12.7</ele>
        <time>2018-05-27T08:59:02Z</time>
      </trkpt>
      <trkpt lat="49.22999" lon="1.39362">
        <ele>12.4</ele>
        <time>2018-05-27T08:59:04Z</time>
      </trkpt>
      <trkpt lat="49.22987" lon="1.39364">
        <ele>12.5</ele>
        <time>2018-05-27T08:59:06Z</time>
      </trkpt>
      <trkpt lat="49.22974" lon="1.39363">
        <ele>12.6</ele>
        <time>2018-05-27T08:59:08Z</time>
      </trkpt>
      <trkpt lat="49.22961" lon="1.39361">
        <ele>12.7</ele>
        <time>2018-05-27T08:59:10Z</time>
      </trkpt>
      <trkpt lat="49.2295" lon="1.39353">
        <ele>12.7</ele>
        <time>2018-05-27T08:59:12Z</time>
      </trkpt>
      <trkpt lat="49.22941" lon="1.3934">
        <ele>12.6</ele>
        <time>2018-05-27T08:59:14Z</time>
      </trkpt>
      <trkpt lat="49.22933" lon="1.39329">
        <ele>12.6</ele>
        <time>2018-05-27T08:59:16Z</time>
      </trkpt>
      <trkpt lat="49.22925" lon="1.39318">
        <ele>12.4</ele>
        <time>2018-05-27T08:59:18Z</time>
      </trkpt>
      <trkpt lat="49.22918" lon="1.39306">
        <ele>12.6</ele>
        <time>2018-05-27T08:59:20Z</time>
      </trkpt>
      <trkpt lat="49.22906" lon="1.39298">
        <ele>13.3</ele>
        <time>2018-05-27T08:59:23Z</time>
      </trkpt>
      <trkpt lat="49.22895" lon="1.39298">
        <ele>13.5</ele>
        <time>2018-05-27T08:59:25Z</time>
      </trkpt>
      <trkpt lat="49.22881" lon="1.39298">
        <ele>13.5</ele>
        <time>2018-05-27T08:59:27Z</time>
      </trkpt>
      <trkpt lat="49.22869" lon="1.39298">
        <ele>13.4</ele>
        <time>2018-05-27T08:59:29Z</time>
      </trkpt>
      <trkpt lat="49.22857" lon="1.39299">
        <ele>13.6</ele>
        <time>2018-05-27T08:59:31Z</time>
      </trkpt>
      <trkpt lat="49.22845" lon="1.39301">
        <ele>13.8</ele>
        <time>2018-05-27T08:59:33Z</time>
      </trkpt>
      <trkpt lat="49.22833" lon="1.39301">
        <ele>14</ele>
        <time>2018-05-27T08:59:35Z</time>
      </trkpt>
      <trkpt lat="49.22823" lon="1.39303">
        <ele>14.3</ele>
        <time>2018-05-27T08:59:37Z</time>
      </trkpt>
      <trkpt lat="49.22813" lon="1.39303">
        <ele>14.6</ele>
        <time>2018-05-27T08:59:39Z</time>
      </trkpt>
      <trkpt lat="49.228" lon="1.39301">
        <ele>15.3</ele>
        <time>2018-05-27T08:59:42Z</time>
      </trkpt>
      <trkpt lat="49.22788" lon="1.39297">
        <ele>16.1</ele>
        <time>2018-05-27T08:59:45Z</time>
      </trkpt>
      <trkpt lat="49.22778" lon="1.39292">
        <ele>16.7</ele>
        <time>2018-05-27T08:59:47Z</time>
      </trkpt>
      <trkpt lat="49.22769" lon="1.39287">
        <ele>17.1</ele>
        <time>2018-05-27T08:59:49Z</time>
      </trkpt>
      <trkpt lat="49.22757" lon="1.39278">
        <ele>17.7</ele>
        <time>2018-05-27T08:59:52Z</time>
      </trkpt>
      <trkpt lat="49.22749" lon="1.39271">
        <ele>17.8</ele>
        <time>2018-05-27T08:59:54Z</time>
      </trkpt>
      <trkpt lat="49.22741" lon="1.39262">
        <ele>17.6</ele>
        <time>2018-05-27T08:59:56Z</time>
      </trkpt>
      <trkpt lat="49.22729" lon="1.3925">
        <ele>17.1</ele>
        <time>2018-05-27T08:59:58Z</time>
      </trkpt>
      <trkpt lat="49.22719" lon="1.39237">
        <ele>16.7</ele>
        <time>2018-05-27T09:00:00Z</time>
      </trkpt>
      <trkpt lat="49.22708" lon="1.39224">
        <ele>16.3</ele>
        <time>2018-05-27T09:00:02Z</time>
      </trkpt>
      <trkpt lat="49.22698" lon="1.39212">
        <ele>16</ele>
        <time>2018-05-27T09:00:04Z</time>
      </trkpt>
      <trkpt lat="49.22687" lon="1.39203">
        <ele>16</ele>
        <time>2018-05-27T09:00:06Z</time>
      </trkpt>
      <trkpt lat="49.22673" lon="1.39196">
        <ele>16.1</ele>
        <time>2018-05-27T09:00:08Z</time>
      </trkpt>
      <trkpt lat="49.22659" lon="1.39188">
        <ele>16.3</ele>
        <time>2018-05-27T09:00:10Z</time>
      </trkpt>
      <trkpt lat="49.22645" lon="1.39178">
        <ele>16.3</ele>
        <time>2018-05-27T09:00:12Z</time>
      </trkpt>
      <trkpt lat="49.22633" lon="1.39167">
        <ele>16.4</ele>
        <time>2018-05-27T09:00:14Z</time>
      </trkpt>
      <trkpt lat="49.22621" lon="1.39156">
        <ele>16.3</ele>
        <time>2018-05-27T09:00:16Z</time>
      </trkpt>
      <trkpt lat="49.22611" lon="1.39146">
        <ele>16.7</ele>
        <time>2018-05-27T09:00:18Z</time>
      </trkpt>
      <trkpt lat="49.22601" lon="1.39137">
        <ele>17</ele>
        <time>2018-05-27T09:00:20Z</time>
      </trkpt>
      <trkpt lat="49.22592" lon="1.39127">
        <ele>17.4</ele>
        <time>2018-05-27T09:00:22Z</time>
      </trkpt>
      <trkpt lat="49.22583" lon="1.39116">
        <ele>17.7</ele>
        <time>2018-05-27T09:00:24Z</time>
      </trkpt>
      <trkpt lat="49.22574" lon="1.39103">
        <ele>17.8</ele>
        <time>2018-05-27T09:00:26Z</time>
      </trkpt>
      <trkpt lat="49.22565" lon="1.39091">
        <ele>17.7</ele>
        <time>2018-05-27T09:00:28Z</time>
      </trkpt>
      <trkpt lat="49.22556" lon="1.39076">
        <ele>17.3</ele>
        <time>2018-05-27T09:00:30Z</time>
      </trkpt>
      <trkpt lat="49.22548" lon="1.39065">
        <ele>16.3</ele>
        <time>2018-05-27T09:00:32Z</time>
      </trkpt>
      <trkpt lat="49.22539" lon="1.3906">
        <ele>14.9</ele>
        <time>2018-05-27T09:00:34Z</time>
      </trkpt>
      <trkpt lat="49.22528" lon="1.39063">
        <ele>14</ele>
        <time>2018-05-27T09:00:36Z</time>
      </trkpt>
      <trkpt lat="49.22518" lon="1.39056">
        <ele>13.1</ele>
        <time>2018-05-27T09:00:39Z</time>
      </trkpt>
      <trkpt lat="49.22517" lon="1.39042">
        <ele>12.8</ele>
        <time>2018-05-27T09:00:41Z</time>
      </trkpt>
      <trkpt lat="49.22515" lon="1.39027">
        <ele>12.9</ele>
        <time>2018-05-27T09:00:44Z</time>
      </trkpt>
      <trkpt lat="49.22507" lon="1.3902">
        <ele>13.5</ele>
        <time>2018-05-27T09:00:47Z</time>
      </trkpt>
      <trkpt lat="49.22496" lon="1.39014">
        <ele>14.3</ele>
        <time>2018-05-27T09:00:50Z</time>
      </trkpt>
      <trkpt lat="49.22484" lon="1.39013">
        <ele>14.9</ele>
        <time>2018-05-27T09:00:53Z</time>
      </trkpt>
      <trkpt lat="49.22474" lon="1.39008">
        <ele>15.2</ele>
        <time>2018-05-27T09:00:56Z</time>
      </trkpt>
      <trkpt lat="49.22464" lon="1.39">
        <ele>15.2</ele>
        <time>2018-05-27T09:00:58Z</time>
      </trkpt>
      <trkpt lat="49.22455" lon="1.3899">
        <ele>14.3</ele>
        <time>2018-05-27T09:01:01Z</time>
      </trkpt>
      <trkpt lat="49.22446" lon="1.38982">
        <ele>13.5</ele>
        <time>2018-05-27T09:01:03Z</time>
      </trkpt>
      <trkpt lat="49.22436" lon="1.38969">
        <ele>12.6</ele>
        <time>2018-05-27T09:01:06Z</time>
      </trkpt>
      <trkpt lat="49.22429" lon="1.38958">
        <ele>12.2</ele>
        <time>2018-05-27T09:01:08Z</time>
      </trkpt>
      <trkpt lat="49.22422" lon="1.38948">
        <ele>12</ele>
        <time>2018-05-27T09:01:10Z</time>
      </trkpt>
      <trkpt lat="49.22415" lon="1.38934">
        <ele>11.9</ele>
        <time>2018-05-27T09:01:12Z</time>
      </trkpt>
      <trkpt lat="49.22408" lon="1.38919">
        <ele>11.8</ele>
        <time>2018-05-27T09:01:14Z</time>
      </trkpt>
      <trkpt lat="49.22401" lon="1.38905">
        <ele>11.8</ele>
        <time>2018-05-27T09:01:16Z</time>
      </trkpt>
      <trkpt lat="49.22395" lon="1.38887">
        <ele>11.5</ele>
        <time>2018-05-27T09:01:19Z</time>
      </trkpt>
      <trkpt lat="49.22387" lon="1.38874">
        <ele>11.5</ele>
        <time>2018-05-27T09:01:21Z</time>
      </trkpt>
      <trkpt lat="49.22379" lon="1.38863">
        <ele>11.4</ele>
        <time>2018-05-27T09:01:23Z</time>
      </trkpt>
      <trkpt lat="49.22378" lon="1.38848">
        <ele>11.5</ele>
        <time>2018-05-27T09:01:26Z</time>
      </trkpt>
      <trkpt lat="49.22382" lon="1.38832">
        <ele>11.6</ele>
        <time>2018-05-27T09:01:29Z</time>
      </trkpt>
      <trkpt lat="49.22385" lon="1.38816">
        <ele>11.8</ele>
        <time>2018-05-27T09:01:32Z</time>
      </trkpt>
      <trkpt lat="49.2239" lon="1.38802">
        <ele>12</ele>
        <time>2018-05-27T09:01:35Z</time>
      </trkpt>
      <trkpt lat="49.22395" lon="1.38786">
        <ele>11.8</ele>
        <time>2018-05-27T09:01:38Z</time>
      </trkpt>
      <trkpt lat="49.22395" lon="1.38767">
        <ele>12.1</ele>
        <time>2018-05-27T09:01:41Z</time>
      </trkpt>
      <trkpt lat="49.22393" lon="1.38747">
        <ele>12.3</ele>
        <time>2018-05-27T09:01:44Z</time>
      </trkpt>
      <trkpt lat="49.22394" lon="1.38733">
        <ele>12.2</ele>
        <time>2018-05-27T09:01:46Z</time>
      </trkpt>
      <trkpt lat="49.22398" lon="1.38714">
        <ele>12.3</ele>
        <time>2018-05-27T09:01:49Z</time>
      </trkpt>
      <trkpt lat="49.22404" lon="1.38696">
        <ele>12.2</ele>
        <time>2018-05-27T09:01:52Z</time>
      </trkpt>
      <trkpt lat="49.22409" lon="1.38685">
        <ele>12.2</ele>
        <time>2018-05-27T09:01:54Z</time>
      </trkpt>
      <trkpt lat="49.22416" lon="1.38672">
        <ele>12.2</ele>
        <time>2018-05-27T09:01:56Z</time>
      </trkpt>
      <trkpt lat="49.22423" lon="1.38661">
        <ele>12.3</ele>
        <time>2018-05-27T09:01:58Z</time>
      </trkpt>
      <trkpt lat="49.2243" lon="1.3865">
        <ele>12.7</ele>
        <time>2018-05-27T09:02:00Z</time>
      </trkpt>
      <trkpt lat="49.22436" lon="1.38637">
        <ele>12.5</ele>
        <time>2018-05-27T09:02:02Z</time>
      </trkpt>
      <trkpt lat="49.22441" lon="1.38623">
        <ele>12.5</ele>
        <time>2018-05-27T09:02:04Z</time>
      </trkpt>
      <trkpt lat="49.22446" lon="1.38608">
        <ele>12.6</ele>
        <time>2018-05-27T09:02:06Z</time>
      </trkpt>
      <trkpt lat="49.2245" lon="1.38592">
        <ele>12.8</ele>
        <time>2018-05-27T09:02:08Z</time>
      </trkpt>
      <trkpt lat="49.22454" lon="1.38575">
        <ele>12.9</ele>
        <time>2018-05-27T09:02:10Z</time>
      </trkpt>
      <trkpt lat="49.22459" lon="1.38559">
        <ele>13</ele>
        <time>2018-05-27T09:02:12Z</time>
      </trkpt>
      <trkpt lat="49.22464" lon="1.38544">
        <ele>13.2</ele>
        <time>2018-05-27T09:02:14Z</time>
      </trkpt>
      <trkpt lat="49.2247" lon="1.38531">
        <ele>13.4</ele>
        <time>2018-05-27T09:02:16Z</time>
      </trkpt>
      <trkpt lat="49.22477" lon="1.38518">
        <ele>13.5</ele>
        <time>2018-05-27T09:02:18Z</time>
      </trkpt>
      <trkpt lat="49.22484" lon="1.38505">
        <ele>13.5</ele>
        <time>2018-05-27T09:02:20Z</time>
      </trkpt>
      <trkpt lat="49.22491" lon="1.38491">
        <ele>13.5</ele>
        <time>2018-05-27T09:02:22Z</time>
      </trkpt>
      <trkpt lat="49.22496" lon="1.38477">
        <ele>13.5</ele>
        <time>2018-05-27T09:02:24Z</time>
      </trkpt>
      <trkpt lat="49.22502" lon="1.38462">
        <ele>13.5</ele>
        <time>2018-05-27T09:02:26Z</time>
      </trkpt>
      <trkpt lat="49.22507" lon="1.38447">
        <ele>13.5</ele>
        <time>2018-05-27T09:02:28Z</time>
      </trkpt>
      <trkpt lat="49.22512" lon="1.38432">
        <ele>13.6</ele>
        <time>2018-05-27T09:02:30Z</time>
      </trkpt>
      <trkpt lat="49.22517" lon="1.38417">
        <ele>13.7</ele>
        <time>2018-05-27T09:02:32Z</time>
      </trkpt>
      <trkpt lat="49.22523" lon="1.38402">
        <ele>13.7</ele>
        <time>2018-05-27T09:02:34Z</time>
      </trkpt>
      <trkpt lat="49.2253" lon="1.38388">
        <ele>13.8</ele>
        <time>2018-05-27T09:02:36Z</time>
      </trkpt>
      <trkpt lat="49.22537" lon="1.38373">
        <ele>13.7</ele>
        <time>2018-05-27T09:02:38Z</time>
      </trkpt>
      <trkpt lat="49.22543" lon="1.38357">
        <ele>13.5</ele>
        <time>2018-05-27T09:02:40Z</time>
      </trkpt>
      <trkpt lat="49.22548" lon="1.38343">
        <ele>13.1</ele>
        <time>2018-05-27T09:02:42Z</time>
      </trkpt>
      <trkpt lat="49.2255" lon="1.38328">
        <ele>12.5</ele>
        <time>2018-05-27T09:02:45Z</time>
      </trkpt>
      <trkpt lat="49.22561" lon="1.38329">
        <ele>12.1</ele>
        <time>2018-05-27T09:02:49Z</time>
      </trkpt>
      <trkpt lat="49.22571" lon="1.38335">
        <ele>12.3</ele>
        <time>2018-05-27T09:02:52Z</time>
      </trkpt>
      <trkpt lat="49.22581" lon="1.38327">
        <ele>12.6</ele>
        <time>2018-05-27T09:02:55Z</time>
      </trkpt>
      <trkpt lat="49.22586" lon="1.38316">
        <ele>12.7</ele>
        <time>2018-05-27T09:02:57Z</time>
      </trkpt>
      <trkpt lat="49.22593" lon="1.38303">
        <ele>12.8</ele>
        <time>2018-05-27T09:02:59Z</time>
      </trkpt>
      <trkpt lat="49.22598" lon="1.38291">
        <ele>12.9</ele>
        <time>2018-05-27T09:03:01Z</time>
      </trkpt>
      <trkpt lat="49.22604" lon="1.38279">
        <ele>13.2</ele>
        <time>2018-05-27T09:03:03Z</time>
      </trkpt>
      <trkpt lat="49.2261" lon="1.38267">
        <ele>13.4</ele>
        <time>2018-05-27T09:03:05Z</time>
      </trkpt>
      <trkpt lat="49.22615" lon="1.38254">
        <ele>13.8</ele>
        <time>2018-05-27T09:03:07Z</time>
      </trkpt>
      <trkpt lat="49.22621" lon="1.38242">
        <ele>14.2</ele>
        <time>2018-05-27T09:03:09Z</time>
      </trkpt>
      <trkpt lat="49.22627" lon="1.3823">
        <ele>14.8</ele>
        <time>2018-05-27T09:03:11Z</time>
      </trkpt>
      <trkpt lat="49.22632" lon="1.38219">
        <ele>15.5</ele>
        <time>2018-05-27T09:03:13Z</time>
      </trkpt>
      <trkpt lat="49.22637" lon="1.38207">
        <ele>16.2</ele>
        <time>2018-05-27T09:03:15Z</time>
      </trkpt>
      <trkpt lat="49.22642" lon="1.38195">
        <ele>16.8</ele>
        <time>2018-05-27T09:03:17Z</time>
      </trkpt>
      <trkpt lat="49.2265" lon="1.38179">
        <ele>17.9</ele>
        <time>2018-05-27T09:03:20Z</time>
      </trkpt>
      <trkpt lat="49.22658" lon="1.38162">
        <ele>18.6</ele>
        <time>2018-05-27T09:03:23Z</time>
      </trkpt>
      <trkpt lat="49.22663" lon="1.3815">
        <ele>19.3</ele>
        <time>2018-05-27T09:03:25Z</time>
      </trkpt>
      <trkpt lat="49.22668" lon="1.38138">
        <ele>19.9</ele>
        <time>2018-05-27T09:03:27Z</time>
      </trkpt>
      <trkpt lat="49.22674" lon="1.38125">
        <ele>20.4</ele>
        <time>2018-05-27T09:03:29Z</time>
      </trkpt>
      <trkpt lat="49.22679" lon="1.38113">
        <ele>20.9</ele>
        <time>2018-05-27T09:03:31Z</time>
      </trkpt>
      <trkpt lat="49.22684" lon="1.381">
        <ele>21.3</ele>
        <time>2018-05-27T09:03:33Z</time>
      </trkpt>
      <trkpt lat="49.22689" lon="1.38087">
        <ele>21.7</ele>
        <time>2018-05-27T09:03:35Z</time>
      </trkpt>
      <trkpt lat="49.22695" lon="1.3807">
        <ele>22</ele>
        <time>2018-05-27T09:03:38Z</time>
      </trkpt>
      <trkpt lat="49.22701" lon="1.38055">
        <ele>22.2</ele>
        <time>2018-05-27T09:03:41Z</time>
      </trkpt>
      <trkpt lat="49.22707" lon="1.38043">
        <ele>22.3</ele>
        <time>2018-05-27T09:03:44Z</time>
      </trkpt>
      <trkpt lat="49.22709" lon="1.38029">
        <ele>22.5</ele>
        <time>2018-05-27T09:03:47Z</time>
      </trkpt>
      <trkpt lat="49.22703" lon="1.38014">
        <ele>22.3</ele>
        <time>2018-05-27T09:03:50Z</time>
      </trkpt>
      <trkpt lat="49.22696" lon="1.38002">
        <ele>22.1</ele>
        <time>2018-05-27T09:03:52Z</time>
      </trkpt>
      <trkpt lat="49.22689" lon="1.37987">
        <ele>21.8</ele>
        <time>2018-05-27T09:03:54Z</time>
      </trkpt>
      <trkpt lat="49.22686" lon="1.37968">
        <ele>21.2</ele>
        <time>2018-05-27T09:03:56Z</time>
      </trkpt>
      <trkpt lat="49.22685" lon="1.37947">
        <ele>20.3</ele>
        <time>2018-05-27T09:03:58Z</time>
      </trkpt>
      <trkpt lat="49.22684" lon="1.37926">
        <ele>18.7</ele>
        <time>2018-05-27T09:04:00Z</time>
      </trkpt>
      <trkpt lat="49.2268" lon="1.37905">
        <ele>17.5</ele>
        <time>2018-05-27T09:04:02Z</time>
      </trkpt>
      <trkpt lat="49.22671" lon="1.37888">
        <ele>16.3</ele>
        <time>2018-05-27T09:04:04Z</time>
      </trkpt>
      <trkpt lat="49.22661" lon="1.37876">
        <ele>15.8</ele>
        <time>2018-05-27T09:04:06Z</time>
      </trkpt>
      <trkpt lat="49.2265" lon="1.37865">
        <ele>15.4</ele>
        <time>2018-05-27T09:04:08Z</time>
      </trkpt>
      <trkpt lat="49.2264" lon="1.37853">
        <ele>15.1</ele>
        <time>2018-05-27T09:04:10Z</time>
      </trkpt>
      <trkpt lat="49.2263" lon="1.37842">
        <ele>14.8</ele>
        <time>2018-05-27T09:04:12Z</time>
      </trkpt>
      <trkpt lat="49.2262" lon="1.37831">
        <ele>14.7</ele>
        <time>2018-05-27T09:04:14Z</time>
      </trkpt>
      <trkpt lat="49.2261" lon="1.3782">
        <ele>14.8</ele>
        <time>2018-05-27T09:04:16Z</time>
      </trkpt>
      <trkpt lat="49.22601" lon="1.3781">
        <ele>14.6</ele>
        <time>2018-05-27T09:04:18Z</time>
      </trkpt>
      <trkpt lat="49.22592" lon="1.378">
        <ele>15</ele>
        <time>2018-05-27T09:04:20Z</time>
      </trkpt>
      <trkpt lat="49.22586" lon="1.37787">
        <ele>15.1</ele>
        <time>2018-05-27T09:04:22Z</time>
      </trkpt>
      <trkpt lat="49.22582" lon="1.37771">
        <ele>15.1</ele>
        <time>2018-05-27T09:04:24Z</time>
      </trkpt>
      <trkpt lat="49.2258" lon="1.37755">
        <ele>15.3</ele>
        <time>2018-05-27T09:04:26Z</time>
      </trkpt>
      <trkpt lat="49.22579" lon="1.37739">
        <ele>15.3</ele>
        <time>2018-05-27T09:04:28Z</time>
      </trkpt>
      <trkpt lat="49.22577" lon="1.37723">
        <ele>15.5</ele>
        <time>2018-05-27T09:04:30Z</time>
      </trkpt>
      <trkpt lat="49.22575" lon="1.37707">
        <ele>15.7</ele>
        <time>2018-05-27T09:04:32Z</time>
      </trkpt>
      <trkpt lat="49.22573" lon="1.37692">
        <ele>16.1</ele>
        <time>2018-05-27T09:04:34Z</time>
      </trkpt>
      <trkpt lat="49.22571" lon="1.37677">
        <ele>16.3</ele>
        <time>2018-05-27T09:04:36Z</time>
      </trkpt>
      <trkpt lat="49.2257" lon="1.37662">
        <ele>16.6</ele>
        <time>2018-05-27T09:04:38Z</time>
      </trkpt>
      <trkpt lat="49.22568" lon="1.37648">
        <ele>17</ele>
        <time>2018-05-27T09:04:40Z</time>
      </trkpt>
      <trkpt lat="49.22567" lon="1.37633">
        <ele>17.3</ele>
        <time>2018-05-27T09:04:42Z</time>
      </trkpt>
      <trkpt lat="49.22566" lon="1.37619">
        <ele>17.8</ele>
        <time>2018-05-27T09:04:44Z</time>
      </trkpt>
      <trkpt lat="49.22564" lon="1.37604">
        <ele>18.3</ele>
        <time>2018-05-27T09:04:46Z</time>
      </trkpt>
      <trkpt lat="49.22562" lon="1.37584">
        <ele>19.1</ele>
        <time>2018-05-27T09:04:49Z</time>
      </trkpt>
      <trkpt lat="49.2256" lon="1.37564">
        <ele>19.7</ele>
        <time>2018-05-27T09:04:52Z</time>
      </trkpt>
      <trkpt lat="49.22558" lon="1.37545">
        <ele>20.5</ele>
        <time>2018-05-27T09:04:55Z</time>
      </trkpt>
      <trkpt lat="49.22556" lon="1.37526">
        <ele>21.2</ele>
        <time>2018-05-27T09:04:58Z</time>
      </trkpt>
      <trkpt lat="49.22555" lon="1.37507">
        <ele>22.2</ele>
        <time>2018-05-27T09:05:01Z</time>
      </trkpt>
      <trkpt lat="49.22555" lon="1.37489">
        <ele>23</ele>
        <time>2018-05-27T09:05:04Z</time>
      </trkpt>
      <trkpt lat="49.22558" lon="1.37475">
        <ele>23.6</ele>
        <time>2018-05-27T09:05:07Z</time>
      </trkpt>
      <trkpt lat="49.22569" lon="1.37467">
        <ele>23.5</ele>
        <time>2018-05-27T09:05:10Z</time>
      </trkpt>
      <trkpt lat="49.22577" lon="1.37463">
        <ele>23.6</ele>
        <time>2018-05-27T09:05:12Z</time>
      </trkpt>
      <trkpt lat="49.22587" lon="1.3746">
        <ele>23.6</ele>
        <time>2018-05-27T09:05:14Z</time>
      </trkpt>
      <trkpt lat="49.22596" lon="1.37456">
        <ele>23.6</ele>
        <time>2018-05-27T09:05:16Z</time>
      </trkpt>
      <trkpt lat="49.22606" lon="1.37452">
        <ele>23.5</ele>
        <time>2018-05-27T09:05:18Z</time>
      </trkpt>
      <trkpt lat="49.22616" lon="1.37447">
        <ele>23.4</ele>
        <time>2018-05-27T09:05:20Z</time>
      </trkpt>
      <trkpt lat="49.22626" lon="1.37442">
        <ele>23.2</ele>
        <time>2018-05-27T09:05:22Z</time>
      </trkpt>
      <trkpt lat="49.22635" lon="1.37438">
        <ele>23.1</ele>
        <time>2018-05-27T09:05:24Z</time>
      </trkpt>
      <trkpt lat="49.22645" lon="1.37433">
        <ele>22.9</ele>
        <time>2018-05-27T09:05:26Z</time>
      </trkpt>
      <trkpt lat="49.22656" lon="1.37428">
        <ele>22.7</ele>
        <time>2018-05-27T09:05:28Z</time>
      </trkpt>
      <trkpt lat="49.22667" lon="1.37423">
        <ele>22.5</ele>
        <time>2018-05-27T09:05:30Z</time>
      </trkpt>
      <trkpt lat="49.22679" lon="1.37418">
        <ele>22</ele>
        <time>2018-05-27T09:05:32Z</time>
      </trkpt>
      <trkpt lat="49.22691" lon="1.37412">
        <ele>21.6</ele>
        <time>2018-05-27T09:05:34Z</time>
      </trkpt>
      <trkpt lat="49.22704" lon="1.37407">
        <ele>21.1</ele>
        <time>2018-05-27T09:05:36Z</time>
      </trkpt>
      <trkpt lat="49.22717" lon="1.37402">
        <ele>20.6</ele>
        <time>2018-05-27T09:05:38Z</time>
      </trkpt>
      <trkpt lat="49.22729" lon="1.37397">
        <ele>20.5</ele>
        <time>2018-05-27T09:05:40Z</time>
      </trkpt>
      <trkpt lat="49.22742" lon="1.37392">
        <ele>20.2</ele>
        <time>2018-05-27T09:05:42Z</time>
      </trkpt>
      <trkpt lat="49.22755" lon="1.37387">
        <ele>19.9</ele>
        <time>2018-05-27T09:05:44Z</time>
      </trkpt>
      <trkpt lat="49.22768" lon="1.37383">
        <ele>19.5</ele>
        <time>2018-05-27T09:05:46Z</time>
      </trkpt>
      <trkpt lat="49.22782" lon="1.37379">
        <ele>19.1</ele>
        <time>2018-05-27T09:05:48Z</time>
      </trkpt>
      <trkpt lat="49.22795" lon="1.37376">
        <ele>18.7</ele>
        <time>2018-05-27T09:05:50Z</time>
      </trkpt>
      <trkpt lat="49.22809" lon="1.37374">
        <ele>18.3</ele>
        <time>2018-05-27T09:05:52Z</time>
      </trkpt>
      <trkpt lat="49.22823" lon="1.37372">
        <ele>17.9</ele>
        <time>2018-05-27T09:05:54Z</time>
      </trkpt>
      <trkpt lat="49.22835" lon="1.3737">
        <ele>17.6</ele>
        <time>2018-05-27T09:05:56Z</time>
      </trkpt>
      <trkpt lat="49.22843" lon="1.37362">
        <ele>17.1</ele>
        <time>2018-05-27T09:05:59Z</time>
      </trkpt>
      <trkpt lat="49.22841" lon="1.37348">
        <ele>16.9</ele>
        <time>2018-05-27T09:06:08Z</time>
      </trkpt>
      <trkpt lat="49.22838" lon="1.3733">
        <ele>17.1</ele>
        <time>2018-05-27T09:06:11Z</time>
      </trkpt>
      <trkpt lat="49.22839" lon="1.37314">
        <ele>17.5</ele>
        <time>2018-05-27T09:06:13Z</time>
      </trkpt>
      <trkpt lat="49.22844" lon="1.37299">
        <ele>17.7</ele>
        <time>2018-05-27T09:06:15Z</time>
      </trkpt>
      <trkpt lat="49.22851" lon="1.37286">
        <ele>18.1</ele>
        <time>2018-05-27T09:06:17Z</time>
      </trkpt>
      <trkpt lat="49.22858" lon="1.37272">
        <ele>18.1</ele>
        <time>2018-05-27T09:06:19Z</time>
      </trkpt>
      <trkpt lat="49.22862" lon="1.37257">
        <ele>18.2</ele>
        <time>2018-05-27T09:06:21Z</time>
      </trkpt>
      <trkpt lat="49.22865" lon="1.37241">
        <ele>18.3</ele>
        <time>2018-05-27T09:06:23Z</time>
      </trkpt>
      <trkpt lat="49.22867" lon="1.37226">
        <ele>18.4</ele>
        <time>2018-05-27T09:06:25Z</time>
      </trkpt>
      <trkpt lat="49.22869" lon="1.37211">
        <ele>18.5</ele>
        <time>2018-05-27T09:06:27Z</time>
      </trkpt>
      <trkpt lat="49.2287" lon="1.37196">
        <ele>18.6</ele>
        <time>2018-05-27T09:06:29Z</time>
      </trkpt>
      <trkpt lat="49.22872" lon="1.37181">
        <ele>18.7</ele>
        <time>2018-05-27T09:06:31Z</time>
      </trkpt>
      <trkpt lat="49.22872" lon="1.37166">
        <ele>19</ele>
        <time>2018-05-27T09:06:33Z</time>
      </trkpt>
      <trkpt lat="49.22875" lon="1.37152">
        <ele>19.2</ele>
        <time>2018-05-27T09:06:35Z</time>
      </trkpt>
      <trkpt lat="49.22876" lon="1.37132">
        <ele>19.5</ele>
        <time>2018-05-27T09:06:38Z</time>
      </trkpt>
      <trkpt lat="49.22874" lon="1.37119">
        <ele>19.8</ele>
        <time>2018-05-27T09:06:40Z</time>
      </trkpt>
      <trkpt lat="49.22873" lon="1.37105">
        <ele>20.1</ele>
        <time>2018-05-27T09:06:42Z</time>
      </trkpt>
      <trkpt lat="49.2287" lon="1.37091">
        <ele>20.6</ele>
        <time>2018-05-27T09:06:44Z</time>
      </trkpt>
      <trkpt lat="49.22865" lon="1.37079">
        <ele>21.1</ele>
        <time>2018-05-27T09:06:46Z</time>
      </trkpt>
      <trkpt lat="49.22858" lon="1.37064">
        <ele>21.6</ele>
        <time>2018-05-27T09:06:49Z</time>
      </trkpt>
      <trkpt lat="49.22849" lon="1.37054">
        <ele>21.8</ele>
        <time>2018-05-27T09:06:51Z</time>
      </trkpt>
      <trkpt lat="49.22838" lon="1.37045">
        <ele>21.8</ele>
        <time>2018-05-27T09:06:53Z</time>
      </trkpt>
      <trkpt lat="49.22829" lon="1.37035">
        <ele>22.1</ele>
        <time>2018-05-27T09:06:55Z</time>
      </trkpt>
      <trkpt lat="49.22822" lon="1.37024">
        <ele>22.3</ele>
        <time>2018-05-27T09:06:57Z</time>
      </trkpt>
      <trkpt lat="49.22817" lon="1.37012">
        <ele>22.5</ele>
        <time>2018-05-27T09:06:59Z</time>
      </trkpt>
      <trkpt lat="49.22812" lon="1.37">
        <ele>22.5</ele>
        <time>2018-05-27T09:07:01Z</time>
      </trkpt>
      <trkpt lat="49.22806" lon="1.36988">
        <ele>22.7</ele>
        <time>2018-05-27T09:07:03Z</time>
      </trkpt>
      <trkpt lat="49.228" lon="1.36975">
        <ele>22.8</ele>
        <time>2018-05-27T09:07:05Z</time>
      </trkpt>
      <trkpt lat="49.22794" lon="1.36962">
        <ele>22.9</ele>
        <time>2018-05-27T09:07:07Z</time>
      </trkpt>
      <trkpt lat="49.22788" lon="1.3695">
        <ele>23.2</ele>
        <time>2018-05-27T09:07:09Z</time>
      </trkpt>
      <trkpt lat="49.22783" lon="1.36936">
        <ele>23.4</ele>
        <time>2018-05-27T09:07:11Z</time>
      </trkpt>
      <trkpt lat="49.22778" lon="1.36922">
        <ele>23.5</ele>
        <time>2018-05-27T09:07:13Z</time>
      </trkpt>
      <trkpt lat="49.22773" lon="1.36908">
        <ele>23.5</ele>
        <time>2018-05-27T09:07:15Z</time>
      </trkpt>
      <trkpt lat="49.22769" lon="1.36893">
        <ele>23.4</ele>
        <time>2018-05-27T09:07:17Z</time>
      </trkpt>
      <trkpt lat="49.22765" lon="1.36878">
        <ele>23.3</ele>
        <time>2018-05-27T09:07:19Z</time>
      </trkpt>
      <trkpt lat="49.2276" lon="1.36864">
        <ele>23</ele>
        <time>2018-05-27T09:07:21Z</time>
      </trkpt>
      <trkpt lat="49.22754" lon="1.36849">
        <ele>23</ele>
        <time>2018-05-27T09:07:23Z</time>
      </trkpt>
      <trkpt lat="49.22747" lon="1.36835">
        <ele>23.3</ele>
        <time>2018-05-27T09:07:25Z</time>
      </trkpt>
      <trkpt lat="49.2274" lon="1.36823">
        <ele>23.4</ele>
        <time>2018-05-27T09:07:27Z</time>
      </trkpt>
      <trkpt lat="49.22732" lon="1.36811">
        <ele>23.6</ele>
        <time>2018-05-27T09:07:29Z</time>
      </trkpt>
      <trkpt lat="49.22725" lon="1.36797">
        <ele>23.6</ele>
        <time>2018-05-27T09:07:31Z</time>
      </trkpt>
      <trkpt lat="49.22718" lon="1.36783">
        <ele>23.6</ele>
        <time>2018-05-27T09:07:33Z</time>
      </trkpt>
      <trkpt lat="49.22712" lon="1.36769">
        <ele>23.6</ele>
        <time>2018-05-27T09:07:35Z</time>
      </trkpt>
      <trkpt lat="49.22705" lon="1.36753">
        <ele>23.5</ele>
        <time>2018-05-27T09:07:37Z</time>
      </trkpt>
      <trkpt lat="49.22698" lon="1.36738">
        <ele>23.6</ele>
        <time>2018-05-27T09:07:39Z</time>
      </trkpt>
      <trkpt lat="49.22691" lon="1.36723">
        <ele>23.6</ele>
        <time>2018-05-27T09:07:41Z</time>
      </trkpt>
      <trkpt lat="49.22686" lon="1.36707">
        <ele>23.6</ele>
        <time>2018-05-27T09:07:43Z</time>
      </trkpt>
      <trkpt lat="49.2268" lon="1.36692">
        <ele>23.8</ele>
        <time>2018-05-27T09:07:45Z</time>
      </trkpt>
      <trkpt lat="49.22676" lon="1.36677">
        <ele>23.8</ele>
        <time>2018-05-27T09:07:47Z</time>
      </trkpt>
      <trkpt lat="49.22675" lon="1.36662">
        <ele>23.9</ele>
        <time>2018-05-27T09:07:49Z</time>
      </trkpt>
      <trkpt lat="49.22675" lon="1.36647">
        <ele>24.5</ele>
        <time>2018-05-27T09:07:51Z</time>
      </trkpt>
      <trkpt lat="49.22677" lon="1.36633">
        <ele>24.9</ele>
        <time>2018-05-27T09:07:53Z</time>
      </trkpt>
      <trkpt lat="49.22681" lon="1.36618">
        <ele>25</ele>
        <time>2018-05-27T09:07:55Z</time>
      </trkpt>
      <trkpt lat="49.22685" lon="1.36604">
        <ele>25.2</ele>
        <time>2018-05-27T09:07:57Z</time>
      </trkpt>
      <trkpt lat="49.22688" lon="1.36588">
        <ele>25.2</ele>
        <time>2018-05-27T09:07:59Z</time>
      </trkpt>
      <trkpt lat="49.22691" lon="1.36573">
        <ele>25.1</ele>
        <time>2018-05-27T09:08:01Z</time>
      </trkpt>
      <trkpt lat="49.22692" lon="1.36559">
        <ele>25.1</ele>
        <time>2018-05-27T09:08:03Z</time>
      </trkpt>
      <trkpt lat="49.22693" lon="1.36542">
        <ele>25.5</ele>
        <time>2018-05-27T09:08:06Z</time>
      </trkpt>
      <trkpt lat="49.22694" lon="1.36526">
        <ele>26.5</ele>
        <time>2018-05-27T09:08:10Z</time>
      </trkpt>
      <trkpt lat="49.22689" lon="1.36514">
        <ele>27.8</ele>
        <time>2018-05-27T09:08:14Z</time>
      </trkpt>
      <trkpt lat="49.22685" lon="1.36501">
        <ele>29.4</ele>
        <time>2018-05-27T09:08:18Z</time>
      </trkpt>
      <trkpt lat="49.22674" lon="1.36502">
        <ele>30</ele>
        <time>2018-05-27T09:08:21Z</time>
      </trkpt>
      <trkpt lat="49.22663" lon="1.36506">
        <ele>30.6</ele>
        <time>2018-05-27T09:08:24Z</time>
      </trkpt>
      <trkpt lat="49.2265" lon="1.36512">
        <ele>30.9</ele>
        <time>2018-05-27T09:08:27Z</time>
      </trkpt>
      <trkpt lat="49.22638" lon="1.3652">
        <ele>30.9</ele>
        <time>2018-05-27T09:08:30Z</time>
      </trkpt>
      <trkpt lat="49.22627" lon="1.36527">
        <ele>31.2</ele>
        <time>2018-05-27T09:08:33Z</time>
      </trkpt>
      <trkpt lat="49.22617" lon="1.36535">
        <ele>31.3</ele>
        <time>2018-05-27T09:08:35Z</time>
      </trkpt>
      <trkpt lat="49.22607" lon="1.36541">
        <ele>31.3</ele>
        <time>2018-05-27T09:08:37Z</time>
      </trkpt>
      <trkpt lat="49.22595" lon="1.36548">
        <ele>31.2</ele>
        <time>2018-05-27T09:08:40Z</time>
      </trkpt>
      <trkpt lat="49.22587" lon="1.36555">
        <ele>31.1</ele>
        <time>2018-05-27T09:08:42Z</time>
      </trkpt>
      <trkpt lat="49.22574" lon="1.36565">
        <ele>31.2</ele>
        <time>2018-05-27T09:08:45Z</time>
      </trkpt>
      <trkpt lat="49.22565" lon="1.36572">
        <ele>31.2</ele>
        <time>2018-05-27T09:08:47Z</time>
      </trkpt>
      <trkpt lat="49.22556" lon="1.36579">
        <ele>31.3</ele>
        <time>2018-05-27T09:08:49Z</time>
      </trkpt>
      <trkpt lat="49.22546" lon="1.36586">
        <ele>31.3</ele>
        <time>2018-05-27T09:08:51Z</time>
      </trkpt>
      <trkpt lat="49.22536" lon="1.36591">
        <ele>31.5</ele>
        <time>2018-05-27T09:08:53Z</time>
      </trkpt>
      <trkpt lat="49.22526" lon="1.36598">
        <ele>31.6</ele>
        <time>2018-05-27T09:08:55Z</time>
      </trkpt>
      <trkpt lat="49.22517" lon="1.36604">
        <ele>31.6</ele>
        <time>2018-05-27T09:08:57Z</time>
      </trkpt>
      <trkpt lat="49.22507" lon="1.36613">
        <ele>31.6</ele>
        <time>2018-05-27T09:08:59Z</time>
      </trkpt>
      <trkpt lat="49.22497" lon="1.36622">
        <ele>31.5</ele>
        <time>2018-05-27T09:09:01Z</time>
      </trkpt>
      <trkpt lat="49.22488" lon="1.36627">
        <ele>31.4</ele>
        <time>2018-05-27T09:09:03Z</time>
      </trkpt>
      <trkpt lat="49.22479" lon="1.36637">
        <ele>31.5</ele>
        <time>2018-05-27T09:09:05Z</time>
      </trkpt>
      <trkpt lat="49.2247" lon="1.36646">
        <ele>31.5</ele>
        <time>2018-05-27T09:09:07Z</time>
      </trkpt>
      <trkpt lat="49.22464" lon="1.36656">
        <ele>31.5</ele>
        <time>2018-05-27T09:09:09Z</time>
      </trkpt>
      <trkpt lat="49.22457" lon="1.36669">
        <ele>31.4</ele>
        <time>2018-05-27T09:09:11Z</time>
      </trkpt>
      <trkpt lat="49.22449" lon="1.36686">
        <ele>31.6</ele>
        <time>2018-05-27T09:09:13Z</time>
      </trkpt>
      <trkpt lat="49.22443" lon="1.36703">
        <ele>31.8</ele>
        <time>2018-05-27T09:09:15Z</time>
      </trkpt>
      <trkpt lat="49.22437" lon="1.36718">
        <ele>31.7</ele>
        <time>2018-05-27T09:09:17Z</time>
      </trkpt>
      <trkpt lat="49.22432" lon="1.36732">
        <ele>31.7</ele>
        <time>2018-05-27T09:09:19Z</time>
      </trkpt>
      <trkpt lat="49.22426" lon="1.36746">
        <ele>31.7</ele>
        <time>2018-05-27T09:09:21Z</time>
      </trkpt>
      <trkpt lat="49.22419" lon="1.36763">
        <ele>31.9</ele>
        <time>2018-05-27T09:09:23Z</time>
      </trkpt>
      <trkpt lat="49.22413" lon="1.36781">
        <ele>31.9</ele>
        <time>2018-05-27T09:09:25Z</time>
      </trkpt>
      <trkpt lat="49.22406" lon="1.36796">
        <ele>31.9</ele>
        <time>2018-05-27T09:09:27Z</time>
      </trkpt>
      <trkpt lat="49.22402" lon="1.36811">
        <ele>31.9</ele>
        <time>2018-05-27T09:09:29Z</time>
      </trkpt>
      <trkpt lat="49.22398" lon="1.36825">
        <ele>32.1</ele>
        <time>2018-05-27T09:09:31Z</time>
      </trkpt>
      <trkpt lat="49.22394" lon="1.36839">
        <ele>32.2</ele>
        <time>2018-05-27T09:09:33Z</time>
      </trkpt>
      <trkpt lat="49.22386" lon="1.36858">
        <ele>32.2</ele>
        <time>2018-05-27T09:09:36Z</time>
      </trkpt>
      <trkpt lat="49.22381" lon="1.36874">
        <ele>32.1</ele>
        <time>2018-05-27T09:09:38Z</time>
      </trkpt>
      <trkpt lat="49.22375" lon="1.36891">
        <ele>32.3</ele>
        <time>2018-05-27T09:09:40Z</time>
      </trkpt>
      <trkpt lat="49.22366" lon="1.36909">
        <ele>32.4</ele>
        <time>2018-05-27T09:09:42Z</time>
      </trkpt>
      <trkpt lat="49.22361" lon="1.36927">
        <ele>32.4</ele>
        <time>2018-05-27T09:09:44Z</time>
      </trkpt>
      <trkpt lat="49.22354" lon="1.36944">
        <ele>32.6</ele>
        <time>2018-05-27T09:09:46Z</time>
      </trkpt>
      <trkpt lat="49.22349" lon="1.36959">
        <ele>32.7</ele>
        <time>2018-05-27T09:09:48Z</time>
      </trkpt>
      <trkpt lat="49.22342" lon="1.36978">
        <ele>32.7</ele>
        <time>2018-05-27T09:09:50Z</time>
      </trkpt>
      <trkpt lat="49.22339" lon="1.36995">
        <ele>32.7</ele>
        <time>2018-05-27T09:09:52Z</time>
      </trkpt>
      <trkpt lat="49.22331" lon="1.37011">
        <ele>32.6</ele>
        <time>2018-05-27T09:09:54Z</time>
      </trkpt>
      <trkpt lat="49.22325" lon="1.37024">
        <ele>32.9</ele>
        <time>2018-05-27T09:09:56Z</time>
      </trkpt>
      <trkpt lat="49.22318" lon="1.37041">
        <ele>32.9</ele>
        <time>2018-05-27T09:09:58Z</time>
      </trkpt>
      <trkpt lat="49.22312" lon="1.3706">
        <ele>32.8</ele>
        <time>2018-05-27T09:10:00Z</time>
      </trkpt>
      <trkpt lat="49.22304" lon="1.37079">
        <ele>32.7</ele>
        <time>2018-05-27T09:10:02Z</time>
      </trkpt>
      <trkpt lat="49.22296" lon="1.37097">
        <ele>32.6</ele>
        <time>2018-05-27T09:10:04Z</time>
      </trkpt>
      <trkpt lat="49.2229" lon="1.37111">
        <ele>32.6</ele>
        <time>2018-05-27T09:10:06Z</time>
      </trkpt>
      <trkpt lat="49.22283" lon="1.37128">
        <ele>32.4</ele>
        <time>2018-05-27T09:10:08Z</time>
      </trkpt>
      <trkpt lat="49.22276" lon="1.37148">
        <ele>32.3</ele>
        <time>2018-05-27T09:10:10Z</time>
      </trkpt>
      <trkpt lat="49.22267" lon="1.37166">
        <ele>32.4</ele>
        <time>2018-05-27T09:10:12Z</time>
      </trkpt>
      <trkpt lat="49.22257" lon="1.37183">
        <ele>32.4</ele>
        <time>2018-05-27T09:10:14Z</time>
      </trkpt>
      <trkpt lat="49.22248" lon="1.37201">
        <ele>32.4</ele>
        <time>2018-05-27T09:10:16Z</time>
      </trkpt>
      <trkpt lat="49.2224" lon="1.37219">
        <ele>32.5</ele>
        <time>2018-05-27T09:10:18Z</time>
      </trkpt>
      <trkpt lat="49.22233" lon="1.37237">
        <ele>32.5</ele>
        <time>2018-05-27T09:10:20Z</time>
      </trkpt>
      <trkpt lat="49.22225" lon="1.37255">
        <ele>32.6</ele>
        <time>2018-05-27T09:10:22Z</time>
      </trkpt>
      <trkpt lat="49.22217" lon="1.37271">
        <ele>32.6</ele>
        <time>2018-05-27T09:10:24Z</time>
      </trkpt>
      <trkpt lat="49.22209" lon="1.37289">
        <ele>32.7</ele>
        <time>2018-05-27T09:10:26Z</time>
      </trkpt>
      <trkpt lat="49.22202" lon="1.37305">
        <ele>32.7</ele>
        <time>2018-05-27T09:10:28Z</time>
      </trkpt>
      <trkpt lat="49.22195" lon="1.37321">
        <ele>32.4</ele>
        <time>2018-05-27T09:10:30Z</time>
      </trkpt>
      <trkpt lat="49.22189" lon="1.37337">
        <ele>32.5</ele>
        <time>2018-05-27T09:10:32Z</time>
      </trkpt>
      <trkpt lat="49.22182" lon="1.37353">
        <ele>32.6</ele>
        <time>2018-05-27T09:10:34Z</time>
      </trkpt>
      <trkpt lat="49.22175" lon="1.37369">
        <ele>32.6</ele>
        <time>2018-05-27T09:10:36Z</time>
      </trkpt>
      <trkpt lat="49.22168" lon="1.37386">
        <ele>32.5</ele>
        <time>2018-05-27T09:10:38Z</time>
      </trkpt>
      <trkpt lat="49.22161" lon="1.37403">
        <ele>32.5</ele>
        <time>2018-05-27T09:10:40Z</time>
      </trkpt>
      <trkpt lat="49.22154" lon="1.37419">
        <ele>32.5</ele>
        <time>2018-05-27T09:10:42Z</time>
      </trkpt>
      <trkpt lat="49.22147" lon="1.37435">
        <ele>32.2</ele>
        <time>2018-05-27T09:10:44Z</time>
      </trkpt>
      <trkpt lat="49.2214" lon="1.37452">
        <ele>32.1</ele>
        <time>2018-05-27T09:10:46Z</time>
      </trkpt>
      <trkpt lat="49.22133" lon="1.37462">
        <ele>31.9</ele>
        <time>2018-05-27T09:10:49Z</time>
      </trkpt>
      <trkpt lat="49.22129" lon="1.37448">
        <ele>31.6</ele>
        <time>2018-05-27T09:10:53Z</time>
      </trkpt>
      <trkpt lat="49.22128" lon="1.37428">
        <ele>31.5</ele>
        <time>2018-05-27T09:10:56Z</time>
      </trkpt>
      <trkpt lat="49.22129" lon="1.37413">
        <ele>31.6</ele>
        <time>2018-05-27T09:10:58Z</time>
      </trkpt>
      <trkpt lat="49.22128" lon="1.37396">
        <ele>31.9</ele>
        <time>2018-05-27T09:11:00Z</time>
      </trkpt>
      <trkpt lat="49.22126" lon="1.37378">
        <ele>32.2</ele>
        <time>2018-05-27T09:11:02Z</time>
      </trkpt>
      <trkpt lat="49.22123" lon="1.3736">
        <ele>32.2</ele>
        <time>2018-05-27T09:11:04Z</time>
      </trkpt>
      <trkpt lat="49.2212" lon="1.37342">
        <ele>32.2</ele>
        <time>2018-05-27T09:11:06Z</time>
      </trkpt>
      <trkpt lat="49.22115" lon="1.37325">
        <ele>32.3</ele>
        <time>2018-05-27T09:11:08Z</time>
      </trkpt>
      <trkpt lat="49.2211" lon="1.37308">
        <ele>32.4</ele>
        <time>2018-05-27T09:11:10Z</time>
      </trkpt>
      <trkpt lat="49.22105" lon="1.3729">
        <ele>32.4</ele>
        <time>2018-05-27T09:11:12Z</time>
      </trkpt>
      <trkpt lat="49.221" lon="1.37273">
        <ele>32.4</ele>
        <time>2018-05-27T09:11:14Z</time>
      </trkpt>
      <trkpt lat="49.22095" lon="1.37255">
        <ele>32.2</ele>
        <time>2018-05-27T09:11:16Z</time>
      </trkpt>
      <trkpt lat="49.22089" lon="1.37235">
        <ele>32.1</ele>
        <time>2018-05-27T09:11:18Z</time>
      </trkpt>
      <trkpt lat="49.22084" lon="1.37215">
        <ele>31.9</ele>
        <time>2018-05-27T09:11:20Z</time>
      </trkpt>
      <trkpt lat="49.2208" lon="1.37196">
        <ele>31.9</ele>
        <time>2018-05-27T09:11:22Z</time>
      </trkpt>
      <trkpt lat="49.22075" lon="1.37178">
        <ele>31.7</ele>
        <time>2018-05-27T09:11:24Z</time>
      </trkpt>
      <trkpt lat="49.22072" lon="1.3716">
        <ele>31.9</ele>
        <time>2018-05-27T09:11:26Z</time>
      </trkpt>
      <trkpt lat="49.22068" lon="1.37143">
        <ele>32.2</ele>
        <time>2018-05-27T09:11:28Z</time>
      </trkpt>
      <trkpt lat="49.22065" lon="1.37127">
        <ele>32.4</ele>
        <time>2018-05-27T09:11:30Z</time>
      </trkpt>
      <trkpt lat="49.22061" lon="1.3711">
        <ele>32.4</ele>
        <time>2018-05-27T09:11:32Z</time>
      </trkpt>
      <trkpt lat="49.22058" lon="1.37094">
        <ele>32.6</ele>
        <time>2018-05-27T09:11:34Z</time>
      </trkpt>
      <trkpt lat="49.22054" lon="1.37077">
        <ele>32.8</ele>
        <time>2018-05-27T09:11:36Z</time>
      </trkpt>
      <trkpt lat="49.2205" lon="1.3706">
        <ele>32.8</ele>
        <time>2018-05-27T09:11:38Z</time>
      </trkpt>
      <trkpt lat="49.22045" lon="1.37043">
        <ele>33.1</ele>
        <time>2018-05-27T09:11:40Z</time>
      </trkpt>
      <trkpt lat="49.22039" lon="1.37027">
        <ele>33.3</ele>
        <time>2018-05-27T09:11:42Z</time>
      </trkpt>
      <trkpt lat="49.22032" lon="1.3701">
        <ele>33.4</ele>
        <time>2018-05-27T09:11:44Z</time>
      </trkpt>
      <trkpt lat="49.22025" lon="1.36995">
        <ele>33.4</ele>
        <time>2018-05-27T09:11:46Z</time>
      </trkpt>
      <trkpt lat="49.22018" lon="1.3698">
        <ele>33.5</ele>
        <time>2018-05-27T09:11:48Z</time>
      </trkpt>
      <trkpt lat="49.2201" lon="1.36965">
        <ele>33.8</ele>
        <time>2018-05-27T09:11:50Z</time>
      </trkpt>
      <trkpt lat="49.22004" lon="1.36951">
        <ele>33.9</ele>
        <time>2018-05-27T09:11:52Z</time>
      </trkpt>
      <trkpt lat="49.21995" lon="1.36937">
        <ele>34.2</ele>
        <time>2018-05-27T09:11:54Z</time>
      </trkpt>
      <trkpt lat="49.21986" lon="1.36925">
        <ele>34.4</ele>
        <time>2018-05-27T09:11:56Z</time>
      </trkpt>
      <trkpt lat="49.21977" lon="1.36914">
        <ele>34.5</ele>
        <time>2018-05-27T09:11:58Z</time>
      </trkpt>
      <trkpt lat="49.21968" lon="1.36907">
        <ele>34.5</ele>
        <time>2018-05-27T09:12:00Z</time>
      </trkpt>
      <trkpt lat="49.2196" lon="1.36896">
        <ele>34.5</ele>
        <time>2018-05-27T09:12:02Z</time>
      </trkpt>
      <trkpt lat="49.2195" lon="1.36886">
        <ele>34.8</ele>
        <time>2018-05-27T09:12:04Z</time>
      </trkpt>
      <trkpt lat="49.21942" lon="1.36874">
        <ele>34.9</ele>
        <time>2018-05-27T09:12:06Z</time>
      </trkpt>
      <trkpt lat="49.21932" lon="1.36862">
        <ele>35.1</ele>
        <time>2018-05-27T09:12:08Z</time>
      </trkpt>
      <trkpt lat="49.21923" lon="1.36851">
        <ele>35.2</ele>
        <time>2018-05-27T09:12:10Z</time>
      </trkpt>
      <trkpt lat="49.21916" lon="1.36839">
        <ele>35.3</ele>
        <time>2018-05-27T09:12:12Z</time>
      </trkpt>
      <trkpt lat="49.21907" lon="1.3683">
        <ele>35.6</ele>
        <time>2018-05-27T09:12:14Z</time>
      </trkpt>
      <trkpt lat="49.21898" lon="1.36818">
        <ele>35.7</ele>
        <time>2018-05-27T09:12:16Z</time>
      </trkpt>
      <trkpt lat="49.2189" lon="1.36807">
        <ele>35.9</ele>
        <time>2018-05-27T09:12:18Z</time>
      </trkpt>
      <trkpt lat="49.21882" lon="1.36796">
        <ele>35.8</ele>
        <time>2018-05-27T09:12:20Z</time>
      </trkpt>
      <trkpt lat="49.21873" lon="1.36784">
        <ele>35.7</ele>
        <time>2018-05-27T09:12:22Z</time>
      </trkpt>
      <trkpt lat="49.21865" lon="1.36773">
        <ele>35.9</ele>
        <time>2018-05-27T09:12:24Z</time>
      </trkpt>
      <trkpt lat="49.21855" lon="1.36764">
        <ele>36.1</ele>
        <time>2018-05-27T09:12:26Z</time>
      </trkpt>
      <trkpt lat="49.21846" lon="1.36754">
        <ele>36.2</ele>
        <time>2018-05-27T09:12:28Z</time>
      </trkpt>
      <trkpt lat="49.21837" lon="1.36744">
        <ele>36.4</ele>
        <time>2018-05-27T09:12:30Z</time>
      </trkpt>
      <trkpt lat="49.21828" lon="1.36734">
        <ele>36.6</ele>
        <time>2018-05-27T09:12:32Z</time>
      </trkpt>
      <trkpt lat="49.21818" lon="1.36723">
        <ele>36.6</ele>
        <time>2018-05-27T09:12:34Z</time>
      </trkpt>
      <trkpt lat="49.21808" lon="1.36713">
        <ele>36.8</ele>
        <time>2018-05-27T09:12:36Z</time>
      </trkpt>
      <trkpt lat="49.21799" lon="1.36703">
        <ele>36.9</ele>
        <time>2018-05-27T09:12:38Z</time>
      </trkpt>
      <trkpt lat="49.21791" lon="1.36693">
        <ele>37.2</ele>
        <time>2018-05-27T09:12:40Z</time>
      </trkpt>
      <trkpt lat="49.21784" lon="1.36683">
        <ele>37.1</ele>
        <time>2018-05-27T09:12:42Z</time>
      </trkpt>
      <trkpt lat="49.21777" lon="1.36674">
        <ele>37.2</ele>
        <time>2018-05-27T09:12:44Z</time>
      </trkpt>
      <trkpt lat="49.21769" lon="1.36663">
        <ele>37.7</ele>
        <time>2018-05-27T09:12:46Z</time>
      </trkpt>
      <trkpt lat="49.21763" lon="1.36651">
        <ele>37.8</ele>
        <time>2018-05-27T09:12:48Z</time>
      </trkpt>
      <trkpt lat="49.21754" lon="1.3664">
        <ele>38</ele>
        <time>2018-05-27T09:12:51Z</time>
      </trkpt>
      <trkpt lat="49.21744" lon="1.36627">
        <ele>38.2</ele>
        <time>2018-05-27T09:12:54Z</time>
      </trkpt>
      <trkpt lat="49.21736" lon="1.36612">
        <ele>38.6</ele>
        <time>2018-05-27T09:12:57Z</time>
      </trkpt>
      <trkpt lat="49.21725" lon="1.36602">
        <ele>38.9</ele>
        <time>2018-05-27T09:13:01Z</time>
      </trkpt>
      <trkpt lat="49.21714" lon="1.36588">
        <ele>38.9</ele>
        <time>2018-05-27T09:13:03Z</time>
      </trkpt>
      <trkpt lat="49.217" lon="1.36577">
        <ele>39.1</ele>
        <time>2018-05-27T09:13:05Z</time>
      </trkpt>
      <trkpt lat="49.21692" lon="1.36567">
        <ele>39.6</ele>
        <time>2018-05-27T09:13:07Z</time>
      </trkpt>
      <trkpt lat="49.21684" lon="1.36559">
        <ele>39.7</ele>
        <time>2018-05-27T09:13:09Z</time>
      </trkpt>
      <trkpt lat="49.21675" lon="1.36549">
        <ele>39.9</ele>
        <time>2018-05-27T09:13:11Z</time>
      </trkpt>
      <trkpt lat="49.21667" lon="1.36538">
        <ele>40.2</ele>
        <time>2018-05-27T09:13:13Z</time>
      </trkpt>
      <trkpt lat="49.21657" lon="1.36524">
        <ele>40.3</ele>
        <time>2018-05-27T09:13:16Z</time>
      </trkpt>
      <trkpt lat="49.2165" lon="1.36515">
        <ele>40.6</ele>
        <time>2018-05-27T09:13:18Z</time>
      </trkpt>
      <trkpt lat="49.21639" lon="1.36509">
        <ele>40.8</ele>
        <time>2018-05-27T09:13:20Z</time>
      </trkpt>
      <trkpt lat="49.2163" lon="1.365">
        <ele>40.9</ele>
        <time>2018-05-27T09:13:24Z</time>
      </trkpt>
      <trkpt lat="49.21624" lon="1.36486">
        <ele>41.4</ele>
        <time>2018-05-27T09:13:31Z</time>
      </trkpt>
      <trkpt lat="49.21615" lon="1.36471">
        <ele>41.4</ele>
        <time>2018-05-27T09:13:34Z</time>
      </trkpt>
      <trkpt lat="49.21607" lon="1.36453">
        <ele>41.3</ele>
        <time>2018-05-27T09:13:37Z</time>
      </trkpt>
      <trkpt lat="49.21603" lon="1.3644">
        <ele>41.5</ele>
        <time>2018-05-27T09:13:39Z</time>
      </trkpt>
      <trkpt lat="49.21597" lon="1.36426">
        <ele>41.7</ele>
        <time>2018-05-27T09:13:41Z</time>
      </trkpt>
      <trkpt lat="49.21591" lon="1.36412">
        <ele>41.8</ele>
        <time>2018-05-27T09:13:43Z</time>
      </trkpt>
      <trkpt lat="49.21587" lon="1.36399">
        <ele>41.9</ele>
        <time>2018-05-27T09:13:45Z</time>
      </trkpt>
      <trkpt lat="49.21581" lon="1.36386">
        <ele>42.3</ele>
        <time>2018-05-27T09:13:47Z</time>
      </trkpt>
      <trkpt lat="49.21577" lon="1.36374">
        <ele>42.4</ele>
        <time>2018-05-27T09:13:49Z</time>
      </trkpt>
      <trkpt lat="49.21572" lon="1.3636">
        <ele>42.5</ele>
        <time>2018-05-27T09:13:51Z</time>
      </trkpt>
      <trkpt lat="49.21567" lon="1.36347">
        <ele>42.7</ele>
        <time>2018-05-27T09:13:53Z</time>
      </trkpt>
      <trkpt lat="49.21562" lon="1.36334">
        <ele>42.8</ele>
        <time>2018-05-27T09:13:55Z</time>
      </trkpt>
      <trkpt lat="49.21557" lon="1.36321">
        <ele>42.9</ele>
        <time>2018-05-27T09:13:57Z</time>
      </trkpt>
      <trkpt lat="49.21552" lon="1.36309">
        <ele>43.1</ele>
        <time>2018-05-27T09:13:59Z</time>
      </trkpt>
      <trkpt lat="49.21546" lon="1.36292">
        <ele>43.3</ele>
        <time>2018-05-27T09:14:02Z</time>
      </trkpt>
      <trkpt lat="49.21538" lon="1.36276">
        <ele>43.9</ele>
        <time>2018-05-27T09:14:05Z</time>
      </trkpt>
      <trkpt lat="49.21531" lon="1.36259">
        <ele>44.3</ele>
        <time>2018-05-27T09:14:08Z</time>
      </trkpt>
      <trkpt lat="49.21524" lon="1.36244">
        <ele>44.6</ele>
        <time>2018-05-27T09:14:11Z</time>
      </trkpt>
      <trkpt lat="49.21517" lon="1.36227">
        <ele>44.8</ele>
        <time>2018-05-27T09:14:14Z</time>
      </trkpt>
      <trkpt lat="49.2151" lon="1.3621">
        <ele>44.9</ele>
        <time>2018-05-27T09:14:17Z</time>
      </trkpt>
      <trkpt lat="49.21504" lon="1.36194">
        <ele>45.2</ele>
        <time>2018-05-27T09:14:20Z</time>
      </trkpt>
      <trkpt lat="49.21497" lon="1.36176">
        <ele>45.7</ele>
        <time>2018-05-27T09:14:23Z</time>
      </trkpt>
      <trkpt lat="49.21492" lon="1.36158">
        <ele>46.2</ele>
        <time>2018-05-27T09:14:26Z</time>
      </trkpt>
      <trkpt lat="49.21488" lon="1.36139">
        <ele>46.8</ele>
        <time>2018-05-27T09:14:29Z</time>
      </trkpt>
      <trkpt lat="49.21487" lon="1.36124">
        <ele>47</ele>
        <time>2018-05-27T09:14:31Z</time>
      </trkpt>
      <trkpt lat="49.21487" lon="1.36109">
        <ele>47.1</ele>
        <time>2018-05-27T09:14:33Z</time>
      </trkpt>
      <trkpt lat="49.21487" lon="1.36094">
        <ele>47.4</ele>
        <time>2018-05-27T09:14:35Z</time>
      </trkpt>
      <trkpt lat="49.21487" lon="1.36079">
        <ele>47.6</ele>
        <time>2018-05-27T09:14:37Z</time>
      </trkpt>
      <trkpt lat="49.21487" lon="1.36064">
        <ele>47.6</ele>
        <time>2018-05-27T09:14:39Z</time>
      </trkpt>
      <trkpt lat="49.21486" lon="1.36049">
        <ele>47.6</ele>
        <time>2018-05-27T09:14:41Z</time>
      </trkpt>
      <trkpt lat="49.21486" lon="1.36034">
        <ele>47.6</ele>
        <time>2018-05-27T09:14:43Z</time>
      </trkpt>
      <trkpt lat="49.21485" lon="1.3602">
        <ele>47.8</ele>
        <time>2018-05-27T09:14:45Z</time>
      </trkpt>
      <trkpt lat="49.21484" lon="1.36005">
        <ele>48</ele>
        <time>2018-05-27T09:14:47Z</time>
      </trkpt>
      <trkpt lat="49.21483" lon="1.35991">
        <ele>48.4</ele>
        <time>2018-05-27T09:14:49Z</time>
      </trkpt>
      <trkpt lat="49.21481" lon="1.35976">
        <ele>48.6</ele>
        <time>2018-05-27T09:14:51Z</time>
      </trkpt>
      <trkpt lat="49.21479" lon="1.35962">
        <ele>48.7</ele>
        <time>2018-05-27T09:14:53Z</time>
      </trkpt>
      <trkpt lat="49.21476" lon="1.35948">
        <ele>48.7</ele>
        <time>2018-05-27T09:14:55Z</time>
      </trkpt>
      <trkpt lat="49.21473" lon="1.35934">
        <ele>49</ele>
        <time>2018-05-27T09:14:57Z</time>
      </trkpt>
      <trkpt lat="49.2147" lon="1.3592">
        <ele>49.3</ele>
        <time>2018-05-27T09:14:59Z</time>
      </trkpt>
      <trkpt lat="49.21466" lon="1.35907">
        <ele>49.6</ele>
        <time>2018-05-27T09:15:01Z</time>
      </trkpt>
      <trkpt lat="49.21463" lon="1.35893">
        <ele>49.8</ele>
        <time>2018-05-27T09:15:03Z</time>
      </trkpt>
      <trkpt lat="49.21459" lon="1.35879">
        <ele>50</ele>
        <time>2018-05-27T09:15:05Z</time>
      </trkpt>
      <trkpt lat="49.21456" lon="1.35865">
        <ele>50.5</ele>
        <time>2018-05-27T09:15:07Z</time>
      </trkpt>
      <trkpt lat="49.21452" lon="1.3585">
        <ele>50.3</ele>
        <time>2018-05-27T09:15:09Z</time>
      </trkpt>
      <trkpt lat="49.21449" lon="1.35835">
        <ele>50.6</ele>
        <time>2018-05-27T09:15:11Z</time>
      </trkpt>
      <trkpt lat="49.21445" lon="1.35819">
        <ele>50.6</ele>
        <time>2018-05-27T09:15:13Z</time>
      </trkpt>
      <trkpt lat="49.21442" lon="1.35803">
        <ele>50.5</ele>
        <time>2018-05-27T09:15:15Z</time>
      </trkpt>
      <trkpt lat="49.21438" lon="1.35788">
        <ele>50.7</ele>
        <time>2018-05-27T09:15:17Z</time>
      </trkpt>
      <trkpt lat="49.21434" lon="1.35772">
        <ele>50.9</ele>
        <time>2018-05-27T09:15:19Z</time>
      </trkpt>
      <trkpt lat="49.21431" lon="1.35756">
        <ele>51.1</ele>
        <time>2018-05-27T09:15:21Z</time>
      </trkpt>
      <trkpt lat="49.21428" lon="1.3574">
        <ele>51.2</ele>
        <time>2018-05-27T09:15:23Z</time>
      </trkpt>
      <trkpt lat="49.21424" lon="1.35724">
        <ele>51.3</ele>
        <time>2018-05-27T09:15:25Z</time>
      </trkpt>
      <trkpt lat="49.21421" lon="1.35707">
        <ele>51.4</ele>
        <time>2018-05-27T09:15:27Z</time>
      </trkpt>
      <trkpt lat="49.21416" lon="1.35691">
        <ele>51.6</ele>
        <time>2018-05-27T09:15:29Z</time>
      </trkpt>
      <trkpt lat="49.21412" lon="1.35674">
        <ele>51.5</ele>
        <time>2018-05-27T09:15:31Z</time>
      </trkpt>
      <trkpt lat="49.21409" lon="1.35658">
        <ele>51.4</ele>
        <time>2018-05-27T09:15:33Z</time>
      </trkpt>
      <trkpt lat="49.21405" lon="1.35643">
        <ele>51.2</ele>
        <time>2018-05-27T09:15:35Z</time>
      </trkpt>
      <trkpt lat="49.21402" lon="1.35627">
        <ele>51.4</ele>
        <time>2018-05-27T09:15:37Z</time>
      </trkpt>
      <trkpt lat="49.21399" lon="1.3561">
        <ele>51.7</ele>
        <time>2018-05-27T09:15:39Z</time>
      </trkpt>
      <trkpt lat="49.21395" lon="1.35594">
        <ele>51.7</ele>
        <time>2018-05-27T09:15:41Z</time>
      </trkpt>
      <trkpt lat="49.21392" lon="1.35577">
        <ele>51.7</ele>
        <time>2018-05-27T09:15:43Z</time>
      </trkpt>
      <trkpt lat="49.2139" lon="1.35561">
        <ele>51.8</ele>
        <time>2018-05-27T09:15:45Z</time>
      </trkpt>
      <trkpt lat="49.21387" lon="1.35544">
        <ele>52</ele>
        <time>2018-05-27T09:15:47Z</time>
      </trkpt>
      <trkpt lat="49.21385" lon="1.35527">
        <ele>52.1</ele>
        <time>2018-05-27T09:15:49Z</time>
      </trkpt>
      <trkpt lat="49.21382" lon="1.3551">
        <ele>52.2</ele>
        <time>2018-05-27T09:15:51Z</time>
      </trkpt>
      <trkpt lat="49.21379" lon="1.35494">
        <ele>52.3</ele>
        <time>2018-05-27T09:15:53Z</time>
      </trkpt>
      <trkpt lat="49.21375" lon="1.35477">
        <ele>52.3</ele>
        <time>2018-05-27T09:15:55Z</time>
      </trkpt>
      <trkpt lat="49.21372" lon="1.3546">
        <ele>52.7</ele>
        <time>2018-05-27T09:15:57Z</time>
      </trkpt>
      <trkpt lat="49.21369" lon="1.35444">
        <ele>52.8</ele>
        <time>2018-05-27T09:15:59Z</time>
      </trkpt>
      <trkpt lat="49.21366" lon="1.35428">
        <ele>52.9</ele>
        <time>2018-05-27T09:16:01Z</time>
      </trkpt>
      <trkpt lat="49.21363" lon="1.35412">
        <ele>52.9</ele>
        <time>2018-05-27T09:16:03Z</time>
      </trkpt>
      <trkpt lat="49.21361" lon="1.35398">
        <ele>52.9</ele>
        <time>2018-05-27T09:16:05Z</time>
      </trkpt>
      <trkpt lat="49.21358" lon="1.35382">
        <ele>53</ele>
        <time>2018-05-27T09:16:07Z</time>
      </trkpt>
      <trkpt lat="49.21356" lon="1.35366">
        <ele>53.1</ele>
        <time>2018-05-27T09:16:09Z</time>
      </trkpt>
      <trkpt lat="49.21355" lon="1.3535">
        <ele>53.2</ele>
        <time>2018-05-27T09:16:11Z</time>
      </trkpt>
      <trkpt lat="49.21353" lon="1.35332">
        <ele>53.4</ele>
        <time>2018-05-27T09:16:13Z</time>
      </trkpt>
      <trkpt lat="49.2135" lon="1.35314">
        <ele>53.5</ele>
        <time>2018-05-27T09:16:15Z</time>
      </trkpt>
      <trkpt lat="49.21347" lon="1.35296">
        <ele>53.8</ele>
        <time>2018-05-27T09:16:17Z</time>
      </trkpt>
      <trkpt lat="49.21344" lon="1.35277">
        <ele>54</ele>
        <time>2018-05-27T09:16:19Z</time>
      </trkpt>
      <trkpt lat="49.21342" lon="1.35259">
        <ele>54</ele>
        <time>2018-05-27T09:16:21Z</time>
      </trkpt>
      <trkpt lat="49.21339" lon="1.35241">
        <ele>54.2</ele>
        <time>2018-05-27T09:16:23Z</time>
      </trkpt>
      <trkpt lat="49.21336" lon="1.35223">
        <ele>54.4</ele>
        <time>2018-05-27T09:16:25Z</time>
      </trkpt>
      <trkpt lat="49.21333" lon="1.35206">
        <ele>54.4</ele>
        <time>2018-05-27T09:16:27Z</time>
      </trkpt>
      <trkpt lat="49.21329" lon="1.35194">
        <ele>54.6</ele>
        <time>2018-05-27T09:16:29Z</time>
      </trkpt>
      <trkpt lat="49.21323" lon="1.35181">
        <ele>54.7</ele>
        <time>2018-05-27T09:16:31Z</time>
      </trkpt>
      <trkpt lat="49.21322" lon="1.35164">
        <ele>54.9</ele>
        <time>2018-05-27T09:16:33Z</time>
      </trkpt>
      <trkpt lat="49.21319" lon="1.35148">
        <ele>55.2</ele>
        <time>2018-05-27T09:16:36Z</time>
      </trkpt>
      <trkpt lat="49.21314" lon="1.35129">
        <ele>55.5</ele>
        <time>2018-05-27T09:16:40Z</time>
      </trkpt>
      <trkpt lat="49.21309" lon="1.35114">
        <ele>55.6</ele>
        <time>2018-05-27T09:16:42Z</time>
      </trkpt>
      <trkpt lat="49.21307" lon="1.35098">
        <ele>55.8</ele>
        <time>2018-05-27T09:16:44Z</time>
      </trkpt>
      <trkpt lat="49.213" lon="1.35082">
        <ele>56</ele>
        <time>2018-05-27T09:16:46Z</time>
      </trkpt>
      <trkpt lat="49.21295" lon="1.35068">
        <ele>56.2</ele>
        <time>2018-05-27T09:16:48Z</time>
      </trkpt>
      <trkpt lat="49.21287" lon="1.35052">
        <ele>56.1</ele>
        <time>2018-05-27T09:16:50Z</time>
      </trkpt>
      <trkpt lat="49.21281" lon="1.35036">
        <ele>56.3</ele>
        <time>2018-05-27T09:16:52Z</time>
      </trkpt>
      <trkpt lat="49.21275" lon="1.35017">
        <ele>56.3</ele>
        <time>2018-05-27T09:16:54Z</time>
      </trkpt>
      <trkpt lat="49.21274" lon="1.35002">
        <ele>56.3</ele>
        <time>2018-05-27T09:16:56Z</time>
      </trkpt>
      <trkpt lat="49.21273" lon="1.34985">
        <ele>56.4</ele>
        <time>2018-05-27T09:16:59Z</time>
      </trkpt>
      <trkpt lat="49.21272" lon="1.34964">
        <ele>56.4</ele>
        <time>2018-05-27T09:17:02Z</time>
      </trkpt>
      <trkpt lat="49.21272" lon="1.34948">
        <ele>56.6</ele>
        <time>2018-05-27T09:17:04Z</time>
      </trkpt>
      <trkpt lat="49.21272" lon="1.34931">
        <ele>56.7</ele>
        <time>2018-05-27T09:17:06Z</time>
      </trkpt>
      <trkpt lat="49.21271" lon="1.34916">
        <ele>56.6</ele>
        <time>2018-05-27T09:17:08Z</time>
      </trkpt>
      <trkpt lat="49.21268" lon="1.34902">
        <ele>56.8</ele>
        <time>2018-05-27T09:17:10Z</time>
      </trkpt>
      <trkpt lat="49.21267" lon="1.34885">
        <ele>56.7</ele>
        <time>2018-05-27T09:17:12Z</time>
      </trkpt>
      <trkpt lat="49.21267" lon="1.3487">
        <ele>56.9</ele>
        <time>2018-05-27T09:17:14Z</time>
      </trkpt>
      <trkpt lat="49.2127" lon="1.34854">
        <ele>56.8</ele>
        <time>2018-05-27T09:17:16Z</time>
      </trkpt>
      <trkpt lat="49.21272" lon="1.34838">
        <ele>57.1</ele>
        <time>2018-05-27T09:17:18Z</time>
      </trkpt>
      <trkpt lat="49.21276" lon="1.34818">
        <ele>57</ele>
        <time>2018-05-27T09:17:20Z</time>
      </trkpt>
      <trkpt lat="49.21277" lon="1.34799">
        <ele>57.1</ele>
        <time>2018-05-27T09:17:22Z</time>
      </trkpt>
      <trkpt lat="49.21278" lon="1.3478">
        <ele>57.2</ele>
        <time>2018-05-27T09:17:24Z</time>
      </trkpt>
      <trkpt lat="49.21281" lon="1.34763">
        <ele>57.3</ele>
        <time>2018-05-27T09:17:26Z</time>
      </trkpt>
      <trkpt lat="49.21284" lon="1.34747">
        <ele>57.3</ele>
        <time>2018-05-27T09:17:28Z</time>
      </trkpt>
      <trkpt lat="49.21287" lon="1.34733">
        <ele>57.2</ele>
        <time>2018-05-27T09:17:30Z</time>
      </trkpt>
      <trkpt lat="49.21281" lon="1.34717">
        <ele>57.3</ele>
        <time>2018-05-27T09:17:32Z</time>
      </trkpt>
      <trkpt lat="49.21281" lon="1.34701">
        <ele>57.1</ele>
        <time>2018-05-27T09:17:35Z</time>
      </trkpt>
      <trkpt lat="49.2129" lon="1.34696">
        <ele>56.8</ele>
        <time>2018-05-27T09:17:38Z</time>
      </trkpt>
      <trkpt lat="49.21301" lon="1.34692">
        <ele>56.6</ele>
        <time>2018-05-27T09:17:41Z</time>
      </trkpt>
      <trkpt lat="49.21313" lon="1.34682">
        <ele>56.4</ele>
        <time>2018-05-27T09:17:44Z</time>
      </trkpt>
      <trkpt lat="49.21322" lon="1.34675">
        <ele>56.3</ele>
        <time>2018-05-27T09:17:46Z</time>
      </trkpt>
      <trkpt lat="49.21333" lon="1.34669">
        <ele>56.2</ele>
        <time>2018-05-27T09:17:48Z</time>
      </trkpt>
      <trkpt lat="49.21344" lon="1.34664">
        <ele>56.3</ele>
        <time>2018-05-27T09:17:50Z</time>
      </trkpt>
      <trkpt lat="49.21356" lon="1.34656">
        <ele>55.9</ele>
        <time>2018-05-27T09:17:52Z</time>
      </trkpt>
      <trkpt lat="49.21366" lon="1.3465">
        <ele>55.6</ele>
        <time>2018-05-27T09:17:54Z</time>
      </trkpt>
      <trkpt lat="49.21377" lon="1.34641">
        <ele>55.2</ele>
        <time>2018-05-27T09:17:56Z</time>
      </trkpt>
      <trkpt lat="49.21388" lon="1.34633">
        <ele>54.9</ele>
        <time>2018-05-27T09:17:58Z</time>
      </trkpt>
      <trkpt lat="49.214" lon="1.34625">
        <ele>54.7</ele>
        <time>2018-05-27T09:18:00Z</time>
      </trkpt>
      <trkpt lat="49.2141" lon="1.34619">
        <ele>54.3</ele>
        <time>2018-05-27T09:18:02Z</time>
      </trkpt>
      <trkpt lat="49.21424" lon="1.34609">
        <ele>54</ele>
        <time>2018-05-27T09:18:04Z</time>
      </trkpt>
      <trkpt lat="49.21437" lon="1.34602">
        <ele>53.7</ele>
        <time>2018-05-27T09:18:06Z</time>
      </trkpt>
      <trkpt lat="49.2145" lon="1.34595">
        <ele>53.5</ele>
        <time>2018-05-27T09:18:08Z</time>
      </trkpt>
      <trkpt lat="49.21462" lon="1.34589">
        <ele>53.3</ele>
        <time>2018-05-27T09:18:10Z</time>
      </trkpt>
      <trkpt lat="49.21474" lon="1.34581">
        <ele>53</ele>
        <time>2018-05-27T09:18:12Z</time>
      </trkpt>
      <trkpt lat="49.21485" lon="1.34576">
        <ele>52.9</ele>
        <time>2018-05-27T09:18:14Z</time>
      </trkpt>
      <trkpt lat="49.21496" lon="1.34568">
        <ele>52.8</ele>
        <time>2018-05-27T09:18:16Z</time>
      </trkpt>
      <trkpt lat="49.21505" lon="1.34561">
        <ele>52.6</ele>
        <time>2018-05-27T09:18:18Z</time>
      </trkpt>
      <trkpt lat="49.21516" lon="1.34555">
        <ele>52.4</ele>
        <time>2018-05-27T09:18:20Z</time>
      </trkpt>
      <trkpt lat="49.21526" lon="1.34548">
        <ele>52.3</ele>
        <time>2018-05-27T09:18:22Z</time>
      </trkpt>
      <trkpt lat="49.21538" lon="1.34543">
        <ele>52.2</ele>
        <time>2018-05-27T09:18:24Z</time>
      </trkpt>
      <trkpt lat="49.2155" lon="1.34536">
        <ele>51.9</ele>
        <time>2018-05-27T09:18:26Z</time>
      </trkpt>
      <trkpt lat="49.21562" lon="1.34528">
        <ele>51.7</ele>
        <time>2018-05-27T09:18:28Z</time>
      </trkpt>
      <trkpt lat="49.21575" lon="1.34522">
        <ele>51.5</ele>
        <time>2018-05-27T09:18:30Z</time>
      </trkpt>
      <trkpt lat="49.21588" lon="1.34515">
        <ele>51.5</ele>
        <time>2018-05-27T09:18:32Z</time>
      </trkpt>
      <trkpt lat="49.21599" lon="1.34507">
        <ele>51.3</ele>
        <time>2018-05-27T09:18:34Z</time>
      </trkpt>
      <trkpt lat="49.21612" lon="1.345">
        <ele>51</ele>
        <time>2018-05-27T09:18:36Z</time>
      </trkpt>
      <trkpt lat="49.21626" lon="1.34491">
        <ele>50.8</ele>
        <time>2018-05-27T09:18:38Z</time>
      </trkpt>
      <trkpt lat="49.21638" lon="1.34484">
        <ele>50.5</ele>
        <time>2018-05-27T09:18:40Z</time>
      </trkpt>
      <trkpt lat="49.21653" lon="1.34476">
        <ele>50.2</ele>
        <time>2018-05-27T09:18:42Z</time>
      </trkpt>
      <trkpt lat="49.21667" lon="1.34469">
        <ele>49.8</ele>
        <time>2018-05-27T09:18:44Z</time>
      </trkpt>
      <trkpt lat="49.21681" lon="1.34462">
        <ele>49.4</ele>
        <time>2018-05-27T09:18:46Z</time>
      </trkpt>
      <trkpt lat="49.21691" lon="1.34455">
        <ele>49.1</ele>
        <time>2018-05-27T09:18:48Z</time>
      </trkpt>
      <trkpt lat="49.21705" lon="1.34449">
        <ele>48.6</ele>
        <time>2018-05-27T09:18:50Z</time>
      </trkpt>
      <trkpt lat="49.21717" lon="1.34442">
        <ele>48.2</ele>
        <time>2018-05-27T09:18:52Z</time>
      </trkpt>
      <trkpt lat="49.21728" lon="1.34449">
        <ele>47.7</ele>
        <time>2018-05-27T09:18:56Z</time>
      </trkpt>
      <trkpt lat="49.21737" lon="1.34447">
        <ele>47.5</ele>
        <time>2018-05-27T09:18:59Z</time>
      </trkpt>
      <trkpt lat="49.2174" lon="1.34433">
        <ele>46.9</ele>
        <time>2018-05-27T09:19:03Z</time>
      </trkpt>
      <trkpt lat="49.2174" lon="1.34414">
        <ele>46.8</ele>
        <time>2018-05-27T09:19:07Z</time>
      </trkpt>
      <trkpt lat="49.21742" lon="1.34399">
        <ele>46.6</ele>
        <time>2018-05-27T09:19:09Z</time>
      </trkpt>
      <trkpt lat="49.21742" lon="1.34384">
        <ele>46.6</ele>
        <time>2018-05-27T09:19:11Z</time>
      </trkpt>
      <trkpt lat="49.21741" lon="1.34369">
        <ele>46.6</ele>
        <time>2018-05-27T09:19:13Z</time>
      </trkpt>
      <trkpt lat="49.21737" lon="1.34354">
        <ele>46.5</ele>
        <time>2018-05-27T09:19:15Z</time>
      </trkpt>
      <trkpt lat="49.21737" lon="1.34338">
        <ele>46.3</ele>
        <time>2018-05-27T09:19:17Z</time>
      </trkpt>
      <trkpt lat="49.21735" lon="1.34323">
        <ele>46.1</ele>
        <time>2018-05-27T09:19:19Z</time>
      </trkpt>
      <trkpt lat="49.21734" lon="1.34308">
        <ele>45.9</ele>
        <time>2018-05-27T09:19:21Z</time>
      </trkpt>
      <trkpt lat="49.21738" lon="1.34294">
        <ele>45.8</ele>
        <time>2018-05-27T09:19:23Z</time>
      </trkpt>
      <trkpt lat="49.21737" lon="1.34277">
        <ele>45.6</ele>
        <time>2018-05-27T09:19:25Z</time>
      </trkpt>
      <trkpt lat="49.21736" lon="1.34257">
        <ele>45.3</ele>
        <time>2018-05-27T09:19:28Z</time>
      </trkpt>
      <trkpt lat="49.21734" lon="1.3424">
        <ele>44.6</ele>
        <time>2018-05-27T09:19:30Z</time>
      </trkpt>
      <trkpt lat="49.21731" lon="1.34225">
        <ele>44.4</ele>
        <time>2018-05-27T09:19:32Z</time>
      </trkpt>
      <trkpt lat="49.21725" lon="1.34207">
        <ele>43.5</ele>
        <time>2018-05-27T09:19:34Z</time>
      </trkpt>
      <trkpt lat="49.21718" lon="1.34189">
        <ele>43.1</ele>
        <time>2018-05-27T09:19:36Z</time>
      </trkpt>
      <trkpt lat="49.21714" lon="1.34171">
        <ele>42.8</ele>
        <time>2018-05-27T09:19:38Z</time>
      </trkpt>
      <trkpt lat="49.21709" lon="1.34155">
        <ele>42.2</ele>
        <time>2018-05-27T09:19:40Z</time>
      </trkpt>
      <trkpt lat="49.21705" lon="1.34138">
        <ele>41.6</ele>
        <time>2018-05-27T09:19:42Z</time>
      </trkpt>
      <trkpt lat="49.21699" lon="1.34115">
        <ele>40.7</ele>
        <time>2018-05-27T09:19:44Z</time>
      </trkpt>
      <trkpt lat="49.21693" lon="1.34097">
        <ele>39.9</ele>
        <time>2018-05-27T09:19:46Z</time>
      </trkpt>
      <trkpt lat="49.21686" lon="1.34077">
        <ele>39</ele>
        <time>2018-05-27T09:19:48Z</time>
      </trkpt>
      <trkpt lat="49.21681" lon="1.34057">
        <ele>38.3</ele>
        <time>2018-05-27T09:19:50Z</time>
      </trkpt>
      <trkpt lat="49.21678" lon="1.34041">
        <ele>37.7</ele>
        <time>2018-05-27T09:19:52Z</time>
      </trkpt>
      <trkpt lat="49.21672" lon="1.34024">
        <ele>37.2</ele>
        <time>2018-05-27T09:19:54Z</time>
      </trkpt>
      <trkpt lat="49.21666" lon="1.34006">
        <ele>36.6</ele>
        <time>2018-05-27T09:19:57Z</time>
      </trkpt>
      <trkpt lat="49.21658" lon="1.33987">
        <ele>36.6</ele>
        <time>2018-05-27T09:19:59Z</time>
      </trkpt>
      <trkpt lat="49.21649" lon="1.33969">
        <ele>36.5</ele>
        <time>2018-05-27T09:20:01Z</time>
      </trkpt>
      <trkpt lat="49.21643" lon="1.33953">
        <ele>36.5</ele>
        <time>2018-05-27T09:20:03Z</time>
      </trkpt>
      <trkpt lat="49.21639" lon="1.33936">
        <ele>36.4</ele>
        <time>2018-05-27T09:20:05Z</time>
      </trkpt>
      <trkpt lat="49.21634" lon="1.33917">
        <ele>36.6</ele>
        <time>2018-05-27T09:20:07Z</time>
      </trkpt>
      <trkpt lat="49.21632" lon="1.339">
        <ele>36.8</ele>
        <time>2018-05-27T09:20:09Z</time>
      </trkpt>
      <trkpt lat="49.21633" lon="1.33885">
        <ele>37.1</ele>
        <time>2018-05-27T09:20:11Z</time>
      </trkpt>
      <trkpt lat="49.21631" lon="1.33869">
        <ele>37.3</ele>
        <time>2018-05-27T09:20:13Z</time>
      </trkpt>
      <trkpt lat="49.21626" lon="1.33852">
        <ele>37.5</ele>
        <time>2018-05-27T09:20:15Z</time>
      </trkpt>
      <trkpt lat="49.21624" lon="1.33837">
        <ele>37.9</ele>
        <time>2018-05-27T09:20:17Z</time>
      </trkpt>
      <trkpt lat="49.2162" lon="1.33823">
        <ele>38.2</ele>
        <time>2018-05-27T09:20:19Z</time>
      </trkpt>
      <trkpt lat="49.21619" lon="1.33809">
        <ele>38.5</ele>
        <time>2018-05-27T09:20:21Z</time>
      </trkpt>
      <trkpt lat="49.21616" lon="1.33792">
        <ele>38.9</ele>
        <time>2018-05-27T09:20:23Z</time>
      </trkpt>
      <trkpt lat="49.21615" lon="1.33778">
        <ele>39.1</ele>
        <time>2018-05-27T09:20:25Z</time>
      </trkpt>
      <trkpt lat="49.21616" lon="1.33763">
        <ele>39.5</ele>
        <time>2018-05-27T09:20:27Z</time>
      </trkpt>
      <trkpt lat="49.21617" lon="1.33746">
        <ele>39.8</ele>
        <time>2018-05-27T09:20:29Z</time>
      </trkpt>
      <trkpt lat="49.21618" lon="1.33732">
        <ele>40.2</ele>
        <time>2018-05-27T09:20:31Z</time>
      </trkpt>
      <trkpt lat="49.21619" lon="1.3371">
        <ele>40.5</ele>
        <time>2018-05-27T09:20:34Z</time>
      </trkpt>
      <trkpt lat="49.21618" lon="1.33696">
        <ele>40.7</ele>
        <time>2018-05-27T09:20:36Z</time>
      </trkpt>
      <trkpt lat="49.21616" lon="1.33682">
        <ele>40.8</ele>
        <time>2018-05-27T09:20:38Z</time>
      </trkpt>
      <trkpt lat="49.21615" lon="1.33667">
        <ele>40.8</ele>
        <time>2018-05-27T09:20:40Z</time>
      </trkpt>
      <trkpt lat="49.21615" lon="1.33653">
        <ele>41.1</ele>
        <time>2018-05-27T09:20:42Z</time>
      </trkpt>
      <trkpt lat="49.21613" lon="1.33636">
        <ele>41.5</ele>
        <time>2018-05-27T09:20:45Z</time>
      </trkpt>
      <trkpt lat="49.21613" lon="1.33613">
        <ele>42.1</ele>
        <time>2018-05-27T09:20:48Z</time>
      </trkpt>
      <trkpt lat="49.21613" lon="1.33592">
        <ele>42.5</ele>
        <time>2018-05-27T09:20:51Z</time>
      </trkpt>
      <trkpt lat="49.21616" lon="1.33572">
        <ele>43</ele>
        <time>2018-05-27T09:20:54Z</time>
      </trkpt>
      <trkpt lat="49.2162" lon="1.33555">
        <ele>43.3</ele>
        <time>2018-05-27T09:20:56Z</time>
      </trkpt>
      <trkpt lat="49.21624" lon="1.3354">
        <ele>43.5</ele>
        <time>2018-05-27T09:20:58Z</time>
      </trkpt>
      <trkpt lat="49.21627" lon="1.33527">
        <ele>43.7</ele>
        <time>2018-05-27T09:21:00Z</time>
      </trkpt>
      <trkpt lat="49.21627" lon="1.33511">
        <ele>44</ele>
        <time>2018-05-27T09:21:02Z</time>
      </trkpt>
      <trkpt lat="49.21629" lon="1.33493">
        <ele>44.1</ele>
        <time>2018-05-27T09:21:05Z</time>
      </trkpt>
      <trkpt lat="49.21628" lon="1.33478">
        <ele>44.3</ele>
        <time>2018-05-27T09:21:07Z</time>
      </trkpt>
      <trkpt lat="49.21629" lon="1.33463">
        <ele>44.4</ele>
        <time>2018-05-27T09:21:09Z</time>
      </trkpt>
      <trkpt lat="49.2163" lon="1.33446">
        <ele>44.7</ele>
        <time>2018-05-27T09:21:11Z</time>
      </trkpt>
      <trkpt lat="49.2163" lon="1.33431">
        <ele>44.8</ele>
        <time>2018-05-27T09:21:13Z</time>
      </trkpt>
      <trkpt lat="49.21631" lon="1.33415">
        <ele>45.1</ele>
        <time>2018-05-27T09:21:15Z</time>
      </trkpt>
      <trkpt lat="49.21631" lon="1.33399">
        <ele>45.2</ele>
        <time>2018-05-27T09:21:17Z</time>
      </trkpt>
      <trkpt lat="49.2163" lon="1.33383">
        <ele>45.3</ele>
        <time>2018-05-27T09:21:19Z</time>
      </trkpt>
      <trkpt lat="49.21628" lon="1.33366">
        <ele>45.3</ele>
        <time>2018-05-27T09:21:21Z</time>
      </trkpt>
      <trkpt lat="49.21625" lon="1.33351">
        <ele>45.5</ele>
        <time>2018-05-27T09:21:23Z</time>
      </trkpt>
      <trkpt lat="49.21624" lon="1.33334">
        <ele>45.8</ele>
        <time>2018-05-27T09:21:25Z</time>
      </trkpt>
      <trkpt lat="49.21622" lon="1.33318">
        <ele>46</ele>
        <time>2018-05-27T09:21:27Z</time>
      </trkpt>
      <trkpt lat="49.21625" lon="1.33301">
        <ele>45.9</ele>
        <time>2018-05-27T09:21:29Z</time>
      </trkpt>
      <trkpt lat="49.21626" lon="1.33287">
        <ele>45.8</ele>
        <time>2018-05-27T09:21:31Z</time>
      </trkpt>
      <trkpt lat="49.21629" lon="1.33269">
        <ele>45.5</ele>
        <time>2018-05-27T09:21:33Z</time>
      </trkpt>
      <trkpt lat="49.21629" lon="1.33248">
        <ele>45.3</ele>
        <time>2018-05-27T09:21:35Z</time>
      </trkpt>
      <trkpt lat="49.21631" lon="1.33231">
        <ele>44.9</ele>
        <time>2018-05-27T09:21:37Z</time>
      </trkpt>
      <trkpt lat="49.21632" lon="1.33214">
        <ele>44.8</ele>
        <time>2018-05-27T09:21:39Z</time>
      </trkpt>
      <trkpt lat="49.21637" lon="1.33195">
        <ele>44.4</ele>
        <time>2018-05-27T09:21:41Z</time>
      </trkpt>
      <trkpt lat="49.21642" lon="1.33174">
        <ele>44.1</ele>
        <time>2018-05-27T09:21:43Z</time>
      </trkpt>
      <trkpt lat="49.21647" lon="1.33155">
        <ele>43.7</ele>
        <time>2018-05-27T09:21:45Z</time>
      </trkpt>
      <trkpt lat="49.2165" lon="1.33136">
        <ele>43.4</ele>
        <time>2018-05-27T09:21:47Z</time>
      </trkpt>
      <trkpt lat="49.21647" lon="1.33118">
        <ele>42.6</ele>
        <time>2018-05-27T09:21:49Z</time>
      </trkpt>
      <trkpt lat="49.21643" lon="1.33099">
        <ele>42</ele>
        <time>2018-05-27T09:21:51Z</time>
      </trkpt>
      <trkpt lat="49.2164" lon="1.3308">
        <ele>41.4</ele>
        <time>2018-05-27T09:21:53Z</time>
      </trkpt>
      <trkpt lat="49.21633" lon="1.33061">
        <ele>40.5</ele>
        <time>2018-05-27T09:21:55Z</time>
      </trkpt>
      <trkpt lat="49.21628" lon="1.33039">
        <ele>39.3</ele>
        <time>2018-05-27T09:21:57Z</time>
      </trkpt>
      <trkpt lat="49.21621" lon="1.33016">
        <ele>38.8</ele>
        <time>2018-05-27T09:21:59Z</time>
      </trkpt>
      <trkpt lat="49.21617" lon="1.32994">
        <ele>38.2</ele>
        <time>2018-05-27T09:22:01Z</time>
      </trkpt>
      <trkpt lat="49.21616" lon="1.32969">
        <ele>37.2</ele>
        <time>2018-05-27T09:22:03Z</time>
      </trkpt>
      <trkpt lat="49.21617" lon="1.32944">
        <ele>36.6</ele>
        <time>2018-05-27T09:22:05Z</time>
      </trkpt>
      <trkpt lat="49.2162" lon="1.32922">
        <ele>35.8</ele>
        <time>2018-05-27T09:22:07Z</time>
      </trkpt>
      <trkpt lat="49.21624" lon="1.32902">
        <ele>34.9</ele>
        <time>2018-05-27T09:22:09Z</time>
      </trkpt>
      <trkpt lat="49.2163" lon="1.32881">
        <ele>34</ele>
        <time>2018-05-27T09:22:11Z</time>
      </trkpt>
      <trkpt lat="49.21636" lon="1.3286">
        <ele>33</ele>
        <time>2018-05-27T09:22:13Z</time>
      </trkpt>
      <trkpt lat="49.2164" lon="1.32837">
        <ele>32.3</ele>
        <time>2018-05-27T09:22:15Z</time>
      </trkpt>
      <trkpt lat="49.21647" lon="1.32814">
        <ele>31.5</ele>
        <time>2018-05-27T09:22:17Z</time>
      </trkpt>
      <trkpt lat="49.21651" lon="1.32795">
        <ele>30.7</ele>
        <time>2018-05-27T09:22:19Z</time>
      </trkpt>
      <trkpt lat="49.21654" lon="1.32777">
        <ele>29.8</ele>
        <time>2018-05-27T09:22:21Z</time>
      </trkpt>
      <trkpt lat="49.21658" lon="1.32758">
        <ele>29.2</ele>
        <time>2018-05-27T09:22:23Z</time>
      </trkpt>
      <trkpt lat="49.21662" lon="1.32736">
        <ele>28.5</ele>
        <time>2018-05-27T09:22:25Z</time>
      </trkpt>
      <trkpt lat="49.21665" lon="1.32715">
        <ele>27.8</ele>
        <time>2018-05-27T09:22:27Z</time>
      </trkpt>
      <trkpt lat="49.21667" lon="1.32699">
        <ele>27</ele>
        <time>2018-05-27T09:22:29Z</time>
      </trkpt>
      <trkpt lat="49.21667" lon="1.32681">
        <ele>26.4</ele>
        <time>2018-05-27T09:22:31Z</time>
      </trkpt>
      <trkpt lat="49.21669" lon="1.32662">
        <ele>25.7</ele>
        <time>2018-05-27T09:22:33Z</time>
      </trkpt>
      <trkpt lat="49.21671" lon="1.32646">
        <ele>24.9</ele>
        <time>2018-05-27T09:22:35Z</time>
      </trkpt>
      <trkpt lat="49.21674" lon="1.32626">
        <ele>24.4</ele>
        <time>2018-05-27T09:22:37Z</time>
      </trkpt>
      <trkpt lat="49.21675" lon="1.32608">
        <ele>23.8</ele>
        <time>2018-05-27T09:22:39Z</time>
      </trkpt>
      <trkpt lat="49.21678" lon="1.32589">
        <ele>23.1</ele>
        <time>2018-05-27T09:22:41Z</time>
      </trkpt>
      <trkpt lat="49.21682" lon="1.3257">
        <ele>22.3</ele>
        <time>2018-05-27T09:22:43Z</time>
      </trkpt>
      <trkpt lat="49.21684" lon="1.32551">
        <ele>21.8</ele>
        <time>2018-05-27T09:22:45Z</time>
      </trkpt>
      <trkpt lat="49.21685" lon="1.32531">
        <ele>21.2</ele>
        <time>2018-05-27T09:22:47Z</time>
      </trkpt>
      <trkpt lat="49.21687" lon="1.3251">
        <ele>20.4</ele>
        <time>2018-05-27T09:22:49Z</time>
      </trkpt>
      <trkpt lat="49.21691" lon="1.3249">
        <ele>19.9</ele>
        <time>2018-05-27T09:22:51Z</time>
      </trkpt>
      <trkpt lat="49.21692" lon="1.32471">
        <ele>19.4</ele>
        <time>2018-05-27T09:22:53Z</time>
      </trkpt>
      <trkpt lat="49.21687" lon="1.32458">
        <ele>18.7</ele>
        <time>2018-05-27T09:22:58Z</time>
      </trkpt>
      <trkpt lat="49.21678" lon="1.32453">
        <ele>18.2</ele>
        <time>2018-05-27T09:23:02Z</time>
      </trkpt>
      <trkpt lat="49.21669" lon="1.32449">
        <ele>18.4</ele>
        <time>2018-05-27T09:23:05Z</time>
      </trkpt>
      <trkpt lat="49.2166" lon="1.32443">
        <ele>18.7</ele>
        <time>2018-05-27T09:23:08Z</time>
      </trkpt>
      <trkpt lat="49.21648" lon="1.32437">
        <ele>19.1</ele>
        <time>2018-05-27T09:23:11Z</time>
      </trkpt>
      <trkpt lat="49.21635" lon="1.32435">
        <ele>19.6</ele>
        <time>2018-05-27T09:23:14Z</time>
      </trkpt>
      <trkpt lat="49.21626" lon="1.32432">
        <ele>19.9</ele>
        <time>2018-05-27T09:23:16Z</time>
      </trkpt>
      <trkpt lat="49.21617" lon="1.3243">
        <ele>20.1</ele>
        <time>2018-05-27T09:23:18Z</time>
      </trkpt>
      <trkpt lat="49.21607" lon="1.32427">
        <ele>20.4</ele>
        <time>2018-05-27T09:23:20Z</time>
      </trkpt>
      <trkpt lat="49.21597" lon="1.32422">
        <ele>20.7</ele>
        <time>2018-05-27T09:23:22Z</time>
      </trkpt>
      <trkpt lat="49.21587" lon="1.32417">
        <ele>21.3</ele>
        <time>2018-05-27T09:23:24Z</time>
      </trkpt>
      <trkpt lat="49.21578" lon="1.32413">
        <ele>21.6</ele>
        <time>2018-05-27T09:23:26Z</time>
      </trkpt>
      <trkpt lat="49.21568" lon="1.32411">
        <ele>21.8</ele>
        <time>2018-05-27T09:23:28Z</time>
      </trkpt>
      <trkpt lat="49.21556" lon="1.32416">
        <ele>22.6</ele>
        <time>2018-05-27T09:23:31Z</time>
      </trkpt>
      <trkpt lat="49.21544" lon="1.32416">
        <ele>23.1</ele>
        <time>2018-05-27T09:23:34Z</time>
      </trkpt>
      <trkpt lat="49.21536" lon="1.32419">
        <ele>23.5</ele>
        <time>2018-05-27T09:23:37Z</time>
      </trkpt>
      <trkpt lat="49.21533" lon="1.32402">
        <ele>23.7</ele>
        <time>2018-05-27T09:23:41Z</time>
      </trkpt>
      <trkpt lat="49.21524" lon="1.32389">
        <ele>23.9</ele>
        <time>2018-05-27T09:23:45Z</time>
      </trkpt>
      <trkpt lat="49.2151" lon="1.32391">
        <ele>23.9</ele>
        <time>2018-05-27T09:23:48Z</time>
      </trkpt>
      <trkpt lat="49.215" lon="1.32388">
        <ele>24.2</ele>
        <time>2018-05-27T09:23:51Z</time>
      </trkpt>
      <trkpt lat="49.21491" lon="1.3238">
        <ele>24.7</ele>
        <time>2018-05-27T09:23:54Z</time>
      </trkpt>
      <trkpt lat="49.21479" lon="1.32369">
        <ele>25.1</ele>
        <time>2018-05-27T09:23:57Z</time>
      </trkpt>
      <trkpt lat="49.2147" lon="1.32356">
        <ele>25</ele>
        <time>2018-05-27T09:23:59Z</time>
      </trkpt>
      <trkpt lat="49.2146" lon="1.32347">
        <ele>24.7</ele>
        <time>2018-05-27T09:24:02Z</time>
      </trkpt>
      <trkpt lat="49.21446" lon="1.32339">
        <ele>24.7</ele>
        <time>2018-05-27T09:24:05Z</time>
      </trkpt>
      <trkpt lat="49.21431" lon="1.32333">
        <ele>24.8</ele>
        <time>2018-05-27T09:24:08Z</time>
      </trkpt>
      <trkpt lat="49.2142" lon="1.32329">
        <ele>25.1</ele>
        <time>2018-05-27T09:24:10Z</time>
      </trkpt>
      <trkpt lat="49.21409" lon="1.32324">
        <ele>25.2</ele>
        <time>2018-05-27T09:24:12Z</time>
      </trkpt>
      <trkpt lat="49.214" lon="1.32316">
        <ele>25.3</ele>
        <time>2018-05-27T09:24:14Z</time>
      </trkpt>
      <trkpt lat="49.21387" lon="1.32309">
        <ele>25.3</ele>
        <time>2018-05-27T09:24:16Z</time>
      </trkpt>
      <trkpt lat="49.21378" lon="1.32304">
        <ele>25.2</ele>
        <time>2018-05-27T09:24:18Z</time>
      </trkpt>
      <trkpt lat="49.21368" lon="1.32302">
        <ele>25.2</ele>
        <time>2018-05-27T09:24:20Z</time>
      </trkpt>
      <trkpt lat="49.21359" lon="1.323">
        <ele>25.2</ele>
        <time>2018-05-27T09:24:22Z</time>
      </trkpt>
      <trkpt lat="49.2135" lon="1.32294">
        <ele>25.3</ele>
        <time>2018-05-27T09:24:24Z</time>
      </trkpt>
      <trkpt lat="49.21339" lon="1.32279">
        <ele>25.1</ele>
        <time>2018-05-27T09:24:26Z</time>
      </trkpt>
      <trkpt lat="49.21324" lon="1.32265">
        <ele>24.7</ele>
        <time>2018-05-27T09:24:28Z</time>
      </trkpt>
      <trkpt lat="49.21312" lon="1.32262">
        <ele>24.5</ele>
        <time>2018-05-27T09:24:30Z</time>
      </trkpt>
      <trkpt lat="49.21302" lon="1.3226">
        <ele>24.5</ele>
        <time>2018-05-27T09:24:32Z</time>
      </trkpt>
      <trkpt lat="49.21293" lon="1.32257">
        <ele>24.6</ele>
        <time>2018-05-27T09:24:34Z</time>
      </trkpt>
      <trkpt lat="49.2128" lon="1.32251">
        <ele>24.7</ele>
        <time>2018-05-27T09:24:37Z</time>
      </trkpt>
      <trkpt lat="49.2127" lon="1.32257">
        <ele>24.9</ele>
        <time>2018-05-27T09:24:39Z</time>
      </trkpt>
      <trkpt lat="49.21259" lon="1.3225">
        <ele>24.9</ele>
        <time>2018-05-27T09:24:41Z</time>
      </trkpt>
      <trkpt lat="49.21251" lon="1.32239">
        <ele>24.8</ele>
        <time>2018-05-27T09:24:43Z</time>
      </trkpt>
      <trkpt lat="49.21244" lon="1.32218">
        <ele>24.5</ele>
        <time>2018-05-27T09:24:45Z</time>
      </trkpt>
      <trkpt lat="49.21231" lon="1.32203">
        <ele>23.7</ele>
        <time>2018-05-27T09:24:47Z</time>
      </trkpt>
      <trkpt lat="49.21221" lon="1.32191">
        <ele>23.2</ele>
        <time>2018-05-27T09:24:49Z</time>
      </trkpt>
      <trkpt lat="49.2121" lon="1.32174">
        <ele>22.8</ele>
        <time>2018-05-27T09:24:51Z</time>
      </trkpt>
      <trkpt lat="49.21201" lon="1.32162">
        <ele>22.7</ele>
        <time>2018-05-27T09:24:53Z</time>
      </trkpt>
      <trkpt lat="49.21191" lon="1.32152">
        <ele>22.4</ele>
        <time>2018-05-27T09:24:55Z</time>
      </trkpt>
      <trkpt lat="49.21178" lon="1.32143">
        <ele>22</ele>
        <time>2018-05-27T09:24:58Z</time>
      </trkpt>
      <trkpt lat="49.21168" lon="1.32151">
        <ele>22.2</ele>
        <time>2018-05-27T09:25:00Z</time>
      </trkpt>
      <trkpt lat="49.2116" lon="1.32158">
        <ele>22.6</ele>
        <time>2018-05-27T09:25:02Z</time>
      </trkpt>
      <trkpt lat="49.21147" lon="1.32165">
        <ele>23.3</ele>
        <time>2018-05-27T09:25:05Z</time>
      </trkpt>
      <trkpt lat="49.21135" lon="1.32172">
        <ele>23.9</ele>
        <time>2018-05-27T09:25:08Z</time>
      </trkpt>
      <trkpt lat="49.21125" lon="1.32177">
        <ele>24.7</ele>
        <time>2018-05-27T09:25:11Z</time>
      </trkpt>
      <trkpt lat="49.21117" lon="1.32184">
        <ele>25.7</ele>
        <time>2018-05-27T09:25:14Z</time>
      </trkpt>
      <trkpt lat="49.21106" lon="1.32191">
        <ele>26.6</ele>
        <time>2018-05-27T09:25:17Z</time>
      </trkpt>
      <trkpt lat="49.21095" lon="1.32194">
        <ele>27.7</ele>
        <time>2018-05-27T09:25:21Z</time>
      </trkpt>
      <trkpt lat="49.21085" lon="1.32195">
        <ele>28.5</ele>
        <time>2018-05-27T09:25:24Z</time>
      </trkpt>
      <trkpt lat="49.21076" lon="1.32196">
        <ele>29.1</ele>
        <time>2018-05-27T09:25:28Z</time>
      </trkpt>
      <trkpt lat="49.21065" lon="1.32191">
        <ele>29.6</ele>
        <time>2018-05-27T09:25:32Z</time>
      </trkpt>
      <trkpt lat="49.21056" lon="1.32179">
        <ele>29.8</ele>
        <time>2018-05-27T09:25:35Z</time>
      </trkpt>
      <trkpt lat="49.21049" lon="1.32172">
        <ele>30</ele>
        <time>2018-05-27T09:25:37Z</time>
      </trkpt>
      <trkpt lat="49.21041" lon="1.32162">
        <ele>30.1</ele>
        <time>2018-05-27T09:25:39Z</time>
      </trkpt>
      <trkpt lat="49.21038" lon="1.32147">
        <ele>30.3</ele>
        <time>2018-05-27T09:25:41Z</time>
      </trkpt>
      <trkpt lat="49.21035" lon="1.32134">
        <ele>30.1</ele>
        <time>2018-05-27T09:25:43Z</time>
      </trkpt>
      <trkpt lat="49.21029" lon="1.32123">
        <ele>29.7</ele>
        <time>2018-05-27T09:25:45Z</time>
      </trkpt>
      <trkpt lat="49.21024" lon="1.32109">
        <ele>29.7</ele>
        <time>2018-05-27T09:25:47Z</time>
      </trkpt>
      <trkpt lat="49.21016" lon="1.32091">
        <ele>29.5</ele>
        <time>2018-05-27T09:25:49Z</time>
      </trkpt>
      <trkpt lat="49.2101" lon="1.32072">
        <ele>29.5</ele>
        <time>2018-05-27T09:25:51Z</time>
      </trkpt>
      <trkpt lat="49.21004" lon="1.32052">
        <ele>29.4</ele>
        <time>2018-05-27T09:25:53Z</time>
      </trkpt>
      <trkpt lat="49.20997" lon="1.32034">
        <ele>28.9</ele>
        <time>2018-05-27T09:25:55Z</time>
      </trkpt>
      <trkpt lat="49.20988" lon="1.32017">
        <ele>28.4</ele>
        <time>2018-05-27T09:25:57Z</time>
      </trkpt>
      <trkpt lat="49.20982" lon="1.31999">
        <ele>28</ele>
        <time>2018-05-27T09:25:59Z</time>
      </trkpt>
      <trkpt lat="49.20974" lon="1.31982">
        <ele>27.7</ele>
        <time>2018-05-27T09:26:01Z</time>
      </trkpt>
      <trkpt lat="49.2097" lon="1.31967">
        <ele>27</ele>
        <time>2018-05-27T09:26:03Z</time>
      </trkpt>
      <trkpt lat="49.20976" lon="1.31956">
        <ele>26.1</ele>
        <time>2018-05-27T09:26:05Z</time>
      </trkpt>
      <trkpt lat="49.2098" lon="1.31942">
        <ele>25.3</ele>
        <time>2018-05-27T09:26:07Z</time>
      </trkpt>
      <trkpt lat="49.20978" lon="1.31928">
        <ele>24.5</ele>
        <time>2018-05-27T09:26:09Z</time>
      </trkpt>
      <trkpt lat="49.20966" lon="1.31917">
        <ele>23.5</ele>
        <time>2018-05-27T09:26:13Z</time>
      </trkpt>
      <trkpt lat="49.20957" lon="1.31915">
        <ele>23.3</ele>
        <time>2018-05-27T09:26:16Z</time>
      </trkpt>
      <trkpt lat="49.20949" lon="1.31907">
        <ele>23.4</ele>
        <time>2018-05-27T09:26:19Z</time>
      </trkpt>
      <trkpt lat="49.20943" lon="1.31891">
        <ele>23.2</ele>
        <time>2018-05-27T09:26:23Z</time>
      </trkpt>
      <trkpt lat="49.20932" lon="1.3189">
        <ele>23.2</ele>
        <time>2018-05-27T09:26:26Z</time>
      </trkpt>
      <trkpt lat="49.20925" lon="1.31877">
        <ele>23.4</ele>
        <time>2018-05-27T09:26:29Z</time>
      </trkpt>
      <trkpt lat="49.20918" lon="1.31863">
        <ele>23.3</ele>
        <time>2018-05-27T09:26:32Z</time>
      </trkpt>
      <trkpt lat="49.20911" lon="1.31853">
        <ele>23.5</ele>
        <time>2018-05-27T09:26:35Z</time>
      </trkpt>
      <trkpt lat="49.20902" lon="1.3184">
        <ele>23.9</ele>
        <time>2018-05-27T09:26:39Z</time>
      </trkpt>
      <trkpt lat="49.20893" lon="1.31837">
        <ele>24</ele>
        <time>2018-05-27T09:26:42Z</time>
      </trkpt>
      <trkpt lat="49.20883" lon="1.31829">
        <ele>24</ele>
        <time>2018-05-27T09:26:44Z</time>
      </trkpt>
      <trkpt lat="49.20872" lon="1.31819">
        <ele>24.1</ele>
        <time>2018-05-27T09:26:47Z</time>
      </trkpt>
      <trkpt lat="49.20861" lon="1.31814">
        <ele>24.3</ele>
        <time>2018-05-27T09:26:50Z</time>
      </trkpt>
      <trkpt lat="49.20851" lon="1.31807">
        <ele>24.5</ele>
        <time>2018-05-27T09:26:53Z</time>
      </trkpt>
      <trkpt lat="49.20841" lon="1.31798">
        <ele>24.9</ele>
        <time>2018-05-27T09:26:56Z</time>
      </trkpt>
      <trkpt lat="49.20835" lon="1.31785">
        <ele>25.2</ele>
        <time>2018-05-27T09:27:00Z</time>
      </trkpt>
      <trkpt lat="49.20826" lon="1.31778">
        <ele>25.7</ele>
        <time>2018-05-27T09:27:03Z</time>
      </trkpt>
      <trkpt lat="49.20819" lon="1.3177">
        <ele>25.9</ele>
        <time>2018-05-27T09:27:05Z</time>
      </trkpt>
      <trkpt lat="49.20809" lon="1.3176">
        <ele>26.1</ele>
        <time>2018-05-27T09:27:08Z</time>
      </trkpt>
      <trkpt lat="49.20798" lon="1.31758">
        <ele>26.2</ele>
        <time>2018-05-27T09:27:10Z</time>
      </trkpt>
      <trkpt lat="49.20792" lon="1.31745">
        <ele>25.7</ele>
        <time>2018-05-27T09:27:15Z</time>
      </trkpt>
      <trkpt lat="49.20782" lon="1.31737">
        <ele>23.9</ele>
        <time>2018-05-27T09:27:19Z</time>
      </trkpt>
      <trkpt lat="49.20769" lon="1.31732">
        <ele>23.3</ele>
        <time>2018-05-27T09:27:23Z</time>
      </trkpt>
      <trkpt lat="49.20756" lon="1.31733">
        <ele>23.5</ele>
        <time>2018-05-27T09:27:26Z</time>
      </trkpt>
      <trkpt lat="49.20746" lon="1.31736">
        <ele>23.7</ele>
        <time>2018-05-27T09:27:28Z</time>
      </trkpt>
      <trkpt lat="49.20734" lon="1.31742">
        <ele>23.8</ele>
        <time>2018-05-27T09:27:31Z</time>
      </trkpt>
      <trkpt lat="49.20723" lon="1.31743">
        <ele>23.9</ele>
        <time>2018-05-27T09:27:33Z</time>
      </trkpt>
      <trkpt lat="49.2071" lon="1.31744">
        <ele>24.1</ele>
        <time>2018-05-27T09:27:36Z</time>
      </trkpt>
      <trkpt lat="49.20701" lon="1.31743">
        <ele>24.5</ele>
        <time>2018-05-27T09:27:38Z</time>
      </trkpt>
      <trkpt lat="49.20691" lon="1.31745">
        <ele>25</ele>
        <time>2018-05-27T09:27:40Z</time>
      </trkpt>
      <trkpt lat="49.2068" lon="1.31748">
        <ele>25.4</ele>
        <time>2018-05-27T09:27:42Z</time>
      </trkpt>
      <trkpt lat="49.20669" lon="1.31751">
        <ele>25.8</ele>
        <time>2018-05-27T09:27:44Z</time>
      </trkpt>
      <trkpt lat="49.2066" lon="1.31753">
        <ele>26.4</ele>
        <time>2018-05-27T09:27:46Z</time>
      </trkpt>
      <trkpt lat="49.20651" lon="1.31756">
        <ele>26.7</ele>
        <time>2018-05-27T09:27:48Z</time>
      </trkpt>
      <trkpt lat="49.20638" lon="1.3176">
        <ele>26.8</ele>
        <time>2018-05-27T09:27:51Z</time>
      </trkpt>
      <trkpt lat="49.20626" lon="1.31764">
        <ele>27.2</ele>
        <time>2018-05-27T09:27:54Z</time>
      </trkpt>
      <trkpt lat="49.20614" lon="1.31768">
        <ele>27.5</ele>
        <time>2018-05-27T09:27:57Z</time>
      </trkpt>
      <trkpt lat="49.20603" lon="1.31773">
        <ele>27.9</ele>
        <time>2018-05-27T09:28:00Z</time>
      </trkpt>
      <trkpt lat="49.20592" lon="1.31778">
        <ele>28.3</ele>
        <time>2018-05-27T09:28:03Z</time>
      </trkpt>
      <trkpt lat="49.20582" lon="1.31783">
        <ele>29</ele>
        <time>2018-05-27T09:28:06Z</time>
      </trkpt>
      <trkpt lat="49.20572" lon="1.31787">
        <ele>29.5</ele>
        <time>2018-05-27T09:28:09Z</time>
      </trkpt>
      <trkpt lat="49.20563" lon="1.31792">
        <ele>30.2</ele>
        <time>2018-05-27T09:28:12Z</time>
      </trkpt>
      <trkpt lat="49.20554" lon="1.31798">
        <ele>30.8</ele>
        <time>2018-05-27T09:28:15Z</time>
      </trkpt>
      <trkpt lat="49.20544" lon="1.31804">
        <ele>31.4</ele>
        <time>2018-05-27T09:28:19Z</time>
      </trkpt>
      <trkpt lat="49.20535" lon="1.31811">
        <ele>32.3</ele>
        <time>2018-05-27T09:28:23Z</time>
      </trkpt>
      <trkpt lat="49.20525" lon="1.31817">
        <ele>33.1</ele>
        <time>2018-05-27T09:28:27Z</time>
      </trkpt>
      <trkpt lat="49.20516" lon="1.31822">
        <ele>33.9</ele>
        <time>2018-05-27T09:28:31Z</time>
      </trkpt>
      <trkpt lat="49.20507" lon="1.31827">
        <ele>34.6</ele>
        <time>2018-05-27T09:28:35Z</time>
      </trkpt>
      <trkpt lat="49.20497" lon="1.31832">
        <ele>35.5</ele>
        <time>2018-05-27T09:28:39Z</time>
      </trkpt>
      <trkpt lat="49.20485" lon="1.31838">
        <ele>36.3</ele>
        <time>2018-05-27T09:28:43Z</time>
      </trkpt>
      <trkpt lat="49.20474" lon="1.31844">
        <ele>36.9</ele>
        <time>2018-05-27T09:28:47Z</time>
      </trkpt>
      <trkpt lat="49.20465" lon="1.31849">
        <ele>37.4</ele>
        <time>2018-05-27T09:28:50Z</time>
      </trkpt>
      <trkpt lat="49.20457" lon="1.31854">
        <ele>38</ele>
        <time>2018-05-27T09:28:53Z</time>
      </trkpt>
      <trkpt lat="49.20448" lon="1.3186">
        <ele>38.8</ele>
        <time>2018-05-27T09:28:56Z</time>
      </trkpt>
      <trkpt lat="49.20439" lon="1.31865">
        <ele>39.2</ele>
        <time>2018-05-27T09:28:59Z</time>
      </trkpt>
      <trkpt lat="49.2043" lon="1.31871">
        <ele>39.7</ele>
        <time>2018-05-27T09:29:02Z</time>
      </trkpt>
      <trkpt lat="49.20421" lon="1.31876">
        <ele>40.2</ele>
        <time>2018-05-27T09:29:05Z</time>
      </trkpt>
      <trkpt lat="49.20411" lon="1.31882">
        <ele>40.7</ele>
        <time>2018-05-27T09:29:08Z</time>
      </trkpt>
      <trkpt lat="49.20401" lon="1.31888">
        <ele>41.2</ele>
        <time>2018-05-27T09:29:11Z</time>
      </trkpt>
      <trkpt lat="49.2039" lon="1.31894">
        <ele>41.7</ele>
        <time>2018-05-27T09:29:14Z</time>
      </trkpt>
      <trkpt lat="49.20379" lon="1.31899">
        <ele>42.3</ele>
        <time>2018-05-27T09:29:17Z</time>
      </trkpt>
      <trkpt lat="49.20368" lon="1.31904">
        <ele>42.7</ele>
        <time>2018-05-27T09:29:20Z</time>
      </trkpt>
      <trkpt lat="49.20356" lon="1.31908">
        <ele>43.2</ele>
        <time>2018-05-27T09:29:23Z</time>
      </trkpt>
      <trkpt lat="49.20343" lon="1.31914">
        <ele>43.7</ele>
        <time>2018-05-27T09:29:26Z</time>
      </trkpt>
      <trkpt lat="49.20331" lon="1.31919">
        <ele>43.8</ele>
        <time>2018-05-27T09:29:29Z</time>
      </trkpt>
      <trkpt lat="49.2032" lon="1.31923">
        <ele>44.5</ele>
        <time>2018-05-27T09:29:32Z</time>
      </trkpt>
      <trkpt lat="49.20307" lon="1.31925">
        <ele>44.9</ele>
        <time>2018-05-27T09:29:35Z</time>
      </trkpt>
      <trkpt lat="49.20294" lon="1.31928">
        <ele>45.5</ele>
        <time>2018-05-27T09:29:38Z</time>
      </trkpt>
      <trkpt lat="49.20281" lon="1.3193">
        <ele>45.9</ele>
        <time>2018-05-27T09:29:41Z</time>
      </trkpt>
      <trkpt lat="49.20268" lon="1.31932">
        <ele>46.6</ele>
        <time>2018-05-27T09:29:44Z</time>
      </trkpt>
      <trkpt lat="49.20256" lon="1.31935">
        <ele>47.1</ele>
        <time>2018-05-27T09:29:47Z</time>
      </trkpt>
      <trkpt lat="49.20244" lon="1.31939">
        <ele>47.4</ele>
        <time>2018-05-27T09:29:50Z</time>
      </trkpt>
      <trkpt lat="49.20231" lon="1.31942">
        <ele>48.2</ele>
        <time>2018-05-27T09:29:53Z</time>
      </trkpt>
      <trkpt lat="49.20219" lon="1.31945">
        <ele>49</ele>
        <time>2018-05-27T09:29:56Z</time>
      </trkpt>
      <trkpt lat="49.20208" lon="1.31949">
        <ele>49.6</ele>
        <time>2018-05-27T09:29:59Z</time>
      </trkpt>
      <trkpt lat="49.20197" lon="1.31955">
        <ele>50</ele>
        <time>2018-05-27T09:30:02Z</time>
      </trkpt>
      <trkpt lat="49.20186" lon="1.31961">
        <ele>50.3</ele>
        <time>2018-05-27T09:30:05Z</time>
      </trkpt>
      <trkpt lat="49.20175" lon="1.31969">
        <ele>50.8</ele>
        <time>2018-05-27T09:30:08Z</time>
      </trkpt>
      <trkpt lat="49.20164" lon="1.31977">
        <ele>50.7</ele>
        <time>2018-05-27T09:30:11Z</time>
      </trkpt>
      <trkpt lat="49.20153" lon="1.31987">
        <ele>51.3</ele>
        <time>2018-05-27T09:30:14Z</time>
      </trkpt>
      <trkpt lat="49.20145" lon="1.31994">
        <ele>51.5</ele>
        <time>2018-05-27T09:30:16Z</time>
      </trkpt>
      <trkpt lat="49.20133" lon="1.32004">
        <ele>51.8</ele>
        <time>2018-05-27T09:30:19Z</time>
      </trkpt>
      <trkpt lat="49.20122" lon="1.32013">
        <ele>52</ele>
        <time>2018-05-27T09:30:22Z</time>
      </trkpt>
      <trkpt lat="49.2011" lon="1.32018">
        <ele>52.2</ele>
        <time>2018-05-27T09:30:25Z</time>
      </trkpt>
      <trkpt lat="49.20098" lon="1.32021">
        <ele>53</ele>
        <time>2018-05-27T09:30:28Z</time>
      </trkpt>
      <trkpt lat="49.20086" lon="1.32023">
        <ele>53.6</ele>
        <time>2018-05-27T09:30:31Z</time>
      </trkpt>
      <trkpt lat="49.20076" lon="1.32027">
        <ele>54.1</ele>
        <time>2018-05-27T09:30:34Z</time>
      </trkpt>
      <trkpt lat="49.20066" lon="1.32029">
        <ele>54.4</ele>
        <time>2018-05-27T09:30:37Z</time>
      </trkpt>
      <trkpt lat="49.20056" lon="1.32033">
        <ele>54.9</ele>
        <time>2018-05-27T09:30:40Z</time>
      </trkpt>
      <trkpt lat="49.20045" lon="1.32036">
        <ele>55.4</ele>
        <time>2018-05-27T09:30:44Z</time>
      </trkpt>
      <trkpt lat="49.20034" lon="1.32044">
        <ele>56</ele>
        <time>2018-05-27T09:30:48Z</time>
      </trkpt>
      <trkpt lat="49.20025" lon="1.32054">
        <ele>56.7</ele>
        <time>2018-05-27T09:30:52Z</time>
      </trkpt>
      <trkpt lat="49.20015" lon="1.32062">
        <ele>57.2</ele>
        <time>2018-05-27T09:30:56Z</time>
      </trkpt>
      <trkpt lat="49.20007" lon="1.32053">
        <ele>57.3</ele>
        <time>2018-05-27T09:31:00Z</time>
      </trkpt>
      <trkpt lat="49.20008" lon="1.32039">
        <ele>57.7</ele>
        <time>2018-05-27T09:31:03Z</time>
      </trkpt>
      <trkpt lat="49.20013" lon="1.32023">
        <ele>57.9</ele>
        <time>2018-05-27T09:31:06Z</time>
      </trkpt>
      <trkpt lat="49.2002" lon="1.32005">
        <ele>57.9</ele>
        <time>2018-05-27T09:31:09Z</time>
      </trkpt>
      <trkpt lat="49.20025" lon="1.31992">
        <ele>57.7</ele>
        <time>2018-05-27T09:31:11Z</time>
      </trkpt>
      <trkpt lat="49.20021" lon="1.31975">
        <ele>57.6</ele>
        <time>2018-05-27T09:31:14Z</time>
      </trkpt>
      <trkpt lat="49.20009" lon="1.31966">
        <ele>57.6</ele>
        <time>2018-05-27T09:31:17Z</time>
      </trkpt>
      <trkpt lat="49.20001" lon="1.31961">
        <ele>57.7</ele>
        <time>2018-05-27T09:31:19Z</time>
      </trkpt>
      <trkpt lat="49.19992" lon="1.31956">
        <ele>58</ele>
        <time>2018-05-27T09:31:21Z</time>
      </trkpt>
      <trkpt lat="49.1998" lon="1.31949">
        <ele>58.2</ele>
        <time>2018-05-27T09:31:24Z</time>
      </trkpt>
      <trkpt lat="49.19968" lon="1.31942">
        <ele>58.5</ele>
        <time>2018-05-27T09:31:27Z</time>
      </trkpt>
      <trkpt lat="49.19959" lon="1.31937">
        <ele>58.8</ele>
        <time>2018-05-27T09:31:29Z</time>
      </trkpt>
      <trkpt lat="49.1995" lon="1.31932">
        <ele>59.1</ele>
        <time>2018-05-27T09:31:31Z</time>
      </trkpt>
      <trkpt lat="49.19941" lon="1.31927">
        <ele>59.2</ele>
        <time>2018-05-27T09:31:33Z</time>
      </trkpt>
      <trkpt lat="49.19931" lon="1.31922">
        <ele>59.3</ele>
        <time>2018-05-27T09:31:35Z</time>
      </trkpt>
      <trkpt lat="49.19921" lon="1.31917">
        <ele>59.5</ele>
        <time>2018-05-27T09:31:37Z</time>
      </trkpt>
      <trkpt lat="49.19912" lon="1.31912">
        <ele>59.6</ele>
        <time>2018-05-27T09:31:39Z</time>
      </trkpt>
      <trkpt lat="49.19903" lon="1.31907">
        <ele>59.9</ele>
        <time>2018-05-27T09:31:41Z</time>
      </trkpt>
      <trkpt lat="49.19896" lon="1.31898">
        <ele>60.1</ele>
        <time>2018-05-27T09:31:43Z</time>
      </trkpt>
      <trkpt lat="49.19895" lon="1.31883">
        <ele>60</ele>
        <time>2018-05-27T09:31:45Z</time>
      </trkpt>
      <trkpt lat="49.19898" lon="1.31869">
        <ele>60</ele>
        <time>2018-05-27T09:31:47Z</time>
      </trkpt>
      <trkpt lat="49.19905" lon="1.31856">
        <ele>60.3</ele>
        <time>2018-05-27T09:31:49Z</time>
      </trkpt>
      <trkpt lat="49.19912" lon="1.31842">
        <ele>60.2</ele>
        <time>2018-05-27T09:31:51Z</time>
      </trkpt>
      <trkpt lat="49.19919" lon="1.31827">
        <ele>60</ele>
        <time>2018-05-27T09:31:53Z</time>
      </trkpt>
      <trkpt lat="49.19925" lon="1.31811">
        <ele>59.8</ele>
        <time>2018-05-27T09:31:55Z</time>
      </trkpt>
      <trkpt lat="49.19927" lon="1.31793">
        <ele>59.4</ele>
        <time>2018-05-27T09:31:57Z</time>
      </trkpt>
      <trkpt lat="49.19924" lon="1.31774">
        <ele>59</ele>
        <time>2018-05-27T09:31:59Z</time>
      </trkpt>
      <trkpt lat="49.19917" lon="1.31757">
        <ele>58.8</ele>
        <time>2018-05-27T09:32:01Z</time>
      </trkpt>
      <trkpt lat="49.1991" lon="1.31743">
        <ele>58.9</ele>
        <time>2018-05-27T09:32:03Z</time>
      </trkpt>
      <trkpt lat="49.19902" lon="1.3173">
        <ele>58.8</ele>
        <time>2018-05-27T09:32:05Z</time>
      </trkpt>
      <trkpt lat="49.19894" lon="1.31718">
        <ele>58.9</ele>
        <time>2018-05-27T09:32:07Z</time>
      </trkpt>
      <trkpt lat="49.19887" lon="1.31705">
        <ele>59.1</ele>
        <time>2018-05-27T09:32:09Z</time>
      </trkpt>
      <trkpt lat="49.19879" lon="1.31693">
        <ele>59.2</ele>
        <time>2018-05-27T09:32:11Z</time>
      </trkpt>
      <trkpt lat="49.19871" lon="1.31682">
        <ele>59.5</ele>
        <time>2018-05-27T09:32:13Z</time>
      </trkpt>
      <trkpt lat="49.19862" lon="1.31673">
        <ele>59.6</ele>
        <time>2018-05-27T09:32:15Z</time>
      </trkpt>
      <trkpt lat="49.19852" lon="1.31663">
        <ele>60.1</ele>
        <time>2018-05-27T09:32:17Z</time>
      </trkpt>
      <trkpt lat="49.19843" lon="1.31654">
        <ele>60.3</ele>
        <time>2018-05-27T09:32:19Z</time>
      </trkpt>
      <trkpt lat="49.19834" lon="1.31645">
        <ele>60.6</ele>
        <time>2018-05-27T09:32:21Z</time>
      </trkpt>
      <trkpt lat="49.19824" lon="1.31636">
        <ele>60.9</ele>
        <time>2018-05-27T09:32:23Z</time>
      </trkpt>
      <trkpt lat="49.19815" lon="1.31628">
        <ele>61.2</ele>
        <time>2018-05-27T09:32:25Z</time>
      </trkpt>
      <trkpt lat="49.19807" lon="1.31619">
        <ele>61.3</ele>
        <time>2018-05-27T09:32:27Z</time>
      </trkpt>
      <trkpt lat="49.19799" lon="1.31609">
        <ele>61.7</ele>
        <time>2018-05-27T09:32:29Z</time>
      </trkpt>
      <trkpt lat="49.1979" lon="1.31599">
        <ele>61.9</ele>
        <time>2018-05-27T09:32:31Z</time>
      </trkpt>
      <trkpt lat="49.19783" lon="1.31588">
        <ele>62.2</ele>
        <time>2018-05-27T09:32:33Z</time>
      </trkpt>
      <trkpt lat="49.19775" lon="1.31577">
        <ele>62.4</ele>
        <time>2018-05-27T09:32:35Z</time>
      </trkpt>
      <trkpt lat="49.19767" lon="1.31566">
        <ele>62.6</ele>
        <time>2018-05-27T09:32:37Z</time>
      </trkpt>
      <trkpt lat="49.1976" lon="1.31555">
        <ele>62.7</ele>
        <time>2018-05-27T09:32:39Z</time>
      </trkpt>
      <trkpt lat="49.19753" lon="1.31544">
        <ele>62.9</ele>
        <time>2018-05-27T09:32:41Z</time>
      </trkpt>
      <trkpt lat="49.19746" lon="1.31533">
        <ele>63</ele>
        <time>2018-05-27T09:32:43Z</time>
      </trkpt>
      <trkpt lat="49.19738" lon="1.31522">
        <ele>63.1</ele>
        <time>2018-05-27T09:32:45Z</time>
      </trkpt>
      <trkpt lat="49.19732" lon="1.3151">
        <ele>63.2</ele>
        <time>2018-05-27T09:32:47Z</time>
      </trkpt>
      <trkpt lat="49.19726" lon="1.31498">
        <ele>63.4</ele>
        <time>2018-05-27T09:32:49Z</time>
      </trkpt>
      <trkpt lat="49.19721" lon="1.31486">
        <ele>63.7</ele>
        <time>2018-05-27T09:32:51Z</time>
      </trkpt>
      <trkpt lat="49.19714" lon="1.31469">
        <ele>64.1</ele>
        <time>2018-05-27T09:32:54Z</time>
      </trkpt>
      <trkpt lat="49.19708" lon="1.31452">
        <ele>64.2</ele>
        <time>2018-05-27T09:32:57Z</time>
      </trkpt>
      <trkpt lat="49.19705" lon="1.3144">
        <ele>64.4</ele>
        <time>2018-05-27T09:32:59Z</time>
      </trkpt>
      <trkpt lat="49.197" lon="1.31425">
        <ele>64.4</ele>
        <time>2018-05-27T09:33:01Z</time>
      </trkpt>
      <trkpt lat="49.19697" lon="1.31411">
        <ele>64.5</ele>
        <time>2018-05-27T09:33:03Z</time>
      </trkpt>
      <trkpt lat="49.19694" lon="1.31396">
        <ele>64.7</ele>
        <time>2018-05-27T09:33:05Z</time>
      </trkpt>
      <trkpt lat="49.19691" lon="1.31381">
        <ele>64.4</ele>
        <time>2018-05-27T09:33:07Z</time>
      </trkpt>
      <trkpt lat="49.19688" lon="1.31365">
        <ele>64.2</ele>
        <time>2018-05-27T09:33:09Z</time>
      </trkpt>
      <trkpt lat="49.19685" lon="1.31349">
        <ele>64</ele>
        <time>2018-05-27T09:33:11Z</time>
      </trkpt>
      <trkpt lat="49.19682" lon="1.31334">
        <ele>63.8</ele>
        <time>2018-05-27T09:33:13Z</time>
      </trkpt>
      <trkpt lat="49.1968" lon="1.31319">
        <ele>63.9</ele>
        <time>2018-05-27T09:33:15Z</time>
      </trkpt>
      <trkpt lat="49.19676" lon="1.31304">
        <ele>63.9</ele>
        <time>2018-05-27T09:33:17Z</time>
      </trkpt>
      <trkpt lat="49.19671" lon="1.3129">
        <ele>64.2</ele>
        <time>2018-05-27T09:33:19Z</time>
      </trkpt>
      <trkpt lat="49.19665" lon="1.31279">
        <ele>64.4</ele>
        <time>2018-05-27T09:33:21Z</time>
      </trkpt>
      <trkpt lat="49.19656" lon="1.31273">
        <ele>64.5</ele>
        <time>2018-05-27T09:33:23Z</time>
      </trkpt>
      <trkpt lat="49.19645" lon="1.31273">
        <ele>65</ele>
        <time>2018-05-27T09:33:26Z</time>
      </trkpt>
      <trkpt lat="49.19636" lon="1.31274">
        <ele>65.8</ele>
        <time>2018-05-27T09:33:29Z</time>
      </trkpt>
      <trkpt lat="49.19625" lon="1.31274">
        <ele>66.7</ele>
        <time>2018-05-27T09:33:33Z</time>
      </trkpt>
      <trkpt lat="49.19615" lon="1.31274">
        <ele>67.8</ele>
        <time>2018-05-27T09:33:37Z</time>
      </trkpt>
      <trkpt lat="49.19605" lon="1.31274">
        <ele>68.7</ele>
        <time>2018-05-27T09:33:41Z</time>
      </trkpt>
      <trkpt lat="49.19596" lon="1.31274">
        <ele>69.8</ele>
        <time>2018-05-27T09:33:45Z</time>
      </trkpt>
      <trkpt lat="49.19586" lon="1.31275">
        <ele>70.7</ele>
        <time>2018-05-27T09:33:49Z</time>
      </trkpt>
      <trkpt lat="49.19576" lon="1.31273">
        <ele>71.7</ele>
        <time>2018-05-27T09:33:53Z</time>
      </trkpt>
      <trkpt lat="49.19566" lon="1.31273">
        <ele>72.8</ele>
        <time>2018-05-27T09:33:57Z</time>
      </trkpt>
      <trkpt lat="49.19557" lon="1.31273">
        <ele>73.8</ele>
        <time>2018-05-27T09:34:01Z</time>
      </trkpt>
      <trkpt lat="49.19547" lon="1.31274">
        <ele>74.8</ele>
        <time>2018-05-27T09:34:05Z</time>
      </trkpt>
      <trkpt lat="49.19538" lon="1.31274">
        <ele>75.7</ele>
        <time>2018-05-27T09:34:09Z</time>
      </trkpt>
      <trkpt lat="49.19527" lon="1.31276">
        <ele>77</ele>
        <time>2018-05-27T09:34:14Z</time>
      </trkpt>
      <trkpt lat="49.19517" lon="1.31275">
        <ele>78.2</ele>
        <time>2018-05-27T09:34:19Z</time>
      </trkpt>
      <trkpt lat="49.19508" lon="1.31275">
        <ele>79.5</ele>
        <time>2018-05-27T09:34:24Z</time>
      </trkpt>
      <trkpt lat="49.19498" lon="1.31273">
        <ele>80.6</ele>
        <time>2018-05-27T09:34:29Z</time>
      </trkpt>
      <trkpt lat="49.19487" lon="1.31271">
        <ele>81.6</ele>
        <time>2018-05-27T09:34:34Z</time>
      </trkpt>
      <trkpt lat="49.19476" lon="1.31268">
        <ele>82.6</ele>
        <time>2018-05-27T09:34:39Z</time>
      </trkpt>
      <trkpt lat="49.19467" lon="1.31267">
        <ele>83.6</ele>
        <time>2018-05-27T09:34:43Z</time>
      </trkpt>
      <trkpt lat="49.19458" lon="1.31264">
        <ele>84.2</ele>
        <time>2018-05-27T09:34:47Z</time>
      </trkpt>
      <trkpt lat="49.19448" lon="1.31261">
        <ele>84.9</ele>
        <time>2018-05-27T09:34:51Z</time>
      </trkpt>
      <trkpt lat="49.19439" lon="1.31258">
        <ele>85.5</ele>
        <time>2018-05-27T09:34:55Z</time>
      </trkpt>
      <trkpt lat="49.1943" lon="1.31255">
        <ele>86.3</ele>
        <time>2018-05-27T09:34:59Z</time>
      </trkpt>
      <trkpt lat="49.19421" lon="1.31251">
        <ele>87.2</ele>
        <time>2018-05-27T09:35:03Z</time>
      </trkpt>
      <trkpt lat="49.19411" lon="1.31245">
        <ele>88</ele>
        <time>2018-05-27T09:35:07Z</time>
      </trkpt>
      <trkpt lat="49.19402" lon="1.31239">
        <ele>89</ele>
        <time>2018-05-27T09:35:11Z</time>
      </trkpt>
      <trkpt lat="49.19392" lon="1.31235">
        <ele>90</ele>
        <time>2018-05-27T09:35:15Z</time>
      </trkpt>
      <trkpt lat="49.19382" lon="1.31234">
        <ele>91.1</ele>
        <time>2018-05-27T09:35:19Z</time>
      </trkpt>
      <trkpt lat="49.19372" lon="1.31234">
        <ele>92</ele>
        <time>2018-05-27T09:35:23Z</time>
      </trkpt>
      <trkpt lat="49.19363" lon="1.3124">
        <ele>92.9</ele>
        <time>2018-05-27T09:35:27Z</time>
      </trkpt>
      <trkpt lat="49.19355" lon="1.31248">
        <ele>93.8</ele>
        <time>2018-05-27T09:35:31Z</time>
      </trkpt>
      <trkpt lat="49.19346" lon="1.31258">
        <ele>94.9</ele>
        <time>2018-05-27T09:35:36Z</time>
      </trkpt>
      <trkpt lat="49.19339" lon="1.31266">
        <ele>95.7</ele>
        <time>2018-05-27T09:35:40Z</time>
      </trkpt>
      <trkpt lat="49.19331" lon="1.31277">
        <ele>96.5</ele>
        <time>2018-05-27T09:35:44Z</time>
      </trkpt>
      <trkpt lat="49.19324" lon="1.31288">
        <ele>97.2</ele>
        <time>2018-05-27T09:35:48Z</time>
      </trkpt>
      <trkpt lat="49.19319" lon="1.31303">
        <ele>97.9</ele>
        <time>2018-05-27T09:35:52Z</time>
      </trkpt>
      <trkpt lat="49.19314" lon="1.31319">
        <ele>98.7</ele>
        <time>2018-05-27T09:35:56Z</time>
      </trkpt>
      <trkpt lat="49.19312" lon="1.31333">
        <ele>99.3</ele>
        <time>2018-05-27T09:35:59Z</time>
      </trkpt>
      <trkpt lat="49.19312" lon="1.31347">
        <ele>99.7</ele>
        <time>2018-05-27T09:36:02Z</time>
      </trkpt>
      <trkpt lat="49.19311" lon="1.31364">
        <ele>100.1</ele>
        <time>2018-05-27T09:36:05Z</time>
      </trkpt>
      <trkpt lat="49.19309" lon="1.3138">
        <ele>100.4</ele>
        <time>2018-05-27T09:36:08Z</time>
      </trkpt>
      <trkpt lat="49.19307" lon="1.31401">
        <ele>100.4</ele>
        <time>2018-05-27T09:36:11Z</time>
      </trkpt>
      <trkpt lat="49.19304" lon="1.31415">
        <ele>100.4</ele>
        <time>2018-05-27T09:36:13Z</time>
      </trkpt>
      <trkpt lat="49.19297" lon="1.31425">
        <ele>100.3</ele>
        <time>2018-05-27T09:36:15Z</time>
      </trkpt>
      <trkpt lat="49.19286" lon="1.31431">
        <ele>100.4</ele>
        <time>2018-05-27T09:36:18Z</time>
      </trkpt>
      <trkpt lat="49.19275" lon="1.31437">
        <ele>101.1</ele>
        <time>2018-05-27T09:36:21Z</time>
      </trkpt>
      <trkpt lat="49.19265" lon="1.31444">
        <ele>101.7</ele>
        <time>2018-05-27T09:36:24Z</time>
      </trkpt>
      <trkpt lat="49.19255" lon="1.3145">
        <ele>102.3</ele>
        <time>2018-05-27T09:36:27Z</time>
      </trkpt>
      <trkpt lat="49.19247" lon="1.31458">
        <ele>103</ele>
        <time>2018-05-27T09:36:30Z</time>
      </trkpt>
      <trkpt lat="49.19239" lon="1.31466">
        <ele>103.9</ele>
        <time>2018-05-27T09:36:33Z</time>
      </trkpt>
      <trkpt lat="49.19232" lon="1.31475">
        <ele>104.7</ele>
        <time>2018-05-27T09:36:36Z</time>
      </trkpt>
      <trkpt lat="49.19224" lon="1.31486">
        <ele>105.2</ele>
        <time>2018-05-27T09:36:39Z</time>
      </trkpt>
      <trkpt lat="49.19217" lon="1.31496">
        <ele>105.9</ele>
        <time>2018-05-27T09:36:42Z</time>
      </trkpt>
      <trkpt lat="49.19208" lon="1.31505">
        <ele>106.6</ele>
        <time>2018-05-27T09:36:45Z</time>
      </trkpt>
      <trkpt lat="49.192" lon="1.31512">
        <ele>107.1</ele>
        <time>2018-05-27T09:36:48Z</time>
      </trkpt>
      <trkpt lat="49.1919" lon="1.31517">
        <ele>107.8</ele>
        <time>2018-05-27T09:36:51Z</time>
      </trkpt>
      <trkpt lat="49.19181" lon="1.31521">
        <ele>108.3</ele>
        <time>2018-05-27T09:36:54Z</time>
      </trkpt>
      <trkpt lat="49.1917" lon="1.31525">
        <ele>108.7</ele>
        <time>2018-05-27T09:36:57Z</time>
      </trkpt>
      <trkpt lat="49.19161" lon="1.31528">
        <ele>109.2</ele>
        <time>2018-05-27T09:37:00Z</time>
      </trkpt>
      <trkpt lat="49.1915" lon="1.31529">
        <ele>109.9</ele>
        <time>2018-05-27T09:37:04Z</time>
      </trkpt>
      <trkpt lat="49.1914" lon="1.31529">
        <ele>110.4</ele>
        <time>2018-05-27T09:37:07Z</time>
      </trkpt>
      <trkpt lat="49.19128" lon="1.31529">
        <ele>111.1</ele>
        <time>2018-05-27T09:37:11Z</time>
      </trkpt>
      <trkpt lat="49.19117" lon="1.31528">
        <ele>111.7</ele>
        <time>2018-05-27T09:37:15Z</time>
      </trkpt>
      <trkpt lat="49.19108" lon="1.31528">
        <ele>112.2</ele>
        <time>2018-05-27T09:37:18Z</time>
      </trkpt>
      <trkpt lat="49.19098" lon="1.31528">
        <ele>112.7</ele>
        <time>2018-05-27T09:37:21Z</time>
      </trkpt>
      <trkpt lat="49.19088" lon="1.31528">
        <ele>113.1</ele>
        <time>2018-05-27T09:37:24Z</time>
      </trkpt>
      <trkpt lat="49.19077" lon="1.31527">
        <ele>113.5</ele>
        <time>2018-05-27T09:37:27Z</time>
      </trkpt>
      <trkpt lat="49.19067" lon="1.31526">
        <ele>114.2</ele>
        <time>2018-05-27T09:37:30Z</time>
      </trkpt>
      <trkpt lat="49.19056" lon="1.31526">
        <ele>114.7</ele>
        <time>2018-05-27T09:37:33Z</time>
      </trkpt>
      <trkpt lat="49.19045" lon="1.31525">
        <ele>115.2</ele>
        <time>2018-05-27T09:37:36Z</time>
      </trkpt>
      <trkpt lat="49.19034" lon="1.31523">
        <ele>115.6</ele>
        <time>2018-05-27T09:37:39Z</time>
      </trkpt>
      <trkpt lat="49.19023" lon="1.31519">
        <ele>115.9</ele>
        <time>2018-05-27T09:37:42Z</time>
      </trkpt>
      <trkpt lat="49.19013" lon="1.31513">
        <ele>116.2</ele>
        <time>2018-05-27T09:37:45Z</time>
      </trkpt>
      <trkpt lat="49.19002" lon="1.31507">
        <ele>116.5</ele>
        <time>2018-05-27T09:37:48Z</time>
      </trkpt>
      <trkpt lat="49.18992" lon="1.31501">
        <ele>116.8</ele>
        <time>2018-05-27T09:37:51Z</time>
      </trkpt>
      <trkpt lat="49.18982" lon="1.31493">
        <ele>117.2</ele>
        <time>2018-05-27T09:37:54Z</time>
      </trkpt>
      <trkpt lat="49.1897" lon="1.31486">
        <ele>117.9</ele>
        <time>2018-05-27T09:37:57Z</time>
      </trkpt>
      <trkpt lat="49.1896" lon="1.31477">
        <ele>118.2</ele>
        <time>2018-05-27T09:38:00Z</time>
      </trkpt>
      <trkpt lat="49.18951" lon="1.31467">
        <ele>118.6</ele>
        <time>2018-05-27T09:38:04Z</time>
      </trkpt>
      <trkpt lat="49.18944" lon="1.31458">
        <ele>118.9</ele>
        <time>2018-05-27T09:38:07Z</time>
      </trkpt>
      <trkpt lat="49.18935" lon="1.31448">
        <ele>119.1</ele>
        <time>2018-05-27T09:38:11Z</time>
      </trkpt>
      <trkpt lat="49.18926" lon="1.31458">
        <ele>119.5</ele>
        <time>2018-05-27T09:38:15Z</time>
      </trkpt>
      <trkpt lat="49.18917" lon="1.31469">
        <ele>119.5</ele>
        <time>2018-05-27T09:38:17Z</time>
      </trkpt>
      <trkpt lat="49.18911" lon="1.31481">
        <ele>119.5</ele>
        <time>2018-05-27T09:38:19Z</time>
      </trkpt>
      <trkpt lat="49.189" lon="1.31495">
        <ele>119.5</ele>
        <time>2018-05-27T09:38:22Z</time>
      </trkpt>
      <trkpt lat="49.18893" lon="1.31506">
        <ele>119.4</ele>
        <time>2018-05-27T09:38:24Z</time>
      </trkpt>
      <trkpt lat="49.18885" lon="1.31524">
        <ele>119.5</ele>
        <time>2018-05-27T09:38:27Z</time>
      </trkpt>
      <trkpt lat="49.18879" lon="1.31536">
        <ele>119.5</ele>
        <time>2018-05-27T09:38:29Z</time>
      </trkpt>
      <trkpt lat="49.18871" lon="1.31552">
        <ele>119.6</ele>
        <time>2018-05-27T09:38:32Z</time>
      </trkpt>
      <trkpt lat="49.18864" lon="1.31562">
        <ele>119.4</ele>
        <time>2018-05-27T09:38:34Z</time>
      </trkpt>
      <trkpt lat="49.18857" lon="1.31575">
        <ele>119.2</ele>
        <time>2018-05-27T09:38:36Z</time>
      </trkpt>
      <trkpt lat="49.18851" lon="1.31589">
        <ele>119</ele>
        <time>2018-05-27T09:38:38Z</time>
      </trkpt>
      <trkpt lat="49.18846" lon="1.31604">
        <ele>118.8</ele>
        <time>2018-05-27T09:38:40Z</time>
      </trkpt>
      <trkpt lat="49.1884" lon="1.31619">
        <ele>118.4</ele>
        <time>2018-05-27T09:38:42Z</time>
      </trkpt>
      <trkpt lat="49.18837" lon="1.31634">
        <ele>118</ele>
        <time>2018-05-27T09:38:44Z</time>
      </trkpt>
      <trkpt lat="49.18834" lon="1.31648">
        <ele>117.7</ele>
        <time>2018-05-27T09:38:46Z</time>
      </trkpt>
      <trkpt lat="49.1883" lon="1.31668">
        <ele>117.2</ele>
        <time>2018-05-27T09:38:49Z</time>
      </trkpt>
      <trkpt lat="49.18826" lon="1.31682">
        <ele>117.1</ele>
        <time>2018-05-27T09:38:51Z</time>
      </trkpt>
      <trkpt lat="49.18821" lon="1.31696">
        <ele>116.7</ele>
        <time>2018-05-27T09:38:53Z</time>
      </trkpt>
      <trkpt lat="49.18816" lon="1.31709">
        <ele>116.6</ele>
        <time>2018-05-27T09:38:55Z</time>
      </trkpt>
      <trkpt lat="49.1881" lon="1.31722">
        <ele>116.4</ele>
        <time>2018-05-27T09:38:57Z</time>
      </trkpt>
      <trkpt lat="49.18801" lon="1.31737">
        <ele>116.5</ele>
        <time>2018-05-27T09:39:00Z</time>
      </trkpt>
      <trkpt lat="49.18795" lon="1.31749">
        <ele>116.9</ele>
        <time>2018-05-27T09:39:02Z</time>
      </trkpt>
      <trkpt lat="49.18788" lon="1.31766">
        <ele>117.7</ele>
        <time>2018-05-27T09:39:05Z</time>
      </trkpt>
      <trkpt lat="49.18783" lon="1.31782">
        <ele>118</ele>
        <time>2018-05-27T09:39:08Z</time>
      </trkpt>
      <trkpt lat="49.18788" lon="1.31798">
        <ele>118.1</ele>
        <time>2018-05-27T09:39:11Z</time>
      </trkpt>
      <trkpt lat="49.18793" lon="1.31809">
        <ele>118.2</ele>
        <time>2018-05-27T09:39:13Z</time>
      </trkpt>
      <trkpt lat="49.188" lon="1.31821">
        <ele>118.1</ele>
        <time>2018-05-27T09:39:15Z</time>
      </trkpt>
      <trkpt lat="49.18809" lon="1.31839">
        <ele>117.7</ele>
        <time>2018-05-27T09:39:18Z</time>
      </trkpt>
      <trkpt lat="49.18817" lon="1.31852">
        <ele>117.5</ele>
        <time>2018-05-27T09:39:20Z</time>
      </trkpt>
      <trkpt lat="49.18824" lon="1.31865">
        <ele>117.3</ele>
        <time>2018-05-27T09:39:22Z</time>
      </trkpt>
      <trkpt lat="49.18829" lon="1.31881">
        <ele>117.3</ele>
        <time>2018-05-27T09:39:24Z</time>
      </trkpt>
      <trkpt lat="49.18826" lon="1.31898">
        <ele>117.3</ele>
        <time>2018-05-27T09:39:27Z</time>
      </trkpt>
      <trkpt lat="49.1882" lon="1.31913">
        <ele>117.5</ele>
        <time>2018-05-27T09:39:30Z</time>
      </trkpt>
      <trkpt lat="49.18813" lon="1.31925">
        <ele>117.6</ele>
        <time>2018-05-27T09:39:32Z</time>
      </trkpt>
      <trkpt lat="49.18807" lon="1.31937">
        <ele>117.8</ele>
        <time>2018-05-27T09:39:34Z</time>
      </trkpt>
      <trkpt lat="49.18801" lon="1.31954">
        <ele>117.8</ele>
        <time>2018-05-27T09:39:37Z</time>
      </trkpt>
      <trkpt lat="49.18797" lon="1.31968">
        <ele>117.9</ele>
        <time>2018-05-27T09:39:39Z</time>
      </trkpt>
      <trkpt lat="49.18793" lon="1.3198">
        <ele>118</ele>
        <time>2018-05-27T09:39:41Z</time>
      </trkpt>
      <trkpt lat="49.18788" lon="1.31994">
        <ele>118.2</ele>
        <time>2018-05-27T09:39:43Z</time>
      </trkpt>
      <trkpt lat="49.18782" lon="1.32007">
        <ele>118.3</ele>
        <time>2018-05-27T09:39:45Z</time>
      </trkpt>
      <trkpt lat="49.18777" lon="1.32021">
        <ele>118.4</ele>
        <time>2018-05-27T09:39:47Z</time>
      </trkpt>
      <trkpt lat="49.18773" lon="1.32034">
        <ele>118.6</ele>
        <time>2018-05-27T09:39:49Z</time>
      </trkpt>
      <trkpt lat="49.18769" lon="1.32049">
        <ele>118.9</ele>
        <time>2018-05-27T09:39:51Z</time>
      </trkpt>
      <trkpt lat="49.18764" lon="1.32065">
        <ele>119.2</ele>
        <time>2018-05-27T09:39:53Z</time>
      </trkpt>
      <trkpt lat="49.18758" lon="1.3208">
        <ele>119.7</ele>
        <time>2018-05-27T09:39:55Z</time>
      </trkpt>
      <trkpt lat="49.18753" lon="1.32094">
        <ele>119.9</ele>
        <time>2018-05-27T09:39:57Z</time>
      </trkpt>
      <trkpt lat="49.18748" lon="1.32106">
        <ele>120.1</ele>
        <time>2018-05-27T09:39:59Z</time>
      </trkpt>
      <trkpt lat="49.18743" lon="1.3212">
        <ele>120.4</ele>
        <time>2018-05-27T09:40:01Z</time>
      </trkpt>
      <trkpt lat="49.18737" lon="1.32134">
        <ele>120.5</ele>
        <time>2018-05-27T09:40:03Z</time>
      </trkpt>
      <trkpt lat="49.18732" lon="1.32151">
        <ele>120.6</ele>
        <time>2018-05-27T09:40:05Z</time>
      </trkpt>
      <trkpt lat="49.18728" lon="1.32167">
        <ele>120.6</ele>
        <time>2018-05-27T09:40:07Z</time>
      </trkpt>
      <trkpt lat="49.18723" lon="1.32182">
        <ele>120.7</ele>
        <time>2018-05-27T09:40:09Z</time>
      </trkpt>
      <trkpt lat="49.18719" lon="1.32196">
        <ele>120.8</ele>
        <time>2018-05-27T09:40:11Z</time>
      </trkpt>
      <trkpt lat="49.18715" lon="1.3221">
        <ele>120.8</ele>
        <time>2018-05-27T09:40:13Z</time>
      </trkpt>
      <trkpt lat="49.18712" lon="1.32225">
        <ele>121</ele>
        <time>2018-05-27T09:40:15Z</time>
      </trkpt>
      <trkpt lat="49.1871" lon="1.32241">
        <ele>121.1</ele>
        <time>2018-05-27T09:40:17Z</time>
      </trkpt>
      <trkpt lat="49.1871" lon="1.32258">
        <ele>121.1</ele>
        <time>2018-05-27T09:40:19Z</time>
      </trkpt>
      <trkpt lat="49.18712" lon="1.32274">
        <ele>120.9</ele>
        <time>2018-05-27T09:40:21Z</time>
      </trkpt>
      <trkpt lat="49.18715" lon="1.32288">
        <ele>120.5</ele>
        <time>2018-05-27T09:40:23Z</time>
      </trkpt>
      <trkpt lat="49.18719" lon="1.32301">
        <ele>120.3</ele>
        <time>2018-05-27T09:40:25Z</time>
      </trkpt>
      <trkpt lat="49.18726" lon="1.32317">
        <ele>120</ele>
        <time>2018-05-27T09:40:27Z</time>
      </trkpt>
      <trkpt lat="49.18734" lon="1.32331">
        <ele>119.6</ele>
        <time>2018-05-27T09:40:29Z</time>
      </trkpt>
      <trkpt lat="49.18743" lon="1.32344">
        <ele>119.3</ele>
        <time>2018-05-27T09:40:31Z</time>
      </trkpt>
      <trkpt lat="49.18753" lon="1.32356">
        <ele>119.1</ele>
        <time>2018-05-27T09:40:33Z</time>
      </trkpt>
      <trkpt lat="49.18763" lon="1.32371">
        <ele>118.4</ele>
        <time>2018-05-27T09:40:35Z</time>
      </trkpt>
      <trkpt lat="49.18774" lon="1.32385">
        <ele>118.1</ele>
        <time>2018-05-27T09:40:37Z</time>
      </trkpt>
      <trkpt lat="49.18784" lon="1.32398">
        <ele>117.7</ele>
        <time>2018-05-27T09:40:39Z</time>
      </trkpt>
      <trkpt lat="49.18794" lon="1.32412">
        <ele>117.3</ele>
        <time>2018-05-27T09:40:41Z</time>
      </trkpt>
      <trkpt lat="49.18803" lon="1.32427">
        <ele>117</ele>
        <time>2018-05-27T09:40:43Z</time>
      </trkpt>
      <trkpt lat="49.1881" lon="1.32439">
        <ele>116.5</ele>
        <time>2018-05-27T09:40:45Z</time>
      </trkpt>
      <trkpt lat="49.18804" lon="1.32452">
        <ele>115.4</ele>
        <time>2018-05-27T09:40:50Z</time>
      </trkpt>
      <trkpt lat="49.18796" lon="1.32464">
        <ele>115.2</ele>
        <time>2018-05-27T09:40:53Z</time>
      </trkpt>
      <trkpt lat="49.18786" lon="1.32478">
        <ele>115.3</ele>
        <time>2018-05-27T09:40:56Z</time>
      </trkpt>
      <trkpt lat="49.18779" lon="1.32487">
        <ele>115.4</ele>
        <time>2018-05-27T09:40:58Z</time>
      </trkpt>
      <trkpt lat="49.18771" lon="1.32496">
        <ele>115.6</ele>
        <time>2018-05-27T09:41:00Z</time>
      </trkpt>
      <trkpt lat="49.18762" lon="1.32504">
        <ele>116</ele>
        <time>2018-05-27T09:41:02Z</time>
      </trkpt>
      <trkpt lat="49.18754" lon="1.32514">
        <ele>116.4</ele>
        <time>2018-05-27T09:41:04Z</time>
      </trkpt>
      <trkpt lat="49.18747" lon="1.32525">
        <ele>116.8</ele>
        <time>2018-05-27T09:41:06Z</time>
      </trkpt>
      <trkpt lat="49.1874" lon="1.32535">
        <ele>117.1</ele>
        <time>2018-05-27T09:41:08Z</time>
      </trkpt>
      <trkpt lat="49.18735" lon="1.32546">
        <ele>117.2</ele>
        <time>2018-05-27T09:41:10Z</time>
      </trkpt>
      <trkpt lat="49.1873" lon="1.32564">
        <ele>117.2</ele>
        <time>2018-05-27T09:41:13Z</time>
      </trkpt>
      <trkpt lat="49.18727" lon="1.32577">
        <ele>117.3</ele>
        <time>2018-05-27T09:41:15Z</time>
      </trkpt>
      <trkpt lat="49.18723" lon="1.32591">
        <ele>117.4</ele>
        <time>2018-05-27T09:41:17Z</time>
      </trkpt>
      <trkpt lat="49.1872" lon="1.32604">
        <ele>117.6</ele>
        <time>2018-05-27T09:41:19Z</time>
      </trkpt>
      <trkpt lat="49.18717" lon="1.32619">
        <ele>117.6</ele>
        <time>2018-05-27T09:41:21Z</time>
      </trkpt>
      <trkpt lat="49.18713" lon="1.32632">
        <ele>117.8</ele>
        <time>2018-05-27T09:41:23Z</time>
      </trkpt>
      <trkpt lat="49.18709" lon="1.32645">
        <ele>117.9</ele>
        <time>2018-05-27T09:41:25Z</time>
      </trkpt>
      <trkpt lat="49.18705" lon="1.32658">
        <ele>118</ele>
        <time>2018-05-27T09:41:27Z</time>
      </trkpt>
      <trkpt lat="49.18702" lon="1.32671">
        <ele>117.9</ele>
        <time>2018-05-27T09:41:29Z</time>
      </trkpt>
      <trkpt lat="49.18698" lon="1.32685">
        <ele>118</ele>
        <time>2018-05-27T09:41:31Z</time>
      </trkpt>
      <trkpt lat="49.18696" lon="1.327">
        <ele>118.1</ele>
        <time>2018-05-27T09:41:33Z</time>
      </trkpt>
      <trkpt lat="49.18693" lon="1.32719">
        <ele>118.3</ele>
        <time>2018-05-27T09:41:36Z</time>
      </trkpt>
      <trkpt lat="49.1869" lon="1.32732">
        <ele>118.4</ele>
        <time>2018-05-27T09:41:38Z</time>
      </trkpt>
      <trkpt lat="49.18687" lon="1.32749">
        <ele>118.2</ele>
        <time>2018-05-27T09:41:41Z</time>
      </trkpt>
      <trkpt lat="49.18694" lon="1.32758">
        <ele>117.5</ele>
        <time>2018-05-27T09:41:45Z</time>
      </trkpt>
      <trkpt lat="49.18703" lon="1.32765">
        <ele>117</ele>
        <time>2018-05-27T09:41:49Z</time>
      </trkpt>
      <trkpt lat="49.18713" lon="1.3277">
        <ele>116.8</ele>
        <time>2018-05-27T09:41:51Z</time>
      </trkpt>
      <trkpt lat="49.18722" lon="1.32778">
        <ele>116.6</ele>
        <time>2018-05-27T09:41:53Z</time>
      </trkpt>
      <trkpt lat="49.18733" lon="1.32786">
        <ele>116.3</ele>
        <time>2018-05-27T09:41:55Z</time>
      </trkpt>
      <trkpt lat="49.18743" lon="1.32795">
        <ele>115.7</ele>
        <time>2018-05-27T09:41:57Z</time>
      </trkpt>
      <trkpt lat="49.18752" lon="1.32805">
        <ele>115.3</ele>
        <time>2018-05-27T09:41:59Z</time>
      </trkpt>
      <trkpt lat="49.18761" lon="1.32813">
        <ele>114.8</ele>
        <time>2018-05-27T09:42:01Z</time>
      </trkpt>
      <trkpt lat="49.18774" lon="1.32826">
        <ele>114.1</ele>
        <time>2018-05-27T09:42:03Z</time>
      </trkpt>
      <trkpt lat="49.18788" lon="1.32834">
        <ele>113.3</ele>
        <time>2018-05-27T09:42:05Z</time>
      </trkpt>
      <trkpt lat="49.18802" lon="1.3284">
        <ele>112.5</ele>
        <time>2018-05-27T09:42:07Z</time>
      </trkpt>
      <trkpt lat="49.18812" lon="1.32838">
        <ele>111.7</ele>
        <time>2018-05-27T09:42:09Z</time>
      </trkpt>
      <trkpt lat="49.18823" lon="1.32837">
        <ele>110.7</ele>
        <time>2018-05-27T09:42:11Z</time>
      </trkpt>
      <trkpt lat="49.18838" lon="1.32842">
        <ele>109.9</ele>
        <time>2018-05-27T09:42:13Z</time>
      </trkpt>
      <trkpt lat="49.18851" lon="1.32851">
        <ele>108.8</ele>
        <time>2018-05-27T09:42:15Z</time>
      </trkpt>
      <trkpt lat="49.18864" lon="1.32859">
        <ele>107.5</ele>
        <time>2018-05-27T09:42:17Z</time>
      </trkpt>
      <trkpt lat="49.18877" lon="1.32867">
        <ele>106</ele>
        <time>2018-05-27T09:42:19Z</time>
      </trkpt>
      <trkpt lat="49.18889" lon="1.32874">
        <ele>104.8</ele>
        <time>2018-05-27T09:42:21Z</time>
      </trkpt>
      <trkpt lat="49.18906" lon="1.32877">
        <ele>103.1</ele>
        <time>2018-05-27T09:42:23Z</time>
      </trkpt>
      <trkpt lat="49.18915" lon="1.32882">
        <ele>102.5</ele>
        <time>2018-05-27T09:42:24Z</time>
      </trkpt>
      <trkpt lat="49.18928" lon="1.32894">
        <ele>101.3</ele>
        <time>2018-05-27T09:42:26Z</time>
      </trkpt>
      <trkpt lat="49.1894" lon="1.32904">
        <ele>100.1</ele>
        <time>2018-05-27T09:42:28Z</time>
      </trkpt>
      <trkpt lat="49.1895" lon="1.32919">
        <ele>98.5</ele>
        <time>2018-05-27T09:42:30Z</time>
      </trkpt>
      <trkpt lat="49.18959" lon="1.32926">
        <ele>97.9</ele>
        <time>2018-05-27T09:42:31Z</time>
      </trkpt>
      <trkpt lat="49.18972" lon="1.32931">
        <ele>96.2</ele>
        <time>2018-05-27T09:42:33Z</time>
      </trkpt>
      <trkpt lat="49.18986" lon="1.32935">
        <ele>94.2</ele>
        <time>2018-05-27T09:42:36Z</time>
      </trkpt>
      <trkpt lat="49.18995" lon="1.32937">
        <ele>92.9</ele>
        <time>2018-05-27T09:42:38Z</time>
      </trkpt>
      <trkpt lat="49.1899" lon="1.32949">
        <ele>90.9</ele>
        <time>2018-05-27T09:42:42Z</time>
      </trkpt>
      <trkpt lat="49.1898" lon="1.32955">
        <ele>90.3</ele>
        <time>2018-05-27T09:42:45Z</time>
      </trkpt>
      <trkpt lat="49.1897" lon="1.32962">
        <ele>89.3</ele>
        <time>2018-05-27T09:42:48Z</time>
      </trkpt>
      <trkpt lat="49.1896" lon="1.32969">
        <ele>89</ele>
        <time>2018-05-27T09:42:51Z</time>
      </trkpt>
      <trkpt lat="49.1895" lon="1.32976">
        <ele>88</ele>
        <time>2018-05-27T09:42:54Z</time>
      </trkpt>
      <trkpt lat="49.18942" lon="1.32983">
        <ele>87.3</ele>
        <time>2018-05-27T09:42:59Z</time>
      </trkpt>
      <trkpt lat="49.18933" lon="1.32988">
        <ele>87</ele>
        <time>2018-05-27T09:43:10Z</time>
      </trkpt>
      <trkpt lat="49.18923" lon="1.32997">
        <ele>87.2</ele>
        <time>2018-05-27T09:43:15Z</time>
      </trkpt>
      <trkpt lat="49.18913" lon="1.33">
        <ele>87.2</ele>
        <time>2018-05-27T09:43:18Z</time>
      </trkpt>
      <trkpt lat="49.18899" lon="1.33003">
        <ele>86.9</ele>
        <time>2018-05-27T09:43:21Z</time>
      </trkpt>
      <trkpt lat="49.18888" lon="1.33001">
        <ele>86.7</ele>
        <time>2018-05-27T09:43:23Z</time>
      </trkpt>
      <trkpt lat="49.18877" lon="1.32998">
        <ele>86.3</ele>
        <time>2018-05-27T09:43:26Z</time>
      </trkpt>
      <trkpt lat="49.18867" lon="1.33">
        <ele>87</ele>
        <time>2018-05-27T09:43:29Z</time>
      </trkpt>
      <trkpt lat="49.18855" lon="1.32998">
        <ele>87.2</ele>
        <time>2018-05-27T09:43:33Z</time>
      </trkpt>
      <trkpt lat="49.18843" lon="1.32998">
        <ele>87.2</ele>
        <time>2018-05-27T09:43:36Z</time>
      </trkpt>
      <trkpt lat="49.18834" lon="1.32997">
        <ele>87.1</ele>
        <time>2018-05-27T09:43:41Z</time>
      </trkpt>
      <trkpt lat="49.18824" lon="1.32996">
        <ele>87</ele>
        <time>2018-05-27T09:43:49Z</time>
      </trkpt>
      <trkpt lat="49.18813" lon="1.32991">
        <ele>87.3</ele>
        <time>2018-05-27T09:43:52Z</time>
      </trkpt>
      <trkpt lat="49.18802" lon="1.32991">
        <ele>87.7</ele>
        <time>2018-05-27T09:43:56Z</time>
      </trkpt>
      <trkpt lat="49.18793" lon="1.32993">
        <ele>87.8</ele>
        <time>2018-05-27T09:43:59Z</time>
      </trkpt>
      <trkpt lat="49.18783" lon="1.32999">
        <ele>87.2</ele>
        <time>2018-05-27T09:44:03Z</time>
      </trkpt>
      <trkpt lat="49.18772" lon="1.32997">
        <ele>86.1</ele>
        <time>2018-05-27T09:44:09Z</time>
      </trkpt>
      <trkpt lat="49.18761" lon="1.32999">
        <ele>85.7</ele>
        <time>2018-05-27T09:44:12Z</time>
      </trkpt>
      <trkpt lat="49.18747" lon="1.33002">
        <ele>85</ele>
        <time>2018-05-27T09:44:15Z</time>
      </trkpt>
      <trkpt lat="49.18738" lon="1.33001">
        <ele>84.9</ele>
        <time>2018-05-27T09:44:17Z</time>
      </trkpt>
      <trkpt lat="49.18727" lon="1.32999">
        <ele>84.5</ele>
        <time>2018-05-27T09:44:19Z</time>
      </trkpt>
      <trkpt lat="49.18718" lon="1.32996">
        <ele>84.2</ele>
        <time>2018-05-27T09:44:21Z</time>
      </trkpt>
      <trkpt lat="49.18708" lon="1.32988">
        <ele>83.7</ele>
        <time>2018-05-27T09:44:24Z</time>
      </trkpt>
      <trkpt lat="49.18701" lon="1.32976">
        <ele>83.7</ele>
        <time>2018-05-27T09:44:28Z</time>
      </trkpt>
      <trkpt lat="49.18693" lon="1.32969">
        <ele>83.7</ele>
        <time>2018-05-27T09:44:31Z</time>
      </trkpt>
      <trkpt lat="49.18682" lon="1.32964">
        <ele>83.1</ele>
        <time>2018-05-27T09:44:34Z</time>
      </trkpt>
      <trkpt lat="49.18673" lon="1.32961">
        <ele>82.3</ele>
        <time>2018-05-27T09:44:36Z</time>
      </trkpt>
      <trkpt lat="49.18662" lon="1.32958">
        <ele>80.9</ele>
        <time>2018-05-27T09:44:40Z</time>
      </trkpt>
      <trkpt lat="49.18651" lon="1.32951">
        <ele>80.7</ele>
        <time>2018-05-27T09:44:43Z</time>
      </trkpt>
      <trkpt lat="49.18642" lon="1.32943">
        <ele>81</ele>
        <time>2018-05-27T09:44:46Z</time>
      </trkpt>
      <trkpt lat="49.18633" lon="1.32935">
        <ele>81.3</ele>
        <time>2018-05-27T09:44:49Z</time>
      </trkpt>
      <trkpt lat="49.18623" lon="1.32927">
        <ele>81.9</ele>
        <time>2018-05-27T09:44:52Z</time>
      </trkpt>
      <trkpt lat="49.18616" lon="1.32918">
        <ele>82</ele>
        <time>2018-05-27T09:44:55Z</time>
      </trkpt>
      <trkpt lat="49.18607" lon="1.32906">
        <ele>81.7</ele>
        <time>2018-05-27T09:44:58Z</time>
      </trkpt>
      <trkpt lat="49.18598" lon="1.32894">
        <ele>81.4</ele>
        <time>2018-05-27T09:45:01Z</time>
      </trkpt>
      <trkpt lat="49.1859" lon="1.32887">
        <ele>80.9</ele>
        <time>2018-05-27T09:45:03Z</time>
      </trkpt>
      <trkpt lat="49.1858" lon="1.32885">
        <ele>80.7</ele>
        <time>2018-05-27T09:45:05Z</time>
      </trkpt>
      <trkpt lat="49.18569" lon="1.32888">
        <ele>80.6</ele>
        <time>2018-05-27T09:45:07Z</time>
      </trkpt>
      <trkpt lat="49.1856" lon="1.3289">
        <ele>80.5</ele>
        <time>2018-05-27T09:45:09Z</time>
      </trkpt>
      <trkpt lat="49.18545" lon="1.3289">
        <ele>80.6</ele>
        <time>2018-05-27T09:45:12Z</time>
      </trkpt>
      <trkpt lat="49.18534" lon="1.32889">
        <ele>80.4</ele>
        <time>2018-05-27T09:45:14Z</time>
      </trkpt>
      <trkpt lat="49.18519" lon="1.32887">
        <ele>80</ele>
        <time>2018-05-27T09:45:16Z</time>
      </trkpt>
      <trkpt lat="49.18504" lon="1.32882">
        <ele>79.7</ele>
        <time>2018-05-27T09:45:18Z</time>
      </trkpt>
      <trkpt lat="49.18492" lon="1.32875">
        <ele>79.1</ele>
        <time>2018-05-27T09:45:20Z</time>
      </trkpt>
      <trkpt lat="49.1848" lon="1.32864">
        <ele>78.3</ele>
        <time>2018-05-27T09:45:22Z</time>
      </trkpt>
      <trkpt lat="49.18469" lon="1.32855">
        <ele>76.8</ele>
        <time>2018-05-27T09:45:24Z</time>
      </trkpt>
      <trkpt lat="49.18456" lon="1.32845">
        <ele>75.2</ele>
        <time>2018-05-27T09:45:26Z</time>
      </trkpt>
      <trkpt lat="49.18446" lon="1.32832">
        <ele>73.6</ele>
        <time>2018-05-27T09:45:28Z</time>
      </trkpt>
      <trkpt lat="49.18438" lon="1.32816">
        <ele>72.3</ele>
        <time>2018-05-27T09:45:30Z</time>
      </trkpt>
      <trkpt lat="49.18432" lon="1.32799">
        <ele>70.9</ele>
        <time>2018-05-27T09:45:32Z</time>
      </trkpt>
      <trkpt lat="49.18426" lon="1.32782">
        <ele>69.1</ele>
        <time>2018-05-27T09:45:34Z</time>
      </trkpt>
      <trkpt lat="49.1842" lon="1.32771">
        <ele>66.8</ele>
        <time>2018-05-27T09:45:36Z</time>
      </trkpt>
      <trkpt lat="49.18414" lon="1.32757">
        <ele>63.7</ele>
        <time>2018-05-27T09:45:39Z</time>
      </trkpt>
      <trkpt lat="49.18408" lon="1.32746">
        <ele>61</ele>
        <time>2018-05-27T09:45:43Z</time>
      </trkpt>
      <trkpt lat="49.18398" lon="1.32744">
        <ele>59.3</ele>
        <time>2018-05-27T09:45:47Z</time>
      </trkpt>
      <trkpt lat="49.18388" lon="1.32749">
        <ele>57.7</ele>
        <time>2018-05-27T09:45:51Z</time>
      </trkpt>
      <trkpt lat="49.18378" lon="1.32751">
        <ele>56.3</ele>
        <time>2018-05-27T09:45:54Z</time>
      </trkpt>
      <trkpt lat="49.18368" lon="1.32757">
        <ele>55.3</ele>
        <time>2018-05-27T09:45:57Z</time>
      </trkpt>
      <trkpt lat="49.1836" lon="1.32766">
        <ele>53.8</ele>
        <time>2018-05-27T09:46:00Z</time>
      </trkpt>
      <trkpt lat="49.1835" lon="1.32779">
        <ele>52.3</ele>
        <time>2018-05-27T09:46:03Z</time>
      </trkpt>
      <trkpt lat="49.18342" lon="1.3279">
        <ele>51.2</ele>
        <time>2018-05-27T09:46:05Z</time>
      </trkpt>
      <trkpt lat="49.18335" lon="1.32806">
        <ele>49.5</ele>
        <time>2018-05-27T09:46:07Z</time>
      </trkpt>
      <trkpt lat="49.1833" lon="1.32823">
        <ele>47.6</ele>
        <time>2018-05-27T09:46:09Z</time>
      </trkpt>
      <trkpt lat="49.18324" lon="1.32838">
        <ele>45.8</ele>
        <time>2018-05-27T09:46:11Z</time>
      </trkpt>
      <trkpt lat="49.18315" lon="1.32846">
        <ele>44.6</ele>
        <time>2018-05-27T09:46:13Z</time>
      </trkpt>
      <trkpt lat="49.1831" lon="1.32859">
        <ele>42.8</ele>
        <time>2018-05-27T09:46:16Z</time>
      </trkpt>
      <trkpt lat="49.18319" lon="1.32867">
        <ele>40.8</ele>
        <time>2018-05-27T09:46:20Z</time>
      </trkpt>
      <trkpt lat="49.18328" lon="1.32876">
        <ele>39.2</ele>
        <time>2018-05-27T09:46:24Z</time>
      </trkpt>
      <trkpt lat="49.18321" lon="1.32886">
        <ele>37.7</ele>
        <time>2018-05-27T09:46:28Z</time>
      </trkpt>
      <trkpt lat="49.18309" lon="1.32891">
        <ele>36.6</ele>
        <time>2018-05-27T09:46:31Z</time>
      </trkpt>
      <trkpt lat="49.18302" lon="1.32904">
        <ele>35.8</ele>
        <time>2018-05-27T09:46:33Z</time>
      </trkpt>
      <trkpt lat="49.18296" lon="1.32917">
        <ele>34.8</ele>
        <time>2018-05-27T09:46:35Z</time>
      </trkpt>
      <trkpt lat="49.18294" lon="1.32934">
        <ele>33.6</ele>
        <time>2018-05-27T09:46:37Z</time>
      </trkpt>
      <trkpt lat="49.18292" lon="1.32954">
        <ele>31.9</ele>
        <time>2018-05-27T09:46:40Z</time>
      </trkpt>
      <trkpt lat="49.18294" lon="1.3297">
        <ele>30.8</ele>
        <time>2018-05-27T09:46:42Z</time>
      </trkpt>
      <trkpt lat="49.18294" lon="1.32985">
        <ele>29.2</ele>
        <time>2018-05-27T09:46:45Z</time>
      </trkpt>
      <trkpt lat="49.18296" lon="1.33">
        <ele>26.9</ele>
        <time>2018-05-27T09:46:50Z</time>
      </trkpt>
      <trkpt lat="49.18296" lon="1.33019">
        <ele>26.3</ele>
        <time>2018-05-27T09:46:53Z</time>
      </trkpt>
      <trkpt lat="49.18294" lon="1.33038">
        <ele>25.6</ele>
        <time>2018-05-27T09:46:55Z</time>
      </trkpt>
      <trkpt lat="49.18288" lon="1.33057">
        <ele>24.5</ele>
        <time>2018-05-27T09:46:57Z</time>
      </trkpt>
      <trkpt lat="49.18284" lon="1.33079">
        <ele>23.7</ele>
        <time>2018-05-27T09:46:59Z</time>
      </trkpt>
      <trkpt lat="49.18279" lon="1.33095">
        <ele>22.9</ele>
        <time>2018-05-27T09:47:01Z</time>
      </trkpt>
      <trkpt lat="49.18273" lon="1.33109">
        <ele>21.9</ele>
        <time>2018-05-27T09:47:04Z</time>
      </trkpt>
      <trkpt lat="49.18275" lon="1.33093">
        <ele>19.9</ele>
        <time>2018-05-27T09:47:39Z</time>
      </trkpt>
      <trkpt lat="49.18282" lon="1.33081">
        <ele>20.3</ele>
        <time>2018-05-27T09:47:43Z</time>
      </trkpt>
      <trkpt lat="49.18285" lon="1.33065">
        <ele>20.4</ele>
        <time>2018-05-27T09:47:46Z</time>
      </trkpt>
      <trkpt lat="49.18289" lon="1.3305">
        <ele>20.8</ele>
        <time>2018-05-27T09:47:49Z</time>
      </trkpt>
      <trkpt lat="49.18294" lon="1.33038">
        <ele>21.3</ele>
        <time>2018-05-27T09:47:52Z</time>
      </trkpt>
      <trkpt lat="49.183" lon="1.33026">
        <ele>22.3</ele>
        <time>2018-05-27T09:47:56Z</time>
      </trkpt>
      <trkpt lat="49.18307" lon="1.33017">
        <ele>23.5</ele>
        <time>2018-05-27T09:48:01Z</time>
      </trkpt>
      <trkpt lat="49.18317" lon="1.33015">
        <ele>24.4</ele>
        <time>2018-05-27T09:48:07Z</time>
      </trkpt>
      <trkpt lat="49.18327" lon="1.33018">
        <ele>24.9</ele>
        <time>2018-05-27T09:48:11Z</time>
      </trkpt>
      <trkpt lat="49.18338" lon="1.33021">
        <ele>25.1</ele>
        <time>2018-05-27T09:48:15Z</time>
      </trkpt>
      <trkpt lat="49.18348" lon="1.33024">
        <ele>25.2</ele>
        <time>2018-05-27T09:48:18Z</time>
      </trkpt>
      <trkpt lat="49.18359" lon="1.33028">
        <ele>25.3</ele>
        <time>2018-05-27T09:48:22Z</time>
      </trkpt>
      <trkpt lat="49.1837" lon="1.33033">
        <ele>25.4</ele>
        <time>2018-05-27T09:48:26Z</time>
      </trkpt>
      <trkpt lat="49.1838" lon="1.33037">
        <ele>25.4</ele>
        <time>2018-05-27T09:48:30Z</time>
      </trkpt>
      <trkpt lat="49.1839" lon="1.33038">
        <ele>25.4</ele>
        <time>2018-05-27T09:48:35Z</time>
      </trkpt>
      <trkpt lat="49.18399" lon="1.3304">
        <ele>24.7</ele>
        <time>2018-05-27T09:49:34Z</time>
      </trkpt>
      <trkpt lat="49.18399" lon="1.3304">
        <ele>24.8</ele>
        <time>2018-05-27T09:49:34Z</time>
      </trkpt>
      <trkpt lat="49.18399" lon="1.3304">
        <ele>24.8</ele>
        <time>2018-05-27T09:49:34Z</time>
      </trkpt>
      <trkpt lat="49.18399" lon="1.3304">
        <ele>24.8</ele>
        <time>2018-05-27T09:49:34Z</time>
      </trkpt>
    </trkseg>
  </trk>
</gpx>